<?xml version="1.0" encoding="UTF-8" standalone="no" ?>
<gpx xmlns="http://www.topografix.com/GPX/1/1" xmlns:xsi="http://www.w3.org/2001/XMLSchema-instance" xsi:schemaLocation="http://www.topografix.com/GPX/1/1 http://www.topografix.com/GPX/1/1/gpx.xsd" version="1.1" creator="VisuGPX - https://www.visugpx.com">
  <metadata>
    <name>Peyrieu 2017</name>
    <desc><![CDATA[Au départ des tennis 
Tour sans soucis bon terrain ]]></desc>
  </metadata>
  <trk>
    <name><![CDATA[Peyrieu 2017_1]]></name>
    <trkseg>
      <trkpt lat="45.67618" lon="5.67936">
        <ele>227</ele>
        <time>2017-09-03T10:35:02Z</time>
      </trkpt>
      <trkpt lat="45.67618" lon="5.67938">
        <ele>227</ele>
        <time>2017-09-03T10:35:02Z</time>
      </trkpt>
      <trkpt lat="45.67619" lon="5.67937">
        <ele>227</ele>
        <time>2017-09-03T10:35:02Z</time>
      </trkpt>
      <trkpt lat="45.67623" lon="5.67926">
        <ele>227</ele>
        <time>2017-09-03T10:35:02Z</time>
      </trkpt>
      <trkpt lat="45.67626" lon="5.67927">
        <ele>227</ele>
        <time>2017-09-03T10:35:02Z</time>
      </trkpt>
      <trkpt lat="45.67629" lon="5.67927">
        <ele>227</ele>
        <time>2017-09-03T10:35:18Z</time>
      </trkpt>
      <trkpt lat="45.67631" lon="5.67922">
        <ele>227</ele>
        <time>2017-09-03T10:35:18Z</time>
      </trkpt>
      <trkpt lat="45.67633" lon="5.67913">
        <ele>227</ele>
        <time>2017-09-03T10:35:18Z</time>
      </trkpt>
      <trkpt lat="45.67635" lon="5.67902">
        <ele>227</ele>
        <time>2017-09-03T10:35:18Z</time>
      </trkpt>
      <trkpt lat="45.67639" lon="5.67893">
        <ele>227</ele>
        <time>2017-09-03T10:35:34Z</time>
      </trkpt>
      <trkpt lat="45.67643" lon="5.67891">
        <ele>227</ele>
        <time>2017-09-03T10:35:34Z</time>
      </trkpt>
      <trkpt lat="45.67649" lon="5.67893">
        <ele>227</ele>
        <time>2017-09-03T10:35:34Z</time>
      </trkpt>
      <trkpt lat="45.67655" lon="5.67892">
        <ele>227</ele>
        <time>2017-09-03T10:35:34Z</time>
      </trkpt>
      <trkpt lat="45.6766" lon="5.6789">
        <ele>227</ele>
        <time>2017-09-03T10:35:50Z</time>
      </trkpt>
      <trkpt lat="45.67667" lon="5.67886">
        <ele>227</ele>
        <time>2017-09-03T10:35:50Z</time>
      </trkpt>
      <trkpt lat="45.6767" lon="5.67893">
        <ele>227</ele>
        <time>2017-09-03T10:35:50Z</time>
      </trkpt>
      <trkpt lat="45.67673" lon="5.679">
        <ele>227</ele>
        <time>2017-09-03T10:35:50Z</time>
      </trkpt>
      <trkpt lat="45.67678" lon="5.67907">
        <ele>227</ele>
        <time>2017-09-03T10:36:06Z</time>
      </trkpt>
      <trkpt lat="45.67685" lon="5.6791">
        <ele>227</ele>
        <time>2017-09-03T10:36:06Z</time>
      </trkpt>
      <trkpt lat="45.67693" lon="5.67906">
        <ele>227</ele>
        <time>2017-09-03T10:36:06Z</time>
      </trkpt>
      <trkpt lat="45.677" lon="5.67901">
        <ele>227</ele>
        <time>2017-09-03T10:36:06Z</time>
      </trkpt>
      <trkpt lat="45.67705" lon="5.67901">
        <ele>227</ele>
        <time>2017-09-03T10:36:22Z</time>
      </trkpt>
      <trkpt lat="45.6771" lon="5.67903">
        <ele>228</ele>
        <time>2017-09-03T10:36:22Z</time>
      </trkpt>
      <trkpt lat="45.67715" lon="5.67906">
        <ele>228</ele>
        <time>2017-09-03T10:36:22Z</time>
      </trkpt>
      <trkpt lat="45.6772" lon="5.67906">
        <ele>228</ele>
        <time>2017-09-03T10:36:22Z</time>
      </trkpt>
      <trkpt lat="45.67726" lon="5.67901">
        <ele>228</ele>
        <time>2017-09-03T10:36:38Z</time>
      </trkpt>
      <trkpt lat="45.67732" lon="5.67901">
        <ele>228</ele>
        <time>2017-09-03T10:36:38Z</time>
      </trkpt>
      <trkpt lat="45.67735" lon="5.6791">
        <ele>228</ele>
        <time>2017-09-03T10:36:38Z</time>
      </trkpt>
      <trkpt lat="45.67741" lon="5.67912">
        <ele>228</ele>
        <time>2017-09-03T10:36:38Z</time>
      </trkpt>
      <trkpt lat="45.67749" lon="5.67908">
        <ele>228</ele>
        <time>2017-09-03T10:36:54Z</time>
      </trkpt>
      <trkpt lat="45.67755" lon="5.67909">
        <ele>228</ele>
        <time>2017-09-03T10:36:54Z</time>
      </trkpt>
      <trkpt lat="45.67759" lon="5.6792">
        <ele>228</ele>
        <time>2017-09-03T10:36:54Z</time>
      </trkpt>
      <trkpt lat="45.67763" lon="5.67931">
        <ele>228</ele>
        <time>2017-09-03T10:36:54Z</time>
      </trkpt>
      <trkpt lat="45.6777" lon="5.6794">
        <ele>228</ele>
        <time>2017-09-03T10:38:22Z</time>
      </trkpt>
      <trkpt lat="45.67771" lon="5.6794">
        <ele>228</ele>
        <time>2017-09-03T10:38:22Z</time>
      </trkpt>
      <trkpt lat="45.67775" lon="5.67943">
        <ele>228</ele>
        <time>2017-09-03T10:38:22Z</time>
      </trkpt>
      <trkpt lat="45.67779" lon="5.67946">
        <ele>228</ele>
        <time>2017-09-03T10:38:22Z</time>
      </trkpt>
      <trkpt lat="45.67784" lon="5.67949">
        <ele>228</ele>
        <time>2017-09-03T10:38:22Z</time>
      </trkpt>
      <trkpt lat="45.67789" lon="5.67953">
        <ele>228</ele>
        <time>2017-09-03T10:38:38Z</time>
      </trkpt>
      <trkpt lat="45.67794" lon="5.67957">
        <ele>229</ele>
        <time>2017-09-03T10:38:38Z</time>
      </trkpt>
      <trkpt lat="45.67797" lon="5.67962">
        <ele>227</ele>
        <time>2017-09-03T10:38:38Z</time>
      </trkpt>
      <trkpt lat="45.678" lon="5.67967">
        <ele>227</ele>
        <time>2017-09-03T10:38:38Z</time>
      </trkpt>
      <trkpt lat="45.67805" lon="5.67972">
        <ele>227</ele>
        <time>2017-09-03T10:38:54Z</time>
      </trkpt>
      <trkpt lat="45.6781" lon="5.67977">
        <ele>227</ele>
        <time>2017-09-03T10:38:54Z</time>
      </trkpt>
      <trkpt lat="45.67817" lon="5.67983">
        <ele>227</ele>
        <time>2017-09-03T10:38:54Z</time>
      </trkpt>
      <trkpt lat="45.67823" lon="5.67989">
        <ele>227</ele>
        <time>2017-09-03T10:38:54Z</time>
      </trkpt>
      <trkpt lat="45.67828" lon="5.67995">
        <ele>227</ele>
        <time>2017-09-03T10:39:10Z</time>
      </trkpt>
      <trkpt lat="45.67834" lon="5.68">
        <ele>227</ele>
        <time>2017-09-03T10:39:10Z</time>
      </trkpt>
      <trkpt lat="45.67838" lon="5.68006">
        <ele>227</ele>
        <time>2017-09-03T10:39:10Z</time>
      </trkpt>
      <trkpt lat="45.67843" lon="5.68012">
        <ele>227</ele>
        <time>2017-09-03T10:39:10Z</time>
      </trkpt>
      <trkpt lat="45.67846" lon="5.68018">
        <ele>227</ele>
        <time>2017-09-03T10:39:26Z</time>
      </trkpt>
      <trkpt lat="45.67849" lon="5.68024">
        <ele>227</ele>
        <time>2017-09-03T10:39:26Z</time>
      </trkpt>
      <trkpt lat="45.67851" lon="5.68031">
        <ele>227</ele>
        <time>2017-09-03T10:39:26Z</time>
      </trkpt>
      <trkpt lat="45.67853" lon="5.68037">
        <ele>227</ele>
        <time>2017-09-03T10:39:26Z</time>
      </trkpt>
      <trkpt lat="45.67854" lon="5.68043">
        <ele>224</ele>
        <time>2017-09-03T10:39:50Z</time>
      </trkpt>
      <trkpt lat="45.67856" lon="5.68046">
        <ele>224</ele>
        <time>2017-09-03T10:39:50Z</time>
      </trkpt>
      <trkpt lat="45.67859" lon="5.68046">
        <ele>224</ele>
        <time>2017-09-03T10:39:50Z</time>
      </trkpt>
      <trkpt lat="45.67864" lon="5.68045">
        <ele>224</ele>
        <time>2017-09-03T10:39:50Z</time>
      </trkpt>
      <trkpt lat="45.67868" lon="5.68041">
        <ele>227</ele>
        <time>2017-09-03T10:39:50Z</time>
      </trkpt>
      <trkpt lat="45.67871" lon="5.68039">
        <ele>227</ele>
        <time>2017-09-03T10:40:06Z</time>
      </trkpt>
      <trkpt lat="45.67875" lon="5.68036">
        <ele>230</ele>
        <time>2017-09-03T10:40:06Z</time>
      </trkpt>
      <trkpt lat="45.67879" lon="5.68032">
        <ele>230</ele>
        <time>2017-09-03T10:40:06Z</time>
      </trkpt>
      <trkpt lat="45.67883" lon="5.68028">
        <ele>230</ele>
        <time>2017-09-03T10:40:06Z</time>
      </trkpt>
      <trkpt lat="45.67886" lon="5.68025">
        <ele>230</ele>
        <time>2017-09-03T10:40:22Z</time>
      </trkpt>
      <trkpt lat="45.6789" lon="5.68022">
        <ele>230</ele>
        <time>2017-09-03T10:40:22Z</time>
      </trkpt>
      <trkpt lat="45.67894" lon="5.6802">
        <ele>230</ele>
        <time>2017-09-03T10:40:22Z</time>
      </trkpt>
      <trkpt lat="45.67897" lon="5.68017">
        <ele>230</ele>
        <time>2017-09-03T10:40:22Z</time>
      </trkpt>
      <trkpt lat="45.67901" lon="5.68013">
        <ele>230</ele>
        <time>2017-09-03T10:40:38Z</time>
      </trkpt>
      <trkpt lat="45.67905" lon="5.6801">
        <ele>230</ele>
        <time>2017-09-03T10:40:38Z</time>
      </trkpt>
      <trkpt lat="45.67907" lon="5.68007">
        <ele>230</ele>
        <time>2017-09-03T10:40:38Z</time>
      </trkpt>
      <trkpt lat="45.67912" lon="5.68002">
        <ele>230</ele>
        <time>2017-09-03T10:40:38Z</time>
      </trkpt>
      <trkpt lat="45.67915" lon="5.67995">
        <ele>230</ele>
        <time>2017-09-03T10:40:54Z</time>
      </trkpt>
      <trkpt lat="45.6792" lon="5.67991">
        <ele>230</ele>
        <time>2017-09-03T10:40:54Z</time>
      </trkpt>
      <trkpt lat="45.67924" lon="5.67989">
        <ele>230</ele>
        <time>2017-09-03T10:40:54Z</time>
      </trkpt>
      <trkpt lat="45.67928" lon="5.67983">
        <ele>230</ele>
        <time>2017-09-03T10:40:54Z</time>
      </trkpt>
      <trkpt lat="45.67931" lon="5.67976">
        <ele>230</ele>
        <time>2017-09-03T10:41:10Z</time>
      </trkpt>
      <trkpt lat="45.67934" lon="5.67972">
        <ele>230</ele>
        <time>2017-09-03T10:41:10Z</time>
      </trkpt>
      <trkpt lat="45.67937" lon="5.67965">
        <ele>230</ele>
        <time>2017-09-03T10:41:10Z</time>
      </trkpt>
      <trkpt lat="45.67938" lon="5.67963">
        <ele>230</ele>
        <time>2017-09-03T10:41:10Z</time>
      </trkpt>
      <trkpt lat="45.67939" lon="5.6796">
        <ele>230</ele>
        <time>2017-09-03T10:41:38Z</time>
      </trkpt>
      <trkpt lat="45.67942" lon="5.67958">
        <ele>231</ele>
        <time>2017-09-03T10:41:38Z</time>
      </trkpt>
      <trkpt lat="45.67945" lon="5.67959">
        <ele>230</ele>
        <time>2017-09-03T10:41:38Z</time>
      </trkpt>
      <trkpt lat="45.67946" lon="5.6796">
        <ele>230</ele>
        <time>2017-09-03T10:41:38Z</time>
      </trkpt>
      <trkpt lat="45.67947" lon="5.67958">
        <ele>231</ele>
        <time>2017-09-03T10:41:38Z</time>
      </trkpt>
      <trkpt lat="45.67948" lon="5.67957">
        <ele>231</ele>
        <time>2017-09-03T10:46:30Z</time>
      </trkpt>
      <trkpt lat="45.6795" lon="5.67955">
        <ele>231</ele>
        <time>2017-09-03T10:46:30Z</time>
      </trkpt>
      <trkpt lat="45.67953" lon="5.67952">
        <ele>231</ele>
        <time>2017-09-03T10:46:30Z</time>
      </trkpt>
      <trkpt lat="45.67954" lon="5.67953">
        <ele>231</ele>
        <time>2017-09-03T10:46:30Z</time>
      </trkpt>
      <trkpt lat="45.67958" lon="5.67952">
        <ele>231</ele>
        <time>2017-09-03T10:46:30Z</time>
      </trkpt>
      <trkpt lat="45.67962" lon="5.67949">
        <ele>235</ele>
        <time>2017-09-03T10:46:46Z</time>
      </trkpt>
      <trkpt lat="45.67965" lon="5.67948">
        <ele>235</ele>
        <time>2017-09-03T10:46:46Z</time>
      </trkpt>
      <trkpt lat="45.67969" lon="5.67945">
        <ele>235</ele>
        <time>2017-09-03T10:46:46Z</time>
      </trkpt>
      <trkpt lat="45.67974" lon="5.6794">
        <ele>235</ele>
        <time>2017-09-03T10:46:46Z</time>
      </trkpt>
      <trkpt lat="45.67979" lon="5.67936">
        <ele>235</ele>
        <time>2017-09-03T10:47:02Z</time>
      </trkpt>
      <trkpt lat="45.67984" lon="5.67932">
        <ele>235</ele>
        <time>2017-09-03T10:47:02Z</time>
      </trkpt>
      <trkpt lat="45.67988" lon="5.67926">
        <ele>235</ele>
        <time>2017-09-03T10:47:02Z</time>
      </trkpt>
      <trkpt lat="45.67989" lon="5.67925">
        <ele>235</ele>
        <time>2017-09-03T10:47:02Z</time>
      </trkpt>
      <trkpt lat="45.67993" lon="5.67924">
        <ele>235</ele>
        <time>2017-09-03T10:47:34Z</time>
      </trkpt>
      <trkpt lat="45.67995" lon="5.67924">
        <ele>235</ele>
        <time>2017-09-03T10:47:34Z</time>
      </trkpt>
      <trkpt lat="45.67995" lon="5.67924">
        <ele>235</ele>
        <time>2017-09-03T10:47:34Z</time>
      </trkpt>
      <trkpt lat="45.67996" lon="5.67924">
        <ele>235</ele>
        <time>2017-09-03T10:47:34Z</time>
      </trkpt>
      <trkpt lat="45.68" lon="5.6792">
        <ele>235</ele>
        <time>2017-09-03T10:47:34Z</time>
      </trkpt>
      <trkpt lat="45.68004" lon="5.67916">
        <ele>235</ele>
        <time>2017-09-03T10:47:50Z</time>
      </trkpt>
      <trkpt lat="45.68007" lon="5.6791">
        <ele>235</ele>
        <time>2017-09-03T10:47:50Z</time>
      </trkpt>
      <trkpt lat="45.6801" lon="5.67905">
        <ele>235</ele>
        <time>2017-09-03T10:47:50Z</time>
      </trkpt>
      <trkpt lat="45.68013" lon="5.67901">
        <ele>235</ele>
        <time>2017-09-03T10:47:50Z</time>
      </trkpt>
      <trkpt lat="45.68017" lon="5.67897">
        <ele>235</ele>
        <time>2017-09-03T10:48:06Z</time>
      </trkpt>
      <trkpt lat="45.68022" lon="5.67894">
        <ele>235</ele>
        <time>2017-09-03T10:48:06Z</time>
      </trkpt>
      <trkpt lat="45.68026" lon="5.67893">
        <ele>235</ele>
        <time>2017-09-03T10:48:06Z</time>
      </trkpt>
      <trkpt lat="45.68031" lon="5.67889">
        <ele>235</ele>
        <time>2017-09-03T10:48:06Z</time>
      </trkpt>
      <trkpt lat="45.68036" lon="5.67883">
        <ele>235</ele>
        <time>2017-09-03T10:48:22Z</time>
      </trkpt>
      <trkpt lat="45.68042" lon="5.67878">
        <ele>235</ele>
        <time>2017-09-03T10:48:22Z</time>
      </trkpt>
      <trkpt lat="45.68047" lon="5.67874">
        <ele>238</ele>
        <time>2017-09-03T10:48:22Z</time>
      </trkpt>
      <trkpt lat="45.68053" lon="5.67871">
        <ele>238</ele>
        <time>2017-09-03T10:48:22Z</time>
      </trkpt>
      <trkpt lat="45.68058" lon="5.6787">
        <ele>238</ele>
        <time>2017-09-03T10:48:38Z</time>
      </trkpt>
      <trkpt lat="45.68063" lon="5.67868">
        <ele>238</ele>
        <time>2017-09-03T10:48:38Z</time>
      </trkpt>
      <trkpt lat="45.68069" lon="5.67864">
        <ele>238</ele>
        <time>2017-09-03T10:48:38Z</time>
      </trkpt>
      <trkpt lat="45.68074" lon="5.67859">
        <ele>238</ele>
        <time>2017-09-03T10:48:38Z</time>
      </trkpt>
      <trkpt lat="45.68079" lon="5.67856">
        <ele>238</ele>
        <time>2017-09-03T10:48:54Z</time>
      </trkpt>
      <trkpt lat="45.68084" lon="5.6785">
        <ele>238</ele>
        <time>2017-09-03T10:48:54Z</time>
      </trkpt>
      <trkpt lat="45.68089" lon="5.67846">
        <ele>238</ele>
        <time>2017-09-03T10:48:54Z</time>
      </trkpt>
      <trkpt lat="45.68091" lon="5.67845">
        <ele>238</ele>
        <time>2017-09-03T10:48:54Z</time>
      </trkpt>
      <trkpt lat="45.68092" lon="5.67846">
        <ele>238</ele>
        <time>2017-09-03T10:49:14Z</time>
      </trkpt>
      <trkpt lat="45.68092" lon="5.67847">
        <ele>238</ele>
        <time>2017-09-03T10:49:14Z</time>
      </trkpt>
      <trkpt lat="45.68094" lon="5.67845">
        <ele>238</ele>
        <time>2017-09-03T10:49:14Z</time>
      </trkpt>
      <trkpt lat="45.68098" lon="5.67843">
        <ele>238</ele>
        <time>2017-09-03T10:49:14Z</time>
      </trkpt>
      <trkpt lat="45.68103" lon="5.67841">
        <ele>238</ele>
        <time>2017-09-03T10:49:14Z</time>
      </trkpt>
      <trkpt lat="45.68108" lon="5.67839">
        <ele>238</ele>
        <time>2017-09-03T10:49:30Z</time>
      </trkpt>
      <trkpt lat="45.68112" lon="5.67835">
        <ele>238</ele>
        <time>2017-09-03T10:49:30Z</time>
      </trkpt>
      <trkpt lat="45.68116" lon="5.67834">
        <ele>238</ele>
        <time>2017-09-03T10:49:30Z</time>
      </trkpt>
      <trkpt lat="45.6812" lon="5.67832">
        <ele>238</ele>
        <time>2017-09-03T10:49:30Z</time>
      </trkpt>
      <trkpt lat="45.6812" lon="5.6783">
        <ele>238</ele>
        <time>2017-09-03T10:49:54Z</time>
      </trkpt>
      <trkpt lat="45.68122" lon="5.67829">
        <ele>238</ele>
        <time>2017-09-03T10:49:54Z</time>
      </trkpt>
      <trkpt lat="45.68123" lon="5.67828">
        <ele>238</ele>
        <time>2017-09-03T10:49:54Z</time>
      </trkpt>
      <trkpt lat="45.68123" lon="5.67827">
        <ele>238</ele>
        <time>2017-09-03T10:49:54Z</time>
      </trkpt>
      <trkpt lat="45.68127" lon="5.67823">
        <ele>243</ele>
        <time>2017-09-03T10:49:54Z</time>
      </trkpt>
      <trkpt lat="45.68132" lon="5.67819">
        <ele>243</ele>
        <time>2017-09-03T10:50:10Z</time>
      </trkpt>
      <trkpt lat="45.68137" lon="5.67814">
        <ele>243</ele>
        <time>2017-09-03T10:50:10Z</time>
      </trkpt>
      <trkpt lat="45.68143" lon="5.6781">
        <ele>243</ele>
        <time>2017-09-03T10:50:10Z</time>
      </trkpt>
      <trkpt lat="45.68148" lon="5.67807">
        <ele>243</ele>
        <time>2017-09-03T10:50:10Z</time>
      </trkpt>
      <trkpt lat="45.68152" lon="5.67803">
        <ele>243</ele>
        <time>2017-09-03T10:50:26Z</time>
      </trkpt>
      <trkpt lat="45.68158" lon="5.67799">
        <ele>243</ele>
        <time>2017-09-03T10:50:26Z</time>
      </trkpt>
      <trkpt lat="45.68164" lon="5.67796">
        <ele>243</ele>
        <time>2017-09-03T10:50:26Z</time>
      </trkpt>
      <trkpt lat="45.68168" lon="5.67791">
        <ele>241</ele>
        <time>2017-09-03T10:50:26Z</time>
      </trkpt>
      <trkpt lat="45.68172" lon="5.67785">
        <ele>241</ele>
        <time>2017-09-03T10:50:42Z</time>
      </trkpt>
      <trkpt lat="45.68175" lon="5.67779">
        <ele>241</ele>
        <time>2017-09-03T10:50:42Z</time>
      </trkpt>
      <trkpt lat="45.68179" lon="5.67775">
        <ele>241</ele>
        <time>2017-09-03T10:50:42Z</time>
      </trkpt>
      <trkpt lat="45.68179" lon="5.67769">
        <ele>241</ele>
        <time>2017-09-03T10:50:42Z</time>
      </trkpt>
      <trkpt lat="45.68181" lon="5.67763">
        <ele>241</ele>
        <time>2017-09-03T10:50:58Z</time>
      </trkpt>
      <trkpt lat="45.68185" lon="5.67756">
        <ele>241</ele>
        <time>2017-09-03T10:50:58Z</time>
      </trkpt>
      <trkpt lat="45.68186" lon="5.67748">
        <ele>241</ele>
        <time>2017-09-03T10:50:58Z</time>
      </trkpt>
      <trkpt lat="45.6819" lon="5.67744">
        <ele>241</ele>
        <time>2017-09-03T10:50:58Z</time>
      </trkpt>
      <trkpt lat="45.682" lon="5.67745">
        <ele>241</ele>
        <time>2017-09-03T10:51:14Z</time>
      </trkpt>
      <trkpt lat="45.68207" lon="5.67746">
        <ele>241</ele>
        <time>2017-09-03T10:51:14Z</time>
      </trkpt>
      <trkpt lat="45.68213" lon="5.67745">
        <ele>242</ele>
        <time>2017-09-03T10:51:14Z</time>
      </trkpt>
      <trkpt lat="45.68218" lon="5.67745">
        <ele>242</ele>
        <time>2017-09-03T10:51:14Z</time>
      </trkpt>
      <trkpt lat="45.68224" lon="5.67744">
        <ele>242</ele>
        <time>2017-09-03T10:51:30Z</time>
      </trkpt>
      <trkpt lat="45.68229" lon="5.67743">
        <ele>242</ele>
        <time>2017-09-03T10:51:30Z</time>
      </trkpt>
      <trkpt lat="45.68235" lon="5.67743">
        <ele>242</ele>
        <time>2017-09-03T10:51:30Z</time>
      </trkpt>
      <trkpt lat="45.6824" lon="5.67743">
        <ele>242</ele>
        <time>2017-09-03T10:51:30Z</time>
      </trkpt>
      <trkpt lat="45.68246" lon="5.67743">
        <ele>242</ele>
        <time>2017-09-03T10:51:46Z</time>
      </trkpt>
      <trkpt lat="45.68252" lon="5.67743">
        <ele>242</ele>
        <time>2017-09-03T10:51:46Z</time>
      </trkpt>
      <trkpt lat="45.68258" lon="5.67744">
        <ele>242</ele>
        <time>2017-09-03T10:51:46Z</time>
      </trkpt>
      <trkpt lat="45.68263" lon="5.67743">
        <ele>242</ele>
        <time>2017-09-03T10:51:46Z</time>
      </trkpt>
      <trkpt lat="45.68269" lon="5.67741">
        <ele>242</ele>
        <time>2017-09-03T10:52:02Z</time>
      </trkpt>
      <trkpt lat="45.68275" lon="5.6774">
        <ele>242</ele>
        <time>2017-09-03T10:52:02Z</time>
      </trkpt>
      <trkpt lat="45.6828" lon="5.67739">
        <ele>242</ele>
        <time>2017-09-03T10:52:02Z</time>
      </trkpt>
      <trkpt lat="45.68286" lon="5.67739">
        <ele>242</ele>
        <time>2017-09-03T10:52:02Z</time>
      </trkpt>
      <trkpt lat="45.68292" lon="5.67738">
        <ele>243</ele>
        <time>2017-09-03T10:52:18Z</time>
      </trkpt>
      <trkpt lat="45.68297" lon="5.67737">
        <ele>243</ele>
        <time>2017-09-03T10:52:18Z</time>
      </trkpt>
      <trkpt lat="45.68302" lon="5.67736">
        <ele>243</ele>
        <time>2017-09-03T10:52:18Z</time>
      </trkpt>
      <trkpt lat="45.68303" lon="5.67737">
        <ele>243</ele>
        <time>2017-09-03T10:52:18Z</time>
      </trkpt>
      <trkpt lat="45.68303" lon="5.67738">
        <ele>243</ele>
        <time>2017-09-03T10:52:38Z</time>
      </trkpt>
      <trkpt lat="45.68302" lon="5.6774">
        <ele>243</ele>
        <time>2017-09-03T10:52:38Z</time>
      </trkpt>
      <trkpt lat="45.68303" lon="5.6774">
        <ele>243</ele>
        <time>2017-09-03T10:52:38Z</time>
      </trkpt>
      <trkpt lat="45.68307" lon="5.67739">
        <ele>243</ele>
        <time>2017-09-03T10:52:38Z</time>
      </trkpt>
      <trkpt lat="45.68313" lon="5.67738">
        <ele>243</ele>
        <time>2017-09-03T10:52:38Z</time>
      </trkpt>
      <trkpt lat="45.68318" lon="5.67736">
        <ele>243</ele>
        <time>2017-09-03T10:52:58Z</time>
      </trkpt>
      <trkpt lat="45.6832" lon="5.67735">
        <ele>243</ele>
        <time>2017-09-03T10:52:58Z</time>
      </trkpt>
      <trkpt lat="45.68321" lon="5.67735">
        <ele>243</ele>
        <time>2017-09-03T10:52:58Z</time>
      </trkpt>
      <trkpt lat="45.68325" lon="5.67734">
        <ele>243</ele>
        <time>2017-09-03T10:52:58Z</time>
      </trkpt>
      <trkpt lat="45.6833" lon="5.67733">
        <ele>243</ele>
        <time>2017-09-03T10:52:58Z</time>
      </trkpt>
      <trkpt lat="45.68335" lon="5.67733">
        <ele>243</ele>
        <time>2017-09-03T10:53:14Z</time>
      </trkpt>
      <trkpt lat="45.68341" lon="5.67732">
        <ele>243</ele>
        <time>2017-09-03T10:53:14Z</time>
      </trkpt>
      <trkpt lat="45.68347" lon="5.67731">
        <ele>243</ele>
        <time>2017-09-03T10:53:14Z</time>
      </trkpt>
      <trkpt lat="45.68352" lon="5.67731">
        <ele>243</ele>
        <time>2017-09-03T10:53:14Z</time>
      </trkpt>
      <trkpt lat="45.68356" lon="5.6773">
        <ele>243</ele>
        <time>2017-09-03T10:53:30Z</time>
      </trkpt>
      <trkpt lat="45.68361" lon="5.6773">
        <ele>243</ele>
        <time>2017-09-03T10:53:30Z</time>
      </trkpt>
      <trkpt lat="45.68365" lon="5.67729">
        <ele>243</ele>
        <time>2017-09-03T10:53:30Z</time>
      </trkpt>
      <trkpt lat="45.6837" lon="5.67728">
        <ele>243</ele>
        <time>2017-09-03T10:53:30Z</time>
      </trkpt>
      <trkpt lat="45.68375" lon="5.67726">
        <ele>243</ele>
        <time>2017-09-03T10:53:46Z</time>
      </trkpt>
      <trkpt lat="45.68381" lon="5.67726">
        <ele>242</ele>
        <time>2017-09-03T10:53:46Z</time>
      </trkpt>
      <trkpt lat="45.68386" lon="5.67727">
        <ele>242</ele>
        <time>2017-09-03T10:53:46Z</time>
      </trkpt>
      <trkpt lat="45.68396" lon="5.67727">
        <ele>242</ele>
        <time>2017-09-03T10:53:46Z</time>
      </trkpt>
      <trkpt lat="45.68404" lon="5.67728">
        <ele>242</ele>
        <time>2017-09-03T10:54:02Z</time>
      </trkpt>
      <trkpt lat="45.68409" lon="5.67726">
        <ele>242</ele>
        <time>2017-09-03T10:54:02Z</time>
      </trkpt>
      <trkpt lat="45.68415" lon="5.67728">
        <ele>242</ele>
        <time>2017-09-03T10:54:02Z</time>
      </trkpt>
      <trkpt lat="45.6842" lon="5.67729">
        <ele>242</ele>
        <time>2017-09-03T10:54:02Z</time>
      </trkpt>
      <trkpt lat="45.68426" lon="5.67727">
        <ele>242</ele>
        <time>2017-09-03T10:54:18Z</time>
      </trkpt>
      <trkpt lat="45.68432" lon="5.67726">
        <ele>242</ele>
        <time>2017-09-03T10:54:18Z</time>
      </trkpt>
      <trkpt lat="45.68438" lon="5.67724">
        <ele>242</ele>
        <time>2017-09-03T10:54:18Z</time>
      </trkpt>
      <trkpt lat="45.68442" lon="5.67723">
        <ele>242</ele>
        <time>2017-09-03T10:54:18Z</time>
      </trkpt>
      <trkpt lat="45.68448" lon="5.67722">
        <ele>242</ele>
        <time>2017-09-03T10:54:34Z</time>
      </trkpt>
      <trkpt lat="45.68452" lon="5.67721">
        <ele>242</ele>
        <time>2017-09-03T10:54:34Z</time>
      </trkpt>
      <trkpt lat="45.68458" lon="5.67719">
        <ele>242</ele>
        <time>2017-09-03T10:54:34Z</time>
      </trkpt>
      <trkpt lat="45.68463" lon="5.67717">
        <ele>242</ele>
        <time>2017-09-03T10:54:34Z</time>
      </trkpt>
      <trkpt lat="45.68469" lon="5.67713">
        <ele>242</ele>
        <time>2017-09-03T10:54:50Z</time>
      </trkpt>
      <trkpt lat="45.68474" lon="5.6771">
        <ele>242</ele>
        <time>2017-09-03T10:54:50Z</time>
      </trkpt>
      <trkpt lat="45.68479" lon="5.67709">
        <ele>242</ele>
        <time>2017-09-03T10:54:50Z</time>
      </trkpt>
      <trkpt lat="45.68485" lon="5.6771">
        <ele>242</ele>
        <time>2017-09-03T10:54:50Z</time>
      </trkpt>
      <trkpt lat="45.68492" lon="5.67709">
        <ele>242</ele>
        <time>2017-09-03T10:55:06Z</time>
      </trkpt>
      <trkpt lat="45.68496" lon="5.67709">
        <ele>242</ele>
        <time>2017-09-03T10:55:06Z</time>
      </trkpt>
      <trkpt lat="45.68502" lon="5.67709">
        <ele>242</ele>
        <time>2017-09-03T10:55:06Z</time>
      </trkpt>
      <trkpt lat="45.68507" lon="5.67707">
        <ele>243</ele>
        <time>2017-09-03T10:55:06Z</time>
      </trkpt>
      <trkpt lat="45.68513" lon="5.67705">
        <ele>243</ele>
        <time>2017-09-03T10:55:22Z</time>
      </trkpt>
      <trkpt lat="45.68519" lon="5.67703">
        <ele>243</ele>
        <time>2017-09-03T10:55:22Z</time>
      </trkpt>
      <trkpt lat="45.68524" lon="5.67701">
        <ele>243</ele>
        <time>2017-09-03T10:55:22Z</time>
      </trkpt>
      <trkpt lat="45.6853" lon="5.67699">
        <ele>243</ele>
        <time>2017-09-03T10:55:22Z</time>
      </trkpt>
      <trkpt lat="45.68537" lon="5.67699">
        <ele>243</ele>
        <time>2017-09-03T10:55:38Z</time>
      </trkpt>
      <trkpt lat="45.68544" lon="5.67698">
        <ele>242</ele>
        <time>2017-09-03T10:55:38Z</time>
      </trkpt>
      <trkpt lat="45.6855" lon="5.67697">
        <ele>242</ele>
        <time>2017-09-03T10:55:38Z</time>
      </trkpt>
      <trkpt lat="45.68555" lon="5.67696">
        <ele>242</ele>
        <time>2017-09-03T10:55:38Z</time>
      </trkpt>
      <trkpt lat="45.68561" lon="5.67695">
        <ele>242</ele>
        <time>2017-09-03T10:55:54Z</time>
      </trkpt>
      <trkpt lat="45.68566" lon="5.67694">
        <ele>242</ele>
        <time>2017-09-03T10:55:54Z</time>
      </trkpt>
      <trkpt lat="45.68572" lon="5.67695">
        <ele>242</ele>
        <time>2017-09-03T10:55:54Z</time>
      </trkpt>
      <trkpt lat="45.68578" lon="5.67694">
        <ele>242</ele>
        <time>2017-09-03T10:55:54Z</time>
      </trkpt>
      <trkpt lat="45.68584" lon="5.67692">
        <ele>242</ele>
        <time>2017-09-03T10:56:10Z</time>
      </trkpt>
      <trkpt lat="45.6859" lon="5.67692">
        <ele>242</ele>
        <time>2017-09-03T10:56:10Z</time>
      </trkpt>
      <trkpt lat="45.68594" lon="5.67692">
        <ele>242</ele>
        <time>2017-09-03T10:56:10Z</time>
      </trkpt>
      <trkpt lat="45.686" lon="5.67691">
        <ele>242</ele>
        <time>2017-09-03T10:56:10Z</time>
      </trkpt>
      <trkpt lat="45.68607" lon="5.6769">
        <ele>242</ele>
        <time>2017-09-03T10:56:26Z</time>
      </trkpt>
      <trkpt lat="45.68612" lon="5.67687">
        <ele>242</ele>
        <time>2017-09-03T10:56:26Z</time>
      </trkpt>
      <trkpt lat="45.68619" lon="5.67686">
        <ele>242</ele>
        <time>2017-09-03T10:56:26Z</time>
      </trkpt>
      <trkpt lat="45.68625" lon="5.67685">
        <ele>241</ele>
        <time>2017-09-03T10:56:26Z</time>
      </trkpt>
      <trkpt lat="45.68631" lon="5.67685">
        <ele>241</ele>
        <time>2017-09-03T10:56:42Z</time>
      </trkpt>
      <trkpt lat="45.68635" lon="5.67686">
        <ele>241</ele>
        <time>2017-09-03T10:56:42Z</time>
      </trkpt>
      <trkpt lat="45.68642" lon="5.67686">
        <ele>241</ele>
        <time>2017-09-03T10:56:42Z</time>
      </trkpt>
      <trkpt lat="45.68648" lon="5.67686">
        <ele>241</ele>
        <time>2017-09-03T10:56:42Z</time>
      </trkpt>
      <trkpt lat="45.68653" lon="5.67686">
        <ele>241</ele>
        <time>2017-09-03T10:56:58Z</time>
      </trkpt>
      <trkpt lat="45.68658" lon="5.67686">
        <ele>241</ele>
        <time>2017-09-03T10:56:58Z</time>
      </trkpt>
      <trkpt lat="45.68663" lon="5.67684">
        <ele>241</ele>
        <time>2017-09-03T10:56:58Z</time>
      </trkpt>
      <trkpt lat="45.6867" lon="5.67684">
        <ele>241</ele>
        <time>2017-09-03T10:56:58Z</time>
      </trkpt>
      <trkpt lat="45.68677" lon="5.67685">
        <ele>241</ele>
        <time>2017-09-03T10:57:14Z</time>
      </trkpt>
      <trkpt lat="45.68683" lon="5.67684">
        <ele>241</ele>
        <time>2017-09-03T10:57:14Z</time>
      </trkpt>
      <trkpt lat="45.6869" lon="5.67685">
        <ele>241</ele>
        <time>2017-09-03T10:57:14Z</time>
      </trkpt>
      <trkpt lat="45.68696" lon="5.67683">
        <ele>241</ele>
        <time>2017-09-03T10:57:14Z</time>
      </trkpt>
      <trkpt lat="45.68702" lon="5.67683">
        <ele>241</ele>
        <time>2017-09-03T10:57:30Z</time>
      </trkpt>
      <trkpt lat="45.68708" lon="5.67684">
        <ele>241</ele>
        <time>2017-09-03T10:57:30Z</time>
      </trkpt>
      <trkpt lat="45.68713" lon="5.67684">
        <ele>239</ele>
        <time>2017-09-03T10:57:30Z</time>
      </trkpt>
      <trkpt lat="45.68719" lon="5.67682">
        <ele>239</ele>
        <time>2017-09-03T10:57:30Z</time>
      </trkpt>
      <trkpt lat="45.68724" lon="5.67682">
        <ele>239</ele>
        <time>2017-09-03T10:57:46Z</time>
      </trkpt>
      <trkpt lat="45.6873" lon="5.67683">
        <ele>239</ele>
        <time>2017-09-03T10:57:46Z</time>
      </trkpt>
      <trkpt lat="45.68736" lon="5.67683">
        <ele>239</ele>
        <time>2017-09-03T10:57:46Z</time>
      </trkpt>
      <trkpt lat="45.68741" lon="5.67683">
        <ele>239</ele>
        <time>2017-09-03T10:57:46Z</time>
      </trkpt>
      <trkpt lat="45.68748" lon="5.67682">
        <ele>239</ele>
        <time>2017-09-03T10:58:02Z</time>
      </trkpt>
      <trkpt lat="45.68754" lon="5.67682">
        <ele>239</ele>
        <time>2017-09-03T10:58:02Z</time>
      </trkpt>
      <trkpt lat="45.68761" lon="5.67682">
        <ele>239</ele>
        <time>2017-09-03T10:58:02Z</time>
      </trkpt>
      <trkpt lat="45.68767" lon="5.67682">
        <ele>239</ele>
        <time>2017-09-03T10:58:02Z</time>
      </trkpt>
      <trkpt lat="45.68774" lon="5.67683">
        <ele>239</ele>
        <time>2017-09-03T10:58:18Z</time>
      </trkpt>
      <trkpt lat="45.68779" lon="5.67682">
        <ele>239</ele>
        <time>2017-09-03T10:58:18Z</time>
      </trkpt>
      <trkpt lat="45.68783" lon="5.67682">
        <ele>239</ele>
        <time>2017-09-03T10:58:18Z</time>
      </trkpt>
      <trkpt lat="45.68789" lon="5.67684">
        <ele>239</ele>
        <time>2017-09-03T10:58:18Z</time>
      </trkpt>
      <trkpt lat="45.68795" lon="5.67687">
        <ele>241</ele>
        <time>2017-09-03T10:58:34Z</time>
      </trkpt>
      <trkpt lat="45.68801" lon="5.6769">
        <ele>241</ele>
        <time>2017-09-03T10:58:34Z</time>
      </trkpt>
      <trkpt lat="45.68806" lon="5.67693">
        <ele>241</ele>
        <time>2017-09-03T10:58:34Z</time>
      </trkpt>
      <trkpt lat="45.68811" lon="5.67696">
        <ele>241</ele>
        <time>2017-09-03T10:58:34Z</time>
      </trkpt>
      <trkpt lat="45.68817" lon="5.67698">
        <ele>241</ele>
        <time>2017-09-03T10:58:50Z</time>
      </trkpt>
      <trkpt lat="45.68822" lon="5.677">
        <ele>241</ele>
        <time>2017-09-03T10:58:50Z</time>
      </trkpt>
      <trkpt lat="45.68828" lon="5.67701">
        <ele>241</ele>
        <time>2017-09-03T10:58:50Z</time>
      </trkpt>
      <trkpt lat="45.68834" lon="5.67702">
        <ele>241</ele>
        <time>2017-09-03T10:58:50Z</time>
      </trkpt>
      <trkpt lat="45.68839" lon="5.67702">
        <ele>241</ele>
        <time>2017-09-03T10:59:06Z</time>
      </trkpt>
      <trkpt lat="45.68845" lon="5.67702">
        <ele>241</ele>
        <time>2017-09-03T10:59:06Z</time>
      </trkpt>
      <trkpt lat="45.68851" lon="5.67702">
        <ele>241</ele>
        <time>2017-09-03T10:59:06Z</time>
      </trkpt>
      <trkpt lat="45.68856" lon="5.67701">
        <ele>241</ele>
        <time>2017-09-03T10:59:06Z</time>
      </trkpt>
      <trkpt lat="45.68862" lon="5.67701">
        <ele>241</ele>
        <time>2017-09-03T10:59:22Z</time>
      </trkpt>
      <trkpt lat="45.68868" lon="5.67699">
        <ele>241</ele>
        <time>2017-09-03T10:59:22Z</time>
      </trkpt>
      <trkpt lat="45.68874" lon="5.677">
        <ele>241</ele>
        <time>2017-09-03T10:59:22Z</time>
      </trkpt>
      <trkpt lat="45.6888" lon="5.67701">
        <ele>241</ele>
        <time>2017-09-03T10:59:22Z</time>
      </trkpt>
      <trkpt lat="45.68886" lon="5.67702">
        <ele>241</ele>
        <time>2017-09-03T10:59:38Z</time>
      </trkpt>
      <trkpt lat="45.68892" lon="5.67702">
        <ele>241</ele>
        <time>2017-09-03T10:59:38Z</time>
      </trkpt>
      <trkpt lat="45.68898" lon="5.67702">
        <ele>241</ele>
        <time>2017-09-03T10:59:38Z</time>
      </trkpt>
      <trkpt lat="45.68904" lon="5.67703">
        <ele>241</ele>
        <time>2017-09-03T10:59:38Z</time>
      </trkpt>
      <trkpt lat="45.68909" lon="5.67703">
        <ele>241</ele>
        <time>2017-09-03T10:59:54Z</time>
      </trkpt>
      <trkpt lat="45.68916" lon="5.67702">
        <ele>241</ele>
        <time>2017-09-03T10:59:54Z</time>
      </trkpt>
      <trkpt lat="45.68921" lon="5.67703">
        <ele>241</ele>
        <time>2017-09-03T10:59:54Z</time>
      </trkpt>
      <trkpt lat="45.68929" lon="5.67703">
        <ele>241</ele>
        <time>2017-09-03T10:59:54Z</time>
      </trkpt>
      <trkpt lat="45.68936" lon="5.67703">
        <ele>241</ele>
        <time>2017-09-03T11:00:10Z</time>
      </trkpt>
      <trkpt lat="45.68941" lon="5.67705">
        <ele>241</ele>
        <time>2017-09-03T11:00:10Z</time>
      </trkpt>
      <trkpt lat="45.68946" lon="5.67709">
        <ele>237</ele>
        <time>2017-09-03T11:00:10Z</time>
      </trkpt>
      <trkpt lat="45.68951" lon="5.67714">
        <ele>237</ele>
        <time>2017-09-03T11:00:10Z</time>
      </trkpt>
      <trkpt lat="45.68955" lon="5.6772">
        <ele>237</ele>
        <time>2017-09-03T11:00:26Z</time>
      </trkpt>
      <trkpt lat="45.6896" lon="5.67725">
        <ele>234</ele>
        <time>2017-09-03T11:00:26Z</time>
      </trkpt>
      <trkpt lat="45.68964" lon="5.67729">
        <ele>234</ele>
        <time>2017-09-03T11:00:26Z</time>
      </trkpt>
      <trkpt lat="45.6897" lon="5.67733">
        <ele>234</ele>
        <time>2017-09-03T11:00:26Z</time>
      </trkpt>
      <trkpt lat="45.68976" lon="5.67739">
        <ele>234</ele>
        <time>2017-09-03T11:00:42Z</time>
      </trkpt>
      <trkpt lat="45.68982" lon="5.67743">
        <ele>234</ele>
        <time>2017-09-03T11:00:42Z</time>
      </trkpt>
      <trkpt lat="45.68989" lon="5.67745">
        <ele>234</ele>
        <time>2017-09-03T11:00:42Z</time>
      </trkpt>
      <trkpt lat="45.68994" lon="5.67748">
        <ele>234</ele>
        <time>2017-09-03T11:00:42Z</time>
      </trkpt>
      <trkpt lat="45.68998" lon="5.67753">
        <ele>234</ele>
        <time>2017-09-03T11:00:58Z</time>
      </trkpt>
      <trkpt lat="45.69002" lon="5.67756">
        <ele>234</ele>
        <time>2017-09-03T11:00:58Z</time>
      </trkpt>
      <trkpt lat="45.69007" lon="5.67759">
        <ele>234</ele>
        <time>2017-09-03T11:00:58Z</time>
      </trkpt>
      <trkpt lat="45.69012" lon="5.67762">
        <ele>234</ele>
        <time>2017-09-03T11:00:58Z</time>
      </trkpt>
      <trkpt lat="45.69016" lon="5.67766">
        <ele>234</ele>
        <time>2017-09-03T11:01:14Z</time>
      </trkpt>
      <trkpt lat="45.69021" lon="5.6777">
        <ele>234</ele>
        <time>2017-09-03T11:01:14Z</time>
      </trkpt>
      <trkpt lat="45.69026" lon="5.67772">
        <ele>234</ele>
        <time>2017-09-03T11:01:14Z</time>
      </trkpt>
      <trkpt lat="45.69032" lon="5.67774">
        <ele>234</ele>
        <time>2017-09-03T11:01:14Z</time>
      </trkpt>
      <trkpt lat="45.69035" lon="5.67774">
        <ele>234</ele>
        <time>2017-09-03T11:01:30Z</time>
      </trkpt>
      <trkpt lat="45.69041" lon="5.67775">
        <ele>234</ele>
        <time>2017-09-03T11:01:30Z</time>
      </trkpt>
      <trkpt lat="45.69048" lon="5.67779">
        <ele>231</ele>
        <time>2017-09-03T11:01:30Z</time>
      </trkpt>
      <trkpt lat="45.69054" lon="5.67782">
        <ele>231</ele>
        <time>2017-09-03T11:01:30Z</time>
      </trkpt>
      <trkpt lat="45.69064" lon="5.6779">
        <ele>231</ele>
        <time>2017-09-03T11:02:06Z</time>
      </trkpt>
      <trkpt lat="45.69064" lon="5.67792">
        <ele>231</ele>
        <time>2017-09-03T11:02:06Z</time>
      </trkpt>
      <trkpt lat="45.69065" lon="5.67794">
        <ele>231</ele>
        <time>2017-09-03T11:02:06Z</time>
      </trkpt>
      <trkpt lat="45.69065" lon="5.67794">
        <ele>231</ele>
        <time>2017-09-03T11:02:06Z</time>
      </trkpt>
      <trkpt lat="45.69069" lon="5.67796">
        <ele>231</ele>
        <time>2017-09-03T11:02:06Z</time>
      </trkpt>
      <trkpt lat="45.69074" lon="5.67797">
        <ele>231</ele>
        <time>2017-09-03T11:02:22Z</time>
      </trkpt>
      <trkpt lat="45.6908" lon="5.67797">
        <ele>231</ele>
        <time>2017-09-03T11:02:22Z</time>
      </trkpt>
      <trkpt lat="45.69085" lon="5.67796">
        <ele>231</ele>
        <time>2017-09-03T11:02:22Z</time>
      </trkpt>
      <trkpt lat="45.69091" lon="5.67796">
        <ele>231</ele>
        <time>2017-09-03T11:02:22Z</time>
      </trkpt>
      <trkpt lat="45.69097" lon="5.67794">
        <ele>231</ele>
        <time>2017-09-03T11:02:38Z</time>
      </trkpt>
      <trkpt lat="45.69102" lon="5.67792">
        <ele>231</ele>
        <time>2017-09-03T11:02:38Z</time>
      </trkpt>
      <trkpt lat="45.69106" lon="5.6779">
        <ele>231</ele>
        <time>2017-09-03T11:02:38Z</time>
      </trkpt>
      <trkpt lat="45.69111" lon="5.67789">
        <ele>231</ele>
        <time>2017-09-03T11:02:38Z</time>
      </trkpt>
      <trkpt lat="45.69116" lon="5.6779">
        <ele>231</ele>
        <time>2017-09-03T11:02:54Z</time>
      </trkpt>
      <trkpt lat="45.69119" lon="5.67791">
        <ele>231</ele>
        <time>2017-09-03T11:02:54Z</time>
      </trkpt>
      <trkpt lat="45.69125" lon="5.67787">
        <ele>231</ele>
        <time>2017-09-03T11:02:54Z</time>
      </trkpt>
      <trkpt lat="45.69131" lon="5.67784">
        <ele>229</ele>
        <time>2017-09-03T11:02:54Z</time>
      </trkpt>
      <trkpt lat="45.69137" lon="5.67779">
        <ele>229</ele>
        <time>2017-09-03T11:03:10Z</time>
      </trkpt>
      <trkpt lat="45.69143" lon="5.67775">
        <ele>229</ele>
        <time>2017-09-03T11:03:10Z</time>
      </trkpt>
      <trkpt lat="45.69148" lon="5.67772">
        <ele>229</ele>
        <time>2017-09-03T11:03:10Z</time>
      </trkpt>
      <trkpt lat="45.69154" lon="5.67768">
        <ele>229</ele>
        <time>2017-09-03T11:03:10Z</time>
      </trkpt>
      <trkpt lat="45.6916" lon="5.67765">
        <ele>229</ele>
        <time>2017-09-03T11:03:26Z</time>
      </trkpt>
      <trkpt lat="45.69166" lon="5.67762">
        <ele>229</ele>
        <time>2017-09-03T11:03:26Z</time>
      </trkpt>
      <trkpt lat="45.69173" lon="5.67758">
        <ele>229</ele>
        <time>2017-09-03T11:03:26Z</time>
      </trkpt>
      <trkpt lat="45.69179" lon="5.67757">
        <ele>229</ele>
        <time>2017-09-03T11:03:26Z</time>
      </trkpt>
      <trkpt lat="45.69185" lon="5.67756">
        <ele>229</ele>
        <time>2017-09-03T11:03:42Z</time>
      </trkpt>
      <trkpt lat="45.69191" lon="5.67755">
        <ele>229</ele>
        <time>2017-09-03T11:03:42Z</time>
      </trkpt>
      <trkpt lat="45.69198" lon="5.67754">
        <ele>229</ele>
        <time>2017-09-03T11:03:42Z</time>
      </trkpt>
      <trkpt lat="45.69204" lon="5.67754">
        <ele>229</ele>
        <time>2017-09-03T11:03:42Z</time>
      </trkpt>
      <trkpt lat="45.6921" lon="5.67755">
        <ele>224</ele>
        <time>2017-09-03T11:03:58Z</time>
      </trkpt>
      <trkpt lat="45.69219" lon="5.67758">
        <ele>224</ele>
        <time>2017-09-03T11:03:58Z</time>
      </trkpt>
      <trkpt lat="45.6923" lon="5.67765">
        <ele>224</ele>
        <time>2017-09-03T11:03:58Z</time>
      </trkpt>
      <trkpt lat="45.69237" lon="5.6777">
        <ele>224</ele>
        <time>2017-09-03T11:03:58Z</time>
      </trkpt>
      <trkpt lat="45.69242" lon="5.67773">
        <ele>224</ele>
        <time>2017-09-03T11:04:14Z</time>
      </trkpt>
      <trkpt lat="45.69247" lon="5.67778">
        <ele>224</ele>
        <time>2017-09-03T11:04:14Z</time>
      </trkpt>
      <trkpt lat="45.69252" lon="5.67782">
        <ele>224</ele>
        <time>2017-09-03T11:04:14Z</time>
      </trkpt>
      <trkpt lat="45.69257" lon="5.67788">
        <ele>224</ele>
        <time>2017-09-03T11:04:14Z</time>
      </trkpt>
      <trkpt lat="45.69263" lon="5.67794">
        <ele>223</ele>
        <time>2017-09-03T11:04:30Z</time>
      </trkpt>
      <trkpt lat="45.69265" lon="5.67798">
        <ele>223</ele>
        <time>2017-09-03T11:04:30Z</time>
      </trkpt>
      <trkpt lat="45.69269" lon="5.67807">
        <ele>223</ele>
        <time>2017-09-03T11:04:30Z</time>
      </trkpt>
      <trkpt lat="45.6927" lon="5.67815">
        <ele>223</ele>
        <time>2017-09-03T11:04:30Z</time>
      </trkpt>
      <trkpt lat="45.69272" lon="5.67824">
        <ele>223</ele>
        <time>2017-09-03T11:04:46Z</time>
      </trkpt>
      <trkpt lat="45.69274" lon="5.67833">
        <ele>223</ele>
        <time>2017-09-03T11:04:46Z</time>
      </trkpt>
      <trkpt lat="45.69276" lon="5.67841">
        <ele>223</ele>
        <time>2017-09-03T11:04:46Z</time>
      </trkpt>
      <trkpt lat="45.69281" lon="5.67848">
        <ele>223</ele>
        <time>2017-09-03T11:04:46Z</time>
      </trkpt>
      <trkpt lat="45.69285" lon="5.67853">
        <ele>223</ele>
        <time>2017-09-03T11:05:02Z</time>
      </trkpt>
      <trkpt lat="45.69291" lon="5.67854">
        <ele>223</ele>
        <time>2017-09-03T11:05:02Z</time>
      </trkpt>
      <trkpt lat="45.69296" lon="5.67855">
        <ele>222</ele>
        <time>2017-09-03T11:05:02Z</time>
      </trkpt>
      <trkpt lat="45.69302" lon="5.67856">
        <ele>222</ele>
        <time>2017-09-03T11:05:02Z</time>
      </trkpt>
      <trkpt lat="45.69307" lon="5.67857">
        <ele>222</ele>
        <time>2017-09-03T11:05:18Z</time>
      </trkpt>
      <trkpt lat="45.69313" lon="5.67857">
        <ele>222</ele>
        <time>2017-09-03T11:05:18Z</time>
      </trkpt>
      <trkpt lat="45.69319" lon="5.67858">
        <ele>222</ele>
        <time>2017-09-03T11:05:18Z</time>
      </trkpt>
      <trkpt lat="45.69325" lon="5.67859">
        <ele>222</ele>
        <time>2017-09-03T11:05:18Z</time>
      </trkpt>
      <trkpt lat="45.69331" lon="5.6786">
        <ele>222</ele>
        <time>2017-09-03T11:05:34Z</time>
      </trkpt>
      <trkpt lat="45.69341" lon="5.67862">
        <ele>222</ele>
        <time>2017-09-03T11:05:34Z</time>
      </trkpt>
      <trkpt lat="45.69351" lon="5.67864">
        <ele>222</ele>
        <time>2017-09-03T11:05:34Z</time>
      </trkpt>
      <trkpt lat="45.69357" lon="5.67865">
        <ele>222</ele>
        <time>2017-09-03T11:05:34Z</time>
      </trkpt>
      <trkpt lat="45.69362" lon="5.67865">
        <ele>222</ele>
        <time>2017-09-03T11:05:50Z</time>
      </trkpt>
      <trkpt lat="45.69367" lon="5.67865">
        <ele>222</ele>
        <time>2017-09-03T11:05:50Z</time>
      </trkpt>
      <trkpt lat="45.69373" lon="5.67865">
        <ele>222</ele>
        <time>2017-09-03T11:05:50Z</time>
      </trkpt>
      <trkpt lat="45.69379" lon="5.67866">
        <ele>221</ele>
        <time>2017-09-03T11:05:50Z</time>
      </trkpt>
      <trkpt lat="45.69386" lon="5.67867">
        <ele>221</ele>
        <time>2017-09-03T11:06:06Z</time>
      </trkpt>
      <trkpt lat="45.69406" lon="5.67867">
        <ele>221</ele>
        <time>2017-09-03T11:06:06Z</time>
      </trkpt>
      <trkpt lat="45.69424" lon="5.67866">
        <ele>221</ele>
        <time>2017-09-03T11:06:06Z</time>
      </trkpt>
      <trkpt lat="45.69443" lon="5.67867">
        <ele>221</ele>
        <time>2017-09-03T11:06:06Z</time>
      </trkpt>
      <trkpt lat="45.69464" lon="5.67865">
        <ele>220</ele>
        <time>2017-09-03T11:06:22Z</time>
      </trkpt>
      <trkpt lat="45.69484" lon="5.67866">
        <ele>220</ele>
        <time>2017-09-03T11:06:22Z</time>
      </trkpt>
      <trkpt lat="45.69506" lon="5.67868">
        <ele>220</ele>
        <time>2017-09-03T11:06:22Z</time>
      </trkpt>
      <trkpt lat="45.6953" lon="5.67866">
        <ele>220</ele>
        <time>2017-09-03T11:06:22Z</time>
      </trkpt>
      <trkpt lat="45.69553" lon="5.67864">
        <ele>220</ele>
        <time>2017-09-03T11:06:38Z</time>
      </trkpt>
      <trkpt lat="45.69567" lon="5.67863">
        <ele>220</ele>
        <time>2017-09-03T11:06:38Z</time>
      </trkpt>
      <trkpt lat="45.69576" lon="5.67864">
        <ele>220</ele>
        <time>2017-09-03T11:06:38Z</time>
      </trkpt>
      <trkpt lat="45.69584" lon="5.67865">
        <ele>220</ele>
        <time>2017-09-03T11:06:38Z</time>
      </trkpt>
      <trkpt lat="45.69592" lon="5.67865">
        <ele>220</ele>
        <time>2017-09-03T11:06:54Z</time>
      </trkpt>
      <trkpt lat="45.69598" lon="5.67865">
        <ele>220</ele>
        <time>2017-09-03T11:06:54Z</time>
      </trkpt>
      <trkpt lat="45.69604" lon="5.67864">
        <ele>220</ele>
        <time>2017-09-03T11:06:54Z</time>
      </trkpt>
      <trkpt lat="45.6961" lon="5.67862">
        <ele>220</ele>
        <time>2017-09-03T11:06:54Z</time>
      </trkpt>
      <trkpt lat="45.69616" lon="5.67859">
        <ele>220</ele>
        <time>2017-09-03T11:07:10Z</time>
      </trkpt>
      <trkpt lat="45.69622" lon="5.67857">
        <ele>220</ele>
        <time>2017-09-03T11:07:10Z</time>
      </trkpt>
      <trkpt lat="45.69628" lon="5.67856">
        <ele>223</ele>
        <time>2017-09-03T11:07:10Z</time>
      </trkpt>
      <trkpt lat="45.69634" lon="5.67855">
        <ele>223</ele>
        <time>2017-09-03T11:07:10Z</time>
      </trkpt>
      <trkpt lat="45.69641" lon="5.67853">
        <ele>223</ele>
        <time>2017-09-03T11:07:26Z</time>
      </trkpt>
      <trkpt lat="45.69647" lon="5.67852">
        <ele>223</ele>
        <time>2017-09-03T11:07:26Z</time>
      </trkpt>
      <trkpt lat="45.69653" lon="5.67851">
        <ele>223</ele>
        <time>2017-09-03T11:07:26Z</time>
      </trkpt>
      <trkpt lat="45.69659" lon="5.6785">
        <ele>223</ele>
        <time>2017-09-03T11:07:26Z</time>
      </trkpt>
      <trkpt lat="45.69666" lon="5.67851">
        <ele>223</ele>
        <time>2017-09-03T11:07:42Z</time>
      </trkpt>
      <trkpt lat="45.69672" lon="5.67852">
        <ele>223</ele>
        <time>2017-09-03T11:07:42Z</time>
      </trkpt>
      <trkpt lat="45.69679" lon="5.67849">
        <ele>223</ele>
        <time>2017-09-03T11:07:42Z</time>
      </trkpt>
      <trkpt lat="45.69684" lon="5.67847">
        <ele>223</ele>
        <time>2017-09-03T11:07:42Z</time>
      </trkpt>
      <trkpt lat="45.69686" lon="5.67841">
        <ele>223</ele>
        <time>2017-09-03T11:07:58Z</time>
      </trkpt>
      <trkpt lat="45.69685" lon="5.67834">
        <ele>223</ele>
        <time>2017-09-03T11:07:58Z</time>
      </trkpt>
      <trkpt lat="45.69682" lon="5.67827">
        <ele>223</ele>
        <time>2017-09-03T11:07:58Z</time>
      </trkpt>
      <trkpt lat="45.69679" lon="5.6782">
        <ele>223</ele>
        <time>2017-09-03T11:07:58Z</time>
      </trkpt>
      <trkpt lat="45.69677" lon="5.67812">
        <ele>223</ele>
        <time>2017-09-03T11:08:14Z</time>
      </trkpt>
      <trkpt lat="45.69676" lon="5.67804">
        <ele>223</ele>
        <time>2017-09-03T11:08:14Z</time>
      </trkpt>
      <trkpt lat="45.69676" lon="5.67797">
        <ele>223</ele>
        <time>2017-09-03T11:08:14Z</time>
      </trkpt>
      <trkpt lat="45.69675" lon="5.67789">
        <ele>222</ele>
        <time>2017-09-03T11:08:14Z</time>
      </trkpt>
      <trkpt lat="45.69674" lon="5.67782">
        <ele>222</ele>
        <time>2017-09-03T11:08:30Z</time>
      </trkpt>
      <trkpt lat="45.69673" lon="5.67774">
        <ele>222</ele>
        <time>2017-09-03T11:08:30Z</time>
      </trkpt>
      <trkpt lat="45.69671" lon="5.67767">
        <ele>222</ele>
        <time>2017-09-03T11:08:30Z</time>
      </trkpt>
      <trkpt lat="45.69672" lon="5.67759">
        <ele>222</ele>
        <time>2017-09-03T11:08:30Z</time>
      </trkpt>
      <trkpt lat="45.69672" lon="5.67751">
        <ele>222</ele>
        <time>2017-09-03T11:08:46Z</time>
      </trkpt>
      <trkpt lat="45.69671" lon="5.67744">
        <ele>222</ele>
        <time>2017-09-03T11:08:46Z</time>
      </trkpt>
      <trkpt lat="45.69669" lon="5.67736">
        <ele>222</ele>
        <time>2017-09-03T11:08:46Z</time>
      </trkpt>
      <trkpt lat="45.69667" lon="5.67728">
        <ele>222</ele>
        <time>2017-09-03T11:08:46Z</time>
      </trkpt>
      <trkpt lat="45.69665" lon="5.67721">
        <ele>222</ele>
        <time>2017-09-03T11:09:02Z</time>
      </trkpt>
      <trkpt lat="45.69665" lon="5.67712">
        <ele>222</ele>
        <time>2017-09-03T11:09:02Z</time>
      </trkpt>
      <trkpt lat="45.69666" lon="5.67704">
        <ele>222</ele>
        <time>2017-09-03T11:09:02Z</time>
      </trkpt>
      <trkpt lat="45.69665" lon="5.67696">
        <ele>222</ele>
        <time>2017-09-03T11:09:02Z</time>
      </trkpt>
      <trkpt lat="45.69664" lon="5.67688">
        <ele>222</ele>
        <time>2017-09-03T11:09:18Z</time>
      </trkpt>
      <trkpt lat="45.69662" lon="5.6768">
        <ele>222</ele>
        <time>2017-09-03T11:09:18Z</time>
      </trkpt>
      <trkpt lat="45.69662" lon="5.67672">
        <ele>222</ele>
        <time>2017-09-03T11:09:18Z</time>
      </trkpt>
      <trkpt lat="45.69661" lon="5.67663">
        <ele>222</ele>
        <time>2017-09-03T11:09:18Z</time>
      </trkpt>
      <trkpt lat="45.6966" lon="5.67654">
        <ele>222</ele>
        <time>2017-09-03T11:09:34Z</time>
      </trkpt>
      <trkpt lat="45.69659" lon="5.67644">
        <ele>222</ele>
        <time>2017-09-03T11:09:34Z</time>
      </trkpt>
      <trkpt lat="45.69654" lon="5.67634">
        <ele>222</ele>
        <time>2017-09-03T11:09:34Z</time>
      </trkpt>
      <trkpt lat="45.69651" lon="5.67629">
        <ele>222</ele>
        <time>2017-09-03T11:09:34Z</time>
      </trkpt>
      <trkpt lat="45.69647" lon="5.67627">
        <ele>222</ele>
        <time>2017-09-03T11:09:50Z</time>
      </trkpt>
      <trkpt lat="45.69643" lon="5.67622">
        <ele>222</ele>
        <time>2017-09-03T11:09:50Z</time>
      </trkpt>
      <trkpt lat="45.6964" lon="5.67614">
        <ele>222</ele>
        <time>2017-09-03T11:09:50Z</time>
      </trkpt>
      <trkpt lat="45.69639" lon="5.67604">
        <ele>222</ele>
        <time>2017-09-03T11:09:50Z</time>
      </trkpt>
      <trkpt lat="45.69638" lon="5.67595">
        <ele>222</ele>
        <time>2017-09-03T11:10:06Z</time>
      </trkpt>
      <trkpt lat="45.6964" lon="5.67582">
        <ele>222</ele>
        <time>2017-09-03T11:10:06Z</time>
      </trkpt>
      <trkpt lat="45.6964" lon="5.67574">
        <ele>222</ele>
        <time>2017-09-03T11:10:06Z</time>
      </trkpt>
      <trkpt lat="45.6964" lon="5.67568">
        <ele>222</ele>
        <time>2017-09-03T11:10:06Z</time>
      </trkpt>
      <trkpt lat="45.6964" lon="5.67558">
        <ele>222</ele>
        <time>2017-09-03T11:10:22Z</time>
      </trkpt>
      <trkpt lat="45.69636" lon="5.67543">
        <ele>222</ele>
        <time>2017-09-03T11:10:22Z</time>
      </trkpt>
      <trkpt lat="45.69633" lon="5.67534">
        <ele>220</ele>
        <time>2017-09-03T11:10:22Z</time>
      </trkpt>
      <trkpt lat="45.6963" lon="5.67527">
        <ele>220</ele>
        <time>2017-09-03T11:10:22Z</time>
      </trkpt>
      <trkpt lat="45.69628" lon="5.67519">
        <ele>220</ele>
        <time>2017-09-03T11:10:38Z</time>
      </trkpt>
      <trkpt lat="45.69626" lon="5.6751">
        <ele>220</ele>
        <time>2017-09-03T11:10:38Z</time>
      </trkpt>
      <trkpt lat="45.69625" lon="5.67502">
        <ele>222</ele>
        <time>2017-09-03T11:10:38Z</time>
      </trkpt>
      <trkpt lat="45.69623" lon="5.67495">
        <ele>222</ele>
        <time>2017-09-03T11:10:38Z</time>
      </trkpt>
      <trkpt lat="45.69623" lon="5.67488">
        <ele>222</ele>
        <time>2017-09-03T11:10:54Z</time>
      </trkpt>
      <trkpt lat="45.69622" lon="5.67481">
        <ele>222</ele>
        <time>2017-09-03T11:10:54Z</time>
      </trkpt>
      <trkpt lat="45.69623" lon="5.67472">
        <ele>222</ele>
        <time>2017-09-03T11:10:54Z</time>
      </trkpt>
      <trkpt lat="45.69623" lon="5.67464">
        <ele>222</ele>
        <time>2017-09-03T11:10:54Z</time>
      </trkpt>
      <trkpt lat="45.69623" lon="5.67456">
        <ele>220</ele>
        <time>2017-09-03T11:11:10Z</time>
      </trkpt>
      <trkpt lat="45.69623" lon="5.67447">
        <ele>220</ele>
        <time>2017-09-03T11:11:10Z</time>
      </trkpt>
      <trkpt lat="45.69623" lon="5.67439">
        <ele>220</ele>
        <time>2017-09-03T11:11:10Z</time>
      </trkpt>
      <trkpt lat="45.69624" lon="5.67427">
        <ele>220</ele>
        <time>2017-09-03T11:11:10Z</time>
      </trkpt>
      <trkpt lat="45.69626" lon="5.67419">
        <ele>219</ele>
        <time>2017-09-03T11:11:26Z</time>
      </trkpt>
      <trkpt lat="45.69627" lon="5.67411">
        <ele>219</ele>
        <time>2017-09-03T11:11:26Z</time>
      </trkpt>
      <trkpt lat="45.69627" lon="5.67402">
        <ele>219</ele>
        <time>2017-09-03T11:11:26Z</time>
      </trkpt>
      <trkpt lat="45.69626" lon="5.67395">
        <ele>219</ele>
        <time>2017-09-03T11:11:26Z</time>
      </trkpt>
      <trkpt lat="45.69625" lon="5.67387">
        <ele>219</ele>
        <time>2017-09-03T11:11:42Z</time>
      </trkpt>
      <trkpt lat="45.69624" lon="5.67382">
        <ele>220</ele>
        <time>2017-09-03T11:11:42Z</time>
      </trkpt>
      <trkpt lat="45.69626" lon="5.67368">
        <ele>222</ele>
        <time>2017-09-03T11:11:42Z</time>
      </trkpt>
      <trkpt lat="45.69627" lon="5.67356">
        <ele>222</ele>
        <time>2017-09-03T11:11:42Z</time>
      </trkpt>
      <trkpt lat="45.69627" lon="5.67348">
        <ele>222</ele>
        <time>2017-09-03T11:11:58Z</time>
      </trkpt>
      <trkpt lat="45.69628" lon="5.67341">
        <ele>222</ele>
        <time>2017-09-03T11:11:58Z</time>
      </trkpt>
      <trkpt lat="45.69628" lon="5.67333">
        <ele>222</ele>
        <time>2017-09-03T11:11:58Z</time>
      </trkpt>
      <trkpt lat="45.69628" lon="5.67325">
        <ele>222</ele>
        <time>2017-09-03T11:11:58Z</time>
      </trkpt>
      <trkpt lat="45.69628" lon="5.67317">
        <ele>222</ele>
        <time>2017-09-03T11:12:14Z</time>
      </trkpt>
      <trkpt lat="45.69628" lon="5.67309">
        <ele>222</ele>
        <time>2017-09-03T11:12:14Z</time>
      </trkpt>
      <trkpt lat="45.69628" lon="5.67301">
        <ele>222</ele>
        <time>2017-09-03T11:12:14Z</time>
      </trkpt>
      <trkpt lat="45.69628" lon="5.67292">
        <ele>222</ele>
        <time>2017-09-03T11:12:14Z</time>
      </trkpt>
      <trkpt lat="45.69629" lon="5.67285">
        <ele>224</ele>
        <time>2017-09-03T11:12:30Z</time>
      </trkpt>
      <trkpt lat="45.6963" lon="5.67277">
        <ele>224</ele>
        <time>2017-09-03T11:12:30Z</time>
      </trkpt>
      <trkpt lat="45.69629" lon="5.67268">
        <ele>224</ele>
        <time>2017-09-03T11:12:30Z</time>
      </trkpt>
      <trkpt lat="45.69629" lon="5.6726">
        <ele>224</ele>
        <time>2017-09-03T11:12:30Z</time>
      </trkpt>
      <trkpt lat="45.69629" lon="5.67252">
        <ele>224</ele>
        <time>2017-09-03T11:12:46Z</time>
      </trkpt>
      <trkpt lat="45.6963" lon="5.6724">
        <ele>224</ele>
        <time>2017-09-03T11:12:46Z</time>
      </trkpt>
      <trkpt lat="45.69631" lon="5.67227">
        <ele>224</ele>
        <time>2017-09-03T11:12:46Z</time>
      </trkpt>
      <trkpt lat="45.6963" lon="5.6722">
        <ele>224</ele>
        <time>2017-09-03T11:12:46Z</time>
      </trkpt>
      <trkpt lat="45.69631" lon="5.67212">
        <ele>224</ele>
        <time>2017-09-03T11:13:02Z</time>
      </trkpt>
      <trkpt lat="45.69634" lon="5.67205">
        <ele>225</ele>
        <time>2017-09-03T11:13:02Z</time>
      </trkpt>
      <trkpt lat="45.69637" lon="5.67195">
        <ele>225</ele>
        <time>2017-09-03T11:13:02Z</time>
      </trkpt>
      <trkpt lat="45.69638" lon="5.67188">
        <ele>225</ele>
        <time>2017-09-03T11:13:02Z</time>
      </trkpt>
      <trkpt lat="45.69638" lon="5.67176">
        <ele>225</ele>
        <time>2017-09-03T11:13:18Z</time>
      </trkpt>
      <trkpt lat="45.69639" lon="5.67165">
        <ele>225</ele>
        <time>2017-09-03T11:13:18Z</time>
      </trkpt>
      <trkpt lat="45.69641" lon="5.67157">
        <ele>225</ele>
        <time>2017-09-03T11:13:18Z</time>
      </trkpt>
      <trkpt lat="45.69643" lon="5.67149">
        <ele>225</ele>
        <time>2017-09-03T11:13:18Z</time>
      </trkpt>
      <trkpt lat="45.69645" lon="5.6714">
        <ele>225</ele>
        <time>2017-09-03T11:13:34Z</time>
      </trkpt>
      <trkpt lat="45.69646" lon="5.67132">
        <ele>225</ele>
        <time>2017-09-03T11:13:34Z</time>
      </trkpt>
      <trkpt lat="45.69648" lon="5.67126">
        <ele>225</ele>
        <time>2017-09-03T11:13:34Z</time>
      </trkpt>
      <trkpt lat="45.69649" lon="5.67117">
        <ele>224</ele>
        <time>2017-09-03T11:13:34Z</time>
      </trkpt>
      <trkpt lat="45.69652" lon="5.6711">
        <ele>224</ele>
        <time>2017-09-03T11:13:50Z</time>
      </trkpt>
      <trkpt lat="45.69652" lon="5.67101">
        <ele>224</ele>
        <time>2017-09-03T11:13:50Z</time>
      </trkpt>
      <trkpt lat="45.69652" lon="5.67092">
        <ele>224</ele>
        <time>2017-09-03T11:13:50Z</time>
      </trkpt>
      <trkpt lat="45.69652" lon="5.67083">
        <ele>224</ele>
        <time>2017-09-03T11:13:50Z</time>
      </trkpt>
      <trkpt lat="45.69655" lon="5.67072">
        <ele>224</ele>
        <time>2017-09-03T11:14:06Z</time>
      </trkpt>
      <trkpt lat="45.69658" lon="5.67059">
        <ele>224</ele>
        <time>2017-09-03T11:14:06Z</time>
      </trkpt>
      <trkpt lat="45.6966" lon="5.6705">
        <ele>224</ele>
        <time>2017-09-03T11:14:06Z</time>
      </trkpt>
      <trkpt lat="45.69661" lon="5.67043">
        <ele>224</ele>
        <time>2017-09-03T11:14:06Z</time>
      </trkpt>
      <trkpt lat="45.69664" lon="5.67037">
        <ele>224</ele>
        <time>2017-09-03T11:14:22Z</time>
      </trkpt>
      <trkpt lat="45.69666" lon="5.67029">
        <ele>224</ele>
        <time>2017-09-03T11:14:22Z</time>
      </trkpt>
      <trkpt lat="45.69667" lon="5.6702">
        <ele>224</ele>
        <time>2017-09-03T11:14:22Z</time>
      </trkpt>
      <trkpt lat="45.69668" lon="5.67011">
        <ele>224</ele>
        <time>2017-09-03T11:14:22Z</time>
      </trkpt>
      <trkpt lat="45.69669" lon="5.67001">
        <ele>224</ele>
        <time>2017-09-03T11:14:38Z</time>
      </trkpt>
      <trkpt lat="45.69672" lon="5.66994">
        <ele>224</ele>
        <time>2017-09-03T11:14:38Z</time>
      </trkpt>
      <trkpt lat="45.69675" lon="5.66987">
        <ele>224</ele>
        <time>2017-09-03T11:14:38Z</time>
      </trkpt>
      <trkpt lat="45.69677" lon="5.66978">
        <ele>224</ele>
        <time>2017-09-03T11:14:38Z</time>
      </trkpt>
      <trkpt lat="45.69679" lon="5.66974">
        <ele>224</ele>
        <time>2017-09-03T11:15:46Z</time>
      </trkpt>
      <trkpt lat="45.69679" lon="5.66975">
        <ele>224</ele>
        <time>2017-09-03T11:15:46Z</time>
      </trkpt>
      <trkpt lat="45.69681" lon="5.6697">
        <ele>224</ele>
        <time>2017-09-03T11:15:46Z</time>
      </trkpt>
      <trkpt lat="45.69684" lon="5.66962">
        <ele>224</ele>
        <time>2017-09-03T11:15:46Z</time>
      </trkpt>
      <trkpt lat="45.69686" lon="5.66954">
        <ele>222</ele>
        <time>2017-09-03T11:15:46Z</time>
      </trkpt>
      <trkpt lat="45.69689" lon="5.66946">
        <ele>222</ele>
        <time>2017-09-03T11:16:02Z</time>
      </trkpt>
      <trkpt lat="45.69691" lon="5.66939">
        <ele>222</ele>
        <time>2017-09-03T11:16:02Z</time>
      </trkpt>
      <trkpt lat="45.69697" lon="5.66935">
        <ele>222</ele>
        <time>2017-09-03T11:16:02Z</time>
      </trkpt>
      <trkpt lat="45.69707" lon="5.66939">
        <ele>222</ele>
        <time>2017-09-03T11:16:02Z</time>
      </trkpt>
      <trkpt lat="45.69718" lon="5.66943">
        <ele>223</ele>
        <time>2017-09-03T11:16:18Z</time>
      </trkpt>
      <trkpt lat="45.69725" lon="5.66947">
        <ele>223</ele>
        <time>2017-09-03T11:16:18Z</time>
      </trkpt>
      <trkpt lat="45.6973" lon="5.66951">
        <ele>223</ele>
        <time>2017-09-03T11:16:18Z</time>
      </trkpt>
      <trkpt lat="45.69735" lon="5.66954">
        <ele>223</ele>
        <time>2017-09-03T11:16:18Z</time>
      </trkpt>
      <trkpt lat="45.69743" lon="5.66957">
        <ele>223</ele>
        <time>2017-09-03T11:16:34Z</time>
      </trkpt>
      <trkpt lat="45.69755" lon="5.66962">
        <ele>224</ele>
        <time>2017-09-03T11:16:34Z</time>
      </trkpt>
      <trkpt lat="45.69761" lon="5.66964">
        <ele>224</ele>
        <time>2017-09-03T11:16:34Z</time>
      </trkpt>
      <trkpt lat="45.69766" lon="5.66966">
        <ele>224</ele>
        <time>2017-09-03T11:16:34Z</time>
      </trkpt>
      <trkpt lat="45.69772" lon="5.66967">
        <ele>224</ele>
        <time>2017-09-03T11:16:50Z</time>
      </trkpt>
      <trkpt lat="45.69778" lon="5.6697">
        <ele>224</ele>
        <time>2017-09-03T11:16:50Z</time>
      </trkpt>
      <trkpt lat="45.69783" lon="5.66973">
        <ele>224</ele>
        <time>2017-09-03T11:16:50Z</time>
      </trkpt>
      <trkpt lat="45.69789" lon="5.66975">
        <ele>224</ele>
        <time>2017-09-03T11:16:50Z</time>
      </trkpt>
      <trkpt lat="45.69794" lon="5.66976">
        <ele>226</ele>
        <time>2017-09-03T11:17:06Z</time>
      </trkpt>
      <trkpt lat="45.69799" lon="5.66977">
        <ele>226</ele>
        <time>2017-09-03T11:17:06Z</time>
      </trkpt>
      <trkpt lat="45.69804" lon="5.66976">
        <ele>226</ele>
        <time>2017-09-03T11:17:06Z</time>
      </trkpt>
      <trkpt lat="45.69809" lon="5.66976">
        <ele>226</ele>
        <time>2017-09-03T11:17:06Z</time>
      </trkpt>
      <trkpt lat="45.69814" lon="5.66977">
        <ele>226</ele>
        <time>2017-09-03T11:17:22Z</time>
      </trkpt>
      <trkpt lat="45.69819" lon="5.66978">
        <ele>226</ele>
        <time>2017-09-03T11:17:22Z</time>
      </trkpt>
      <trkpt lat="45.69825" lon="5.66979">
        <ele>226</ele>
        <time>2017-09-03T11:17:22Z</time>
      </trkpt>
      <trkpt lat="45.69831" lon="5.66979">
        <ele>226</ele>
        <time>2017-09-03T11:17:22Z</time>
      </trkpt>
      <trkpt lat="45.69837" lon="5.6698">
        <ele>226</ele>
        <time>2017-09-03T11:17:38Z</time>
      </trkpt>
      <trkpt lat="45.69842" lon="5.66979">
        <ele>226</ele>
        <time>2017-09-03T11:17:38Z</time>
      </trkpt>
      <trkpt lat="45.69847" lon="5.66978">
        <ele>226</ele>
        <time>2017-09-03T11:17:38Z</time>
      </trkpt>
      <trkpt lat="45.69851" lon="5.66976">
        <ele>226</ele>
        <time>2017-09-03T11:17:38Z</time>
      </trkpt>
      <trkpt lat="45.69858" lon="5.66974">
        <ele>226</ele>
        <time>2017-09-03T11:17:54Z</time>
      </trkpt>
      <trkpt lat="45.69863" lon="5.66972">
        <ele>226</ele>
        <time>2017-09-03T11:17:54Z</time>
      </trkpt>
      <trkpt lat="45.69869" lon="5.66971">
        <ele>226</ele>
        <time>2017-09-03T11:17:54Z</time>
      </trkpt>
      <trkpt lat="45.69873" lon="5.66968">
        <ele>226</ele>
        <time>2017-09-03T11:17:54Z</time>
      </trkpt>
      <trkpt lat="45.69878" lon="5.66967">
        <ele>226</ele>
        <time>2017-09-03T11:18:10Z</time>
      </trkpt>
      <trkpt lat="45.69882" lon="5.66963">
        <ele>226</ele>
        <time>2017-09-03T11:18:10Z</time>
      </trkpt>
      <trkpt lat="45.69888" lon="5.66961">
        <ele>226</ele>
        <time>2017-09-03T11:18:10Z</time>
      </trkpt>
      <trkpt lat="45.69894" lon="5.66958">
        <ele>226</ele>
        <time>2017-09-03T11:18:10Z</time>
      </trkpt>
      <trkpt lat="45.69899" lon="5.66955">
        <ele>227</ele>
        <time>2017-09-03T11:18:26Z</time>
      </trkpt>
      <trkpt lat="45.69904" lon="5.66952">
        <ele>227</ele>
        <time>2017-09-03T11:18:26Z</time>
      </trkpt>
      <trkpt lat="45.69909" lon="5.6695">
        <ele>227</ele>
        <time>2017-09-03T11:18:26Z</time>
      </trkpt>
      <trkpt lat="45.69917" lon="5.66948">
        <ele>227</ele>
        <time>2017-09-03T11:18:26Z</time>
      </trkpt>
      <trkpt lat="45.69922" lon="5.66944">
        <ele>227</ele>
        <time>2017-09-03T11:18:42Z</time>
      </trkpt>
      <trkpt lat="45.69925" lon="5.66935">
        <ele>227</ele>
        <time>2017-09-03T11:18:42Z</time>
      </trkpt>
      <trkpt lat="45.69928" lon="5.66927">
        <ele>227</ele>
        <time>2017-09-03T11:18:42Z</time>
      </trkpt>
      <trkpt lat="45.69931" lon="5.66921">
        <ele>227</ele>
        <time>2017-09-03T11:18:42Z</time>
      </trkpt>
      <trkpt lat="45.69934" lon="5.66914">
        <ele>227</ele>
        <time>2017-09-03T11:18:58Z</time>
      </trkpt>
      <trkpt lat="45.69939" lon="5.66909">
        <ele>227</ele>
        <time>2017-09-03T11:18:58Z</time>
      </trkpt>
      <trkpt lat="45.69943" lon="5.66903">
        <ele>227</ele>
        <time>2017-09-03T11:18:58Z</time>
      </trkpt>
      <trkpt lat="45.69947" lon="5.66895">
        <ele>227</ele>
        <time>2017-09-03T11:18:58Z</time>
      </trkpt>
      <trkpt lat="45.69951" lon="5.66889">
        <ele>227</ele>
        <time>2017-09-03T11:19:14Z</time>
      </trkpt>
      <trkpt lat="45.69956" lon="5.66884">
        <ele>227</ele>
        <time>2017-09-03T11:19:14Z</time>
      </trkpt>
      <trkpt lat="45.6996" lon="5.66879">
        <ele>226</ele>
        <time>2017-09-03T11:19:14Z</time>
      </trkpt>
      <trkpt lat="45.69964" lon="5.66874">
        <ele>229</ele>
        <time>2017-09-03T11:19:14Z</time>
      </trkpt>
      <trkpt lat="45.69968" lon="5.66869">
        <ele>229</ele>
        <time>2017-09-03T11:19:30Z</time>
      </trkpt>
      <trkpt lat="45.69972" lon="5.66863">
        <ele>229</ele>
        <time>2017-09-03T11:19:30Z</time>
      </trkpt>
      <trkpt lat="45.69976" lon="5.66858">
        <ele>229</ele>
        <time>2017-09-03T11:19:30Z</time>
      </trkpt>
      <trkpt lat="45.69981" lon="5.66854">
        <ele>229</ele>
        <time>2017-09-03T11:19:30Z</time>
      </trkpt>
      <trkpt lat="45.69987" lon="5.66851">
        <ele>229</ele>
        <time>2017-09-03T11:19:46Z</time>
      </trkpt>
      <trkpt lat="45.6999" lon="5.66844">
        <ele>229</ele>
        <time>2017-09-03T11:19:46Z</time>
      </trkpt>
      <trkpt lat="45.69995" lon="5.6684">
        <ele>229</ele>
        <time>2017-09-03T11:19:46Z</time>
      </trkpt>
      <trkpt lat="45.7" lon="5.66837">
        <ele>229</ele>
        <time>2017-09-03T11:19:46Z</time>
      </trkpt>
      <trkpt lat="45.70005" lon="5.66832">
        <ele>229</ele>
        <time>2017-09-03T11:20:02Z</time>
      </trkpt>
      <trkpt lat="45.70009" lon="5.66826">
        <ele>229</ele>
        <time>2017-09-03T11:20:02Z</time>
      </trkpt>
      <trkpt lat="45.70014" lon="5.66821">
        <ele>229</ele>
        <time>2017-09-03T11:20:02Z</time>
      </trkpt>
      <trkpt lat="45.70017" lon="5.66815">
        <ele>229</ele>
        <time>2017-09-03T11:20:02Z</time>
      </trkpt>
      <trkpt lat="45.70021" lon="5.66808">
        <ele>229</ele>
        <time>2017-09-03T11:20:18Z</time>
      </trkpt>
      <trkpt lat="45.70024" lon="5.66801">
        <ele>229</ele>
        <time>2017-09-03T11:20:18Z</time>
      </trkpt>
      <trkpt lat="45.70029" lon="5.66794">
        <ele>229</ele>
        <time>2017-09-03T11:20:18Z</time>
      </trkpt>
      <trkpt lat="45.7004" lon="5.66779">
        <ele>228</ele>
        <time>2017-09-03T11:20:18Z</time>
      </trkpt>
      <trkpt lat="45.70046" lon="5.66769">
        <ele>230</ele>
        <time>2017-09-03T11:20:34Z</time>
      </trkpt>
      <trkpt lat="45.7005" lon="5.66763">
        <ele>230</ele>
        <time>2017-09-03T11:20:34Z</time>
      </trkpt>
      <trkpt lat="45.70055" lon="5.66758">
        <ele>230</ele>
        <time>2017-09-03T11:20:34Z</time>
      </trkpt>
      <trkpt lat="45.7006" lon="5.66753">
        <ele>230</ele>
        <time>2017-09-03T11:20:34Z</time>
      </trkpt>
      <trkpt lat="45.70063" lon="5.66746">
        <ele>230</ele>
        <time>2017-09-03T11:20:50Z</time>
      </trkpt>
      <trkpt lat="45.70067" lon="5.6674">
        <ele>230</ele>
        <time>2017-09-03T11:20:50Z</time>
      </trkpt>
      <trkpt lat="45.70071" lon="5.66733">
        <ele>230</ele>
        <time>2017-09-03T11:20:50Z</time>
      </trkpt>
      <trkpt lat="45.70076" lon="5.66728">
        <ele>230</ele>
        <time>2017-09-03T11:20:50Z</time>
      </trkpt>
      <trkpt lat="45.70081" lon="5.66725">
        <ele>230</ele>
        <time>2017-09-03T11:21:06Z</time>
      </trkpt>
      <trkpt lat="45.70087" lon="5.66721">
        <ele>230</ele>
        <time>2017-09-03T11:21:06Z</time>
      </trkpt>
      <trkpt lat="45.70093" lon="5.66718">
        <ele>230</ele>
        <time>2017-09-03T11:21:06Z</time>
      </trkpt>
      <trkpt lat="45.70098" lon="5.66714">
        <ele>230</ele>
        <time>2017-09-03T11:21:06Z</time>
      </trkpt>
      <trkpt lat="45.70102" lon="5.6671">
        <ele>230</ele>
        <time>2017-09-03T11:21:22Z</time>
      </trkpt>
      <trkpt lat="45.70104" lon="5.66702">
        <ele>229</ele>
        <time>2017-09-03T11:21:22Z</time>
      </trkpt>
      <trkpt lat="45.70098" lon="5.66688">
        <ele>229</ele>
        <time>2017-09-03T11:21:22Z</time>
      </trkpt>
      <trkpt lat="45.70095" lon="5.6668">
        <ele>229</ele>
        <time>2017-09-03T11:21:22Z</time>
      </trkpt>
      <trkpt lat="45.70092" lon="5.66673">
        <ele>229</ele>
        <time>2017-09-03T11:21:38Z</time>
      </trkpt>
      <trkpt lat="45.70088" lon="5.66665">
        <ele>229</ele>
        <time>2017-09-03T11:21:38Z</time>
      </trkpt>
      <trkpt lat="45.70085" lon="5.66657">
        <ele>229</ele>
        <time>2017-09-03T11:21:38Z</time>
      </trkpt>
      <trkpt lat="45.70081" lon="5.6665">
        <ele>229</ele>
        <time>2017-09-03T11:21:38Z</time>
      </trkpt>
      <trkpt lat="45.70078" lon="5.66643">
        <ele>229</ele>
        <time>2017-09-03T11:21:54Z</time>
      </trkpt>
      <trkpt lat="45.70074" lon="5.66635">
        <ele>229</ele>
        <time>2017-09-03T11:21:54Z</time>
      </trkpt>
      <trkpt lat="45.70071" lon="5.66628">
        <ele>229</ele>
        <time>2017-09-03T11:21:54Z</time>
      </trkpt>
      <trkpt lat="45.70069" lon="5.6662">
        <ele>229</ele>
        <time>2017-09-03T11:21:54Z</time>
      </trkpt>
      <trkpt lat="45.70066" lon="5.66614">
        <ele>229</ele>
        <time>2017-09-03T11:22:10Z</time>
      </trkpt>
      <trkpt lat="45.70062" lon="5.66607">
        <ele>229</ele>
        <time>2017-09-03T11:22:10Z</time>
      </trkpt>
      <trkpt lat="45.70059" lon="5.66601">
        <ele>229</ele>
        <time>2017-09-03T11:22:10Z</time>
      </trkpt>
      <trkpt lat="45.70056" lon="5.66595">
        <ele>229</ele>
        <time>2017-09-03T11:22:10Z</time>
      </trkpt>
      <trkpt lat="45.70053" lon="5.66588">
        <ele>229</ele>
        <time>2017-09-03T11:22:26Z</time>
      </trkpt>
      <trkpt lat="45.7005" lon="5.66581">
        <ele>229</ele>
        <time>2017-09-03T11:22:26Z</time>
      </trkpt>
      <trkpt lat="45.70047" lon="5.66574">
        <ele>229</ele>
        <time>2017-09-03T11:22:26Z</time>
      </trkpt>
      <trkpt lat="45.70043" lon="5.66567">
        <ele>229</ele>
        <time>2017-09-03T11:22:26Z</time>
      </trkpt>
      <trkpt lat="45.70036" lon="5.66553">
        <ele>225</ele>
        <time>2017-09-03T11:22:42Z</time>
      </trkpt>
      <trkpt lat="45.70029" lon="5.6654">
        <ele>224</ele>
        <time>2017-09-03T11:22:42Z</time>
      </trkpt>
      <trkpt lat="45.70027" lon="5.66534">
        <ele>224</ele>
        <time>2017-09-03T11:22:42Z</time>
      </trkpt>
      <trkpt lat="45.70023" lon="5.66528">
        <ele>224</ele>
        <time>2017-09-03T11:22:42Z</time>
      </trkpt>
      <trkpt lat="45.7002" lon="5.66521">
        <ele>224</ele>
        <time>2017-09-03T11:22:58Z</time>
      </trkpt>
      <trkpt lat="45.70016" lon="5.66514">
        <ele>224</ele>
        <time>2017-09-03T11:22:58Z</time>
      </trkpt>
      <trkpt lat="45.70013" lon="5.66507">
        <ele>224</ele>
        <time>2017-09-03T11:22:58Z</time>
      </trkpt>
      <trkpt lat="45.7001" lon="5.665">
        <ele>224</ele>
        <time>2017-09-03T11:22:58Z</time>
      </trkpt>
      <trkpt lat="45.70007" lon="5.66492">
        <ele>224</ele>
        <time>2017-09-03T11:23:14Z</time>
      </trkpt>
      <trkpt lat="45.70004" lon="5.66486">
        <ele>224</ele>
        <time>2017-09-03T11:23:14Z</time>
      </trkpt>
      <trkpt lat="45.70001" lon="5.66479">
        <ele>224</ele>
        <time>2017-09-03T11:23:14Z</time>
      </trkpt>
      <trkpt lat="45.69997" lon="5.66473">
        <ele>224</ele>
        <time>2017-09-03T11:23:14Z</time>
      </trkpt>
      <trkpt lat="45.69993" lon="5.66467">
        <ele>224</ele>
        <time>2017-09-03T11:23:30Z</time>
      </trkpt>
      <trkpt lat="45.6999" lon="5.6646">
        <ele>224</ele>
        <time>2017-09-03T11:23:30Z</time>
      </trkpt>
      <trkpt lat="45.69987" lon="5.66455">
        <ele>223</ele>
        <time>2017-09-03T11:23:30Z</time>
      </trkpt>
      <trkpt lat="45.69983" lon="5.66448">
        <ele>223</ele>
        <time>2017-09-03T11:23:30Z</time>
      </trkpt>
      <trkpt lat="45.6998" lon="5.66441">
        <ele>223</ele>
        <time>2017-09-03T11:23:46Z</time>
      </trkpt>
      <trkpt lat="45.69977" lon="5.66432">
        <ele>223</ele>
        <time>2017-09-03T11:23:46Z</time>
      </trkpt>
      <trkpt lat="45.69973" lon="5.66425">
        <ele>223</ele>
        <time>2017-09-03T11:23:46Z</time>
      </trkpt>
      <trkpt lat="45.6997" lon="5.66417">
        <ele>223</ele>
        <time>2017-09-03T11:23:46Z</time>
      </trkpt>
      <trkpt lat="45.69968" lon="5.66409">
        <ele>223</ele>
        <time>2017-09-03T11:24:02Z</time>
      </trkpt>
      <trkpt lat="45.69965" lon="5.664">
        <ele>223</ele>
        <time>2017-09-03T11:24:02Z</time>
      </trkpt>
      <trkpt lat="45.69964" lon="5.66391">
        <ele>223</ele>
        <time>2017-09-03T11:24:02Z</time>
      </trkpt>
      <trkpt lat="45.69972" lon="5.66381">
        <ele>223</ele>
        <time>2017-09-03T11:24:02Z</time>
      </trkpt>
      <trkpt lat="45.69983" lon="5.66363">
        <ele>226</ele>
        <time>2017-09-03T11:24:18Z</time>
      </trkpt>
      <trkpt lat="45.69996" lon="5.6634">
        <ele>226</ele>
        <time>2017-09-03T11:24:18Z</time>
      </trkpt>
      <trkpt lat="45.70013" lon="5.66319">
        <ele>226</ele>
        <time>2017-09-03T11:24:18Z</time>
      </trkpt>
      <trkpt lat="45.70028" lon="5.66298">
        <ele>226</ele>
        <time>2017-09-03T11:24:18Z</time>
      </trkpt>
      <trkpt lat="45.70044" lon="5.6628">
        <ele>225</ele>
        <time>2017-09-03T11:24:34Z</time>
      </trkpt>
      <trkpt lat="45.70063" lon="5.66259">
        <ele>225</ele>
        <time>2017-09-03T11:24:34Z</time>
      </trkpt>
      <trkpt lat="45.70077" lon="5.66239">
        <ele>225</ele>
        <time>2017-09-03T11:24:34Z</time>
      </trkpt>
      <trkpt lat="45.70099" lon="5.66218">
        <ele>225</ele>
        <time>2017-09-03T11:24:34Z</time>
      </trkpt>
      <trkpt lat="45.70123" lon="5.66204">
        <ele>227</ele>
        <time>2017-09-03T11:24:50Z</time>
      </trkpt>
      <trkpt lat="45.7014" lon="5.66189">
        <ele>226</ele>
        <time>2017-09-03T11:24:50Z</time>
      </trkpt>
      <trkpt lat="45.70155" lon="5.66169">
        <ele>226</ele>
        <time>2017-09-03T11:24:50Z</time>
      </trkpt>
      <trkpt lat="45.70172" lon="5.66148">
        <ele>226</ele>
        <time>2017-09-03T11:24:50Z</time>
      </trkpt>
      <trkpt lat="45.70188" lon="5.66126">
        <ele>226</ele>
        <time>2017-09-03T11:25:06Z</time>
      </trkpt>
      <trkpt lat="45.70202" lon="5.66109">
        <ele>225</ele>
        <time>2017-09-03T11:25:06Z</time>
      </trkpt>
      <trkpt lat="45.70224" lon="5.66089">
        <ele>226</ele>
        <time>2017-09-03T11:25:06Z</time>
      </trkpt>
      <trkpt lat="45.70241" lon="5.66069">
        <ele>226</ele>
        <time>2017-09-03T11:25:06Z</time>
      </trkpt>
      <trkpt lat="45.70257" lon="5.6605">
        <ele>226</ele>
        <time>2017-09-03T11:25:22Z</time>
      </trkpt>
      <trkpt lat="45.70267" lon="5.66038">
        <ele>228</ele>
        <time>2017-09-03T11:25:22Z</time>
      </trkpt>
      <trkpt lat="45.70278" lon="5.6603">
        <ele>228</ele>
        <time>2017-09-03T11:25:22Z</time>
      </trkpt>
      <trkpt lat="45.70285" lon="5.66025">
        <ele>228</ele>
        <time>2017-09-03T11:25:22Z</time>
      </trkpt>
      <trkpt lat="45.70292" lon="5.66019">
        <ele>228</ele>
        <time>2017-09-03T11:25:38Z</time>
      </trkpt>
      <trkpt lat="45.70296" lon="5.66014">
        <ele>226</ele>
        <time>2017-09-03T11:25:38Z</time>
      </trkpt>
      <trkpt lat="45.703" lon="5.66009">
        <ele>226</ele>
        <time>2017-09-03T11:25:38Z</time>
      </trkpt>
      <trkpt lat="45.70304" lon="5.66004">
        <ele>226</ele>
        <time>2017-09-03T11:25:38Z</time>
      </trkpt>
      <trkpt lat="45.7031" lon="5.65998">
        <ele>226</ele>
        <time>2017-09-03T11:25:54Z</time>
      </trkpt>
      <trkpt lat="45.70316" lon="5.65992">
        <ele>226</ele>
        <time>2017-09-03T11:25:54Z</time>
      </trkpt>
      <trkpt lat="45.7032" lon="5.65986">
        <ele>226</ele>
        <time>2017-09-03T11:25:54Z</time>
      </trkpt>
      <trkpt lat="45.70323" lon="5.65981">
        <ele>226</ele>
        <time>2017-09-03T11:25:54Z</time>
      </trkpt>
      <trkpt lat="45.70328" lon="5.65975">
        <ele>226</ele>
        <time>2017-09-03T11:26:10Z</time>
      </trkpt>
      <trkpt lat="45.70332" lon="5.65969">
        <ele>226</ele>
        <time>2017-09-03T11:26:10Z</time>
      </trkpt>
      <trkpt lat="45.70337" lon="5.65964">
        <ele>226</ele>
        <time>2017-09-03T11:26:10Z</time>
      </trkpt>
      <trkpt lat="45.7034" lon="5.65959">
        <ele>226</ele>
        <time>2017-09-03T11:26:10Z</time>
      </trkpt>
      <trkpt lat="45.70344" lon="5.65952">
        <ele>228</ele>
        <time>2017-09-03T11:26:26Z</time>
      </trkpt>
      <trkpt lat="45.70347" lon="5.65945">
        <ele>228</ele>
        <time>2017-09-03T11:26:26Z</time>
      </trkpt>
      <trkpt lat="45.7035" lon="5.65939">
        <ele>228</ele>
        <time>2017-09-03T11:26:26Z</time>
      </trkpt>
      <trkpt lat="45.70353" lon="5.65933">
        <ele>228</ele>
        <time>2017-09-03T11:26:26Z</time>
      </trkpt>
      <trkpt lat="45.70357" lon="5.65928">
        <ele>228</ele>
        <time>2017-09-03T11:26:42Z</time>
      </trkpt>
      <trkpt lat="45.7036" lon="5.65921">
        <ele>228</ele>
        <time>2017-09-03T11:26:42Z</time>
      </trkpt>
      <trkpt lat="45.70365" lon="5.65915">
        <ele>228</ele>
        <time>2017-09-03T11:26:42Z</time>
      </trkpt>
      <trkpt lat="45.70369" lon="5.65909">
        <ele>228</ele>
        <time>2017-09-03T11:26:42Z</time>
      </trkpt>
      <trkpt lat="45.70373" lon="5.65903">
        <ele>228</ele>
        <time>2017-09-03T11:26:58Z</time>
      </trkpt>
      <trkpt lat="45.70377" lon="5.65896">
        <ele>224</ele>
        <time>2017-09-03T11:26:58Z</time>
      </trkpt>
      <trkpt lat="45.70385" lon="5.65885">
        <ele>224</ele>
        <time>2017-09-03T11:26:58Z</time>
      </trkpt>
      <trkpt lat="45.70392" lon="5.65879">
        <ele>224</ele>
        <time>2017-09-03T11:26:58Z</time>
      </trkpt>
      <trkpt lat="45.70398" lon="5.65876">
        <ele>224</ele>
        <time>2017-09-03T11:27:14Z</time>
      </trkpt>
      <trkpt lat="45.70404" lon="5.65873">
        <ele>231</ele>
        <time>2017-09-03T11:27:14Z</time>
      </trkpt>
      <trkpt lat="45.70406" lon="5.65871">
        <ele>231</ele>
        <time>2017-09-03T11:27:14Z</time>
      </trkpt>
      <trkpt lat="45.70412" lon="5.65872">
        <ele>231</ele>
        <time>2017-09-03T11:27:14Z</time>
      </trkpt>
      <trkpt lat="45.70416" lon="5.65871">
        <ele>231</ele>
        <time>2017-09-03T11:27:30Z</time>
      </trkpt>
      <trkpt lat="45.70421" lon="5.6587">
        <ele>231</ele>
        <time>2017-09-03T11:27:30Z</time>
      </trkpt>
      <trkpt lat="45.70428" lon="5.65869">
        <ele>231</ele>
        <time>2017-09-03T11:27:30Z</time>
      </trkpt>
      <trkpt lat="45.70435" lon="5.65867">
        <ele>231</ele>
        <time>2017-09-03T11:27:30Z</time>
      </trkpt>
      <trkpt lat="45.70441" lon="5.65865">
        <ele>231</ele>
        <time>2017-09-03T11:27:46Z</time>
      </trkpt>
      <trkpt lat="45.70448" lon="5.65863">
        <ele>231</ele>
        <time>2017-09-03T11:27:46Z</time>
      </trkpt>
      <trkpt lat="45.70451" lon="5.65863">
        <ele>231</ele>
        <time>2017-09-03T11:27:46Z</time>
      </trkpt>
      <trkpt lat="45.70455" lon="5.65861">
        <ele>231</ele>
        <time>2017-09-03T11:27:46Z</time>
      </trkpt>
      <trkpt lat="45.70459" lon="5.6586">
        <ele>229</ele>
        <time>2017-09-03T11:28:02Z</time>
      </trkpt>
      <trkpt lat="45.70462" lon="5.65859">
        <ele>229</ele>
        <time>2017-09-03T11:28:02Z</time>
      </trkpt>
      <trkpt lat="45.70472" lon="5.65855">
        <ele>229</ele>
        <time>2017-09-03T11:28:02Z</time>
      </trkpt>
      <trkpt lat="45.7048" lon="5.65854">
        <ele>229</ele>
        <time>2017-09-03T11:28:02Z</time>
      </trkpt>
      <trkpt lat="45.70485" lon="5.65852">
        <ele>229</ele>
        <time>2017-09-03T11:28:18Z</time>
      </trkpt>
      <trkpt lat="45.70492" lon="5.6585">
        <ele>229</ele>
        <time>2017-09-03T11:28:18Z</time>
      </trkpt>
      <trkpt lat="45.70499" lon="5.65848">
        <ele>229</ele>
        <time>2017-09-03T11:28:18Z</time>
      </trkpt>
      <trkpt lat="45.70507" lon="5.65846">
        <ele>229</ele>
        <time>2017-09-03T11:28:18Z</time>
      </trkpt>
      <trkpt lat="45.70514" lon="5.65843">
        <ele>229</ele>
        <time>2017-09-03T11:28:34Z</time>
      </trkpt>
      <trkpt lat="45.70521" lon="5.65842">
        <ele>229</ele>
        <time>2017-09-03T11:28:34Z</time>
      </trkpt>
      <trkpt lat="45.70528" lon="5.65839">
        <ele>229</ele>
        <time>2017-09-03T11:28:34Z</time>
      </trkpt>
      <trkpt lat="45.70536" lon="5.65836">
        <ele>229</ele>
        <time>2017-09-03T11:28:34Z</time>
      </trkpt>
      <trkpt lat="45.70539" lon="5.65829">
        <ele>229</ele>
        <time>2017-09-03T11:28:50Z</time>
      </trkpt>
      <trkpt lat="45.70543" lon="5.65823">
        <ele>225</ele>
        <time>2017-09-03T11:28:50Z</time>
      </trkpt>
      <trkpt lat="45.70546" lon="5.65816">
        <ele>225</ele>
        <time>2017-09-03T11:28:50Z</time>
      </trkpt>
      <trkpt lat="45.70549" lon="5.65809">
        <ele>225</ele>
        <time>2017-09-03T11:28:50Z</time>
      </trkpt>
      <trkpt lat="45.70551" lon="5.658">
        <ele>225</ele>
        <time>2017-09-03T11:29:06Z</time>
      </trkpt>
      <trkpt lat="45.70553" lon="5.65789">
        <ele>226</ele>
        <time>2017-09-03T11:29:06Z</time>
      </trkpt>
      <trkpt lat="45.70556" lon="5.65782">
        <ele>226</ele>
        <time>2017-09-03T11:29:06Z</time>
      </trkpt>
      <trkpt lat="45.70559" lon="5.65774">
        <ele>226</ele>
        <time>2017-09-03T11:29:06Z</time>
      </trkpt>
      <trkpt lat="45.7056" lon="5.65766">
        <ele>226</ele>
        <time>2017-09-03T11:29:22Z</time>
      </trkpt>
      <trkpt lat="45.70562" lon="5.65757">
        <ele>226</ele>
        <time>2017-09-03T11:29:22Z</time>
      </trkpt>
      <trkpt lat="45.70564" lon="5.65749">
        <ele>226</ele>
        <time>2017-09-03T11:29:22Z</time>
      </trkpt>
      <trkpt lat="45.70567" lon="5.65741">
        <ele>226</ele>
        <time>2017-09-03T11:29:22Z</time>
      </trkpt>
      <trkpt lat="45.7057" lon="5.65733">
        <ele>226</ele>
        <time>2017-09-03T11:29:38Z</time>
      </trkpt>
      <trkpt lat="45.70572" lon="5.65725">
        <ele>226</ele>
        <time>2017-09-03T11:29:38Z</time>
      </trkpt>
      <trkpt lat="45.70573" lon="5.65716">
        <ele>226</ele>
        <time>2017-09-03T11:29:38Z</time>
      </trkpt>
      <trkpt lat="45.70575" lon="5.65708">
        <ele>226</ele>
        <time>2017-09-03T11:29:38Z</time>
      </trkpt>
      <trkpt lat="45.70577" lon="5.65702">
        <ele>231</ele>
        <time>2017-09-03T11:29:54Z</time>
      </trkpt>
      <trkpt lat="45.70581" lon="5.65696">
        <ele>231</ele>
        <time>2017-09-03T11:29:54Z</time>
      </trkpt>
      <trkpt lat="45.70586" lon="5.65692">
        <ele>231</ele>
        <time>2017-09-03T11:29:54Z</time>
      </trkpt>
      <trkpt lat="45.70589" lon="5.65686">
        <ele>231</ele>
        <time>2017-09-03T11:29:54Z</time>
      </trkpt>
      <trkpt lat="45.70592" lon="5.65679">
        <ele>231</ele>
        <time>2017-09-03T11:30:10Z</time>
      </trkpt>
      <trkpt lat="45.70597" lon="5.65674">
        <ele>231</ele>
        <time>2017-09-03T11:30:10Z</time>
      </trkpt>
      <trkpt lat="45.70601" lon="5.65669">
        <ele>231</ele>
        <time>2017-09-03T11:30:10Z</time>
      </trkpt>
      <trkpt lat="45.70605" lon="5.65663">
        <ele>231</ele>
        <time>2017-09-03T11:30:10Z</time>
      </trkpt>
      <trkpt lat="45.7061" lon="5.65659">
        <ele>231</ele>
        <time>2017-09-03T11:30:26Z</time>
      </trkpt>
      <trkpt lat="45.70615" lon="5.65655">
        <ele>231</ele>
        <time>2017-09-03T11:30:26Z</time>
      </trkpt>
      <trkpt lat="45.70621" lon="5.65652">
        <ele>231</ele>
        <time>2017-09-03T11:30:26Z</time>
      </trkpt>
      <trkpt lat="45.70627" lon="5.6565">
        <ele>229</ele>
        <time>2017-09-03T11:30:26Z</time>
      </trkpt>
      <trkpt lat="45.70634" lon="5.65648">
        <ele>229</ele>
        <time>2017-09-03T11:30:42Z</time>
      </trkpt>
      <trkpt lat="45.70641" lon="5.65646">
        <ele>229</ele>
        <time>2017-09-03T11:30:42Z</time>
      </trkpt>
      <trkpt lat="45.70646" lon="5.65643">
        <ele>229</ele>
        <time>2017-09-03T11:30:42Z</time>
      </trkpt>
      <trkpt lat="45.70651" lon="5.65641">
        <ele>229</ele>
        <time>2017-09-03T11:30:42Z</time>
      </trkpt>
      <trkpt lat="45.70657" lon="5.65637">
        <ele>229</ele>
        <time>2017-09-03T11:30:58Z</time>
      </trkpt>
      <trkpt lat="45.70661" lon="5.6563">
        <ele>229</ele>
        <time>2017-09-03T11:30:58Z</time>
      </trkpt>
      <trkpt lat="45.70667" lon="5.65627">
        <ele>229</ele>
        <time>2017-09-03T11:30:58Z</time>
      </trkpt>
      <trkpt lat="45.70673" lon="5.65625">
        <ele>236</ele>
        <time>2017-09-03T11:30:58Z</time>
      </trkpt>
      <trkpt lat="45.7068" lon="5.65623">
        <ele>236</ele>
        <time>2017-09-03T11:31:14Z</time>
      </trkpt>
      <trkpt lat="45.70685" lon="5.6562">
        <ele>236</ele>
        <time>2017-09-03T11:31:14Z</time>
      </trkpt>
      <trkpt lat="45.70691" lon="5.65618">
        <ele>236</ele>
        <time>2017-09-03T11:31:14Z</time>
      </trkpt>
      <trkpt lat="45.70695" lon="5.65611">
        <ele>236</ele>
        <time>2017-09-03T11:31:14Z</time>
      </trkpt>
      <trkpt lat="45.70698" lon="5.65605">
        <ele>236</ele>
        <time>2017-09-03T11:31:30Z</time>
      </trkpt>
      <trkpt lat="45.70701" lon="5.65598">
        <ele>236</ele>
        <time>2017-09-03T11:31:30Z</time>
      </trkpt>
      <trkpt lat="45.70705" lon="5.6559">
        <ele>236</ele>
        <time>2017-09-03T11:31:30Z</time>
      </trkpt>
      <trkpt lat="45.7071" lon="5.65584">
        <ele>235</ele>
        <time>2017-09-03T11:31:30Z</time>
      </trkpt>
      <trkpt lat="45.70713" lon="5.65577">
        <ele>235</ele>
        <time>2017-09-03T11:31:46Z</time>
      </trkpt>
      <trkpt lat="45.70715" lon="5.6557">
        <ele>235</ele>
        <time>2017-09-03T11:31:46Z</time>
      </trkpt>
      <trkpt lat="45.70719" lon="5.65563">
        <ele>235</ele>
        <time>2017-09-03T11:31:46Z</time>
      </trkpt>
      <trkpt lat="45.70721" lon="5.65557">
        <ele>235</ele>
        <time>2017-09-03T11:31:46Z</time>
      </trkpt>
      <trkpt lat="45.70728" lon="5.65551">
        <ele>235</ele>
        <time>2017-09-03T11:32:02Z</time>
      </trkpt>
      <trkpt lat="45.70734" lon="5.65547">
        <ele>235</ele>
        <time>2017-09-03T11:32:02Z</time>
      </trkpt>
      <trkpt lat="45.70739" lon="5.65542">
        <ele>235</ele>
        <time>2017-09-03T11:32:02Z</time>
      </trkpt>
      <trkpt lat="45.70743" lon="5.65538">
        <ele>238</ele>
        <time>2017-09-03T11:32:02Z</time>
      </trkpt>
      <trkpt lat="45.70744" lon="5.65536">
        <ele>238</ele>
        <time>2017-09-03T11:32:26Z</time>
      </trkpt>
      <trkpt lat="45.70746" lon="5.65533">
        <ele>238</ele>
        <time>2017-09-03T11:32:26Z</time>
      </trkpt>
      <trkpt lat="45.70744" lon="5.65529">
        <ele>238</ele>
        <time>2017-09-03T11:32:26Z</time>
      </trkpt>
      <trkpt lat="45.70739" lon="5.65525">
        <ele>238</ele>
        <time>2017-09-03T11:32:26Z</time>
      </trkpt>
      <trkpt lat="45.70734" lon="5.6552">
        <ele>238</ele>
        <time>2017-09-03T11:32:26Z</time>
      </trkpt>
      <trkpt lat="45.70728" lon="5.65516">
        <ele>238</ele>
        <time>2017-09-03T11:32:42Z</time>
      </trkpt>
      <trkpt lat="45.70723" lon="5.65512">
        <ele>238</ele>
        <time>2017-09-03T11:32:42Z</time>
      </trkpt>
      <trkpt lat="45.70719" lon="5.65507">
        <ele>238</ele>
        <time>2017-09-03T11:32:42Z</time>
      </trkpt>
      <trkpt lat="45.70715" lon="5.65503">
        <ele>238</ele>
        <time>2017-09-03T11:32:42Z</time>
      </trkpt>
      <trkpt lat="45.70711" lon="5.65498">
        <ele>238</ele>
        <time>2017-09-03T11:32:58Z</time>
      </trkpt>
      <trkpt lat="45.70709" lon="5.6549">
        <ele>238</ele>
        <time>2017-09-03T11:32:58Z</time>
      </trkpt>
      <trkpt lat="45.7071" lon="5.65481">
        <ele>238</ele>
        <time>2017-09-03T11:32:58Z</time>
      </trkpt>
      <trkpt lat="45.70712" lon="5.65473">
        <ele>238</ele>
        <time>2017-09-03T11:32:58Z</time>
      </trkpt>
      <trkpt lat="45.70714" lon="5.65465">
        <ele>238</ele>
        <time>2017-09-03T11:33:14Z</time>
      </trkpt>
      <trkpt lat="45.70716" lon="5.65458">
        <ele>240</ele>
        <time>2017-09-03T11:33:14Z</time>
      </trkpt>
      <trkpt lat="45.70716" lon="5.65449">
        <ele>240</ele>
        <time>2017-09-03T11:33:14Z</time>
      </trkpt>
      <trkpt lat="45.70714" lon="5.65438">
        <ele>240</ele>
        <time>2017-09-03T11:33:14Z</time>
      </trkpt>
      <trkpt lat="45.70713" lon="5.65427">
        <ele>240</ele>
        <time>2017-09-03T11:33:30Z</time>
      </trkpt>
      <trkpt lat="45.70713" lon="5.65415">
        <ele>240</ele>
        <time>2017-09-03T11:33:30Z</time>
      </trkpt>
      <trkpt lat="45.70718" lon="5.65408">
        <ele>240</ele>
        <time>2017-09-03T11:33:30Z</time>
      </trkpt>
      <trkpt lat="45.70719" lon="5.65404">
        <ele>240</ele>
        <time>2017-09-03T11:33:30Z</time>
      </trkpt>
      <trkpt lat="45.70721" lon="5.65398">
        <ele>240</ele>
        <time>2017-09-03T11:33:46Z</time>
      </trkpt>
      <trkpt lat="45.70726" lon="5.65393">
        <ele>240</ele>
        <time>2017-09-03T11:33:46Z</time>
      </trkpt>
      <trkpt lat="45.70731" lon="5.65388">
        <ele>240</ele>
        <time>2017-09-03T11:33:46Z</time>
      </trkpt>
      <trkpt lat="45.70736" lon="5.65383">
        <ele>240</ele>
        <time>2017-09-03T11:33:46Z</time>
      </trkpt>
      <trkpt lat="45.7074" lon="5.65379">
        <ele>240</ele>
        <time>2017-09-03T11:34:06Z</time>
      </trkpt>
      <trkpt lat="45.70739" lon="5.65378">
        <ele>240</ele>
        <time>2017-09-03T11:34:06Z</time>
      </trkpt>
      <trkpt lat="45.70741" lon="5.65377">
        <ele>240</ele>
        <time>2017-09-03T11:34:06Z</time>
      </trkpt>
      <trkpt lat="45.70746" lon="5.65374">
        <ele>244</ele>
        <time>2017-09-03T11:34:06Z</time>
      </trkpt>
      <trkpt lat="45.70752" lon="5.65374">
        <ele>244</ele>
        <time>2017-09-03T11:34:06Z</time>
      </trkpt>
      <trkpt lat="45.70759" lon="5.65364">
        <ele>244</ele>
        <time>2017-09-03T11:34:22Z</time>
      </trkpt>
      <trkpt lat="45.7076" lon="5.65346">
        <ele>244</ele>
        <time>2017-09-03T11:34:22Z</time>
      </trkpt>
      <trkpt lat="45.70761" lon="5.65326">
        <ele>244</ele>
        <time>2017-09-03T11:34:22Z</time>
      </trkpt>
      <trkpt lat="45.70764" lon="5.65307">
        <ele>244</ele>
        <time>2017-09-03T11:34:22Z</time>
      </trkpt>
      <trkpt lat="45.70771" lon="5.65291">
        <ele>256</ele>
        <time>2017-09-03T11:34:38Z</time>
      </trkpt>
      <trkpt lat="45.70781" lon="5.65283">
        <ele>256</ele>
        <time>2017-09-03T11:34:38Z</time>
      </trkpt>
      <trkpt lat="45.70787" lon="5.6528">
        <ele>256</ele>
        <time>2017-09-03T11:34:38Z</time>
      </trkpt>
      <trkpt lat="45.70793" lon="5.65279">
        <ele>249</ele>
        <time>2017-09-03T11:34:38Z</time>
      </trkpt>
      <trkpt lat="45.70799" lon="5.65277">
        <ele>249</ele>
        <time>2017-09-03T11:34:54Z</time>
      </trkpt>
      <trkpt lat="45.708" lon="5.65276">
        <ele>249</ele>
        <time>2017-09-03T11:34:54Z</time>
      </trkpt>
      <trkpt lat="45.70805" lon="5.65273">
        <ele>249</ele>
        <time>2017-09-03T11:34:54Z</time>
      </trkpt>
      <trkpt lat="45.70811" lon="5.65268">
        <ele>249</ele>
        <time>2017-09-03T11:34:54Z</time>
      </trkpt>
      <trkpt lat="45.70816" lon="5.65264">
        <ele>249</ele>
        <time>2017-09-03T11:35:10Z</time>
      </trkpt>
      <trkpt lat="45.70821" lon="5.65258">
        <ele>249</ele>
        <time>2017-09-03T11:35:10Z</time>
      </trkpt>
      <trkpt lat="45.70826" lon="5.65252">
        <ele>249</ele>
        <time>2017-09-03T11:35:10Z</time>
      </trkpt>
      <trkpt lat="45.7083" lon="5.65245">
        <ele>249</ele>
        <time>2017-09-03T11:35:10Z</time>
      </trkpt>
      <trkpt lat="45.70833" lon="5.65239">
        <ele>249</ele>
        <time>2017-09-03T11:35:26Z</time>
      </trkpt>
      <trkpt lat="45.70835" lon="5.65232">
        <ele>249</ele>
        <time>2017-09-03T11:35:26Z</time>
      </trkpt>
      <trkpt lat="45.70838" lon="5.65225">
        <ele>249</ele>
        <time>2017-09-03T11:35:26Z</time>
      </trkpt>
      <trkpt lat="45.70842" lon="5.6522">
        <ele>249</ele>
        <time>2017-09-03T11:35:26Z</time>
      </trkpt>
      <trkpt lat="45.70845" lon="5.65214">
        <ele>249</ele>
        <time>2017-09-03T11:35:42Z</time>
      </trkpt>
      <trkpt lat="45.7085" lon="5.65208">
        <ele>252</ele>
        <time>2017-09-03T11:35:42Z</time>
      </trkpt>
      <trkpt lat="45.70853" lon="5.65201">
        <ele>252</ele>
        <time>2017-09-03T11:35:42Z</time>
      </trkpt>
      <trkpt lat="45.70858" lon="5.65197">
        <ele>252</ele>
        <time>2017-09-03T11:35:42Z</time>
      </trkpt>
      <trkpt lat="45.70865" lon="5.65194">
        <ele>252</ele>
        <time>2017-09-03T11:35:58Z</time>
      </trkpt>
      <trkpt lat="45.70871" lon="5.65191">
        <ele>252</ele>
        <time>2017-09-03T11:35:58Z</time>
      </trkpt>
      <trkpt lat="45.70878" lon="5.6519">
        <ele>249</ele>
        <time>2017-09-03T11:35:58Z</time>
      </trkpt>
      <trkpt lat="45.70884" lon="5.65188">
        <ele>249</ele>
        <time>2017-09-03T11:35:58Z</time>
      </trkpt>
      <trkpt lat="45.7089" lon="5.65187">
        <ele>249</ele>
        <time>2017-09-03T11:36:14Z</time>
      </trkpt>
      <trkpt lat="45.70895" lon="5.65184">
        <ele>249</ele>
        <time>2017-09-03T11:36:14Z</time>
      </trkpt>
      <trkpt lat="45.709" lon="5.65182">
        <ele>249</ele>
        <time>2017-09-03T11:36:14Z</time>
      </trkpt>
      <trkpt lat="45.70904" lon="5.65179">
        <ele>249</ele>
        <time>2017-09-03T11:36:14Z</time>
      </trkpt>
      <trkpt lat="45.70909" lon="5.65176">
        <ele>249</ele>
        <time>2017-09-03T11:36:30Z</time>
      </trkpt>
      <trkpt lat="45.70913" lon="5.65174">
        <ele>249</ele>
        <time>2017-09-03T11:36:30Z</time>
      </trkpt>
      <trkpt lat="45.70917" lon="5.65169">
        <ele>249</ele>
        <time>2017-09-03T11:36:30Z</time>
      </trkpt>
      <trkpt lat="45.70921" lon="5.65164">
        <ele>249</ele>
        <time>2017-09-03T11:36:30Z</time>
      </trkpt>
      <trkpt lat="45.70925" lon="5.65159">
        <ele>249</ele>
        <time>2017-09-03T11:36:46Z</time>
      </trkpt>
      <trkpt lat="45.70931" lon="5.65155">
        <ele>249</ele>
        <time>2017-09-03T11:36:46Z</time>
      </trkpt>
      <trkpt lat="45.70936" lon="5.65152">
        <ele>249</ele>
        <time>2017-09-03T11:36:46Z</time>
      </trkpt>
      <trkpt lat="45.70941" lon="5.65147">
        <ele>249</ele>
        <time>2017-09-03T11:36:46Z</time>
      </trkpt>
      <trkpt lat="45.70951" lon="5.65136">
        <ele>249</ele>
        <time>2017-09-03T11:37:02Z</time>
      </trkpt>
      <trkpt lat="45.70959" lon="5.65128">
        <ele>248</ele>
        <time>2017-09-03T11:37:02Z</time>
      </trkpt>
      <trkpt lat="45.70962" lon="5.65122">
        <ele>247</ele>
        <time>2017-09-03T11:37:02Z</time>
      </trkpt>
      <trkpt lat="45.70966" lon="5.65115">
        <ele>247</ele>
        <time>2017-09-03T11:37:02Z</time>
      </trkpt>
      <trkpt lat="45.7097" lon="5.65108">
        <ele>247</ele>
        <time>2017-09-03T11:37:18Z</time>
      </trkpt>
      <trkpt lat="45.70975" lon="5.65102">
        <ele>247</ele>
        <time>2017-09-03T11:37:18Z</time>
      </trkpt>
      <trkpt lat="45.70979" lon="5.65097">
        <ele>247</ele>
        <time>2017-09-03T11:37:18Z</time>
      </trkpt>
      <trkpt lat="45.70984" lon="5.65093">
        <ele>247</ele>
        <time>2017-09-03T11:37:18Z</time>
      </trkpt>
      <trkpt lat="45.70986" lon="5.65087">
        <ele>247</ele>
        <time>2017-09-03T11:37:34Z</time>
      </trkpt>
      <trkpt lat="45.70983" lon="5.6508">
        <ele>247</ele>
        <time>2017-09-03T11:37:34Z</time>
      </trkpt>
      <trkpt lat="45.7098" lon="5.65073">
        <ele>247</ele>
        <time>2017-09-03T11:37:34Z</time>
      </trkpt>
      <trkpt lat="45.70979" lon="5.65068">
        <ele>247</ele>
        <time>2017-09-03T11:37:34Z</time>
      </trkpt>
      <trkpt lat="45.70977" lon="5.65064">
        <ele>247</ele>
        <time>2017-09-03T11:37:50Z</time>
      </trkpt>
      <trkpt lat="45.70973" lon="5.65058">
        <ele>247</ele>
        <time>2017-09-03T11:37:50Z</time>
      </trkpt>
      <trkpt lat="45.7097" lon="5.65052">
        <ele>247</ele>
        <time>2017-09-03T11:37:50Z</time>
      </trkpt>
      <trkpt lat="45.70967" lon="5.65046">
        <ele>247</ele>
        <time>2017-09-03T11:37:50Z</time>
      </trkpt>
      <trkpt lat="45.70965" lon="5.65039">
        <ele>252</ele>
        <time>2017-09-03T11:38:06Z</time>
      </trkpt>
      <trkpt lat="45.70962" lon="5.65033">
        <ele>252</ele>
        <time>2017-09-03T11:38:06Z</time>
      </trkpt>
      <trkpt lat="45.70958" lon="5.65026">
        <ele>252</ele>
        <time>2017-09-03T11:38:06Z</time>
      </trkpt>
      <trkpt lat="45.70956" lon="5.6502">
        <ele>256</ele>
        <time>2017-09-03T11:38:06Z</time>
      </trkpt>
      <trkpt lat="45.70954" lon="5.65015">
        <ele>256</ele>
        <time>2017-09-03T11:38:22Z</time>
      </trkpt>
      <trkpt lat="45.70951" lon="5.65009">
        <ele>256</ele>
        <time>2017-09-03T11:38:22Z</time>
      </trkpt>
      <trkpt lat="45.70947" lon="5.65003">
        <ele>256</ele>
        <time>2017-09-03T11:38:22Z</time>
      </trkpt>
      <trkpt lat="45.70945" lon="5.64996">
        <ele>256</ele>
        <time>2017-09-03T11:38:22Z</time>
      </trkpt>
      <trkpt lat="45.70942" lon="5.64989">
        <ele>256</ele>
        <time>2017-09-03T11:38:38Z</time>
      </trkpt>
      <trkpt lat="45.70939" lon="5.64979">
        <ele>256</ele>
        <time>2017-09-03T11:38:38Z</time>
      </trkpt>
      <trkpt lat="45.70936" lon="5.64972">
        <ele>256</ele>
        <time>2017-09-03T11:38:38Z</time>
      </trkpt>
      <trkpt lat="45.70936" lon="5.64964">
        <ele>256</ele>
        <time>2017-09-03T11:38:38Z</time>
      </trkpt>
      <trkpt lat="45.70933" lon="5.64957">
        <ele>264</ele>
        <time>2017-09-03T11:38:54Z</time>
      </trkpt>
      <trkpt lat="45.7093" lon="5.6495">
        <ele>264</ele>
        <time>2017-09-03T11:38:54Z</time>
      </trkpt>
      <trkpt lat="45.7093" lon="5.64944">
        <ele>264</ele>
        <time>2017-09-03T11:38:54Z</time>
      </trkpt>
      <trkpt lat="45.70928" lon="5.64937">
        <ele>264</ele>
        <time>2017-09-03T11:38:54Z</time>
      </trkpt>
      <trkpt lat="45.70927" lon="5.6493">
        <ele>264</ele>
        <time>2017-09-03T11:39:10Z</time>
      </trkpt>
      <trkpt lat="45.70923" lon="5.64922">
        <ele>264</ele>
        <time>2017-09-03T11:39:10Z</time>
      </trkpt>
      <trkpt lat="45.70919" lon="5.64913">
        <ele>264</ele>
        <time>2017-09-03T11:39:10Z</time>
      </trkpt>
      <trkpt lat="45.70913" lon="5.64907">
        <ele>264</ele>
        <time>2017-09-03T11:39:10Z</time>
      </trkpt>
      <trkpt lat="45.70908" lon="5.64902">
        <ele>264</ele>
        <time>2017-09-03T11:39:26Z</time>
      </trkpt>
      <trkpt lat="45.70905" lon="5.64897">
        <ele>264</ele>
        <time>2017-09-03T11:39:26Z</time>
      </trkpt>
      <trkpt lat="45.70899" lon="5.64887">
        <ele>264</ele>
        <time>2017-09-03T11:39:26Z</time>
      </trkpt>
      <trkpt lat="45.70895" lon="5.64883">
        <ele>264</ele>
        <time>2017-09-03T11:39:26Z</time>
      </trkpt>
      <trkpt lat="45.70893" lon="5.64879">
        <ele>264</ele>
        <time>2017-09-03T11:39:42Z</time>
      </trkpt>
      <trkpt lat="45.70891" lon="5.64873">
        <ele>273</ele>
        <time>2017-09-03T11:39:42Z</time>
      </trkpt>
      <trkpt lat="45.7089" lon="5.64868">
        <ele>273</ele>
        <time>2017-09-03T11:39:42Z</time>
      </trkpt>
      <trkpt lat="45.70888" lon="5.64863">
        <ele>273</ele>
        <time>2017-09-03T11:39:42Z</time>
      </trkpt>
      <trkpt lat="45.70885" lon="5.64857">
        <ele>273</ele>
        <time>2017-09-03T11:39:58Z</time>
      </trkpt>
      <trkpt lat="45.70881" lon="5.64851">
        <ele>273</ele>
        <time>2017-09-03T11:39:58Z</time>
      </trkpt>
      <trkpt lat="45.70876" lon="5.64842">
        <ele>273</ele>
        <time>2017-09-03T11:39:58Z</time>
      </trkpt>
      <trkpt lat="45.70872" lon="5.64833">
        <ele>291</ele>
        <time>2017-09-03T11:39:58Z</time>
      </trkpt>
      <trkpt lat="45.70868" lon="5.6483">
        <ele>291</ele>
        <time>2017-09-03T11:40:14Z</time>
      </trkpt>
      <trkpt lat="45.70865" lon="5.64825">
        <ele>291</ele>
        <time>2017-09-03T11:40:14Z</time>
      </trkpt>
      <trkpt lat="45.70863" lon="5.6482">
        <ele>291</ele>
        <time>2017-09-03T11:40:14Z</time>
      </trkpt>
      <trkpt lat="45.7086" lon="5.64815">
        <ele>291</ele>
        <time>2017-09-03T11:40:14Z</time>
      </trkpt>
      <trkpt lat="45.70855" lon="5.64807">
        <ele>291</ele>
        <time>2017-09-03T11:40:30Z</time>
      </trkpt>
      <trkpt lat="45.70854" lon="5.64804">
        <ele>291</ele>
        <time>2017-09-03T11:40:30Z</time>
      </trkpt>
      <trkpt lat="45.70852" lon="5.64798">
        <ele>291</ele>
        <time>2017-09-03T11:40:30Z</time>
      </trkpt>
      <trkpt lat="45.70853" lon="5.64793">
        <ele>291</ele>
        <time>2017-09-03T11:40:30Z</time>
      </trkpt>
      <trkpt lat="45.70855" lon="5.6479">
        <ele>301</ele>
        <time>2017-09-03T11:40:46Z</time>
      </trkpt>
      <trkpt lat="45.70859" lon="5.64787">
        <ele>301</ele>
        <time>2017-09-03T11:40:46Z</time>
      </trkpt>
      <trkpt lat="45.70864" lon="5.64781">
        <ele>301</ele>
        <time>2017-09-03T11:40:46Z</time>
      </trkpt>
      <trkpt lat="45.70867" lon="5.64772">
        <ele>301</ele>
        <time>2017-09-03T11:40:46Z</time>
      </trkpt>
      <trkpt lat="45.7087" lon="5.64762">
        <ele>301</ele>
        <time>2017-09-03T11:41:02Z</time>
      </trkpt>
      <trkpt lat="45.70875" lon="5.64756">
        <ele>283</ele>
        <time>2017-09-03T11:41:02Z</time>
      </trkpt>
      <trkpt lat="45.70881" lon="5.64752">
        <ele>283</ele>
        <time>2017-09-03T11:41:02Z</time>
      </trkpt>
      <trkpt lat="45.70884" lon="5.64743">
        <ele>283</ele>
        <time>2017-09-03T11:41:02Z</time>
      </trkpt>
      <trkpt lat="45.70886" lon="5.64734">
        <ele>283</ele>
        <time>2017-09-03T11:41:18Z</time>
      </trkpt>
      <trkpt lat="45.70889" lon="5.64727">
        <ele>283</ele>
        <time>2017-09-03T11:41:18Z</time>
      </trkpt>
      <trkpt lat="45.7089" lon="5.6472">
        <ele>283</ele>
        <time>2017-09-03T11:41:18Z</time>
      </trkpt>
      <trkpt lat="45.70891" lon="5.64712">
        <ele>283</ele>
        <time>2017-09-03T11:41:18Z</time>
      </trkpt>
      <trkpt lat="45.70895" lon="5.64706">
        <ele>298</ele>
        <time>2017-09-03T11:41:34Z</time>
      </trkpt>
      <trkpt lat="45.70899" lon="5.64704">
        <ele>298</ele>
        <time>2017-09-03T11:41:34Z</time>
      </trkpt>
      <trkpt lat="45.70902" lon="5.64701">
        <ele>298</ele>
        <time>2017-09-03T11:41:34Z</time>
      </trkpt>
      <trkpt lat="45.70905" lon="5.64699">
        <ele>298</ele>
        <time>2017-09-03T11:41:34Z</time>
      </trkpt>
      <trkpt lat="45.70908" lon="5.64696">
        <ele>298</ele>
        <time>2017-09-03T11:41:50Z</time>
      </trkpt>
      <trkpt lat="45.70912" lon="5.64692">
        <ele>298</ele>
        <time>2017-09-03T11:41:50Z</time>
      </trkpt>
      <trkpt lat="45.70917" lon="5.64689">
        <ele>298</ele>
        <time>2017-09-03T11:41:50Z</time>
      </trkpt>
      <trkpt lat="45.70922" lon="5.64685">
        <ele>298</ele>
        <time>2017-09-03T11:41:50Z</time>
      </trkpt>
      <trkpt lat="45.70929" lon="5.64678">
        <ele>298</ele>
        <time>2017-09-03T11:42:06Z</time>
      </trkpt>
      <trkpt lat="45.70933" lon="5.64669">
        <ele>298</ele>
        <time>2017-09-03T11:42:06Z</time>
      </trkpt>
      <trkpt lat="45.70937" lon="5.64663">
        <ele>298</ele>
        <time>2017-09-03T11:42:06Z</time>
      </trkpt>
      <trkpt lat="45.70939" lon="5.64658">
        <ele>298</ele>
        <time>2017-09-03T11:42:06Z</time>
      </trkpt>
      <trkpt lat="45.70938" lon="5.6465">
        <ele>298</ele>
        <time>2017-09-03T11:42:22Z</time>
      </trkpt>
      <trkpt lat="45.70936" lon="5.64641">
        <ele>298</ele>
        <time>2017-09-03T11:42:22Z</time>
      </trkpt>
      <trkpt lat="45.70935" lon="5.64633">
        <ele>298</ele>
        <time>2017-09-03T11:42:22Z</time>
      </trkpt>
      <trkpt lat="45.70932" lon="5.64624">
        <ele>318</ele>
        <time>2017-09-03T11:42:22Z</time>
      </trkpt>
      <trkpt lat="45.70929" lon="5.64615">
        <ele>318</ele>
        <time>2017-09-03T11:42:38Z</time>
      </trkpt>
      <trkpt lat="45.7093" lon="5.64606">
        <ele>318</ele>
        <time>2017-09-03T11:42:38Z</time>
      </trkpt>
      <trkpt lat="45.70935" lon="5.646">
        <ele>318</ele>
        <time>2017-09-03T11:42:38Z</time>
      </trkpt>
      <trkpt lat="45.7094" lon="5.64596">
        <ele>318</ele>
        <time>2017-09-03T11:42:38Z</time>
      </trkpt>
      <trkpt lat="45.70944" lon="5.64592">
        <ele>318</ele>
        <time>2017-09-03T11:42:54Z</time>
      </trkpt>
      <trkpt lat="45.7095" lon="5.6459">
        <ele>318</ele>
        <time>2017-09-03T11:42:54Z</time>
      </trkpt>
      <trkpt lat="45.70957" lon="5.64592">
        <ele>318</ele>
        <time>2017-09-03T11:42:54Z</time>
      </trkpt>
      <trkpt lat="45.70963" lon="5.64588">
        <ele>315</ele>
        <time>2017-09-03T11:42:54Z</time>
      </trkpt>
      <trkpt lat="45.7097" lon="5.64588">
        <ele>315</ele>
        <time>2017-09-03T11:43:10Z</time>
      </trkpt>
      <trkpt lat="45.70974" lon="5.64585">
        <ele>315</ele>
        <time>2017-09-03T11:43:10Z</time>
      </trkpt>
      <trkpt lat="45.70978" lon="5.64581">
        <ele>315</ele>
        <time>2017-09-03T11:43:10Z</time>
      </trkpt>
      <trkpt lat="45.70985" lon="5.6458">
        <ele>315</ele>
        <time>2017-09-03T11:43:10Z</time>
      </trkpt>
      <trkpt lat="45.70991" lon="5.6458">
        <ele>315</ele>
        <time>2017-09-03T11:43:26Z</time>
      </trkpt>
      <trkpt lat="45.70997" lon="5.6458">
        <ele>315</ele>
        <time>2017-09-03T11:43:26Z</time>
      </trkpt>
      <trkpt lat="45.71003" lon="5.6458">
        <ele>315</ele>
        <time>2017-09-03T11:43:26Z</time>
      </trkpt>
      <trkpt lat="45.71006" lon="5.64579">
        <ele>315</ele>
        <time>2017-09-03T11:43:26Z</time>
      </trkpt>
      <trkpt lat="45.71009" lon="5.64576">
        <ele>315</ele>
        <time>2017-09-03T11:43:58Z</time>
      </trkpt>
      <trkpt lat="45.71008" lon="5.64575">
        <ele>315</ele>
        <time>2017-09-03T11:43:58Z</time>
      </trkpt>
      <trkpt lat="45.71008" lon="5.64574">
        <ele>315</ele>
        <time>2017-09-03T11:43:58Z</time>
      </trkpt>
      <trkpt lat="45.71004" lon="5.64571">
        <ele>315</ele>
        <time>2017-09-03T11:43:58Z</time>
      </trkpt>
      <trkpt lat="45.70998" lon="5.64568">
        <ele>315</ele>
        <time>2017-09-03T11:43:58Z</time>
      </trkpt>
      <trkpt lat="45.70995" lon="5.64565">
        <ele>315</ele>
        <time>2017-09-03T11:44:14Z</time>
      </trkpt>
      <trkpt lat="45.70992" lon="5.64562">
        <ele>315</ele>
        <time>2017-09-03T11:44:14Z</time>
      </trkpt>
      <trkpt lat="45.7099" lon="5.64557">
        <ele>315</ele>
        <time>2017-09-03T11:44:14Z</time>
      </trkpt>
      <trkpt lat="45.70987" lon="5.64552">
        <ele>315</ele>
        <time>2017-09-03T11:44:14Z</time>
      </trkpt>
      <trkpt lat="45.70983" lon="5.64547">
        <ele>315</ele>
        <time>2017-09-03T11:44:30Z</time>
      </trkpt>
      <trkpt lat="45.70979" lon="5.64545">
        <ele>315</ele>
        <time>2017-09-03T11:44:30Z</time>
      </trkpt>
      <trkpt lat="45.70977" lon="5.64542">
        <ele>315</ele>
        <time>2017-09-03T11:44:30Z</time>
      </trkpt>
      <trkpt lat="45.70974" lon="5.64541">
        <ele>340</ele>
        <time>2017-09-03T11:44:30Z</time>
      </trkpt>
      <trkpt lat="45.7097" lon="5.6454">
        <ele>340</ele>
        <time>2017-09-03T11:44:46Z</time>
      </trkpt>
      <trkpt lat="45.70966" lon="5.64538">
        <ele>340</ele>
        <time>2017-09-03T11:44:46Z</time>
      </trkpt>
      <trkpt lat="45.70963" lon="5.64535">
        <ele>340</ele>
        <time>2017-09-03T11:44:46Z</time>
      </trkpt>
      <trkpt lat="45.70958" lon="5.64532">
        <ele>339</ele>
        <time>2017-09-03T11:44:46Z</time>
      </trkpt>
      <trkpt lat="45.70954" lon="5.6453">
        <ele>339</ele>
        <time>2017-09-03T11:45:02Z</time>
      </trkpt>
      <trkpt lat="45.7095" lon="5.64527">
        <ele>339</ele>
        <time>2017-09-03T11:45:02Z</time>
      </trkpt>
      <trkpt lat="45.70946" lon="5.64524">
        <ele>339</ele>
        <time>2017-09-03T11:45:02Z</time>
      </trkpt>
      <trkpt lat="45.70942" lon="5.64518">
        <ele>339</ele>
        <time>2017-09-03T11:45:02Z</time>
      </trkpt>
      <trkpt lat="45.70938" lon="5.64513">
        <ele>339</ele>
        <time>2017-09-03T11:45:18Z</time>
      </trkpt>
      <trkpt lat="45.70933" lon="5.64509">
        <ele>339</ele>
        <time>2017-09-03T11:45:18Z</time>
      </trkpt>
      <trkpt lat="45.70931" lon="5.64504">
        <ele>339</ele>
        <time>2017-09-03T11:45:18Z</time>
      </trkpt>
      <trkpt lat="45.70928" lon="5.64501">
        <ele>339</ele>
        <time>2017-09-03T11:45:18Z</time>
      </trkpt>
      <trkpt lat="45.70927" lon="5.64497">
        <ele>339</ele>
        <time>2017-09-03T11:45:34Z</time>
      </trkpt>
      <trkpt lat="45.70925" lon="5.64495">
        <ele>339</ele>
        <time>2017-09-03T11:45:34Z</time>
      </trkpt>
      <trkpt lat="45.70922" lon="5.64494">
        <ele>339</ele>
        <time>2017-09-03T11:45:34Z</time>
      </trkpt>
      <trkpt lat="45.70918" lon="5.64492">
        <ele>339</ele>
        <time>2017-09-03T11:45:34Z</time>
      </trkpt>
      <trkpt lat="45.70913" lon="5.64491">
        <ele>339</ele>
        <time>2017-09-03T11:45:50Z</time>
      </trkpt>
      <trkpt lat="45.70908" lon="5.6449">
        <ele>339</ele>
        <time>2017-09-03T11:45:50Z</time>
      </trkpt>
      <trkpt lat="45.70906" lon="5.64491">
        <ele>339</ele>
        <time>2017-09-03T11:45:50Z</time>
      </trkpt>
      <trkpt lat="45.70903" lon="5.64491">
        <ele>339</ele>
        <time>2017-09-03T11:45:50Z</time>
      </trkpt>
      <trkpt lat="45.70901" lon="5.64493">
        <ele>339</ele>
        <time>2017-09-03T11:46:06Z</time>
      </trkpt>
      <trkpt lat="45.70899" lon="5.64491">
        <ele>339</ele>
        <time>2017-09-03T11:46:06Z</time>
      </trkpt>
      <trkpt lat="45.70895" lon="5.64483">
        <ele>339</ele>
        <time>2017-09-03T11:46:06Z</time>
      </trkpt>
      <trkpt lat="45.70892" lon="5.64477">
        <ele>339</ele>
        <time>2017-09-03T11:46:06Z</time>
      </trkpt>
      <trkpt lat="45.70889" lon="5.6447">
        <ele>339</ele>
        <time>2017-09-03T11:46:26Z</time>
      </trkpt>
      <trkpt lat="45.70886" lon="5.64466">
        <ele>339</ele>
        <time>2017-09-03T11:46:26Z</time>
      </trkpt>
      <trkpt lat="45.70885" lon="5.64462">
        <ele>339</ele>
        <time>2017-09-03T11:46:26Z</time>
      </trkpt>
      <trkpt lat="45.70884" lon="5.64459">
        <ele>339</ele>
        <time>2017-09-03T11:46:26Z</time>
      </trkpt>
      <trkpt lat="45.70885" lon="5.64453">
        <ele>355</ele>
        <time>2017-09-03T11:46:26Z</time>
      </trkpt>
      <trkpt lat="45.70884" lon="5.64449">
        <ele>355</ele>
        <time>2017-09-03T11:46:46Z</time>
      </trkpt>
      <trkpt lat="45.70882" lon="5.64447">
        <ele>355</ele>
        <time>2017-09-03T11:46:46Z</time>
      </trkpt>
      <trkpt lat="45.7088" lon="5.64445">
        <ele>355</ele>
        <time>2017-09-03T11:46:46Z</time>
      </trkpt>
      <trkpt lat="45.70879" lon="5.6444">
        <ele>355</ele>
        <time>2017-09-03T11:46:46Z</time>
      </trkpt>
      <trkpt lat="45.70878" lon="5.64432">
        <ele>355</ele>
        <time>2017-09-03T11:46:46Z</time>
      </trkpt>
      <trkpt lat="45.70881" lon="5.64425">
        <ele>355</ele>
        <time>2017-09-03T11:47:02Z</time>
      </trkpt>
      <trkpt lat="45.70882" lon="5.64418">
        <ele>355</ele>
        <time>2017-09-03T11:47:02Z</time>
      </trkpt>
      <trkpt lat="45.70884" lon="5.64411">
        <ele>355</ele>
        <time>2017-09-03T11:47:02Z</time>
      </trkpt>
      <trkpt lat="45.70888" lon="5.64408">
        <ele>355</ele>
        <time>2017-09-03T11:47:02Z</time>
      </trkpt>
      <trkpt lat="45.7089" lon="5.64404">
        <ele>355</ele>
        <time>2017-09-03T11:47:18Z</time>
      </trkpt>
      <trkpt lat="45.70893" lon="5.644">
        <ele>355</ele>
        <time>2017-09-03T11:47:18Z</time>
      </trkpt>
      <trkpt lat="45.70897" lon="5.64395">
        <ele>355</ele>
        <time>2017-09-03T11:47:18Z</time>
      </trkpt>
      <trkpt lat="45.70902" lon="5.64394">
        <ele>355</ele>
        <time>2017-09-03T11:47:18Z</time>
      </trkpt>
      <trkpt lat="45.70907" lon="5.64391">
        <ele>355</ele>
        <time>2017-09-03T11:47:34Z</time>
      </trkpt>
      <trkpt lat="45.70911" lon="5.64388">
        <ele>355</ele>
        <time>2017-09-03T11:47:34Z</time>
      </trkpt>
      <trkpt lat="45.70915" lon="5.64386">
        <ele>355</ele>
        <time>2017-09-03T11:47:34Z</time>
      </trkpt>
      <trkpt lat="45.70919" lon="5.64385">
        <ele>355</ele>
        <time>2017-09-03T11:47:34Z</time>
      </trkpt>
      <trkpt lat="45.70934" lon="5.64366">
        <ele>371</ele>
        <time>2017-09-03T11:48:42Z</time>
      </trkpt>
      <trkpt lat="45.70932" lon="5.64362">
        <ele>371</ele>
        <time>2017-09-03T11:48:42Z</time>
      </trkpt>
      <trkpt lat="45.70934" lon="5.64359">
        <ele>371</ele>
        <time>2017-09-03T11:48:42Z</time>
      </trkpt>
      <trkpt lat="45.70937" lon="5.64358">
        <ele>371</ele>
        <time>2017-09-03T11:48:42Z</time>
      </trkpt>
      <trkpt lat="45.70942" lon="5.6436">
        <ele>371</ele>
        <time>2017-09-03T11:48:42Z</time>
      </trkpt>
      <trkpt lat="45.70945" lon="5.64357">
        <ele>371</ele>
        <time>2017-09-03T11:48:58Z</time>
      </trkpt>
      <trkpt lat="45.70947" lon="5.64355">
        <ele>371</ele>
        <time>2017-09-03T11:48:58Z</time>
      </trkpt>
      <trkpt lat="45.70953" lon="5.64353">
        <ele>371</ele>
        <time>2017-09-03T11:48:58Z</time>
      </trkpt>
      <trkpt lat="45.70958" lon="5.64354">
        <ele>371</ele>
        <time>2017-09-03T11:48:58Z</time>
      </trkpt>
      <trkpt lat="45.70964" lon="5.64349">
        <ele>361</ele>
        <time>2017-09-03T11:49:22Z</time>
      </trkpt>
      <trkpt lat="45.70965" lon="5.64347">
        <ele>361</ele>
        <time>2017-09-03T11:49:22Z</time>
      </trkpt>
      <trkpt lat="45.70968" lon="5.64347">
        <ele>361</ele>
        <time>2017-09-03T11:49:22Z</time>
      </trkpt>
      <trkpt lat="45.70969" lon="5.64346">
        <ele>361</ele>
        <time>2017-09-03T11:49:22Z</time>
      </trkpt>
      <trkpt lat="45.70971" lon="5.64347">
        <ele>361</ele>
        <time>2017-09-03T11:49:22Z</time>
      </trkpt>
      <trkpt lat="45.70974" lon="5.64346">
        <ele>361</ele>
        <time>2017-09-03T11:49:38Z</time>
      </trkpt>
      <trkpt lat="45.70977" lon="5.64346">
        <ele>361</ele>
        <time>2017-09-03T11:49:38Z</time>
      </trkpt>
      <trkpt lat="45.70985" lon="5.64348">
        <ele>361</ele>
        <time>2017-09-03T11:49:38Z</time>
      </trkpt>
      <trkpt lat="45.70991" lon="5.64348">
        <ele>361</ele>
        <time>2017-09-03T11:49:38Z</time>
      </trkpt>
      <trkpt lat="45.70994" lon="5.64347">
        <ele>361</ele>
        <time>2017-09-03T11:49:54Z</time>
      </trkpt>
      <trkpt lat="45.70997" lon="5.64347">
        <ele>361</ele>
        <time>2017-09-03T11:49:54Z</time>
      </trkpt>
      <trkpt lat="45.71006" lon="5.6434">
        <ele>361</ele>
        <time>2017-09-03T11:49:54Z</time>
      </trkpt>
      <trkpt lat="45.71013" lon="5.64333">
        <ele>361</ele>
        <time>2017-09-03T11:49:54Z</time>
      </trkpt>
      <trkpt lat="45.71017" lon="5.64326">
        <ele>361</ele>
        <time>2017-09-03T11:50:10Z</time>
      </trkpt>
      <trkpt lat="45.71022" lon="5.64319">
        <ele>361</ele>
        <time>2017-09-03T11:50:10Z</time>
      </trkpt>
      <trkpt lat="45.71026" lon="5.64312">
        <ele>361</ele>
        <time>2017-09-03T11:50:10Z</time>
      </trkpt>
      <trkpt lat="45.7103" lon="5.64307">
        <ele>361</ele>
        <time>2017-09-03T11:50:10Z</time>
      </trkpt>
      <trkpt lat="45.71038" lon="5.64304">
        <ele>361</ele>
        <time>2017-09-03T11:50:26Z</time>
      </trkpt>
      <trkpt lat="45.71044" lon="5.643">
        <ele>346</ele>
        <time>2017-09-03T11:50:26Z</time>
      </trkpt>
      <trkpt lat="45.71048" lon="5.64293">
        <ele>346</ele>
        <time>2017-09-03T11:50:26Z</time>
      </trkpt>
      <trkpt lat="45.71054" lon="5.64285">
        <ele>353</ele>
        <time>2017-09-03T11:50:26Z</time>
      </trkpt>
      <trkpt lat="45.7106" lon="5.64275">
        <ele>353</ele>
        <time>2017-09-03T11:50:42Z</time>
      </trkpt>
      <trkpt lat="45.71064" lon="5.64267">
        <ele>353</ele>
        <time>2017-09-03T11:50:42Z</time>
      </trkpt>
      <trkpt lat="45.71064" lon="5.64263">
        <ele>353</ele>
        <time>2017-09-03T11:50:42Z</time>
      </trkpt>
      <trkpt lat="45.71067" lon="5.64263">
        <ele>353</ele>
        <time>2017-09-03T11:50:42Z</time>
      </trkpt>
      <trkpt lat="45.7107" lon="5.64256">
        <ele>353</ele>
        <time>2017-09-03T11:50:58Z</time>
      </trkpt>
      <trkpt lat="45.71072" lon="5.64247">
        <ele>353</ele>
        <time>2017-09-03T11:50:58Z</time>
      </trkpt>
      <trkpt lat="45.71075" lon="5.6424">
        <ele>353</ele>
        <time>2017-09-03T11:50:58Z</time>
      </trkpt>
      <trkpt lat="45.71077" lon="5.64234">
        <ele>353</ele>
        <time>2017-09-03T11:50:58Z</time>
      </trkpt>
      <trkpt lat="45.71082" lon="5.64222">
        <ele>353</ele>
        <time>2017-09-03T11:51:14Z</time>
      </trkpt>
      <trkpt lat="45.71089" lon="5.64214">
        <ele>353</ele>
        <time>2017-09-03T11:51:14Z</time>
      </trkpt>
      <trkpt lat="45.71095" lon="5.6421">
        <ele>353</ele>
        <time>2017-09-03T11:51:14Z</time>
      </trkpt>
      <trkpt lat="45.71099" lon="5.64206">
        <ele>359</ele>
        <time>2017-09-03T11:51:14Z</time>
      </trkpt>
      <trkpt lat="45.71105" lon="5.64207">
        <ele>359</ele>
        <time>2017-09-03T11:51:30Z</time>
      </trkpt>
      <trkpt lat="45.71108" lon="5.64203">
        <ele>359</ele>
        <time>2017-09-03T11:51:30Z</time>
      </trkpt>
      <trkpt lat="45.7111" lon="5.64197">
        <ele>359</ele>
        <time>2017-09-03T11:51:30Z</time>
      </trkpt>
      <trkpt lat="45.71115" lon="5.64193">
        <ele>359</ele>
        <time>2017-09-03T11:51:30Z</time>
      </trkpt>
      <trkpt lat="45.71118" lon="5.64189">
        <ele>359</ele>
        <time>2017-09-03T11:51:46Z</time>
      </trkpt>
      <trkpt lat="45.71122" lon="5.64183">
        <ele>359</ele>
        <time>2017-09-03T11:51:46Z</time>
      </trkpt>
      <trkpt lat="45.71128" lon="5.64176">
        <ele>350</ele>
        <time>2017-09-03T11:51:46Z</time>
      </trkpt>
      <trkpt lat="45.71134" lon="5.64169">
        <ele>350</ele>
        <time>2017-09-03T11:51:46Z</time>
      </trkpt>
      <trkpt lat="45.7114" lon="5.64165">
        <ele>350</ele>
        <time>2017-09-03T11:52:02Z</time>
      </trkpt>
      <trkpt lat="45.71144" lon="5.64164">
        <ele>350</ele>
        <time>2017-09-03T11:52:02Z</time>
      </trkpt>
      <trkpt lat="45.71147" lon="5.6416">
        <ele>350</ele>
        <time>2017-09-03T11:52:02Z</time>
      </trkpt>
      <trkpt lat="45.71153" lon="5.64157">
        <ele>350</ele>
        <time>2017-09-03T11:52:02Z</time>
      </trkpt>
      <trkpt lat="45.71158" lon="5.64153">
        <ele>350</ele>
        <time>2017-09-03T11:52:18Z</time>
      </trkpt>
      <trkpt lat="45.71164" lon="5.64149">
        <ele>350</ele>
        <time>2017-09-03T11:52:18Z</time>
      </trkpt>
      <trkpt lat="45.71168" lon="5.64146">
        <ele>350</ele>
        <time>2017-09-03T11:52:18Z</time>
      </trkpt>
      <trkpt lat="45.71171" lon="5.64145">
        <ele>350</ele>
        <time>2017-09-03T11:52:18Z</time>
      </trkpt>
      <trkpt lat="45.71174" lon="5.64146">
        <ele>350</ele>
        <time>2017-09-03T11:52:34Z</time>
      </trkpt>
      <trkpt lat="45.7118" lon="5.6415">
        <ele>350</ele>
        <time>2017-09-03T11:52:34Z</time>
      </trkpt>
      <trkpt lat="45.71185" lon="5.64158">
        <ele>350</ele>
        <time>2017-09-03T11:52:34Z</time>
      </trkpt>
      <trkpt lat="45.71189" lon="5.64165">
        <ele>350</ele>
        <time>2017-09-03T11:52:34Z</time>
      </trkpt>
      <trkpt lat="45.71191" lon="5.64172">
        <ele>350</ele>
        <time>2017-09-03T11:52:50Z</time>
      </trkpt>
      <trkpt lat="45.71198" lon="5.64178">
        <ele>350</ele>
        <time>2017-09-03T11:52:50Z</time>
      </trkpt>
      <trkpt lat="45.71203" lon="5.64183">
        <ele>350</ele>
        <time>2017-09-03T11:52:50Z</time>
      </trkpt>
      <trkpt lat="45.71205" lon="5.64187">
        <ele>350</ele>
        <time>2017-09-03T11:52:50Z</time>
      </trkpt>
      <trkpt lat="45.7121" lon="5.64188">
        <ele>346</ele>
        <time>2017-09-03T11:53:06Z</time>
      </trkpt>
      <trkpt lat="45.71215" lon="5.64186">
        <ele>346</ele>
        <time>2017-09-03T11:53:06Z</time>
      </trkpt>
      <trkpt lat="45.7122" lon="5.64183">
        <ele>346</ele>
        <time>2017-09-03T11:53:06Z</time>
      </trkpt>
      <trkpt lat="45.71224" lon="5.64182">
        <ele>346</ele>
        <time>2017-09-03T11:53:06Z</time>
      </trkpt>
      <trkpt lat="45.71228" lon="5.64181">
        <ele>346</ele>
        <time>2017-09-03T11:53:22Z</time>
      </trkpt>
      <trkpt lat="45.71232" lon="5.64185">
        <ele>346</ele>
        <time>2017-09-03T11:53:22Z</time>
      </trkpt>
      <trkpt lat="45.71236" lon="5.6419">
        <ele>346</ele>
        <time>2017-09-03T11:53:22Z</time>
      </trkpt>
      <trkpt lat="45.71238" lon="5.64196">
        <ele>346</ele>
        <time>2017-09-03T11:53:22Z</time>
      </trkpt>
      <trkpt lat="45.71244" lon="5.64203">
        <ele>346</ele>
        <time>2017-09-03T11:53:38Z</time>
      </trkpt>
      <trkpt lat="45.71252" lon="5.64212">
        <ele>342</ele>
        <time>2017-09-03T11:53:38Z</time>
      </trkpt>
      <trkpt lat="45.71258" lon="5.64216">
        <ele>342</ele>
        <time>2017-09-03T11:53:38Z</time>
      </trkpt>
      <trkpt lat="45.71262" lon="5.64215">
        <ele>342</ele>
        <time>2017-09-03T11:53:38Z</time>
      </trkpt>
      <trkpt lat="45.71266" lon="5.64213">
        <ele>342</ele>
        <time>2017-09-03T11:53:54Z</time>
      </trkpt>
      <trkpt lat="45.71272" lon="5.64211">
        <ele>342</ele>
        <time>2017-09-03T11:53:54Z</time>
      </trkpt>
      <trkpt lat="45.71276" lon="5.64208">
        <ele>346</ele>
        <time>2017-09-03T11:53:54Z</time>
      </trkpt>
      <trkpt lat="45.71279" lon="5.64205">
        <ele>346</ele>
        <time>2017-09-03T11:53:54Z</time>
      </trkpt>
      <trkpt lat="45.71284" lon="5.64204">
        <ele>346</ele>
        <time>2017-09-03T11:54:14Z</time>
      </trkpt>
      <trkpt lat="45.71286" lon="5.64201">
        <ele>346</ele>
        <time>2017-09-03T11:54:14Z</time>
      </trkpt>
      <trkpt lat="45.71287" lon="5.642">
        <ele>346</ele>
        <time>2017-09-03T11:54:14Z</time>
      </trkpt>
      <trkpt lat="45.71291" lon="5.642">
        <ele>346</ele>
        <time>2017-09-03T11:54:14Z</time>
      </trkpt>
      <trkpt lat="45.71295" lon="5.64202">
        <ele>353</ele>
        <time>2017-09-03T11:54:14Z</time>
      </trkpt>
      <trkpt lat="45.71299" lon="5.64203">
        <ele>353</ele>
        <time>2017-09-03T11:54:30Z</time>
      </trkpt>
      <trkpt lat="45.71302" lon="5.64203">
        <ele>353</ele>
        <time>2017-09-03T11:54:30Z</time>
      </trkpt>
      <trkpt lat="45.71305" lon="5.64203">
        <ele>353</ele>
        <time>2017-09-03T11:54:30Z</time>
      </trkpt>
      <trkpt lat="45.71308" lon="5.64203">
        <ele>353</ele>
        <time>2017-09-03T11:54:30Z</time>
      </trkpt>
      <trkpt lat="45.71311" lon="5.64202">
        <ele>353</ele>
        <time>2017-09-03T11:54:46Z</time>
      </trkpt>
      <trkpt lat="45.7132" lon="5.64203">
        <ele>353</ele>
        <time>2017-09-03T11:54:46Z</time>
      </trkpt>
      <trkpt lat="45.71333" lon="5.64203">
        <ele>353</ele>
        <time>2017-09-03T11:54:46Z</time>
      </trkpt>
      <trkpt lat="45.71345" lon="5.642">
        <ele>353</ele>
        <time>2017-09-03T11:54:46Z</time>
      </trkpt>
      <trkpt lat="45.71353" lon="5.64197">
        <ele>353</ele>
        <time>2017-09-03T11:55:02Z</time>
      </trkpt>
      <trkpt lat="45.7136" lon="5.64195">
        <ele>353</ele>
        <time>2017-09-03T11:55:02Z</time>
      </trkpt>
      <trkpt lat="45.71368" lon="5.64193">
        <ele>353</ele>
        <time>2017-09-03T11:55:02Z</time>
      </trkpt>
      <trkpt lat="45.71375" lon="5.64193">
        <ele>350</ele>
        <time>2017-09-03T11:55:02Z</time>
      </trkpt>
      <trkpt lat="45.71382" lon="5.64195">
        <ele>350</ele>
        <time>2017-09-03T11:55:18Z</time>
      </trkpt>
      <trkpt lat="45.71388" lon="5.64197">
        <ele>350</ele>
        <time>2017-09-03T11:55:18Z</time>
      </trkpt>
      <trkpt lat="45.71396" lon="5.64199">
        <ele>350</ele>
        <time>2017-09-03T11:55:18Z</time>
      </trkpt>
      <trkpt lat="45.71405" lon="5.64201">
        <ele>350</ele>
        <time>2017-09-03T11:55:18Z</time>
      </trkpt>
      <trkpt lat="45.71412" lon="5.64202">
        <ele>350</ele>
        <time>2017-09-03T11:55:34Z</time>
      </trkpt>
      <trkpt lat="45.7142" lon="5.64202">
        <ele>350</ele>
        <time>2017-09-03T11:55:34Z</time>
      </trkpt>
      <trkpt lat="45.71426" lon="5.64203">
        <ele>350</ele>
        <time>2017-09-03T11:55:34Z</time>
      </trkpt>
      <trkpt lat="45.71434" lon="5.64203">
        <ele>350</ele>
        <time>2017-09-03T11:55:34Z</time>
      </trkpt>
      <trkpt lat="45.7144" lon="5.64202">
        <ele>350</ele>
        <time>2017-09-03T11:55:50Z</time>
      </trkpt>
      <trkpt lat="45.71446" lon="5.642">
        <ele>350</ele>
        <time>2017-09-03T11:55:50Z</time>
      </trkpt>
      <trkpt lat="45.71452" lon="5.64198">
        <ele>350</ele>
        <time>2017-09-03T11:55:50Z</time>
      </trkpt>
      <trkpt lat="45.71458" lon="5.64197">
        <ele>350</ele>
        <time>2017-09-03T11:55:50Z</time>
      </trkpt>
      <trkpt lat="45.71464" lon="5.64195">
        <ele>347</ele>
        <time>2017-09-03T11:56:06Z</time>
      </trkpt>
      <trkpt lat="45.7147" lon="5.64192">
        <ele>347</ele>
        <time>2017-09-03T11:56:06Z</time>
      </trkpt>
      <trkpt lat="45.71476" lon="5.64189">
        <ele>347</ele>
        <time>2017-09-03T11:56:06Z</time>
      </trkpt>
      <trkpt lat="45.71483" lon="5.64186">
        <ele>347</ele>
        <time>2017-09-03T11:56:06Z</time>
      </trkpt>
      <trkpt lat="45.71491" lon="5.64182">
        <ele>347</ele>
        <time>2017-09-03T11:56:22Z</time>
      </trkpt>
      <trkpt lat="45.71499" lon="5.64179">
        <ele>347</ele>
        <time>2017-09-03T11:56:22Z</time>
      </trkpt>
      <trkpt lat="45.71504" lon="5.64179">
        <ele>347</ele>
        <time>2017-09-03T11:56:22Z</time>
      </trkpt>
      <trkpt lat="45.71507" lon="5.64182">
        <ele>347</ele>
        <time>2017-09-03T11:56:22Z</time>
      </trkpt>
      <trkpt lat="45.71511" lon="5.64186">
        <ele>347</ele>
        <time>2017-09-03T11:56:38Z</time>
      </trkpt>
      <trkpt lat="45.71518" lon="5.64188">
        <ele>347</ele>
        <time>2017-09-03T11:56:38Z</time>
      </trkpt>
      <trkpt lat="45.71525" lon="5.64191">
        <ele>347</ele>
        <time>2017-09-03T11:56:38Z</time>
      </trkpt>
      <trkpt lat="45.71531" lon="5.64193">
        <ele>347</ele>
        <time>2017-09-03T11:56:38Z</time>
      </trkpt>
      <trkpt lat="45.71536" lon="5.64195">
        <ele>347</ele>
        <time>2017-09-03T11:56:54Z</time>
      </trkpt>
      <trkpt lat="45.71542" lon="5.64198">
        <ele>350</ele>
        <time>2017-09-03T11:56:54Z</time>
      </trkpt>
      <trkpt lat="45.71548" lon="5.64201">
        <ele>350</ele>
        <time>2017-09-03T11:56:54Z</time>
      </trkpt>
      <trkpt lat="45.71554" lon="5.64202">
        <ele>350</ele>
        <time>2017-09-03T11:56:54Z</time>
      </trkpt>
      <trkpt lat="45.7156" lon="5.64203">
        <ele>350</ele>
        <time>2017-09-03T11:57:10Z</time>
      </trkpt>
      <trkpt lat="45.71566" lon="5.64203">
        <ele>350</ele>
        <time>2017-09-03T11:57:10Z</time>
      </trkpt>
      <trkpt lat="45.71572" lon="5.64204">
        <ele>350</ele>
        <time>2017-09-03T11:57:10Z</time>
      </trkpt>
      <trkpt lat="45.71578" lon="5.64205">
        <ele>350</ele>
        <time>2017-09-03T11:57:10Z</time>
      </trkpt>
      <trkpt lat="45.71583" lon="5.64207">
        <ele>350</ele>
        <time>2017-09-03T11:57:26Z</time>
      </trkpt>
      <trkpt lat="45.71587" lon="5.64211">
        <ele>344</ele>
        <time>2017-09-03T11:57:26Z</time>
      </trkpt>
      <trkpt lat="45.71591" lon="5.64214">
        <ele>344</ele>
        <time>2017-09-03T11:57:26Z</time>
      </trkpt>
      <trkpt lat="45.71594" lon="5.64216">
        <ele>344</ele>
        <time>2017-09-03T11:57:26Z</time>
      </trkpt>
      <trkpt lat="45.71598" lon="5.64217">
        <ele>344</ele>
        <time>2017-09-03T11:57:42Z</time>
      </trkpt>
      <trkpt lat="45.71608" lon="5.6422">
        <ele>344</ele>
        <time>2017-09-03T11:57:42Z</time>
      </trkpt>
      <trkpt lat="45.71615" lon="5.64222">
        <ele>344</ele>
        <time>2017-09-03T11:57:42Z</time>
      </trkpt>
      <trkpt lat="45.71621" lon="5.64225">
        <ele>344</ele>
        <time>2017-09-03T11:57:42Z</time>
      </trkpt>
      <trkpt lat="45.71627" lon="5.64225">
        <ele>352</ele>
        <time>2017-09-03T11:57:58Z</time>
      </trkpt>
      <trkpt lat="45.71632" lon="5.64225">
        <ele>352</ele>
        <time>2017-09-03T11:57:58Z</time>
      </trkpt>
      <trkpt lat="45.71637" lon="5.64225">
        <ele>352</ele>
        <time>2017-09-03T11:57:58Z</time>
      </trkpt>
      <trkpt lat="45.71641" lon="5.64224">
        <ele>352</ele>
        <time>2017-09-03T11:57:58Z</time>
      </trkpt>
      <trkpt lat="45.71646" lon="5.64221">
        <ele>352</ele>
        <time>2017-09-03T11:58:14Z</time>
      </trkpt>
      <trkpt lat="45.71651" lon="5.64221">
        <ele>352</ele>
        <time>2017-09-03T11:58:14Z</time>
      </trkpt>
      <trkpt lat="45.71657" lon="5.64221">
        <ele>352</ele>
        <time>2017-09-03T11:58:14Z</time>
      </trkpt>
      <trkpt lat="45.71664" lon="5.64221">
        <ele>352</ele>
        <time>2017-09-03T11:58:14Z</time>
      </trkpt>
      <trkpt lat="45.71671" lon="5.64219">
        <ele>352</ele>
        <time>2017-09-03T11:58:30Z</time>
      </trkpt>
      <trkpt lat="45.71677" lon="5.64217">
        <ele>352</ele>
        <time>2017-09-03T11:58:30Z</time>
      </trkpt>
      <trkpt lat="45.71683" lon="5.64215">
        <ele>352</ele>
        <time>2017-09-03T11:58:30Z</time>
      </trkpt>
      <trkpt lat="45.71689" lon="5.64216">
        <ele>352</ele>
        <time>2017-09-03T11:58:30Z</time>
      </trkpt>
      <trkpt lat="45.71694" lon="5.64216">
        <ele>352</ele>
        <time>2017-09-03T11:58:46Z</time>
      </trkpt>
      <trkpt lat="45.717" lon="5.64216">
        <ele>352</ele>
        <time>2017-09-03T11:58:46Z</time>
      </trkpt>
      <trkpt lat="45.71706" lon="5.64217">
        <ele>352</ele>
        <time>2017-09-03T11:58:46Z</time>
      </trkpt>
      <trkpt lat="45.71712" lon="5.64217">
        <ele>359</ele>
        <time>2017-09-03T11:58:46Z</time>
      </trkpt>
      <trkpt lat="45.71713" lon="5.64212">
        <ele>359</ele>
        <time>2017-09-03T11:59:02Z</time>
      </trkpt>
      <trkpt lat="45.71712" lon="5.64204">
        <ele>360</ele>
        <time>2017-09-03T11:59:02Z</time>
      </trkpt>
      <trkpt lat="45.71713" lon="5.64198">
        <ele>360</ele>
        <time>2017-09-03T11:59:02Z</time>
      </trkpt>
      <trkpt lat="45.71715" lon="5.6419">
        <ele>360</ele>
        <time>2017-09-03T11:59:02Z</time>
      </trkpt>
      <trkpt lat="45.71716" lon="5.64179">
        <ele>360</ele>
        <time>2017-09-03T11:59:18Z</time>
      </trkpt>
      <trkpt lat="45.71721" lon="5.64174">
        <ele>360</ele>
        <time>2017-09-03T11:59:18Z</time>
      </trkpt>
      <trkpt lat="45.71726" lon="5.6417">
        <ele>360</ele>
        <time>2017-09-03T11:59:18Z</time>
      </trkpt>
      <trkpt lat="45.71728" lon="5.64164">
        <ele>360</ele>
        <time>2017-09-03T11:59:18Z</time>
      </trkpt>
      <trkpt lat="45.71728" lon="5.64158">
        <ele>360</ele>
        <time>2017-09-03T11:59:34Z</time>
      </trkpt>
      <trkpt lat="45.71729" lon="5.64148">
        <ele>360</ele>
        <time>2017-09-03T11:59:34Z</time>
      </trkpt>
      <trkpt lat="45.71735" lon="5.6414">
        <ele>360</ele>
        <time>2017-09-03T11:59:34Z</time>
      </trkpt>
      <trkpt lat="45.71744" lon="5.64129">
        <ele>360</ele>
        <time>2017-09-03T11:59:34Z</time>
      </trkpt>
      <trkpt lat="45.71746" lon="5.64122">
        <ele>359</ele>
        <time>2017-09-03T11:59:50Z</time>
      </trkpt>
      <trkpt lat="45.7175" lon="5.64118">
        <ele>359</ele>
        <time>2017-09-03T11:59:50Z</time>
      </trkpt>
      <trkpt lat="45.71752" lon="5.64113">
        <ele>359</ele>
        <time>2017-09-03T11:59:50Z</time>
      </trkpt>
      <trkpt lat="45.7175" lon="5.64108">
        <ele>359</ele>
        <time>2017-09-03T11:59:50Z</time>
      </trkpt>
      <trkpt lat="45.71752" lon="5.64103">
        <ele>359</ele>
        <time>2017-09-03T12:00:06Z</time>
      </trkpt>
      <trkpt lat="45.71754" lon="5.64097">
        <ele>359</ele>
        <time>2017-09-03T12:00:06Z</time>
      </trkpt>
      <trkpt lat="45.71759" lon="5.64086">
        <ele>359</ele>
        <time>2017-09-03T12:00:06Z</time>
      </trkpt>
      <trkpt lat="45.71762" lon="5.6408">
        <ele>359</ele>
        <time>2017-09-03T12:00:06Z</time>
      </trkpt>
      <trkpt lat="45.71764" lon="5.64073">
        <ele>359</ele>
        <time>2017-09-03T12:00:22Z</time>
      </trkpt>
      <trkpt lat="45.71766" lon="5.64066">
        <ele>359</ele>
        <time>2017-09-03T12:00:22Z</time>
      </trkpt>
      <trkpt lat="45.71768" lon="5.6406">
        <ele>359</ele>
        <time>2017-09-03T12:00:22Z</time>
      </trkpt>
      <trkpt lat="45.71771" lon="5.64056">
        <ele>359</ele>
        <time>2017-09-03T12:00:22Z</time>
      </trkpt>
      <trkpt lat="45.71773" lon="5.64052">
        <ele>359</ele>
        <time>2017-09-03T12:00:38Z</time>
      </trkpt>
      <trkpt lat="45.71772" lon="5.64042">
        <ele>359</ele>
        <time>2017-09-03T12:00:38Z</time>
      </trkpt>
      <trkpt lat="45.71772" lon="5.64031">
        <ele>358</ele>
        <time>2017-09-03T12:00:38Z</time>
      </trkpt>
      <trkpt lat="45.71772" lon="5.64022">
        <ele>358</ele>
        <time>2017-09-03T12:00:38Z</time>
      </trkpt>
      <trkpt lat="45.71772" lon="5.64012">
        <ele>358</ele>
        <time>2017-09-03T12:00:54Z</time>
      </trkpt>
      <trkpt lat="45.71773" lon="5.64003">
        <ele>358</ele>
        <time>2017-09-03T12:00:54Z</time>
      </trkpt>
      <trkpt lat="45.71776" lon="5.63998">
        <ele>358</ele>
        <time>2017-09-03T12:00:54Z</time>
      </trkpt>
      <trkpt lat="45.71776" lon="5.63991">
        <ele>358</ele>
        <time>2017-09-03T12:00:54Z</time>
      </trkpt>
      <trkpt lat="45.71777" lon="5.63983">
        <ele>358</ele>
        <time>2017-09-03T12:01:10Z</time>
      </trkpt>
      <trkpt lat="45.7178" lon="5.63977">
        <ele>358</ele>
        <time>2017-09-03T12:01:10Z</time>
      </trkpt>
      <trkpt lat="45.71781" lon="5.6397">
        <ele>358</ele>
        <time>2017-09-03T12:01:10Z</time>
      </trkpt>
      <trkpt lat="45.71782" lon="5.63962">
        <ele>358</ele>
        <time>2017-09-03T12:01:10Z</time>
      </trkpt>
      <trkpt lat="45.71783" lon="5.63953">
        <ele>368</ele>
        <time>2017-09-03T12:01:26Z</time>
      </trkpt>
      <trkpt lat="45.71788" lon="5.63941">
        <ele>368</ele>
        <time>2017-09-03T12:01:26Z</time>
      </trkpt>
      <trkpt lat="45.71795" lon="5.63939">
        <ele>366</ele>
        <time>2017-09-03T12:01:26Z</time>
      </trkpt>
      <trkpt lat="45.71799" lon="5.63933">
        <ele>366</ele>
        <time>2017-09-03T12:01:26Z</time>
      </trkpt>
      <trkpt lat="45.71802" lon="5.63924">
        <ele>366</ele>
        <time>2017-09-03T12:01:42Z</time>
      </trkpt>
      <trkpt lat="45.71801" lon="5.63913">
        <ele>366</ele>
        <time>2017-09-03T12:01:42Z</time>
      </trkpt>
      <trkpt lat="45.71804" lon="5.63903">
        <ele>366</ele>
        <time>2017-09-03T12:01:42Z</time>
      </trkpt>
      <trkpt lat="45.71806" lon="5.63893">
        <ele>366</ele>
        <time>2017-09-03T12:01:42Z</time>
      </trkpt>
      <trkpt lat="45.71811" lon="5.63888">
        <ele>366</ele>
        <time>2017-09-03T12:01:58Z</time>
      </trkpt>
      <trkpt lat="45.71816" lon="5.63884">
        <ele>366</ele>
        <time>2017-09-03T12:01:58Z</time>
      </trkpt>
      <trkpt lat="45.71822" lon="5.63882">
        <ele>366</ele>
        <time>2017-09-03T12:01:58Z</time>
      </trkpt>
      <trkpt lat="45.71827" lon="5.63878">
        <ele>366</ele>
        <time>2017-09-03T12:01:58Z</time>
      </trkpt>
      <trkpt lat="45.71836" lon="5.63881">
        <ele>366</ele>
        <time>2017-09-03T12:02:14Z</time>
      </trkpt>
      <trkpt lat="45.71844" lon="5.6388">
        <ele>366</ele>
        <time>2017-09-03T12:02:14Z</time>
      </trkpt>
      <trkpt lat="45.7185" lon="5.63878">
        <ele>366</ele>
        <time>2017-09-03T12:02:14Z</time>
      </trkpt>
      <trkpt lat="45.71857" lon="5.63873">
        <ele>371</ele>
        <time>2017-09-03T12:02:14Z</time>
      </trkpt>
      <trkpt lat="45.71865" lon="5.63869">
        <ele>371</ele>
        <time>2017-09-03T12:02:30Z</time>
      </trkpt>
      <trkpt lat="45.71871" lon="5.63871">
        <ele>371</ele>
        <time>2017-09-03T12:02:30Z</time>
      </trkpt>
      <trkpt lat="45.71878" lon="5.63873">
        <ele>363</ele>
        <time>2017-09-03T12:02:30Z</time>
      </trkpt>
      <trkpt lat="45.71885" lon="5.6387">
        <ele>363</ele>
        <time>2017-09-03T12:02:30Z</time>
      </trkpt>
      <trkpt lat="45.71892" lon="5.63866">
        <ele>363</ele>
        <time>2017-09-03T12:02:46Z</time>
      </trkpt>
      <trkpt lat="45.71899" lon="5.63861">
        <ele>363</ele>
        <time>2017-09-03T12:02:46Z</time>
      </trkpt>
      <trkpt lat="45.71907" lon="5.63859">
        <ele>363</ele>
        <time>2017-09-03T12:02:46Z</time>
      </trkpt>
      <trkpt lat="45.71914" lon="5.63855">
        <ele>363</ele>
        <time>2017-09-03T12:02:46Z</time>
      </trkpt>
      <trkpt lat="45.71918" lon="5.63855">
        <ele>363</ele>
        <time>2017-09-03T12:03:02Z</time>
      </trkpt>
      <trkpt lat="45.71921" lon="5.63854">
        <ele>363</ele>
        <time>2017-09-03T12:03:02Z</time>
      </trkpt>
      <trkpt lat="45.71926" lon="5.63853">
        <ele>363</ele>
        <time>2017-09-03T12:03:02Z</time>
      </trkpt>
      <trkpt lat="45.71931" lon="5.63853">
        <ele>363</ele>
        <time>2017-09-03T12:03:02Z</time>
      </trkpt>
      <trkpt lat="45.71936" lon="5.63853">
        <ele>363</ele>
        <time>2017-09-03T12:03:18Z</time>
      </trkpt>
      <trkpt lat="45.71943" lon="5.63849">
        <ele>363</ele>
        <time>2017-09-03T12:03:18Z</time>
      </trkpt>
      <trkpt lat="45.71954" lon="5.63845">
        <ele>363</ele>
        <time>2017-09-03T12:03:18Z</time>
      </trkpt>
      <trkpt lat="45.71975" lon="5.63847">
        <ele>364</ele>
        <time>2017-09-03T12:03:18Z</time>
      </trkpt>
      <trkpt lat="45.71989" lon="5.63851">
        <ele>364</ele>
        <time>2017-09-03T12:03:34Z</time>
      </trkpt>
      <trkpt lat="45.72001" lon="5.63852">
        <ele>364</ele>
        <time>2017-09-03T12:03:34Z</time>
      </trkpt>
      <trkpt lat="45.72015" lon="5.63848">
        <ele>364</ele>
        <time>2017-09-03T12:03:34Z</time>
      </trkpt>
      <trkpt lat="45.7203" lon="5.63841">
        <ele>364</ele>
        <time>2017-09-03T12:03:34Z</time>
      </trkpt>
      <trkpt lat="45.72041" lon="5.63834">
        <ele>364</ele>
        <time>2017-09-03T12:03:50Z</time>
      </trkpt>
      <trkpt lat="45.72053" lon="5.63821">
        <ele>366</ele>
        <time>2017-09-03T12:03:50Z</time>
      </trkpt>
      <trkpt lat="45.72071" lon="5.63818">
        <ele>366</ele>
        <time>2017-09-03T12:03:50Z</time>
      </trkpt>
      <trkpt lat="45.72084" lon="5.63816">
        <ele>366</ele>
        <time>2017-09-03T12:03:50Z</time>
      </trkpt>
      <trkpt lat="45.72098" lon="5.63809">
        <ele>366</ele>
        <time>2017-09-03T12:04:06Z</time>
      </trkpt>
      <trkpt lat="45.7211" lon="5.63801">
        <ele>366</ele>
        <time>2017-09-03T12:04:06Z</time>
      </trkpt>
      <trkpt lat="45.72118" lon="5.63796">
        <ele>366</ele>
        <time>2017-09-03T12:04:06Z</time>
      </trkpt>
      <trkpt lat="45.72124" lon="5.63789">
        <ele>362</ele>
        <time>2017-09-03T12:04:06Z</time>
      </trkpt>
      <trkpt lat="45.72127" lon="5.63785">
        <ele>364</ele>
        <time>2017-09-03T12:04:22Z</time>
      </trkpt>
      <trkpt lat="45.72133" lon="5.63781">
        <ele>364</ele>
        <time>2017-09-03T12:04:22Z</time>
      </trkpt>
      <trkpt lat="45.7214" lon="5.63778">
        <ele>364</ele>
        <time>2017-09-03T12:04:22Z</time>
      </trkpt>
      <trkpt lat="45.72145" lon="5.63775">
        <ele>364</ele>
        <time>2017-09-03T12:04:22Z</time>
      </trkpt>
      <trkpt lat="45.72151" lon="5.63772">
        <ele>364</ele>
        <time>2017-09-03T12:04:38Z</time>
      </trkpt>
      <trkpt lat="45.72157" lon="5.63767">
        <ele>364</ele>
        <time>2017-09-03T12:04:38Z</time>
      </trkpt>
      <trkpt lat="45.72161" lon="5.6376">
        <ele>364</ele>
        <time>2017-09-03T12:04:38Z</time>
      </trkpt>
      <trkpt lat="45.72165" lon="5.63756">
        <ele>364</ele>
        <time>2017-09-03T12:04:38Z</time>
      </trkpt>
      <trkpt lat="45.72172" lon="5.6375">
        <ele>364</ele>
        <time>2017-09-03T12:04:54Z</time>
      </trkpt>
      <trkpt lat="45.72179" lon="5.63741">
        <ele>364</ele>
        <time>2017-09-03T12:04:54Z</time>
      </trkpt>
      <trkpt lat="45.72186" lon="5.63733">
        <ele>364</ele>
        <time>2017-09-03T12:04:54Z</time>
      </trkpt>
      <trkpt lat="45.72189" lon="5.63727">
        <ele>364</ele>
        <time>2017-09-03T12:04:54Z</time>
      </trkpt>
      <trkpt lat="45.72191" lon="5.63724">
        <ele>364</ele>
        <time>2017-09-03T12:05:10Z</time>
      </trkpt>
      <trkpt lat="45.72194" lon="5.63717">
        <ele>364</ele>
        <time>2017-09-03T12:05:10Z</time>
      </trkpt>
      <trkpt lat="45.72197" lon="5.63707">
        <ele>364</ele>
        <time>2017-09-03T12:05:10Z</time>
      </trkpt>
      <trkpt lat="45.72201" lon="5.63701">
        <ele>364</ele>
        <time>2017-09-03T12:05:10Z</time>
      </trkpt>
      <trkpt lat="45.72205" lon="5.63695">
        <ele>364</ele>
        <time>2017-09-03T12:05:26Z</time>
      </trkpt>
      <trkpt lat="45.72208" lon="5.63687">
        <ele>364</ele>
        <time>2017-09-03T12:05:26Z</time>
      </trkpt>
      <trkpt lat="45.7221" lon="5.63677">
        <ele>365</ele>
        <time>2017-09-03T12:05:26Z</time>
      </trkpt>
      <trkpt lat="45.72214" lon="5.63673">
        <ele>365</ele>
        <time>2017-09-03T12:05:26Z</time>
      </trkpt>
      <trkpt lat="45.72218" lon="5.63667">
        <ele>365</ele>
        <time>2017-09-03T12:05:42Z</time>
      </trkpt>
      <trkpt lat="45.72221" lon="5.63657">
        <ele>365</ele>
        <time>2017-09-03T12:05:42Z</time>
      </trkpt>
      <trkpt lat="45.72226" lon="5.63647">
        <ele>365</ele>
        <time>2017-09-03T12:05:42Z</time>
      </trkpt>
      <trkpt lat="45.72231" lon="5.63631">
        <ele>365</ele>
        <time>2017-09-03T12:05:42Z</time>
      </trkpt>
      <trkpt lat="45.72237" lon="5.6362">
        <ele>362</ele>
        <time>2017-09-03T12:05:58Z</time>
      </trkpt>
      <trkpt lat="45.72245" lon="5.63612">
        <ele>362</ele>
        <time>2017-09-03T12:05:58Z</time>
      </trkpt>
      <trkpt lat="45.72255" lon="5.63607">
        <ele>362</ele>
        <time>2017-09-03T12:05:58Z</time>
      </trkpt>
      <trkpt lat="45.72262" lon="5.63599">
        <ele>362</ele>
        <time>2017-09-03T12:05:58Z</time>
      </trkpt>
      <trkpt lat="45.72265" lon="5.63594">
        <ele>362</ele>
        <time>2017-09-03T12:06:14Z</time>
      </trkpt>
      <trkpt lat="45.72268" lon="5.63588">
        <ele>362</ele>
        <time>2017-09-03T12:06:14Z</time>
      </trkpt>
      <trkpt lat="45.72269" lon="5.63582">
        <ele>362</ele>
        <time>2017-09-03T12:06:14Z</time>
      </trkpt>
      <trkpt lat="45.72272" lon="5.63577">
        <ele>362</ele>
        <time>2017-09-03T12:06:14Z</time>
      </trkpt>
      <trkpt lat="45.72273" lon="5.63574">
        <ele>362</ele>
        <time>2017-09-03T12:06:30Z</time>
      </trkpt>
      <trkpt lat="45.72278" lon="5.63568">
        <ele>362</ele>
        <time>2017-09-03T12:06:30Z</time>
      </trkpt>
      <trkpt lat="45.7229" lon="5.63563">
        <ele>362</ele>
        <time>2017-09-03T12:06:30Z</time>
      </trkpt>
      <trkpt lat="45.72294" lon="5.6356">
        <ele>365</ele>
        <time>2017-09-03T12:06:30Z</time>
      </trkpt>
      <trkpt lat="45.72298" lon="5.63557">
        <ele>365</ele>
        <time>2017-09-03T12:06:46Z</time>
      </trkpt>
      <trkpt lat="45.72299" lon="5.63551">
        <ele>365</ele>
        <time>2017-09-03T12:06:46Z</time>
      </trkpt>
      <trkpt lat="45.72303" lon="5.63546">
        <ele>365</ele>
        <time>2017-09-03T12:06:46Z</time>
      </trkpt>
      <trkpt lat="45.72311" lon="5.63546">
        <ele>365</ele>
        <time>2017-09-03T12:06:46Z</time>
      </trkpt>
      <trkpt lat="45.7232" lon="5.63544">
        <ele>365</ele>
        <time>2017-09-03T12:07:02Z</time>
      </trkpt>
      <trkpt lat="45.72326" lon="5.63538">
        <ele>353</ele>
        <time>2017-09-03T12:07:02Z</time>
      </trkpt>
      <trkpt lat="45.7233" lon="5.63536">
        <ele>353</ele>
        <time>2017-09-03T12:07:02Z</time>
      </trkpt>
      <trkpt lat="45.72336" lon="5.63535">
        <ele>353</ele>
        <time>2017-09-03T12:07:02Z</time>
      </trkpt>
      <trkpt lat="45.72343" lon="5.63534">
        <ele>353</ele>
        <time>2017-09-03T12:07:18Z</time>
      </trkpt>
      <trkpt lat="45.72352" lon="5.63536">
        <ele>353</ele>
        <time>2017-09-03T12:07:18Z</time>
      </trkpt>
      <trkpt lat="45.7236" lon="5.63536">
        <ele>353</ele>
        <time>2017-09-03T12:07:18Z</time>
      </trkpt>
      <trkpt lat="45.72366" lon="5.63535">
        <ele>353</ele>
        <time>2017-09-03T12:07:18Z</time>
      </trkpt>
      <trkpt lat="45.72373" lon="5.63534">
        <ele>353</ele>
        <time>2017-09-03T12:07:34Z</time>
      </trkpt>
      <trkpt lat="45.72383" lon="5.63531">
        <ele>355</ele>
        <time>2017-09-03T12:07:34Z</time>
      </trkpt>
      <trkpt lat="45.72393" lon="5.63535">
        <ele>355</ele>
        <time>2017-09-03T12:07:34Z</time>
      </trkpt>
      <trkpt lat="45.724" lon="5.63537">
        <ele>355</ele>
        <time>2017-09-03T12:07:34Z</time>
      </trkpt>
      <trkpt lat="45.72405" lon="5.63536">
        <ele>355</ele>
        <time>2017-09-03T12:07:50Z</time>
      </trkpt>
      <trkpt lat="45.72412" lon="5.63536">
        <ele>355</ele>
        <time>2017-09-03T12:07:50Z</time>
      </trkpt>
      <trkpt lat="45.72417" lon="5.6353">
        <ele>355</ele>
        <time>2017-09-03T12:07:50Z</time>
      </trkpt>
      <trkpt lat="45.72423" lon="5.63527">
        <ele>355</ele>
        <time>2017-09-03T12:07:50Z</time>
      </trkpt>
      <trkpt lat="45.7243" lon="5.63527">
        <ele>355</ele>
        <time>2017-09-03T12:08:06Z</time>
      </trkpt>
      <trkpt lat="45.72435" lon="5.63524">
        <ele>355</ele>
        <time>2017-09-03T12:08:06Z</time>
      </trkpt>
      <trkpt lat="45.72441" lon="5.63526">
        <ele>355</ele>
        <time>2017-09-03T12:08:06Z</time>
      </trkpt>
      <trkpt lat="45.72447" lon="5.63527">
        <ele>355</ele>
        <time>2017-09-03T12:08:06Z</time>
      </trkpt>
      <trkpt lat="45.72454" lon="5.63527">
        <ele>355</ele>
        <time>2017-09-03T12:08:22Z</time>
      </trkpt>
      <trkpt lat="45.7246" lon="5.63526">
        <ele>360</ele>
        <time>2017-09-03T12:08:22Z</time>
      </trkpt>
      <trkpt lat="45.72465" lon="5.63524">
        <ele>360</ele>
        <time>2017-09-03T12:08:22Z</time>
      </trkpt>
      <trkpt lat="45.72469" lon="5.63519">
        <ele>360</ele>
        <time>2017-09-03T12:08:22Z</time>
      </trkpt>
      <trkpt lat="45.72474" lon="5.63516">
        <ele>360</ele>
        <time>2017-09-03T12:08:38Z</time>
      </trkpt>
      <trkpt lat="45.7248" lon="5.63515">
        <ele>360</ele>
        <time>2017-09-03T12:08:38Z</time>
      </trkpt>
      <trkpt lat="45.72486" lon="5.63514">
        <ele>360</ele>
        <time>2017-09-03T12:08:38Z</time>
      </trkpt>
      <trkpt lat="45.72491" lon="5.63512">
        <ele>360</ele>
        <time>2017-09-03T12:08:38Z</time>
      </trkpt>
      <trkpt lat="45.72496" lon="5.63512">
        <ele>360</ele>
        <time>2017-09-03T12:08:54Z</time>
      </trkpt>
      <trkpt lat="45.725" lon="5.63509">
        <ele>360</ele>
        <time>2017-09-03T12:08:54Z</time>
      </trkpt>
      <trkpt lat="45.72504" lon="5.63507">
        <ele>360</ele>
        <time>2017-09-03T12:08:54Z</time>
      </trkpt>
      <trkpt lat="45.7251" lon="5.63506">
        <ele>360</ele>
        <time>2017-09-03T12:08:54Z</time>
      </trkpt>
      <trkpt lat="45.72517" lon="5.63504">
        <ele>360</ele>
        <time>2017-09-03T12:09:10Z</time>
      </trkpt>
      <trkpt lat="45.72526" lon="5.63505">
        <ele>360</ele>
        <time>2017-09-03T12:09:10Z</time>
      </trkpt>
      <trkpt lat="45.72532" lon="5.63505">
        <ele>360</ele>
        <time>2017-09-03T12:09:10Z</time>
      </trkpt>
      <trkpt lat="45.7254" lon="5.63506">
        <ele>360</ele>
        <time>2017-09-03T12:09:10Z</time>
      </trkpt>
      <trkpt lat="45.72546" lon="5.63504">
        <ele>357</ele>
        <time>2017-09-03T12:09:26Z</time>
      </trkpt>
      <trkpt lat="45.72551" lon="5.63505">
        <ele>357</ele>
        <time>2017-09-03T12:09:26Z</time>
      </trkpt>
      <trkpt lat="45.72557" lon="5.63503">
        <ele>357</ele>
        <time>2017-09-03T12:09:26Z</time>
      </trkpt>
      <trkpt lat="45.72563" lon="5.63503">
        <ele>357</ele>
        <time>2017-09-03T12:09:26Z</time>
      </trkpt>
      <trkpt lat="45.72569" lon="5.63504">
        <ele>357</ele>
        <time>2017-09-03T12:09:42Z</time>
      </trkpt>
      <trkpt lat="45.72575" lon="5.63506">
        <ele>357</ele>
        <time>2017-09-03T12:09:42Z</time>
      </trkpt>
      <trkpt lat="45.7258" lon="5.63504">
        <ele>357</ele>
        <time>2017-09-03T12:09:42Z</time>
      </trkpt>
      <trkpt lat="45.72585" lon="5.63503">
        <ele>357</ele>
        <time>2017-09-03T12:09:42Z</time>
      </trkpt>
      <trkpt lat="45.72588" lon="5.63502">
        <ele>357</ele>
        <time>2017-09-03T12:09:58Z</time>
      </trkpt>
      <trkpt lat="45.7259" lon="5.635">
        <ele>357</ele>
        <time>2017-09-03T12:09:58Z</time>
      </trkpt>
      <trkpt lat="45.72596" lon="5.63499">
        <ele>357</ele>
        <time>2017-09-03T12:09:58Z</time>
      </trkpt>
      <trkpt lat="45.72605" lon="5.63503">
        <ele>357</ele>
        <time>2017-09-03T12:09:58Z</time>
      </trkpt>
      <trkpt lat="45.72615" lon="5.63506">
        <ele>357</ele>
        <time>2017-09-03T12:10:14Z</time>
      </trkpt>
      <trkpt lat="45.72623" lon="5.63508">
        <ele>357</ele>
        <time>2017-09-03T12:10:14Z</time>
      </trkpt>
      <trkpt lat="45.72631" lon="5.6351">
        <ele>359</ele>
        <time>2017-09-03T12:10:14Z</time>
      </trkpt>
      <trkpt lat="45.72638" lon="5.63509">
        <ele>359</ele>
        <time>2017-09-03T12:10:14Z</time>
      </trkpt>
      <trkpt lat="45.72644" lon="5.63506">
        <ele>359</ele>
        <time>2017-09-03T12:10:30Z</time>
      </trkpt>
      <trkpt lat="45.7265" lon="5.63502">
        <ele>359</ele>
        <time>2017-09-03T12:10:30Z</time>
      </trkpt>
      <trkpt lat="45.72656" lon="5.63501">
        <ele>359</ele>
        <time>2017-09-03T12:10:30Z</time>
      </trkpt>
      <trkpt lat="45.72659" lon="5.63505">
        <ele>359</ele>
        <time>2017-09-03T12:10:30Z</time>
      </trkpt>
      <trkpt lat="45.72663" lon="5.63504">
        <ele>359</ele>
        <time>2017-09-03T12:10:46Z</time>
      </trkpt>
      <trkpt lat="45.7267" lon="5.63499">
        <ele>359</ele>
        <time>2017-09-03T12:10:46Z</time>
      </trkpt>
      <trkpt lat="45.72677" lon="5.63496">
        <ele>359</ele>
        <time>2017-09-03T12:10:46Z</time>
      </trkpt>
      <trkpt lat="45.72685" lon="5.63495">
        <ele>359</ele>
        <time>2017-09-03T12:10:46Z</time>
      </trkpt>
      <trkpt lat="45.72691" lon="5.63493">
        <ele>359</ele>
        <time>2017-09-03T12:11:02Z</time>
      </trkpt>
      <trkpt lat="45.72714" lon="5.63493">
        <ele>364</ele>
        <time>2017-09-03T12:11:02Z</time>
      </trkpt>
      <trkpt lat="45.72737" lon="5.63495">
        <ele>364</ele>
        <time>2017-09-03T12:11:02Z</time>
      </trkpt>
      <trkpt lat="45.7275" lon="5.63494">
        <ele>364</ele>
        <time>2017-09-03T12:11:02Z</time>
      </trkpt>
      <trkpt lat="45.72763" lon="5.63492">
        <ele>364</ele>
        <time>2017-09-03T12:11:18Z</time>
      </trkpt>
      <trkpt lat="45.72768" lon="5.63494">
        <ele>364</ele>
        <time>2017-09-03T12:11:18Z</time>
      </trkpt>
      <trkpt lat="45.72771" lon="5.63498">
        <ele>364</ele>
        <time>2017-09-03T12:11:18Z</time>
      </trkpt>
      <trkpt lat="45.72776" lon="5.63502">
        <ele>364</ele>
        <time>2017-09-03T12:11:18Z</time>
      </trkpt>
      <trkpt lat="45.72784" lon="5.63505">
        <ele>364</ele>
        <time>2017-09-03T12:11:34Z</time>
      </trkpt>
      <trkpt lat="45.7279" lon="5.63508">
        <ele>364</ele>
        <time>2017-09-03T12:11:34Z</time>
      </trkpt>
      <trkpt lat="45.72796" lon="5.63513">
        <ele>369</ele>
        <time>2017-09-03T12:11:34Z</time>
      </trkpt>
      <trkpt lat="45.72801" lon="5.63518">
        <ele>369</ele>
        <time>2017-09-03T12:11:34Z</time>
      </trkpt>
      <trkpt lat="45.72807" lon="5.63525">
        <ele>369</ele>
        <time>2017-09-03T12:11:50Z</time>
      </trkpt>
      <trkpt lat="45.72809" lon="5.6353">
        <ele>369</ele>
        <time>2017-09-03T12:11:50Z</time>
      </trkpt>
      <trkpt lat="45.72813" lon="5.63534">
        <ele>369</ele>
        <time>2017-09-03T12:11:50Z</time>
      </trkpt>
      <trkpt lat="45.72816" lon="5.6354">
        <ele>369</ele>
        <time>2017-09-03T12:11:50Z</time>
      </trkpt>
      <trkpt lat="45.72819" lon="5.63547">
        <ele>364</ele>
        <time>2017-09-03T12:12:06Z</time>
      </trkpt>
      <trkpt lat="45.72822" lon="5.63553">
        <ele>364</ele>
        <time>2017-09-03T12:12:06Z</time>
      </trkpt>
      <trkpt lat="45.72825" lon="5.63559">
        <ele>364</ele>
        <time>2017-09-03T12:12:06Z</time>
      </trkpt>
      <trkpt lat="45.72829" lon="5.63564">
        <ele>364</ele>
        <time>2017-09-03T12:12:06Z</time>
      </trkpt>
      <trkpt lat="45.72832" lon="5.6357">
        <ele>364</ele>
        <time>2017-09-03T12:12:22Z</time>
      </trkpt>
      <trkpt lat="45.72835" lon="5.63575">
        <ele>364</ele>
        <time>2017-09-03T12:12:22Z</time>
      </trkpt>
      <trkpt lat="45.7284" lon="5.63579">
        <ele>364</ele>
        <time>2017-09-03T12:12:22Z</time>
      </trkpt>
      <trkpt lat="45.72844" lon="5.63584">
        <ele>364</ele>
        <time>2017-09-03T12:12:22Z</time>
      </trkpt>
      <trkpt lat="45.72847" lon="5.63587">
        <ele>364</ele>
        <time>2017-09-03T12:12:38Z</time>
      </trkpt>
      <trkpt lat="45.72853" lon="5.63595">
        <ele>364</ele>
        <time>2017-09-03T12:12:38Z</time>
      </trkpt>
      <trkpt lat="45.72857" lon="5.63598">
        <ele>364</ele>
        <time>2017-09-03T12:12:38Z</time>
      </trkpt>
      <trkpt lat="45.72865" lon="5.636">
        <ele>364</ele>
        <time>2017-09-03T12:12:38Z</time>
      </trkpt>
      <trkpt lat="45.7287" lon="5.636">
        <ele>364</ele>
        <time>2017-09-03T12:12:58Z</time>
      </trkpt>
      <trkpt lat="45.72875" lon="5.63601">
        <ele>364</ele>
        <time>2017-09-03T12:12:58Z</time>
      </trkpt>
      <trkpt lat="45.72877" lon="5.636">
        <ele>371</ele>
        <time>2017-09-03T12:12:58Z</time>
      </trkpt>
      <trkpt lat="45.72878" lon="5.63602">
        <ele>371</ele>
        <time>2017-09-03T12:12:58Z</time>
      </trkpt>
      <trkpt lat="45.72888" lon="5.63611">
        <ele>371</ele>
        <time>2017-09-03T12:12:58Z</time>
      </trkpt>
      <trkpt lat="45.72898" lon="5.6362">
        <ele>371</ele>
        <time>2017-09-03T12:13:14Z</time>
      </trkpt>
      <trkpt lat="45.72905" lon="5.63625">
        <ele>371</ele>
        <time>2017-09-03T12:13:14Z</time>
      </trkpt>
      <trkpt lat="45.7291" lon="5.63624">
        <ele>371</ele>
        <time>2017-09-03T12:13:14Z</time>
      </trkpt>
      <trkpt lat="45.72913" lon="5.63619">
        <ele>371</ele>
        <time>2017-09-03T12:13:14Z</time>
      </trkpt>
      <trkpt lat="45.72917" lon="5.63616">
        <ele>371</ele>
        <time>2017-09-03T12:13:30Z</time>
      </trkpt>
      <trkpt lat="45.72924" lon="5.63616">
        <ele>371</ele>
        <time>2017-09-03T12:13:30Z</time>
      </trkpt>
      <trkpt lat="45.7293" lon="5.63614">
        <ele>371</ele>
        <time>2017-09-03T12:13:30Z</time>
      </trkpt>
      <trkpt lat="45.72933" lon="5.63611">
        <ele>371</ele>
        <time>2017-09-03T12:13:30Z</time>
      </trkpt>
      <trkpt lat="45.72937" lon="5.63611">
        <ele>371</ele>
        <time>2017-09-03T12:13:46Z</time>
      </trkpt>
      <trkpt lat="45.72941" lon="5.63609">
        <ele>371</ele>
        <time>2017-09-03T12:13:46Z</time>
      </trkpt>
      <trkpt lat="45.72951" lon="5.63611">
        <ele>371</ele>
        <time>2017-09-03T12:13:46Z</time>
      </trkpt>
      <trkpt lat="45.72957" lon="5.63612">
        <ele>371</ele>
        <time>2017-09-03T12:13:46Z</time>
      </trkpt>
      <trkpt lat="45.72965" lon="5.63613">
        <ele>377</ele>
        <time>2017-09-03T12:14:02Z</time>
      </trkpt>
      <trkpt lat="45.72971" lon="5.63615">
        <ele>377</ele>
        <time>2017-09-03T12:14:02Z</time>
      </trkpt>
      <trkpt lat="45.72976" lon="5.63614">
        <ele>377</ele>
        <time>2017-09-03T12:14:02Z</time>
      </trkpt>
      <trkpt lat="45.7298" lon="5.63611">
        <ele>377</ele>
        <time>2017-09-03T12:14:02Z</time>
      </trkpt>
      <trkpt lat="45.72984" lon="5.63608">
        <ele>377</ele>
        <time>2017-09-03T12:14:18Z</time>
      </trkpt>
      <trkpt lat="45.72992" lon="5.63605">
        <ele>377</ele>
        <time>2017-09-03T12:14:18Z</time>
      </trkpt>
      <trkpt lat="45.72998" lon="5.63603">
        <ele>377</ele>
        <time>2017-09-03T12:14:18Z</time>
      </trkpt>
      <trkpt lat="45.73005" lon="5.63599">
        <ele>377</ele>
        <time>2017-09-03T12:14:18Z</time>
      </trkpt>
      <trkpt lat="45.73011" lon="5.63598">
        <ele>377</ele>
        <time>2017-09-03T12:14:34Z</time>
      </trkpt>
      <trkpt lat="45.73014" lon="5.63595">
        <ele>377</ele>
        <time>2017-09-03T12:14:34Z</time>
      </trkpt>
      <trkpt lat="45.73022" lon="5.63593">
        <ele>377</ele>
        <time>2017-09-03T12:14:34Z</time>
      </trkpt>
      <trkpt lat="45.73031" lon="5.63591">
        <ele>377</ele>
        <time>2017-09-03T12:14:34Z</time>
      </trkpt>
      <trkpt lat="45.73039" lon="5.63589">
        <ele>377</ele>
        <time>2017-09-03T12:14:50Z</time>
      </trkpt>
      <trkpt lat="45.73045" lon="5.6359">
        <ele>373</ele>
        <time>2017-09-03T12:14:50Z</time>
      </trkpt>
      <trkpt lat="45.73051" lon="5.63584">
        <ele>373</ele>
        <time>2017-09-03T12:14:50Z</time>
      </trkpt>
      <trkpt lat="45.73059" lon="5.63583">
        <ele>373</ele>
        <time>2017-09-03T12:14:50Z</time>
      </trkpt>
      <trkpt lat="45.73067" lon="5.63581">
        <ele>373</ele>
        <time>2017-09-03T12:15:06Z</time>
      </trkpt>
      <trkpt lat="45.73073" lon="5.63579">
        <ele>373</ele>
        <time>2017-09-03T12:15:06Z</time>
      </trkpt>
      <trkpt lat="45.73078" lon="5.6358">
        <ele>373</ele>
        <time>2017-09-03T12:15:06Z</time>
      </trkpt>
      <trkpt lat="45.73081" lon="5.6358">
        <ele>373</ele>
        <time>2017-09-03T12:15:06Z</time>
      </trkpt>
      <trkpt lat="45.73086" lon="5.63579">
        <ele>373</ele>
        <time>2017-09-03T12:15:22Z</time>
      </trkpt>
      <trkpt lat="45.73091" lon="5.63578">
        <ele>373</ele>
        <time>2017-09-03T12:15:22Z</time>
      </trkpt>
      <trkpt lat="45.73096" lon="5.63573">
        <ele>373</ele>
        <time>2017-09-03T12:15:22Z</time>
      </trkpt>
      <trkpt lat="45.731" lon="5.63568">
        <ele>373</ele>
        <time>2017-09-03T12:15:22Z</time>
      </trkpt>
      <trkpt lat="45.73106" lon="5.63568">
        <ele>373</ele>
        <time>2017-09-03T12:15:38Z</time>
      </trkpt>
      <trkpt lat="45.73112" lon="5.63566">
        <ele>373</ele>
        <time>2017-09-03T12:15:38Z</time>
      </trkpt>
      <trkpt lat="45.73117" lon="5.63564">
        <ele>373</ele>
        <time>2017-09-03T12:15:38Z</time>
      </trkpt>
      <trkpt lat="45.73123" lon="5.63565">
        <ele>373</ele>
        <time>2017-09-03T12:15:38Z</time>
      </trkpt>
      <trkpt lat="45.73128" lon="5.63563">
        <ele>370</ele>
        <time>2017-09-03T12:15:54Z</time>
      </trkpt>
      <trkpt lat="45.73134" lon="5.63561">
        <ele>370</ele>
        <time>2017-09-03T12:15:54Z</time>
      </trkpt>
      <trkpt lat="45.73138" lon="5.6356">
        <ele>370</ele>
        <time>2017-09-03T12:15:54Z</time>
      </trkpt>
      <trkpt lat="45.73143" lon="5.63557">
        <ele>370</ele>
        <time>2017-09-03T12:15:54Z</time>
      </trkpt>
      <trkpt lat="45.73148" lon="5.63555">
        <ele>370</ele>
        <time>2017-09-03T12:16:10Z</time>
      </trkpt>
      <trkpt lat="45.73154" lon="5.63555">
        <ele>370</ele>
        <time>2017-09-03T12:16:10Z</time>
      </trkpt>
      <trkpt lat="45.73159" lon="5.63554">
        <ele>370</ele>
        <time>2017-09-03T12:16:10Z</time>
      </trkpt>
      <trkpt lat="45.73164" lon="5.63554">
        <ele>370</ele>
        <time>2017-09-03T12:16:10Z</time>
      </trkpt>
      <trkpt lat="45.73169" lon="5.63552">
        <ele>370</ele>
        <time>2017-09-03T12:16:26Z</time>
      </trkpt>
      <trkpt lat="45.73174" lon="5.63552">
        <ele>370</ele>
        <time>2017-09-03T12:16:26Z</time>
      </trkpt>
      <trkpt lat="45.7318" lon="5.63551">
        <ele>370</ele>
        <time>2017-09-03T12:16:26Z</time>
      </trkpt>
      <trkpt lat="45.73185" lon="5.63549">
        <ele>370</ele>
        <time>2017-09-03T12:16:26Z</time>
      </trkpt>
      <trkpt lat="45.73192" lon="5.63549">
        <ele>370</ele>
        <time>2017-09-03T12:16:42Z</time>
      </trkpt>
      <trkpt lat="45.73199" lon="5.63547">
        <ele>370</ele>
        <time>2017-09-03T12:16:42Z</time>
      </trkpt>
      <trkpt lat="45.73206" lon="5.63545">
        <ele>370</ele>
        <time>2017-09-03T12:16:42Z</time>
      </trkpt>
      <trkpt lat="45.73212" lon="5.63546">
        <ele>368</ele>
        <time>2017-09-03T12:16:42Z</time>
      </trkpt>
      <trkpt lat="45.73218" lon="5.63544">
        <ele>368</ele>
        <time>2017-09-03T12:16:58Z</time>
      </trkpt>
      <trkpt lat="45.73222" lon="5.63543">
        <ele>368</ele>
        <time>2017-09-03T12:16:58Z</time>
      </trkpt>
      <trkpt lat="45.73228" lon="5.63541">
        <ele>379</ele>
        <time>2017-09-03T12:16:58Z</time>
      </trkpt>
      <trkpt lat="45.73234" lon="5.63537">
        <ele>379</ele>
        <time>2017-09-03T12:16:58Z</time>
      </trkpt>
      <trkpt lat="45.7324" lon="5.63535">
        <ele>379</ele>
        <time>2017-09-03T12:17:14Z</time>
      </trkpt>
      <trkpt lat="45.73244" lon="5.63534">
        <ele>379</ele>
        <time>2017-09-03T12:17:14Z</time>
      </trkpt>
      <trkpt lat="45.73248" lon="5.6353">
        <ele>379</ele>
        <time>2017-09-03T12:17:14Z</time>
      </trkpt>
      <trkpt lat="45.73255" lon="5.63527">
        <ele>379</ele>
        <time>2017-09-03T12:17:14Z</time>
      </trkpt>
      <trkpt lat="45.7326" lon="5.63524">
        <ele>379</ele>
        <time>2017-09-03T12:17:30Z</time>
      </trkpt>
      <trkpt lat="45.73265" lon="5.63525">
        <ele>379</ele>
        <time>2017-09-03T12:17:30Z</time>
      </trkpt>
      <trkpt lat="45.73271" lon="5.63522">
        <ele>379</ele>
        <time>2017-09-03T12:17:30Z</time>
      </trkpt>
      <trkpt lat="45.73276" lon="5.6352">
        <ele>379</ele>
        <time>2017-09-03T12:17:30Z</time>
      </trkpt>
      <trkpt lat="45.7328" lon="5.63519">
        <ele>379</ele>
        <time>2017-09-03T12:17:46Z</time>
      </trkpt>
      <trkpt lat="45.73283" lon="5.63514">
        <ele>379</ele>
        <time>2017-09-03T12:17:46Z</time>
      </trkpt>
      <trkpt lat="45.73285" lon="5.63508">
        <ele>379</ele>
        <time>2017-09-03T12:17:46Z</time>
      </trkpt>
      <trkpt lat="45.73288" lon="5.63503">
        <ele>379</ele>
        <time>2017-09-03T12:17:46Z</time>
      </trkpt>
      <trkpt lat="45.73289" lon="5.63501">
        <ele>379</ele>
        <time>2017-09-03T12:18:02Z</time>
      </trkpt>
      <trkpt lat="45.73293" lon="5.63496">
        <ele>379</ele>
        <time>2017-09-03T12:18:02Z</time>
      </trkpt>
      <trkpt lat="45.73297" lon="5.6349">
        <ele>379</ele>
        <time>2017-09-03T12:18:02Z</time>
      </trkpt>
      <trkpt lat="45.73301" lon="5.63485">
        <ele>379</ele>
        <time>2017-09-03T12:18:02Z</time>
      </trkpt>
      <trkpt lat="45.73307" lon="5.63482">
        <ele>379</ele>
        <time>2017-09-03T12:18:18Z</time>
      </trkpt>
      <trkpt lat="45.73311" lon="5.6348">
        <ele>379</ele>
        <time>2017-09-03T12:18:18Z</time>
      </trkpt>
      <trkpt lat="45.73317" lon="5.6348">
        <ele>379</ele>
        <time>2017-09-03T12:18:18Z</time>
      </trkpt>
      <trkpt lat="45.73321" lon="5.63476">
        <ele>379</ele>
        <time>2017-09-03T12:18:18Z</time>
      </trkpt>
      <trkpt lat="45.73326" lon="5.63476">
        <ele>379</ele>
        <time>2017-09-03T12:18:34Z</time>
      </trkpt>
      <trkpt lat="45.73331" lon="5.63473">
        <ele>379</ele>
        <time>2017-09-03T12:18:34Z</time>
      </trkpt>
      <trkpt lat="45.73337" lon="5.63471">
        <ele>379</ele>
        <time>2017-09-03T12:18:34Z</time>
      </trkpt>
      <trkpt lat="45.73344" lon="5.63471">
        <ele>379</ele>
        <time>2017-09-03T12:18:34Z</time>
      </trkpt>
      <trkpt lat="45.73347" lon="5.63467">
        <ele>379</ele>
        <time>2017-09-03T12:18:50Z</time>
      </trkpt>
      <trkpt lat="45.73347" lon="5.6346">
        <ele>379</ele>
        <time>2017-09-03T12:18:50Z</time>
      </trkpt>
      <trkpt lat="45.73349" lon="5.63453">
        <ele>383</ele>
        <time>2017-09-03T12:18:50Z</time>
      </trkpt>
      <trkpt lat="45.73351" lon="5.63443">
        <ele>383</ele>
        <time>2017-09-03T12:18:50Z</time>
      </trkpt>
      <trkpt lat="45.73356" lon="5.63429">
        <ele>383</ele>
        <time>2017-09-03T12:19:06Z</time>
      </trkpt>
      <trkpt lat="45.7336" lon="5.63419">
        <ele>383</ele>
        <time>2017-09-03T12:19:06Z</time>
      </trkpt>
      <trkpt lat="45.73362" lon="5.63415">
        <ele>383</ele>
        <time>2017-09-03T12:19:06Z</time>
      </trkpt>
      <trkpt lat="45.73368" lon="5.63414">
        <ele>383</ele>
        <time>2017-09-03T12:19:06Z</time>
      </trkpt>
      <trkpt lat="45.73373" lon="5.63412">
        <ele>383</ele>
        <time>2017-09-03T12:19:26Z</time>
      </trkpt>
      <trkpt lat="45.73377" lon="5.63413">
        <ele>381</ele>
        <time>2017-09-03T12:19:26Z</time>
      </trkpt>
      <trkpt lat="45.73379" lon="5.63411">
        <ele>381</ele>
        <time>2017-09-03T12:19:26Z</time>
      </trkpt>
      <trkpt lat="45.73381" lon="5.6341">
        <ele>381</ele>
        <time>2017-09-03T12:19:26Z</time>
      </trkpt>
      <trkpt lat="45.73384" lon="5.6341">
        <ele>381</ele>
        <time>2017-09-03T12:19:26Z</time>
      </trkpt>
      <trkpt lat="45.73388" lon="5.6341">
        <ele>381</ele>
        <time>2017-09-03T12:19:42Z</time>
      </trkpt>
      <trkpt lat="45.73394" lon="5.63411">
        <ele>381</ele>
        <time>2017-09-03T12:19:42Z</time>
      </trkpt>
      <trkpt lat="45.73403" lon="5.6341">
        <ele>381</ele>
        <time>2017-09-03T12:19:42Z</time>
      </trkpt>
      <trkpt lat="45.73412" lon="5.63408">
        <ele>381</ele>
        <time>2017-09-03T12:19:42Z</time>
      </trkpt>
      <trkpt lat="45.73415" lon="5.63407">
        <ele>381</ele>
        <time>2017-09-03T12:19:58Z</time>
      </trkpt>
      <trkpt lat="45.7342" lon="5.63404">
        <ele>381</ele>
        <time>2017-09-03T12:19:58Z</time>
      </trkpt>
      <trkpt lat="45.73422" lon="5.63403">
        <ele>381</ele>
        <time>2017-09-03T12:19:58Z</time>
      </trkpt>
      <trkpt lat="45.73426" lon="5.63401">
        <ele>381</ele>
        <time>2017-09-03T12:19:58Z</time>
      </trkpt>
      <trkpt lat="45.73432" lon="5.63398">
        <ele>381</ele>
        <time>2017-09-03T12:20:14Z</time>
      </trkpt>
      <trkpt lat="45.73434" lon="5.63396">
        <ele>381</ele>
        <time>2017-09-03T12:20:14Z</time>
      </trkpt>
      <trkpt lat="45.73437" lon="5.63395">
        <ele>381</ele>
        <time>2017-09-03T12:20:14Z</time>
      </trkpt>
      <trkpt lat="45.73442" lon="5.6339">
        <ele>381</ele>
        <time>2017-09-03T12:20:14Z</time>
      </trkpt>
      <trkpt lat="45.73447" lon="5.63382">
        <ele>381</ele>
        <time>2017-09-03T12:20:30Z</time>
      </trkpt>
      <trkpt lat="45.73453" lon="5.63377">
        <ele>381</ele>
        <time>2017-09-03T12:20:30Z</time>
      </trkpt>
      <trkpt lat="45.73457" lon="5.63372">
        <ele>381</ele>
        <time>2017-09-03T12:20:30Z</time>
      </trkpt>
      <trkpt lat="45.73461" lon="5.63367">
        <ele>376</ele>
        <time>2017-09-03T12:20:30Z</time>
      </trkpt>
      <trkpt lat="45.73468" lon="5.63364">
        <ele>376</ele>
        <time>2017-09-03T12:20:46Z</time>
      </trkpt>
      <trkpt lat="45.73477" lon="5.63363">
        <ele>376</ele>
        <time>2017-09-03T12:20:46Z</time>
      </trkpt>
      <trkpt lat="45.73487" lon="5.63362">
        <ele>376</ele>
        <time>2017-09-03T12:20:46Z</time>
      </trkpt>
      <trkpt lat="45.73495" lon="5.6336">
        <ele>376</ele>
        <time>2017-09-03T12:20:46Z</time>
      </trkpt>
      <trkpt lat="45.73502" lon="5.63361">
        <ele>376</ele>
        <time>2017-09-03T12:21:02Z</time>
      </trkpt>
      <trkpt lat="45.73509" lon="5.63363">
        <ele>376</ele>
        <time>2017-09-03T12:21:02Z</time>
      </trkpt>
      <trkpt lat="45.73518" lon="5.63369">
        <ele>376</ele>
        <time>2017-09-03T12:21:02Z</time>
      </trkpt>
      <trkpt lat="45.73523" lon="5.63375">
        <ele>376</ele>
        <time>2017-09-03T12:21:02Z</time>
      </trkpt>
      <trkpt lat="45.7353" lon="5.63378">
        <ele>376</ele>
        <time>2017-09-03T12:21:18Z</time>
      </trkpt>
      <trkpt lat="45.73537" lon="5.63377">
        <ele>376</ele>
        <time>2017-09-03T12:21:18Z</time>
      </trkpt>
      <trkpt lat="45.73544" lon="5.63379">
        <ele>374</ele>
        <time>2017-09-03T12:21:18Z</time>
      </trkpt>
      <trkpt lat="45.7355" lon="5.63378">
        <ele>374</ele>
        <time>2017-09-03T12:21:18Z</time>
      </trkpt>
      <trkpt lat="45.7356" lon="5.6338">
        <ele>374</ele>
        <time>2017-09-03T12:21:34Z</time>
      </trkpt>
      <trkpt lat="45.73572" lon="5.63378">
        <ele>374</ele>
        <time>2017-09-03T12:21:34Z</time>
      </trkpt>
      <trkpt lat="45.73578" lon="5.63381">
        <ele>374</ele>
        <time>2017-09-03T12:21:34Z</time>
      </trkpt>
      <trkpt lat="45.73583" lon="5.63381">
        <ele>374</ele>
        <time>2017-09-03T12:21:34Z</time>
      </trkpt>
      <trkpt lat="45.73586" lon="5.63379">
        <ele>374</ele>
        <time>2017-09-03T12:21:50Z</time>
      </trkpt>
      <trkpt lat="45.73592" lon="5.6338">
        <ele>374</ele>
        <time>2017-09-03T12:21:50Z</time>
      </trkpt>
      <trkpt lat="45.73599" lon="5.63381">
        <ele>374</ele>
        <time>2017-09-03T12:21:50Z</time>
      </trkpt>
      <trkpt lat="45.73604" lon="5.63381">
        <ele>374</ele>
        <time>2017-09-03T12:21:50Z</time>
      </trkpt>
      <trkpt lat="45.73607" lon="5.6338">
        <ele>374</ele>
        <time>2017-09-03T12:22:06Z</time>
      </trkpt>
      <trkpt lat="45.73611" lon="5.63378">
        <ele>374</ele>
        <time>2017-09-03T12:22:06Z</time>
      </trkpt>
      <trkpt lat="45.73617" lon="5.63377">
        <ele>374</ele>
        <time>2017-09-03T12:22:06Z</time>
      </trkpt>
      <trkpt lat="45.73623" lon="5.6338">
        <ele>374</ele>
        <time>2017-09-03T12:22:06Z</time>
      </trkpt>
      <trkpt lat="45.73628" lon="5.63381">
        <ele>371</ele>
        <time>2017-09-03T12:22:22Z</time>
      </trkpt>
      <trkpt lat="45.73634" lon="5.63385">
        <ele>371</ele>
        <time>2017-09-03T12:22:22Z</time>
      </trkpt>
      <trkpt lat="45.73639" lon="5.63387">
        <ele>371</ele>
        <time>2017-09-03T12:22:22Z</time>
      </trkpt>
      <trkpt lat="45.73643" lon="5.63386">
        <ele>371</ele>
        <time>2017-09-03T12:22:22Z</time>
      </trkpt>
      <trkpt lat="45.73648" lon="5.63389">
        <ele>371</ele>
        <time>2017-09-03T12:22:38Z</time>
      </trkpt>
      <trkpt lat="45.73653" lon="5.63389">
        <ele>371</ele>
        <time>2017-09-03T12:22:38Z</time>
      </trkpt>
      <trkpt lat="45.73658" lon="5.6339">
        <ele>371</ele>
        <time>2017-09-03T12:22:38Z</time>
      </trkpt>
      <trkpt lat="45.73661" lon="5.6339">
        <ele>371</ele>
        <time>2017-09-03T12:22:38Z</time>
      </trkpt>
      <trkpt lat="45.73661" lon="5.63389">
        <ele>371</ele>
        <time>2017-09-03T12:22:54Z</time>
      </trkpt>
      <trkpt lat="45.73664" lon="5.63384">
        <ele>371</ele>
        <time>2017-09-03T12:22:54Z</time>
      </trkpt>
      <trkpt lat="45.73662" lon="5.63376">
        <ele>371</ele>
        <time>2017-09-03T12:22:54Z</time>
      </trkpt>
      <trkpt lat="45.73661" lon="5.63369">
        <ele>368</ele>
        <time>2017-09-03T12:22:54Z</time>
      </trkpt>
      <trkpt lat="45.73663" lon="5.63366">
        <ele>368</ele>
        <time>2017-09-03T12:23:34Z</time>
      </trkpt>
      <trkpt lat="45.73662" lon="5.63364">
        <ele>368</ele>
        <time>2017-09-03T12:23:34Z</time>
      </trkpt>
      <trkpt lat="45.73662" lon="5.63358">
        <ele>368</ele>
        <time>2017-09-03T12:23:34Z</time>
      </trkpt>
      <trkpt lat="45.73662" lon="5.6335">
        <ele>368</ele>
        <time>2017-09-03T12:23:34Z</time>
      </trkpt>
      <trkpt lat="45.73664" lon="5.63344">
        <ele>368</ele>
        <time>2017-09-03T12:23:34Z</time>
      </trkpt>
      <trkpt lat="45.73666" lon="5.63339">
        <ele>368</ele>
        <time>2017-09-03T12:23:54Z</time>
      </trkpt>
      <trkpt lat="45.73665" lon="5.63338">
        <ele>368</ele>
        <time>2017-09-03T12:23:54Z</time>
      </trkpt>
      <trkpt lat="45.73666" lon="5.63335">
        <ele>368</ele>
        <time>2017-09-03T12:23:54Z</time>
      </trkpt>
      <trkpt lat="45.73668" lon="5.63328">
        <ele>368</ele>
        <time>2017-09-03T12:23:54Z</time>
      </trkpt>
      <trkpt lat="45.7367" lon="5.6332">
        <ele>368</ele>
        <time>2017-09-03T12:23:54Z</time>
      </trkpt>
      <trkpt lat="45.73673" lon="5.6331">
        <ele>368</ele>
        <time>2017-09-03T12:24:10Z</time>
      </trkpt>
      <trkpt lat="45.73673" lon="5.63299">
        <ele>368</ele>
        <time>2017-09-03T12:24:10Z</time>
      </trkpt>
      <trkpt lat="45.7367" lon="5.63279">
        <ele>364</ele>
        <time>2017-09-03T12:24:10Z</time>
      </trkpt>
      <trkpt lat="45.73669" lon="5.63262">
        <ele>364</ele>
        <time>2017-09-03T12:24:10Z</time>
      </trkpt>
      <trkpt lat="45.7367" lon="5.63255">
        <ele>364</ele>
        <time>2017-09-03T12:24:26Z</time>
      </trkpt>
      <trkpt lat="45.73669" lon="5.6325">
        <ele>364</ele>
        <time>2017-09-03T12:24:26Z</time>
      </trkpt>
      <trkpt lat="45.7367" lon="5.63238">
        <ele>364</ele>
        <time>2017-09-03T12:24:26Z</time>
      </trkpt>
      <trkpt lat="45.7367" lon="5.63228">
        <ele>364</ele>
        <time>2017-09-03T12:24:26Z</time>
      </trkpt>
      <trkpt lat="45.7367" lon="5.63221">
        <ele>364</ele>
        <time>2017-09-03T12:24:42Z</time>
      </trkpt>
      <trkpt lat="45.73669" lon="5.63207">
        <ele>358</ele>
        <time>2017-09-03T12:24:42Z</time>
      </trkpt>
      <trkpt lat="45.73665" lon="5.6319">
        <ele>358</ele>
        <time>2017-09-03T12:24:42Z</time>
      </trkpt>
      <trkpt lat="45.73663" lon="5.63176">
        <ele>358</ele>
        <time>2017-09-03T12:24:42Z</time>
      </trkpt>
      <trkpt lat="45.73663" lon="5.63173">
        <ele>358</ele>
        <time>2017-09-03T12:24:58Z</time>
      </trkpt>
      <trkpt lat="45.73665" lon="5.63174">
        <ele>358</ele>
        <time>2017-09-03T12:24:58Z</time>
      </trkpt>
      <trkpt lat="45.73665" lon="5.63171">
        <ele>358</ele>
        <time>2017-09-03T12:24:58Z</time>
      </trkpt>
      <trkpt lat="45.73663" lon="5.63158">
        <ele>358</ele>
        <time>2017-09-03T12:24:58Z</time>
      </trkpt>
      <trkpt lat="45.73662" lon="5.63144">
        <ele>358</ele>
        <time>2017-09-03T12:25:14Z</time>
      </trkpt>
      <trkpt lat="45.73661" lon="5.63135">
        <ele>358</ele>
        <time>2017-09-03T12:25:14Z</time>
      </trkpt>
      <trkpt lat="45.73661" lon="5.63126">
        <ele>358</ele>
        <time>2017-09-03T12:25:14Z</time>
      </trkpt>
      <trkpt lat="45.73661" lon="5.6312">
        <ele>357</ele>
        <time>2017-09-03T12:25:14Z</time>
      </trkpt>
      <trkpt lat="45.73659" lon="5.63111">
        <ele>357</ele>
        <time>2017-09-03T12:25:30Z</time>
      </trkpt>
      <trkpt lat="45.73658" lon="5.63102">
        <ele>357</ele>
        <time>2017-09-03T12:25:30Z</time>
      </trkpt>
      <trkpt lat="45.73659" lon="5.63094">
        <ele>357</ele>
        <time>2017-09-03T12:25:30Z</time>
      </trkpt>
      <trkpt lat="45.73657" lon="5.63085">
        <ele>357</ele>
        <time>2017-09-03T12:25:30Z</time>
      </trkpt>
      <trkpt lat="45.73656" lon="5.63078">
        <ele>357</ele>
        <time>2017-09-03T12:25:46Z</time>
      </trkpt>
      <trkpt lat="45.73654" lon="5.6307">
        <ele>357</ele>
        <time>2017-09-03T12:25:46Z</time>
      </trkpt>
      <trkpt lat="45.73653" lon="5.63063">
        <ele>357</ele>
        <time>2017-09-03T12:25:46Z</time>
      </trkpt>
      <trkpt lat="45.73652" lon="5.63054">
        <ele>357</ele>
        <time>2017-09-03T12:25:46Z</time>
      </trkpt>
      <trkpt lat="45.73651" lon="5.63046">
        <ele>357</ele>
        <time>2017-09-03T12:26:02Z</time>
      </trkpt>
      <trkpt lat="45.73649" lon="5.63039">
        <ele>359</ele>
        <time>2017-09-03T12:26:02Z</time>
      </trkpt>
      <trkpt lat="45.73649" lon="5.63032">
        <ele>359</ele>
        <time>2017-09-03T12:26:02Z</time>
      </trkpt>
      <trkpt lat="45.73649" lon="5.63025">
        <ele>359</ele>
        <time>2017-09-03T12:26:02Z</time>
      </trkpt>
      <trkpt lat="45.7365" lon="5.63019">
        <ele>359</ele>
        <time>2017-09-03T12:26:18Z</time>
      </trkpt>
      <trkpt lat="45.73654" lon="5.63014">
        <ele>359</ele>
        <time>2017-09-03T12:26:18Z</time>
      </trkpt>
      <trkpt lat="45.73664" lon="5.63012">
        <ele>359</ele>
        <time>2017-09-03T12:26:18Z</time>
      </trkpt>
      <trkpt lat="45.73678" lon="5.63014">
        <ele>359</ele>
        <time>2017-09-03T12:26:18Z</time>
      </trkpt>
      <trkpt lat="45.73692" lon="5.63016">
        <ele>359</ele>
        <time>2017-09-03T12:26:34Z</time>
      </trkpt>
      <trkpt lat="45.73701" lon="5.63016">
        <ele>359</ele>
        <time>2017-09-03T12:26:34Z</time>
      </trkpt>
      <trkpt lat="45.73705" lon="5.63019">
        <ele>359</ele>
        <time>2017-09-03T12:26:34Z</time>
      </trkpt>
      <trkpt lat="45.73711" lon="5.63019">
        <ele>362</ele>
        <time>2017-09-03T12:26:34Z</time>
      </trkpt>
      <trkpt lat="45.73717" lon="5.6302">
        <ele>362</ele>
        <time>2017-09-03T12:26:50Z</time>
      </trkpt>
      <trkpt lat="45.73722" lon="5.6302">
        <ele>362</ele>
        <time>2017-09-03T12:26:50Z</time>
      </trkpt>
      <trkpt lat="45.7373" lon="5.63023">
        <ele>362</ele>
        <time>2017-09-03T12:26:50Z</time>
      </trkpt>
      <trkpt lat="45.73736" lon="5.63023">
        <ele>362</ele>
        <time>2017-09-03T12:26:50Z</time>
      </trkpt>
      <trkpt lat="45.73739" lon="5.63018">
        <ele>362</ele>
        <time>2017-09-03T12:27:06Z</time>
      </trkpt>
      <trkpt lat="45.73739" lon="5.63015">
        <ele>362</ele>
        <time>2017-09-03T12:27:06Z</time>
      </trkpt>
      <trkpt lat="45.73741" lon="5.63016">
        <ele>362</ele>
        <time>2017-09-03T12:27:06Z</time>
      </trkpt>
      <trkpt lat="45.73749" lon="5.63019">
        <ele>362</ele>
        <time>2017-09-03T12:27:06Z</time>
      </trkpt>
      <trkpt lat="45.73755" lon="5.6302">
        <ele>362</ele>
        <time>2017-09-03T12:27:22Z</time>
      </trkpt>
      <trkpt lat="45.73764" lon="5.63022">
        <ele>362</ele>
        <time>2017-09-03T12:27:22Z</time>
      </trkpt>
      <trkpt lat="45.73771" lon="5.63024">
        <ele>362</ele>
        <time>2017-09-03T12:27:22Z</time>
      </trkpt>
      <trkpt lat="45.73775" lon="5.63023">
        <ele>362</ele>
        <time>2017-09-03T12:27:22Z</time>
      </trkpt>
      <trkpt lat="45.7378" lon="5.63024">
        <ele>362</ele>
        <time>2017-09-03T12:27:38Z</time>
      </trkpt>
      <trkpt lat="45.73787" lon="5.63027">
        <ele>362</ele>
        <time>2017-09-03T12:27:38Z</time>
      </trkpt>
      <trkpt lat="45.73795" lon="5.63034">
        <ele>369</ele>
        <time>2017-09-03T12:27:38Z</time>
      </trkpt>
      <trkpt lat="45.73802" lon="5.6304">
        <ele>369</ele>
        <time>2017-09-03T12:27:38Z</time>
      </trkpt>
      <trkpt lat="45.73807" lon="5.63047">
        <ele>359</ele>
        <time>2017-09-03T12:27:54Z</time>
      </trkpt>
      <trkpt lat="45.73817" lon="5.63057">
        <ele>359</ele>
        <time>2017-09-03T12:27:54Z</time>
      </trkpt>
      <trkpt lat="45.73828" lon="5.63064">
        <ele>359</ele>
        <time>2017-09-03T12:27:54Z</time>
      </trkpt>
      <trkpt lat="45.73833" lon="5.63065">
        <ele>359</ele>
        <time>2017-09-03T12:27:54Z</time>
      </trkpt>
      <trkpt lat="45.73834" lon="5.63065">
        <ele>359</ele>
        <time>2017-09-03T12:28:10Z</time>
      </trkpt>
      <trkpt lat="45.73836" lon="5.63067">
        <ele>359</ele>
        <time>2017-09-03T12:28:10Z</time>
      </trkpt>
      <trkpt lat="45.7384" lon="5.6307">
        <ele>359</ele>
        <time>2017-09-03T12:28:10Z</time>
      </trkpt>
      <trkpt lat="45.73844" lon="5.63075">
        <ele>359</ele>
        <time>2017-09-03T12:28:10Z</time>
      </trkpt>
      <trkpt lat="45.7385" lon="5.63078">
        <ele>359</ele>
        <time>2017-09-03T12:28:26Z</time>
      </trkpt>
      <trkpt lat="45.73859" lon="5.63079">
        <ele>359</ele>
        <time>2017-09-03T12:28:26Z</time>
      </trkpt>
      <trkpt lat="45.73867" lon="5.63082">
        <ele>359</ele>
        <time>2017-09-03T12:28:26Z</time>
      </trkpt>
      <trkpt lat="45.73873" lon="5.63085">
        <ele>359</ele>
        <time>2017-09-03T12:28:26Z</time>
      </trkpt>
      <trkpt lat="45.73882" lon="5.63087">
        <ele>363</ele>
        <time>2017-09-03T12:28:42Z</time>
      </trkpt>
      <trkpt lat="45.7389" lon="5.63093">
        <ele>363</ele>
        <time>2017-09-03T12:28:42Z</time>
      </trkpt>
      <trkpt lat="45.73898" lon="5.63096">
        <ele>363</ele>
        <time>2017-09-03T12:28:42Z</time>
      </trkpt>
      <trkpt lat="45.73904" lon="5.63097">
        <ele>363</ele>
        <time>2017-09-03T12:28:42Z</time>
      </trkpt>
      <trkpt lat="45.73909" lon="5.63098">
        <ele>363</ele>
        <time>2017-09-03T12:28:58Z</time>
      </trkpt>
      <trkpt lat="45.73915" lon="5.63099">
        <ele>363</ele>
        <time>2017-09-03T12:28:58Z</time>
      </trkpt>
      <trkpt lat="45.73921" lon="5.631">
        <ele>363</ele>
        <time>2017-09-03T12:28:58Z</time>
      </trkpt>
      <trkpt lat="45.73926" lon="5.63102">
        <ele>363</ele>
        <time>2017-09-03T12:28:58Z</time>
      </trkpt>
      <trkpt lat="45.73931" lon="5.63104">
        <ele>363</ele>
        <time>2017-09-03T12:29:14Z</time>
      </trkpt>
      <trkpt lat="45.73936" lon="5.63105">
        <ele>363</ele>
        <time>2017-09-03T12:29:14Z</time>
      </trkpt>
      <trkpt lat="45.73942" lon="5.63109">
        <ele>363</ele>
        <time>2017-09-03T12:29:14Z</time>
      </trkpt>
      <trkpt lat="45.73948" lon="5.63111">
        <ele>363</ele>
        <time>2017-09-03T12:29:14Z</time>
      </trkpt>
      <trkpt lat="45.73954" lon="5.63112">
        <ele>363</ele>
        <time>2017-09-03T12:29:30Z</time>
      </trkpt>
      <trkpt lat="45.73959" lon="5.63115">
        <ele>368</ele>
        <time>2017-09-03T12:29:30Z</time>
      </trkpt>
      <trkpt lat="45.73965" lon="5.63118">
        <ele>368</ele>
        <time>2017-09-03T12:29:30Z</time>
      </trkpt>
      <trkpt lat="45.7397" lon="5.6312">
        <ele>368</ele>
        <time>2017-09-03T12:29:30Z</time>
      </trkpt>
      <trkpt lat="45.73976" lon="5.63124">
        <ele>368</ele>
        <time>2017-09-03T12:29:46Z</time>
      </trkpt>
      <trkpt lat="45.73981" lon="5.63128">
        <ele>360</ele>
        <time>2017-09-03T12:29:46Z</time>
      </trkpt>
      <trkpt lat="45.73986" lon="5.63134">
        <ele>360</ele>
        <time>2017-09-03T12:29:46Z</time>
      </trkpt>
      <trkpt lat="45.73991" lon="5.63139">
        <ele>360</ele>
        <time>2017-09-03T12:29:46Z</time>
      </trkpt>
      <trkpt lat="45.73995" lon="5.63144">
        <ele>360</ele>
        <time>2017-09-03T12:30:02Z</time>
      </trkpt>
      <trkpt lat="45.74" lon="5.63147">
        <ele>360</ele>
        <time>2017-09-03T12:30:02Z</time>
      </trkpt>
      <trkpt lat="45.74005" lon="5.63148">
        <ele>360</ele>
        <time>2017-09-03T12:30:02Z</time>
      </trkpt>
      <trkpt lat="45.74011" lon="5.63149">
        <ele>360</ele>
        <time>2017-09-03T12:30:02Z</time>
      </trkpt>
      <trkpt lat="45.74017" lon="5.63148">
        <ele>360</ele>
        <time>2017-09-03T12:30:18Z</time>
      </trkpt>
      <trkpt lat="45.74025" lon="5.63147">
        <ele>360</ele>
        <time>2017-09-03T12:30:18Z</time>
      </trkpt>
      <trkpt lat="45.7404" lon="5.63147">
        <ele>360</ele>
        <time>2017-09-03T12:30:18Z</time>
      </trkpt>
      <trkpt lat="45.7405" lon="5.63147">
        <ele>362</ele>
        <time>2017-09-03T12:30:18Z</time>
      </trkpt>
      <trkpt lat="45.74057" lon="5.63145">
        <ele>362</ele>
        <time>2017-09-03T12:30:34Z</time>
      </trkpt>
      <trkpt lat="45.74062" lon="5.63145">
        <ele>362</ele>
        <time>2017-09-03T12:30:34Z</time>
      </trkpt>
      <trkpt lat="45.74066" lon="5.63145">
        <ele>362</ele>
        <time>2017-09-03T12:30:34Z</time>
      </trkpt>
      <trkpt lat="45.74068" lon="5.63145">
        <ele>362</ele>
        <time>2017-09-03T12:30:34Z</time>
      </trkpt>
      <trkpt lat="45.74073" lon="5.63146">
        <ele>362</ele>
        <time>2017-09-03T12:30:50Z</time>
      </trkpt>
      <trkpt lat="45.74077" lon="5.63148">
        <ele>362</ele>
        <time>2017-09-03T12:30:50Z</time>
      </trkpt>
      <trkpt lat="45.7408" lon="5.6315">
        <ele>362</ele>
        <time>2017-09-03T12:30:50Z</time>
      </trkpt>
      <trkpt lat="45.74083" lon="5.63155">
        <ele>362</ele>
        <time>2017-09-03T12:30:50Z</time>
      </trkpt>
      <trkpt lat="45.74092" lon="5.63163">
        <ele>362</ele>
        <time>2017-09-03T12:31:06Z</time>
      </trkpt>
      <trkpt lat="45.74101" lon="5.6317">
        <ele>362</ele>
        <time>2017-09-03T12:31:06Z</time>
      </trkpt>
      <trkpt lat="45.74108" lon="5.63176">
        <ele>362</ele>
        <time>2017-09-03T12:31:06Z</time>
      </trkpt>
      <trkpt lat="45.74112" lon="5.63181">
        <ele>362</ele>
        <time>2017-09-03T12:31:06Z</time>
      </trkpt>
      <trkpt lat="45.74117" lon="5.63185">
        <ele>362</ele>
        <time>2017-09-03T12:31:22Z</time>
      </trkpt>
      <trkpt lat="45.74122" lon="5.63191">
        <ele>362</ele>
        <time>2017-09-03T12:31:22Z</time>
      </trkpt>
      <trkpt lat="45.74127" lon="5.63199">
        <ele>366</ele>
        <time>2017-09-03T12:31:22Z</time>
      </trkpt>
      <trkpt lat="45.74132" lon="5.63206">
        <ele>366</ele>
        <time>2017-09-03T12:31:22Z</time>
      </trkpt>
      <trkpt lat="45.74138" lon="5.63211">
        <ele>369</ele>
        <time>2017-09-03T12:31:38Z</time>
      </trkpt>
      <trkpt lat="45.74145" lon="5.63217">
        <ele>369</ele>
        <time>2017-09-03T12:31:38Z</time>
      </trkpt>
      <trkpt lat="45.74151" lon="5.63222">
        <ele>369</ele>
        <time>2017-09-03T12:31:38Z</time>
      </trkpt>
      <trkpt lat="45.74158" lon="5.63228">
        <ele>369</ele>
        <time>2017-09-03T12:31:38Z</time>
      </trkpt>
      <trkpt lat="45.74168" lon="5.63236">
        <ele>369</ele>
        <time>2017-09-03T12:32:02Z</time>
      </trkpt>
      <trkpt lat="45.74167" lon="5.63237">
        <ele>369</ele>
        <time>2017-09-03T12:32:02Z</time>
      </trkpt>
      <trkpt lat="45.74168" lon="5.63238">
        <ele>369</ele>
        <time>2017-09-03T12:32:02Z</time>
      </trkpt>
      <trkpt lat="45.74169" lon="5.6324">
        <ele>369</ele>
        <time>2017-09-03T12:32:02Z</time>
      </trkpt>
      <trkpt lat="45.74173" lon="5.63244">
        <ele>369</ele>
        <time>2017-09-03T12:32:02Z</time>
      </trkpt>
      <trkpt lat="45.74176" lon="5.63248">
        <ele>369</ele>
        <time>2017-09-03T12:32:18Z</time>
      </trkpt>
      <trkpt lat="45.7418" lon="5.63252">
        <ele>369</ele>
        <time>2017-09-03T12:32:18Z</time>
      </trkpt>
      <trkpt lat="45.74184" lon="5.63255">
        <ele>369</ele>
        <time>2017-09-03T12:32:18Z</time>
      </trkpt>
      <trkpt lat="45.74189" lon="5.63258">
        <ele>369</ele>
        <time>2017-09-03T12:32:18Z</time>
      </trkpt>
      <trkpt lat="45.74192" lon="5.63259">
        <ele>369</ele>
        <time>2017-09-03T12:32:34Z</time>
      </trkpt>
      <trkpt lat="45.74203" lon="5.63261">
        <ele>369</ele>
        <time>2017-09-03T12:32:34Z</time>
      </trkpt>
      <trkpt lat="45.74212" lon="5.63265">
        <ele>372</ele>
        <time>2017-09-03T12:32:34Z</time>
      </trkpt>
      <trkpt lat="45.74215" lon="5.63263">
        <ele>372</ele>
        <time>2017-09-03T12:32:34Z</time>
      </trkpt>
      <trkpt lat="45.74214" lon="5.63262">
        <ele>372</ele>
        <time>2017-09-03T12:32:50Z</time>
      </trkpt>
      <trkpt lat="45.74216" lon="5.63262">
        <ele>372</ele>
        <time>2017-09-03T12:32:50Z</time>
      </trkpt>
      <trkpt lat="45.74224" lon="5.63259">
        <ele>372</ele>
        <time>2017-09-03T12:32:50Z</time>
      </trkpt>
      <trkpt lat="45.74232" lon="5.63256">
        <ele>372</ele>
        <time>2017-09-03T12:32:50Z</time>
      </trkpt>
      <trkpt lat="45.74238" lon="5.63251">
        <ele>372</ele>
        <time>2017-09-03T12:33:06Z</time>
      </trkpt>
      <trkpt lat="45.74243" lon="5.63249">
        <ele>372</ele>
        <time>2017-09-03T12:33:06Z</time>
      </trkpt>
      <trkpt lat="45.74251" lon="5.63245">
        <ele>372</ele>
        <time>2017-09-03T12:33:06Z</time>
      </trkpt>
      <trkpt lat="45.74259" lon="5.63242">
        <ele>372</ele>
        <time>2017-09-03T12:33:06Z</time>
      </trkpt>
      <trkpt lat="45.74267" lon="5.63237">
        <ele>372</ele>
        <time>2017-09-03T12:33:22Z</time>
      </trkpt>
      <trkpt lat="45.74273" lon="5.63233">
        <ele>372</ele>
        <time>2017-09-03T12:33:22Z</time>
      </trkpt>
      <trkpt lat="45.74278" lon="5.63228">
        <ele>372</ele>
        <time>2017-09-03T12:33:22Z</time>
      </trkpt>
      <trkpt lat="45.74282" lon="5.63223">
        <ele>372</ele>
        <time>2017-09-03T12:33:22Z</time>
      </trkpt>
      <trkpt lat="45.74287" lon="5.63221">
        <ele>372</ele>
        <time>2017-09-03T12:33:38Z</time>
      </trkpt>
      <trkpt lat="45.74292" lon="5.6322">
        <ele>371</ele>
        <time>2017-09-03T12:33:38Z</time>
      </trkpt>
      <trkpt lat="45.74297" lon="5.6322">
        <ele>371</ele>
        <time>2017-09-03T12:33:38Z</time>
      </trkpt>
      <trkpt lat="45.74302" lon="5.63218">
        <ele>371</ele>
        <time>2017-09-03T12:33:38Z</time>
      </trkpt>
      <trkpt lat="45.7431" lon="5.63219">
        <ele>371</ele>
        <time>2017-09-03T12:33:54Z</time>
      </trkpt>
      <trkpt lat="45.74313" lon="5.63218">
        <ele>371</ele>
        <time>2017-09-03T12:33:54Z</time>
      </trkpt>
      <trkpt lat="45.74314" lon="5.63217">
        <ele>371</ele>
        <time>2017-09-03T12:33:54Z</time>
      </trkpt>
      <trkpt lat="45.7432" lon="5.6322">
        <ele>371</ele>
        <time>2017-09-03T12:33:54Z</time>
      </trkpt>
      <trkpt lat="45.74324" lon="5.63223">
        <ele>371</ele>
        <time>2017-09-03T12:34:10Z</time>
      </trkpt>
      <trkpt lat="45.74333" lon="5.63229">
        <ele>371</ele>
        <time>2017-09-03T12:34:10Z</time>
      </trkpt>
      <trkpt lat="45.74348" lon="5.63236">
        <ele>371</ele>
        <time>2017-09-03T12:34:10Z</time>
      </trkpt>
      <trkpt lat="45.74358" lon="5.63239">
        <ele>371</ele>
        <time>2017-09-03T12:34:10Z</time>
      </trkpt>
      <trkpt lat="45.74365" lon="5.63242">
        <ele>371</ele>
        <time>2017-09-03T12:34:26Z</time>
      </trkpt>
      <trkpt lat="45.74371" lon="5.63244">
        <ele>371</ele>
        <time>2017-09-03T12:34:26Z</time>
      </trkpt>
      <trkpt lat="45.74376" lon="5.63245">
        <ele>367</ele>
        <time>2017-09-03T12:34:26Z</time>
      </trkpt>
      <trkpt lat="45.74378" lon="5.63245">
        <ele>367</ele>
        <time>2017-09-03T12:34:26Z</time>
      </trkpt>
      <trkpt lat="45.74379" lon="5.63244">
        <ele>367</ele>
        <time>2017-09-03T12:34:42Z</time>
      </trkpt>
      <trkpt lat="45.74383" lon="5.63247">
        <ele>367</ele>
        <time>2017-09-03T12:34:42Z</time>
      </trkpt>
      <trkpt lat="45.74395" lon="5.6326">
        <ele>367</ele>
        <time>2017-09-03T12:34:42Z</time>
      </trkpt>
      <trkpt lat="45.74406" lon="5.63276">
        <ele>367</ele>
        <time>2017-09-03T12:34:42Z</time>
      </trkpt>
      <trkpt lat="45.7441" lon="5.63285">
        <ele>367</ele>
        <time>2017-09-03T12:34:58Z</time>
      </trkpt>
      <trkpt lat="45.74414" lon="5.63291">
        <ele>367</ele>
        <time>2017-09-03T12:34:58Z</time>
      </trkpt>
      <trkpt lat="45.74417" lon="5.63298">
        <ele>360</ele>
        <time>2017-09-03T12:34:58Z</time>
      </trkpt>
      <trkpt lat="45.7442" lon="5.63303">
        <ele>360</ele>
        <time>2017-09-03T12:34:58Z</time>
      </trkpt>
      <trkpt lat="45.74425" lon="5.63312">
        <ele>360</ele>
        <time>2017-09-03T12:35:14Z</time>
      </trkpt>
      <trkpt lat="45.74429" lon="5.63319">
        <ele>360</ele>
        <time>2017-09-03T12:35:14Z</time>
      </trkpt>
      <trkpt lat="45.74434" lon="5.63326">
        <ele>360</ele>
        <time>2017-09-03T12:35:14Z</time>
      </trkpt>
      <trkpt lat="45.74438" lon="5.63333">
        <ele>360</ele>
        <time>2017-09-03T12:35:14Z</time>
      </trkpt>
      <trkpt lat="45.74442" lon="5.63349">
        <ele>360</ele>
        <time>2017-09-03T12:35:30Z</time>
      </trkpt>
      <trkpt lat="45.74445" lon="5.63359">
        <ele>360</ele>
        <time>2017-09-03T12:35:30Z</time>
      </trkpt>
      <trkpt lat="45.74445" lon="5.63368">
        <ele>360</ele>
        <time>2017-09-03T12:35:30Z</time>
      </trkpt>
      <trkpt lat="45.74446" lon="5.63374">
        <ele>360</ele>
        <time>2017-09-03T12:35:30Z</time>
      </trkpt>
      <trkpt lat="45.74441" lon="5.63381">
        <ele>366</ele>
        <time>2017-09-03T12:38:30Z</time>
      </trkpt>
      <trkpt lat="45.74442" lon="5.63382">
        <ele>366</ele>
        <time>2017-09-03T12:38:30Z</time>
      </trkpt>
      <trkpt lat="45.74443" lon="5.63383">
        <ele>366</ele>
        <time>2017-09-03T12:38:30Z</time>
      </trkpt>
      <trkpt lat="45.74445" lon="5.63385">
        <ele>366</ele>
        <time>2017-09-03T12:38:30Z</time>
      </trkpt>
      <trkpt lat="45.7445" lon="5.63389">
        <ele>366</ele>
        <time>2017-09-03T12:38:30Z</time>
      </trkpt>
      <trkpt lat="45.74454" lon="5.6339">
        <ele>366</ele>
        <time>2017-09-03T12:38:46Z</time>
      </trkpt>
      <trkpt lat="45.7446" lon="5.63391">
        <ele>362</ele>
        <time>2017-09-03T12:38:46Z</time>
      </trkpt>
      <trkpt lat="45.74464" lon="5.63391">
        <ele>362</ele>
        <time>2017-09-03T12:38:46Z</time>
      </trkpt>
      <trkpt lat="45.74469" lon="5.63397">
        <ele>362</ele>
        <time>2017-09-03T12:38:46Z</time>
      </trkpt>
      <trkpt lat="45.74473" lon="5.63408">
        <ele>362</ele>
        <time>2017-09-03T12:39:02Z</time>
      </trkpt>
      <trkpt lat="45.74475" lon="5.63415">
        <ele>362</ele>
        <time>2017-09-03T12:39:02Z</time>
      </trkpt>
      <trkpt lat="45.74477" lon="5.6342">
        <ele>362</ele>
        <time>2017-09-03T12:39:02Z</time>
      </trkpt>
      <trkpt lat="45.74476" lon="5.63425">
        <ele>362</ele>
        <time>2017-09-03T12:39:02Z</time>
      </trkpt>
      <trkpt lat="45.74476" lon="5.63427">
        <ele>362</ele>
        <time>2017-09-03T12:39:22Z</time>
      </trkpt>
      <trkpt lat="45.74476" lon="5.63427">
        <ele>362</ele>
        <time>2017-09-03T12:39:22Z</time>
      </trkpt>
      <trkpt lat="45.74476" lon="5.63427">
        <ele>362</ele>
        <time>2017-09-03T12:39:22Z</time>
      </trkpt>
      <trkpt lat="45.74476" lon="5.63429">
        <ele>362</ele>
        <time>2017-09-03T12:39:22Z</time>
      </trkpt>
      <trkpt lat="45.74476" lon="5.63444">
        <ele>362</ele>
        <time>2017-09-03T12:39:22Z</time>
      </trkpt>
      <trkpt lat="45.74474" lon="5.63455">
        <ele>362</ele>
        <time>2017-09-03T12:39:38Z</time>
      </trkpt>
      <trkpt lat="45.74469" lon="5.63461">
        <ele>372</ele>
        <time>2017-09-03T12:39:38Z</time>
      </trkpt>
      <trkpt lat="45.74464" lon="5.63467">
        <ele>372</ele>
        <time>2017-09-03T12:39:38Z</time>
      </trkpt>
      <trkpt lat="45.7446" lon="5.63471">
        <ele>372</ele>
        <time>2017-09-03T12:39:38Z</time>
      </trkpt>
      <trkpt lat="45.74459" lon="5.63478">
        <ele>372</ele>
        <time>2017-09-03T12:39:54Z</time>
      </trkpt>
      <trkpt lat="45.74461" lon="5.63484">
        <ele>372</ele>
        <time>2017-09-03T12:39:54Z</time>
      </trkpt>
      <trkpt lat="45.74461" lon="5.63491">
        <ele>372</ele>
        <time>2017-09-03T12:39:54Z</time>
      </trkpt>
      <trkpt lat="45.74462" lon="5.63496">
        <ele>372</ele>
        <time>2017-09-03T12:39:54Z</time>
      </trkpt>
      <trkpt lat="45.74461" lon="5.63504">
        <ele>372</ele>
        <time>2017-09-03T12:40:10Z</time>
      </trkpt>
      <trkpt lat="45.74461" lon="5.63512">
        <ele>372</ele>
        <time>2017-09-03T12:40:10Z</time>
      </trkpt>
      <trkpt lat="45.74461" lon="5.63519">
        <ele>372</ele>
        <time>2017-09-03T12:40:10Z</time>
      </trkpt>
      <trkpt lat="45.74462" lon="5.63525">
        <ele>372</ele>
        <time>2017-09-03T12:40:10Z</time>
      </trkpt>
      <trkpt lat="45.74463" lon="5.6353">
        <ele>372</ele>
        <time>2017-09-03T12:40:26Z</time>
      </trkpt>
      <trkpt lat="45.74465" lon="5.63539">
        <ele>372</ele>
        <time>2017-09-03T12:40:26Z</time>
      </trkpt>
      <trkpt lat="45.74468" lon="5.63546">
        <ele>366</ele>
        <time>2017-09-03T12:40:26Z</time>
      </trkpt>
      <trkpt lat="45.74469" lon="5.63551">
        <ele>366</ele>
        <time>2017-09-03T12:40:26Z</time>
      </trkpt>
      <trkpt lat="45.74469" lon="5.63555">
        <ele>366</ele>
        <time>2017-09-03T12:40:50Z</time>
      </trkpt>
      <trkpt lat="45.74469" lon="5.63555">
        <ele>366</ele>
        <time>2017-09-03T12:40:50Z</time>
      </trkpt>
      <trkpt lat="45.7447" lon="5.63555">
        <ele>366</ele>
        <time>2017-09-03T12:40:50Z</time>
      </trkpt>
      <trkpt lat="45.74472" lon="5.63555">
        <ele>366</ele>
        <time>2017-09-03T12:40:50Z</time>
      </trkpt>
      <trkpt lat="45.74479" lon="5.63553">
        <ele>366</ele>
        <time>2017-09-03T12:40:50Z</time>
      </trkpt>
      <trkpt lat="45.74487" lon="5.63554">
        <ele>366</ele>
        <time>2017-09-03T12:41:06Z</time>
      </trkpt>
      <trkpt lat="45.74497" lon="5.63559">
        <ele>366</ele>
        <time>2017-09-03T12:41:06Z</time>
      </trkpt>
      <trkpt lat="45.74503" lon="5.63555">
        <ele>366</ele>
        <time>2017-09-03T12:41:06Z</time>
      </trkpt>
      <trkpt lat="45.74506" lon="5.63556">
        <ele>366</ele>
        <time>2017-09-03T12:41:06Z</time>
      </trkpt>
      <trkpt lat="45.74511" lon="5.63561">
        <ele>366</ele>
        <time>2017-09-03T12:41:22Z</time>
      </trkpt>
      <trkpt lat="45.74517" lon="5.63564">
        <ele>366</ele>
        <time>2017-09-03T12:41:22Z</time>
      </trkpt>
      <trkpt lat="45.74522" lon="5.63564">
        <ele>366</ele>
        <time>2017-09-03T12:41:22Z</time>
      </trkpt>
      <trkpt lat="45.74523" lon="5.63567">
        <ele>366</ele>
        <time>2017-09-03T12:41:22Z</time>
      </trkpt>
      <trkpt lat="45.74523" lon="5.63567">
        <ele>366</ele>
        <time>2017-09-03T12:41:54Z</time>
      </trkpt>
      <trkpt lat="45.74523" lon="5.63567">
        <ele>366</ele>
        <time>2017-09-03T12:41:54Z</time>
      </trkpt>
      <trkpt lat="45.74525" lon="5.63566">
        <ele>366</ele>
        <time>2017-09-03T12:41:54Z</time>
      </trkpt>
      <trkpt lat="45.74532" lon="5.63567">
        <ele>366</ele>
        <time>2017-09-03T12:41:54Z</time>
      </trkpt>
      <trkpt lat="45.74538" lon="5.63569">
        <ele>366</ele>
        <time>2017-09-03T12:41:54Z</time>
      </trkpt>
      <trkpt lat="45.74544" lon="5.6357">
        <ele>367</ele>
        <time>2017-09-03T12:42:10Z</time>
      </trkpt>
      <trkpt lat="45.7455" lon="5.63571">
        <ele>367</ele>
        <time>2017-09-03T12:42:10Z</time>
      </trkpt>
      <trkpt lat="45.74556" lon="5.63572">
        <ele>367</ele>
        <time>2017-09-03T12:42:10Z</time>
      </trkpt>
      <trkpt lat="45.74562" lon="5.6357">
        <ele>367</ele>
        <time>2017-09-03T12:42:10Z</time>
      </trkpt>
      <trkpt lat="45.74569" lon="5.63571">
        <ele>367</ele>
        <time>2017-09-03T12:42:26Z</time>
      </trkpt>
      <trkpt lat="45.74573" lon="5.63568">
        <ele>367</ele>
        <time>2017-09-03T12:42:26Z</time>
      </trkpt>
      <trkpt lat="45.7458" lon="5.63566">
        <ele>367</ele>
        <time>2017-09-03T12:42:26Z</time>
      </trkpt>
      <trkpt lat="45.74586" lon="5.63562">
        <ele>367</ele>
        <time>2017-09-03T12:42:26Z</time>
      </trkpt>
      <trkpt lat="45.74592" lon="5.63557">
        <ele>367</ele>
        <time>2017-09-03T12:42:42Z</time>
      </trkpt>
      <trkpt lat="45.74597" lon="5.6355">
        <ele>367</ele>
        <time>2017-09-03T12:42:42Z</time>
      </trkpt>
      <trkpt lat="45.74602" lon="5.63543">
        <ele>367</ele>
        <time>2017-09-03T12:42:42Z</time>
      </trkpt>
      <trkpt lat="45.74608" lon="5.63539">
        <ele>362</ele>
        <time>2017-09-03T12:42:42Z</time>
      </trkpt>
      <trkpt lat="45.74613" lon="5.63537">
        <ele>362</ele>
        <time>2017-09-03T12:42:58Z</time>
      </trkpt>
      <trkpt lat="45.74617" lon="5.63534">
        <ele>362</ele>
        <time>2017-09-03T12:42:58Z</time>
      </trkpt>
      <trkpt lat="45.74621" lon="5.63532">
        <ele>362</ele>
        <time>2017-09-03T12:42:58Z</time>
      </trkpt>
      <trkpt lat="45.74624" lon="5.63535">
        <ele>362</ele>
        <time>2017-09-03T12:42:58Z</time>
      </trkpt>
      <trkpt lat="45.74626" lon="5.6354">
        <ele>348</ele>
        <time>2017-09-03T12:43:14Z</time>
      </trkpt>
      <trkpt lat="45.74633" lon="5.63545">
        <ele>361</ele>
        <time>2017-09-03T12:43:14Z</time>
      </trkpt>
      <trkpt lat="45.74644" lon="5.63551">
        <ele>361</ele>
        <time>2017-09-03T12:43:14Z</time>
      </trkpt>
      <trkpt lat="45.7465" lon="5.63554">
        <ele>361</ele>
        <time>2017-09-03T12:43:14Z</time>
      </trkpt>
      <trkpt lat="45.74654" lon="5.63556">
        <ele>361</ele>
        <time>2017-09-03T12:43:30Z</time>
      </trkpt>
      <trkpt lat="45.7466" lon="5.63559">
        <ele>361</ele>
        <time>2017-09-03T12:43:30Z</time>
      </trkpt>
      <trkpt lat="45.74664" lon="5.63559">
        <ele>361</ele>
        <time>2017-09-03T12:43:30Z</time>
      </trkpt>
      <trkpt lat="45.74669" lon="5.63559">
        <ele>361</ele>
        <time>2017-09-03T12:43:30Z</time>
      </trkpt>
      <trkpt lat="45.74674" lon="5.63559">
        <ele>361</ele>
        <time>2017-09-03T12:43:46Z</time>
      </trkpt>
      <trkpt lat="45.74678" lon="5.63558">
        <ele>361</ele>
        <time>2017-09-03T12:43:46Z</time>
      </trkpt>
      <trkpt lat="45.74683" lon="5.6356">
        <ele>361</ele>
        <time>2017-09-03T12:43:46Z</time>
      </trkpt>
      <trkpt lat="45.74689" lon="5.63565">
        <ele>361</ele>
        <time>2017-09-03T12:43:46Z</time>
      </trkpt>
      <trkpt lat="45.74698" lon="5.63569">
        <ele>361</ele>
        <time>2017-09-03T12:44:02Z</time>
      </trkpt>
      <trkpt lat="45.74705" lon="5.63573">
        <ele>361</ele>
        <time>2017-09-03T12:44:02Z</time>
      </trkpt>
      <trkpt lat="45.74712" lon="5.63572">
        <ele>357</ele>
        <time>2017-09-03T12:44:02Z</time>
      </trkpt>
      <trkpt lat="45.74721" lon="5.63572">
        <ele>357</ele>
        <time>2017-09-03T12:44:02Z</time>
      </trkpt>
      <trkpt lat="45.7473" lon="5.63579">
        <ele>357</ele>
        <time>2017-09-03T12:44:18Z</time>
      </trkpt>
      <trkpt lat="45.74733" lon="5.63582">
        <ele>357</ele>
        <time>2017-09-03T12:44:18Z</time>
      </trkpt>
      <trkpt lat="45.74736" lon="5.63581">
        <ele>357</ele>
        <time>2017-09-03T12:44:18Z</time>
      </trkpt>
      <trkpt lat="45.74743" lon="5.63583">
        <ele>357</ele>
        <time>2017-09-03T12:44:18Z</time>
      </trkpt>
      <trkpt lat="45.7475" lon="5.63584">
        <ele>357</ele>
        <time>2017-09-03T12:44:34Z</time>
      </trkpt>
      <trkpt lat="45.74756" lon="5.63582">
        <ele>357</ele>
        <time>2017-09-03T12:44:34Z</time>
      </trkpt>
      <trkpt lat="45.74762" lon="5.63581">
        <ele>357</ele>
        <time>2017-09-03T12:44:34Z</time>
      </trkpt>
      <trkpt lat="45.74767" lon="5.63581">
        <ele>357</ele>
        <time>2017-09-03T12:44:34Z</time>
      </trkpt>
      <trkpt lat="45.74772" lon="5.63578">
        <ele>357</ele>
        <time>2017-09-03T12:44:50Z</time>
      </trkpt>
      <trkpt lat="45.74777" lon="5.63573">
        <ele>357</ele>
        <time>2017-09-03T12:44:50Z</time>
      </trkpt>
      <trkpt lat="45.74779" lon="5.63573">
        <ele>357</ele>
        <time>2017-09-03T12:44:50Z</time>
      </trkpt>
      <trkpt lat="45.74781" lon="5.63574">
        <ele>357</ele>
        <time>2017-09-03T12:44:50Z</time>
      </trkpt>
      <trkpt lat="45.74783" lon="5.63574">
        <ele>357</ele>
        <time>2017-09-03T12:45:06Z</time>
      </trkpt>
      <trkpt lat="45.74788" lon="5.63573">
        <ele>357</ele>
        <time>2017-09-03T12:45:06Z</time>
      </trkpt>
      <trkpt lat="45.74793" lon="5.63571">
        <ele>354</ele>
        <time>2017-09-03T12:45:06Z</time>
      </trkpt>
      <trkpt lat="45.74795" lon="5.6357">
        <ele>354</ele>
        <time>2017-09-03T12:45:06Z</time>
      </trkpt>
      <trkpt lat="45.74796" lon="5.6357">
        <ele>354</ele>
        <time>2017-09-03T12:45:22Z</time>
      </trkpt>
      <trkpt lat="45.74801" lon="5.63567">
        <ele>354</ele>
        <time>2017-09-03T12:45:22Z</time>
      </trkpt>
      <trkpt lat="45.74806" lon="5.63563">
        <ele>354</ele>
        <time>2017-09-03T12:45:22Z</time>
      </trkpt>
      <trkpt lat="45.74811" lon="5.63564">
        <ele>354</ele>
        <time>2017-09-03T12:45:22Z</time>
      </trkpt>
      <trkpt lat="45.74818" lon="5.63564">
        <ele>354</ele>
        <time>2017-09-03T12:45:38Z</time>
      </trkpt>
      <trkpt lat="45.74825" lon="5.63566">
        <ele>354</ele>
        <time>2017-09-03T12:45:38Z</time>
      </trkpt>
      <trkpt lat="45.74844" lon="5.63573">
        <ele>354</ele>
        <time>2017-09-03T12:45:38Z</time>
      </trkpt>
      <trkpt lat="45.74849" lon="5.63574">
        <ele>354</ele>
        <time>2017-09-03T12:45:38Z</time>
      </trkpt>
      <trkpt lat="45.74855" lon="5.63577">
        <ele>354</ele>
        <time>2017-09-03T12:45:54Z</time>
      </trkpt>
      <trkpt lat="45.74863" lon="5.63582">
        <ele>354</ele>
        <time>2017-09-03T12:45:54Z</time>
      </trkpt>
      <trkpt lat="45.74868" lon="5.63586">
        <ele>354</ele>
        <time>2017-09-03T12:45:54Z</time>
      </trkpt>
      <trkpt lat="45.74876" lon="5.63591">
        <ele>352</ele>
        <time>2017-09-03T12:45:54Z</time>
      </trkpt>
      <trkpt lat="45.74883" lon="5.63596">
        <ele>352</ele>
        <time>2017-09-03T12:46:10Z</time>
      </trkpt>
      <trkpt lat="45.74888" lon="5.63604">
        <ele>352</ele>
        <time>2017-09-03T12:46:10Z</time>
      </trkpt>
      <trkpt lat="45.74888" lon="5.63613">
        <ele>352</ele>
        <time>2017-09-03T12:46:10Z</time>
      </trkpt>
      <trkpt lat="45.7489" lon="5.6362">
        <ele>352</ele>
        <time>2017-09-03T12:46:10Z</time>
      </trkpt>
      <trkpt lat="45.74892" lon="5.63626">
        <ele>368</ele>
        <time>2017-09-03T12:46:26Z</time>
      </trkpt>
      <trkpt lat="45.74895" lon="5.63632">
        <ele>368</ele>
        <time>2017-09-03T12:46:26Z</time>
      </trkpt>
      <trkpt lat="45.74897" lon="5.63637">
        <ele>368</ele>
        <time>2017-09-03T12:46:26Z</time>
      </trkpt>
      <trkpt lat="45.749" lon="5.63639">
        <ele>368</ele>
        <time>2017-09-03T12:46:26Z</time>
      </trkpt>
      <trkpt lat="45.74903" lon="5.63639">
        <ele>368</ele>
        <time>2017-09-03T12:46:42Z</time>
      </trkpt>
      <trkpt lat="45.74907" lon="5.63642">
        <ele>368</ele>
        <time>2017-09-03T12:46:42Z</time>
      </trkpt>
      <trkpt lat="45.74911" lon="5.63644">
        <ele>368</ele>
        <time>2017-09-03T12:46:42Z</time>
      </trkpt>
      <trkpt lat="45.74916" lon="5.63645">
        <ele>368</ele>
        <time>2017-09-03T12:46:42Z</time>
      </trkpt>
      <trkpt lat="45.7492" lon="5.63646">
        <ele>368</ele>
        <time>2017-09-03T12:46:58Z</time>
      </trkpt>
      <trkpt lat="45.74925" lon="5.63647">
        <ele>368</ele>
        <time>2017-09-03T12:46:58Z</time>
      </trkpt>
      <trkpt lat="45.74931" lon="5.63649">
        <ele>368</ele>
        <time>2017-09-03T12:46:58Z</time>
      </trkpt>
      <trkpt lat="45.74938" lon="5.63652">
        <ele>368</ele>
        <time>2017-09-03T12:46:58Z</time>
      </trkpt>
      <trkpt lat="45.74941" lon="5.63656">
        <ele>368</ele>
        <time>2017-09-03T12:47:14Z</time>
      </trkpt>
      <trkpt lat="45.74946" lon="5.63656">
        <ele>368</ele>
        <time>2017-09-03T12:47:14Z</time>
      </trkpt>
      <trkpt lat="45.74953" lon="5.63657">
        <ele>368</ele>
        <time>2017-09-03T12:47:14Z</time>
      </trkpt>
      <trkpt lat="45.74955" lon="5.63652">
        <ele>368</ele>
        <time>2017-09-03T12:47:14Z</time>
      </trkpt>
      <trkpt lat="45.74957" lon="5.6365">
        <ele>368</ele>
        <time>2017-09-03T12:47:30Z</time>
      </trkpt>
      <trkpt lat="45.74959" lon="5.63651">
        <ele>362</ele>
        <time>2017-09-03T12:47:30Z</time>
      </trkpt>
      <trkpt lat="45.74961" lon="5.63652">
        <ele>362</ele>
        <time>2017-09-03T12:47:30Z</time>
      </trkpt>
      <trkpt lat="45.74966" lon="5.63653">
        <ele>362</ele>
        <time>2017-09-03T12:47:30Z</time>
      </trkpt>
      <trkpt lat="45.74972" lon="5.63655">
        <ele>362</ele>
        <time>2017-09-03T12:47:54Z</time>
      </trkpt>
      <trkpt lat="45.74974" lon="5.63655">
        <ele>362</ele>
        <time>2017-09-03T12:47:54Z</time>
      </trkpt>
      <trkpt lat="45.74974" lon="5.63655">
        <ele>362</ele>
        <time>2017-09-03T12:47:54Z</time>
      </trkpt>
      <trkpt lat="45.74974" lon="5.63655">
        <ele>362</ele>
        <time>2017-09-03T12:47:54Z</time>
      </trkpt>
      <trkpt lat="45.74978" lon="5.63656">
        <ele>362</ele>
        <time>2017-09-03T12:47:54Z</time>
      </trkpt>
      <trkpt lat="45.74992" lon="5.63657">
        <ele>362</ele>
        <time>2017-09-03T12:48:10Z</time>
      </trkpt>
      <trkpt lat="45.75" lon="5.63656">
        <ele>362</ele>
        <time>2017-09-03T12:48:10Z</time>
      </trkpt>
      <trkpt lat="45.7501" lon="5.63656">
        <ele>362</ele>
        <time>2017-09-03T12:48:10Z</time>
      </trkpt>
      <trkpt lat="45.75015" lon="5.63657">
        <ele>362</ele>
        <time>2017-09-03T12:48:10Z</time>
      </trkpt>
      <trkpt lat="45.75021" lon="5.6366">
        <ele>362</ele>
        <time>2017-09-03T12:48:26Z</time>
      </trkpt>
      <trkpt lat="45.75023" lon="5.63661">
        <ele>362</ele>
        <time>2017-09-03T12:48:26Z</time>
      </trkpt>
      <trkpt lat="45.7503" lon="5.63659">
        <ele>362</ele>
        <time>2017-09-03T12:48:26Z</time>
      </trkpt>
      <trkpt lat="45.75039" lon="5.63658">
        <ele>362</ele>
        <time>2017-09-03T12:48:26Z</time>
      </trkpt>
      <trkpt lat="45.75048" lon="5.63653">
        <ele>356</ele>
        <time>2017-09-03T12:48:42Z</time>
      </trkpt>
      <trkpt lat="45.75056" lon="5.63654">
        <ele>356</ele>
        <time>2017-09-03T12:48:42Z</time>
      </trkpt>
      <trkpt lat="45.75063" lon="5.63658">
        <ele>356</ele>
        <time>2017-09-03T12:48:42Z</time>
      </trkpt>
      <trkpt lat="45.75066" lon="5.63659">
        <ele>356</ele>
        <time>2017-09-03T12:48:42Z</time>
      </trkpt>
      <trkpt lat="45.75067" lon="5.63659">
        <ele>356</ele>
        <time>2017-09-03T12:48:58Z</time>
      </trkpt>
      <trkpt lat="45.75068" lon="5.6366">
        <ele>356</ele>
        <time>2017-09-03T12:48:58Z</time>
      </trkpt>
      <trkpt lat="45.75076" lon="5.6366">
        <ele>356</ele>
        <time>2017-09-03T12:48:58Z</time>
      </trkpt>
      <trkpt lat="45.75085" lon="5.63659">
        <ele>356</ele>
        <time>2017-09-03T12:48:58Z</time>
      </trkpt>
      <trkpt lat="45.75092" lon="5.63664">
        <ele>356</ele>
        <time>2017-09-03T12:49:14Z</time>
      </trkpt>
      <trkpt lat="45.751" lon="5.63674">
        <ele>356</ele>
        <time>2017-09-03T12:49:14Z</time>
      </trkpt>
      <trkpt lat="45.75112" lon="5.63686">
        <ele>356</ele>
        <time>2017-09-03T12:49:14Z</time>
      </trkpt>
      <trkpt lat="45.7512" lon="5.63693">
        <ele>356</ele>
        <time>2017-09-03T12:49:14Z</time>
      </trkpt>
      <trkpt lat="45.75126" lon="5.63698">
        <ele>354</ele>
        <time>2017-09-03T12:49:34Z</time>
      </trkpt>
      <trkpt lat="45.75131" lon="5.63696">
        <ele>354</ele>
        <time>2017-09-03T12:49:34Z</time>
      </trkpt>
      <trkpt lat="45.75132" lon="5.63697">
        <ele>354</ele>
        <time>2017-09-03T12:49:34Z</time>
      </trkpt>
      <trkpt lat="45.75134" lon="5.63697">
        <ele>354</ele>
        <time>2017-09-03T12:49:34Z</time>
      </trkpt>
      <trkpt lat="45.75141" lon="5.637">
        <ele>354</ele>
        <time>2017-09-03T12:49:34Z</time>
      </trkpt>
      <trkpt lat="45.75148" lon="5.63699">
        <ele>354</ele>
        <time>2017-09-03T12:49:50Z</time>
      </trkpt>
      <trkpt lat="45.75152" lon="5.63698">
        <ele>354</ele>
        <time>2017-09-03T12:49:50Z</time>
      </trkpt>
      <trkpt lat="45.75156" lon="5.63701">
        <ele>354</ele>
        <time>2017-09-03T12:49:50Z</time>
      </trkpt>
      <trkpt lat="45.75162" lon="5.63707">
        <ele>354</ele>
        <time>2017-09-03T12:49:50Z</time>
      </trkpt>
      <trkpt lat="45.75172" lon="5.6371">
        <ele>348</ele>
        <time>2017-09-03T12:50:06Z</time>
      </trkpt>
      <trkpt lat="45.75178" lon="5.63715">
        <ele>348</ele>
        <time>2017-09-03T12:50:06Z</time>
      </trkpt>
      <trkpt lat="45.75184" lon="5.63719">
        <ele>348</ele>
        <time>2017-09-03T12:50:06Z</time>
      </trkpt>
      <trkpt lat="45.75189" lon="5.63722">
        <ele>348</ele>
        <time>2017-09-03T12:50:06Z</time>
      </trkpt>
      <trkpt lat="45.75196" lon="5.63729">
        <ele>348</ele>
        <time>2017-09-03T12:50:30Z</time>
      </trkpt>
      <trkpt lat="45.75197" lon="5.63729">
        <ele>348</ele>
        <time>2017-09-03T12:50:30Z</time>
      </trkpt>
      <trkpt lat="45.752" lon="5.63731">
        <ele>348</ele>
        <time>2017-09-03T12:50:30Z</time>
      </trkpt>
      <trkpt lat="45.75201" lon="5.63732">
        <ele>348</ele>
        <time>2017-09-03T12:50:30Z</time>
      </trkpt>
      <trkpt lat="45.75205" lon="5.63736">
        <ele>348</ele>
        <time>2017-09-03T12:50:30Z</time>
      </trkpt>
      <trkpt lat="45.75208" lon="5.63739">
        <ele>348</ele>
        <time>2017-09-03T12:51:10Z</time>
      </trkpt>
      <trkpt lat="45.75209" lon="5.63738">
        <ele>350</ele>
        <time>2017-09-03T12:51:10Z</time>
      </trkpt>
      <trkpt lat="45.75211" lon="5.63739">
        <ele>350</ele>
        <time>2017-09-03T12:51:10Z</time>
      </trkpt>
      <trkpt lat="45.75214" lon="5.63742">
        <ele>350</ele>
        <time>2017-09-03T12:51:10Z</time>
      </trkpt>
      <trkpt lat="45.75217" lon="5.63746">
        <ele>350</ele>
        <time>2017-09-03T12:51:10Z</time>
      </trkpt>
      <trkpt lat="45.75219" lon="5.63751">
        <ele>350</ele>
        <time>2017-09-03T12:51:26Z</time>
      </trkpt>
      <trkpt lat="45.75223" lon="5.63756">
        <ele>350</ele>
        <time>2017-09-03T12:51:26Z</time>
      </trkpt>
      <trkpt lat="45.75227" lon="5.63762">
        <ele>350</ele>
        <time>2017-09-03T12:51:26Z</time>
      </trkpt>
      <trkpt lat="45.75232" lon="5.63766">
        <ele>350</ele>
        <time>2017-09-03T12:51:26Z</time>
      </trkpt>
      <trkpt lat="45.75237" lon="5.6377">
        <ele>350</ele>
        <time>2017-09-03T12:51:42Z</time>
      </trkpt>
      <trkpt lat="45.75241" lon="5.63776">
        <ele>350</ele>
        <time>2017-09-03T12:51:42Z</time>
      </trkpt>
      <trkpt lat="45.75246" lon="5.6378">
        <ele>350</ele>
        <time>2017-09-03T12:51:42Z</time>
      </trkpt>
      <trkpt lat="45.75251" lon="5.63781">
        <ele>350</ele>
        <time>2017-09-03T12:51:42Z</time>
      </trkpt>
      <trkpt lat="45.75256" lon="5.63783">
        <ele>350</ele>
        <time>2017-09-03T12:51:58Z</time>
      </trkpt>
      <trkpt lat="45.7526" lon="5.63784">
        <ele>350</ele>
        <time>2017-09-03T12:51:58Z</time>
      </trkpt>
      <trkpt lat="45.75264" lon="5.63782">
        <ele>350</ele>
        <time>2017-09-03T12:51:58Z</time>
      </trkpt>
      <trkpt lat="45.75266" lon="5.63781">
        <ele>350</ele>
        <time>2017-09-03T12:51:58Z</time>
      </trkpt>
      <trkpt lat="45.75272" lon="5.63781">
        <ele>350</ele>
        <time>2017-09-03T12:52:22Z</time>
      </trkpt>
      <trkpt lat="45.75274" lon="5.63781">
        <ele>350</ele>
        <time>2017-09-03T12:52:22Z</time>
      </trkpt>
      <trkpt lat="45.75275" lon="5.6378">
        <ele>350</ele>
        <time>2017-09-03T12:52:22Z</time>
      </trkpt>
      <trkpt lat="45.75277" lon="5.63781">
        <ele>350</ele>
        <time>2017-09-03T12:52:22Z</time>
      </trkpt>
      <trkpt lat="45.75283" lon="5.63784">
        <ele>350</ele>
        <time>2017-09-03T12:52:22Z</time>
      </trkpt>
      <trkpt lat="45.75287" lon="5.63785">
        <ele>350</ele>
        <time>2017-09-03T12:52:38Z</time>
      </trkpt>
      <trkpt lat="45.7529" lon="5.63785">
        <ele>350</ele>
        <time>2017-09-03T12:52:38Z</time>
      </trkpt>
      <trkpt lat="45.75293" lon="5.63786">
        <ele>349</ele>
        <time>2017-09-03T12:52:38Z</time>
      </trkpt>
      <trkpt lat="45.753" lon="5.6379">
        <ele>349</ele>
        <time>2017-09-03T12:52:38Z</time>
      </trkpt>
      <trkpt lat="45.75305" lon="5.63793">
        <ele>354</ele>
        <time>2017-09-03T12:52:54Z</time>
      </trkpt>
      <trkpt lat="45.75307" lon="5.63794">
        <ele>354</ele>
        <time>2017-09-03T12:52:54Z</time>
      </trkpt>
      <trkpt lat="45.75312" lon="5.63794">
        <ele>354</ele>
        <time>2017-09-03T12:52:54Z</time>
      </trkpt>
      <trkpt lat="45.75318" lon="5.63797">
        <ele>354</ele>
        <time>2017-09-03T12:52:54Z</time>
      </trkpt>
      <trkpt lat="45.75323" lon="5.63799">
        <ele>354</ele>
        <time>2017-09-03T12:53:10Z</time>
      </trkpt>
      <trkpt lat="45.75327" lon="5.63798">
        <ele>354</ele>
        <time>2017-09-03T12:53:10Z</time>
      </trkpt>
      <trkpt lat="45.7533" lon="5.63801">
        <ele>354</ele>
        <time>2017-09-03T12:53:10Z</time>
      </trkpt>
      <trkpt lat="45.75334" lon="5.63802">
        <ele>354</ele>
        <time>2017-09-03T12:53:10Z</time>
      </trkpt>
      <trkpt lat="45.75337" lon="5.63804">
        <ele>354</ele>
        <time>2017-09-03T12:53:26Z</time>
      </trkpt>
      <trkpt lat="45.75343" lon="5.63806">
        <ele>354</ele>
        <time>2017-09-03T12:53:26Z</time>
      </trkpt>
      <trkpt lat="45.75349" lon="5.63805">
        <ele>354</ele>
        <time>2017-09-03T12:53:26Z</time>
      </trkpt>
      <trkpt lat="45.75357" lon="5.63809">
        <ele>354</ele>
        <time>2017-09-03T12:53:26Z</time>
      </trkpt>
      <trkpt lat="45.75368" lon="5.63812">
        <ele>354</ele>
        <time>2017-09-03T12:53:42Z</time>
      </trkpt>
      <trkpt lat="45.75378" lon="5.63815">
        <ele>352</ele>
        <time>2017-09-03T12:53:42Z</time>
      </trkpt>
      <trkpt lat="45.75385" lon="5.63817">
        <ele>352</ele>
        <time>2017-09-03T12:53:42Z</time>
      </trkpt>
      <trkpt lat="45.75392" lon="5.63815">
        <ele>352</ele>
        <time>2017-09-03T12:53:42Z</time>
      </trkpt>
      <trkpt lat="45.75399" lon="5.63814">
        <ele>352</ele>
        <time>2017-09-03T12:53:58Z</time>
      </trkpt>
      <trkpt lat="45.75407" lon="5.63818">
        <ele>352</ele>
        <time>2017-09-03T12:53:58Z</time>
      </trkpt>
      <trkpt lat="45.75414" lon="5.63821">
        <ele>352</ele>
        <time>2017-09-03T12:53:58Z</time>
      </trkpt>
      <trkpt lat="45.75421" lon="5.63824">
        <ele>352</ele>
        <time>2017-09-03T12:53:58Z</time>
      </trkpt>
      <trkpt lat="45.75428" lon="5.63824">
        <ele>352</ele>
        <time>2017-09-03T12:54:14Z</time>
      </trkpt>
      <trkpt lat="45.75434" lon="5.63826">
        <ele>352</ele>
        <time>2017-09-03T12:54:14Z</time>
      </trkpt>
      <trkpt lat="45.75437" lon="5.63826">
        <ele>352</ele>
        <time>2017-09-03T12:54:14Z</time>
      </trkpt>
      <trkpt lat="45.75439" lon="5.63826">
        <ele>352</ele>
        <time>2017-09-03T12:54:14Z</time>
      </trkpt>
      <trkpt lat="45.7544" lon="5.63826">
        <ele>352</ele>
        <time>2017-09-03T12:54:30Z</time>
      </trkpt>
      <trkpt lat="45.75443" lon="5.63826">
        <ele>352</ele>
        <time>2017-09-03T12:54:30Z</time>
      </trkpt>
      <trkpt lat="45.75448" lon="5.63827">
        <ele>352</ele>
        <time>2017-09-03T12:54:30Z</time>
      </trkpt>
      <trkpt lat="45.75453" lon="5.63831">
        <ele>352</ele>
        <time>2017-09-03T12:54:30Z</time>
      </trkpt>
      <trkpt lat="45.75461" lon="5.63834">
        <ele>351</ele>
        <time>2017-09-03T12:54:46Z</time>
      </trkpt>
      <trkpt lat="45.75469" lon="5.63837">
        <ele>351</ele>
        <time>2017-09-03T12:54:46Z</time>
      </trkpt>
      <trkpt lat="45.75478" lon="5.63837">
        <ele>351</ele>
        <time>2017-09-03T12:54:46Z</time>
      </trkpt>
      <trkpt lat="45.75485" lon="5.63835">
        <ele>351</ele>
        <time>2017-09-03T12:54:46Z</time>
      </trkpt>
      <trkpt lat="45.75493" lon="5.63832">
        <ele>351</ele>
        <time>2017-09-03T12:55:14Z</time>
      </trkpt>
      <trkpt lat="45.75493" lon="5.63832">
        <ele>351</ele>
        <time>2017-09-03T12:55:14Z</time>
      </trkpt>
      <trkpt lat="45.75494" lon="5.63831">
        <ele>351</ele>
        <time>2017-09-03T12:55:14Z</time>
      </trkpt>
      <trkpt lat="45.75499" lon="5.63828">
        <ele>351</ele>
        <time>2017-09-03T12:55:14Z</time>
      </trkpt>
      <trkpt lat="45.75505" lon="5.63823">
        <ele>351</ele>
        <time>2017-09-03T12:55:14Z</time>
      </trkpt>
      <trkpt lat="45.75509" lon="5.63817">
        <ele>351</ele>
        <time>2017-09-03T12:55:30Z</time>
      </trkpt>
      <trkpt lat="45.75513" lon="5.63811">
        <ele>351</ele>
        <time>2017-09-03T12:55:30Z</time>
      </trkpt>
      <trkpt lat="45.75517" lon="5.63806">
        <ele>351</ele>
        <time>2017-09-03T12:55:30Z</time>
      </trkpt>
      <trkpt lat="45.75522" lon="5.63802">
        <ele>351</ele>
        <time>2017-09-03T12:55:30Z</time>
      </trkpt>
      <trkpt lat="45.75524" lon="5.638">
        <ele>351</ele>
        <time>2017-09-03T12:55:46Z</time>
      </trkpt>
      <trkpt lat="45.75527" lon="5.63805">
        <ele>351</ele>
        <time>2017-09-03T12:55:46Z</time>
      </trkpt>
      <trkpt lat="45.75532" lon="5.63808">
        <ele>351</ele>
        <time>2017-09-03T12:55:46Z</time>
      </trkpt>
      <trkpt lat="45.75533" lon="5.63806">
        <ele>351</ele>
        <time>2017-09-03T12:55:46Z</time>
      </trkpt>
      <trkpt lat="45.75533" lon="5.63803">
        <ele>351</ele>
        <time>2017-09-03T12:56:06Z</time>
      </trkpt>
      <trkpt lat="45.75534" lon="5.63801">
        <ele>351</ele>
        <time>2017-09-03T12:56:06Z</time>
      </trkpt>
      <trkpt lat="45.75536" lon="5.63798">
        <ele>351</ele>
        <time>2017-09-03T12:56:06Z</time>
      </trkpt>
      <trkpt lat="45.7554" lon="5.63796">
        <ele>351</ele>
        <time>2017-09-03T12:56:06Z</time>
      </trkpt>
      <trkpt lat="45.75546" lon="5.63797">
        <ele>353</ele>
        <time>2017-09-03T12:56:06Z</time>
      </trkpt>
      <trkpt lat="45.75549" lon="5.63796">
        <ele>353</ele>
        <time>2017-09-03T12:56:22Z</time>
      </trkpt>
      <trkpt lat="45.75554" lon="5.63792">
        <ele>353</ele>
        <time>2017-09-03T12:56:22Z</time>
      </trkpt>
      <trkpt lat="45.75563" lon="5.63784">
        <ele>351</ele>
        <time>2017-09-03T12:56:22Z</time>
      </trkpt>
      <trkpt lat="45.75567" lon="5.6378">
        <ele>351</ele>
        <time>2017-09-03T12:56:22Z</time>
      </trkpt>
      <trkpt lat="45.7557" lon="5.63776">
        <ele>351</ele>
        <time>2017-09-03T12:56:38Z</time>
      </trkpt>
      <trkpt lat="45.75571" lon="5.63771">
        <ele>351</ele>
        <time>2017-09-03T12:56:38Z</time>
      </trkpt>
      <trkpt lat="45.75576" lon="5.63767">
        <ele>351</ele>
        <time>2017-09-03T12:56:38Z</time>
      </trkpt>
      <trkpt lat="45.75585" lon="5.63762">
        <ele>351</ele>
        <time>2017-09-03T12:56:38Z</time>
      </trkpt>
      <trkpt lat="45.75591" lon="5.63759">
        <ele>351</ele>
        <time>2017-09-03T12:56:54Z</time>
      </trkpt>
      <trkpt lat="45.75596" lon="5.63761">
        <ele>351</ele>
        <time>2017-09-03T12:56:54Z</time>
      </trkpt>
      <trkpt lat="45.756" lon="5.63762">
        <ele>351</ele>
        <time>2017-09-03T12:56:54Z</time>
      </trkpt>
      <trkpt lat="45.75604" lon="5.63764">
        <ele>351</ele>
        <time>2017-09-03T12:56:54Z</time>
      </trkpt>
      <trkpt lat="45.75609" lon="5.63767">
        <ele>351</ele>
        <time>2017-09-03T12:57:10Z</time>
      </trkpt>
      <trkpt lat="45.75616" lon="5.63769">
        <ele>351</ele>
        <time>2017-09-03T12:57:10Z</time>
      </trkpt>
      <trkpt lat="45.75621" lon="5.63773">
        <ele>351</ele>
        <time>2017-09-03T12:57:10Z</time>
      </trkpt>
      <trkpt lat="45.75626" lon="5.63776">
        <ele>344</ele>
        <time>2017-09-03T12:57:10Z</time>
      </trkpt>
      <trkpt lat="45.7563" lon="5.63781">
        <ele>344</ele>
        <time>2017-09-03T12:57:26Z</time>
      </trkpt>
      <trkpt lat="45.75634" lon="5.63784">
        <ele>344</ele>
        <time>2017-09-03T12:57:26Z</time>
      </trkpt>
      <trkpt lat="45.75638" lon="5.63791">
        <ele>344</ele>
        <time>2017-09-03T12:57:26Z</time>
      </trkpt>
      <trkpt lat="45.7564" lon="5.63793">
        <ele>349</ele>
        <time>2017-09-03T12:57:26Z</time>
      </trkpt>
      <trkpt lat="45.75641" lon="5.63799">
        <ele>349</ele>
        <time>2017-09-03T12:57:42Z</time>
      </trkpt>
      <trkpt lat="45.75644" lon="5.63806">
        <ele>349</ele>
        <time>2017-09-03T12:57:42Z</time>
      </trkpt>
      <trkpt lat="45.75649" lon="5.63812">
        <ele>349</ele>
        <time>2017-09-03T12:57:42Z</time>
      </trkpt>
      <trkpt lat="45.75652" lon="5.6382">
        <ele>349</ele>
        <time>2017-09-03T12:57:42Z</time>
      </trkpt>
      <trkpt lat="45.75656" lon="5.63826">
        <ele>349</ele>
        <time>2017-09-03T12:57:58Z</time>
      </trkpt>
      <trkpt lat="45.75658" lon="5.63835">
        <ele>349</ele>
        <time>2017-09-03T12:57:58Z</time>
      </trkpt>
      <trkpt lat="45.75663" lon="5.63844">
        <ele>349</ele>
        <time>2017-09-03T12:57:58Z</time>
      </trkpt>
      <trkpt lat="45.7567" lon="5.63851">
        <ele>349</ele>
        <time>2017-09-03T12:57:58Z</time>
      </trkpt>
      <trkpt lat="45.75677" lon="5.63855">
        <ele>349</ele>
        <time>2017-09-03T12:58:14Z</time>
      </trkpt>
      <trkpt lat="45.75685" lon="5.63853">
        <ele>349</ele>
        <time>2017-09-03T12:58:14Z</time>
      </trkpt>
      <trkpt lat="45.75692" lon="5.63851">
        <ele>349</ele>
        <time>2017-09-03T12:58:14Z</time>
      </trkpt>
      <trkpt lat="45.75697" lon="5.6385">
        <ele>349</ele>
        <time>2017-09-03T12:58:14Z</time>
      </trkpt>
      <trkpt lat="45.75705" lon="5.63855">
        <ele>349</ele>
        <time>2017-09-03T12:58:30Z</time>
      </trkpt>
      <trkpt lat="45.75713" lon="5.63857">
        <ele>345</ele>
        <time>2017-09-03T12:58:30Z</time>
      </trkpt>
      <trkpt lat="45.75718" lon="5.63859">
        <ele>345</ele>
        <time>2017-09-03T12:58:30Z</time>
      </trkpt>
      <trkpt lat="45.75725" lon="5.63859">
        <ele>345</ele>
        <time>2017-09-03T12:58:30Z</time>
      </trkpt>
      <trkpt lat="45.75737" lon="5.63858">
        <ele>345</ele>
        <time>2017-09-03T12:59:06Z</time>
      </trkpt>
      <trkpt lat="45.75738" lon="5.63864">
        <ele>345</ele>
        <time>2017-09-03T12:59:06Z</time>
      </trkpt>
      <trkpt lat="45.75739" lon="5.63865">
        <ele>345</ele>
        <time>2017-09-03T12:59:06Z</time>
      </trkpt>
      <trkpt lat="45.75739" lon="5.63867">
        <ele>345</ele>
        <time>2017-09-03T12:59:06Z</time>
      </trkpt>
      <trkpt lat="45.7574" lon="5.6387">
        <ele>345</ele>
        <time>2017-09-03T12:59:06Z</time>
      </trkpt>
      <trkpt lat="45.75741" lon="5.63862">
        <ele>345</ele>
        <time>2017-09-03T13:00:22Z</time>
      </trkpt>
      <trkpt lat="45.75741" lon="5.63862">
        <ele>345</ele>
        <time>2017-09-03T13:00:22Z</time>
      </trkpt>
      <trkpt lat="45.7574" lon="5.63861">
        <ele>345</ele>
        <time>2017-09-03T13:00:22Z</time>
      </trkpt>
      <trkpt lat="45.75739" lon="5.63856">
        <ele>345</ele>
        <time>2017-09-03T13:00:22Z</time>
      </trkpt>
      <trkpt lat="45.75735" lon="5.63855">
        <ele>345</ele>
        <time>2017-09-03T13:00:22Z</time>
      </trkpt>
      <trkpt lat="45.75734" lon="5.63853">
        <ele>345</ele>
        <time>2017-09-03T13:01:06Z</time>
      </trkpt>
      <trkpt lat="45.75734" lon="5.63853">
        <ele>345</ele>
        <time>2017-09-03T13:01:06Z</time>
      </trkpt>
      <trkpt lat="45.75738" lon="5.63853">
        <ele>345</ele>
        <time>2017-09-03T13:01:06Z</time>
      </trkpt>
      <trkpt lat="45.75741" lon="5.63858">
        <ele>345</ele>
        <time>2017-09-03T13:01:06Z</time>
      </trkpt>
      <trkpt lat="45.75743" lon="5.63866">
        <ele>345</ele>
        <time>2017-09-03T13:01:06Z</time>
      </trkpt>
      <trkpt lat="45.75735" lon="5.63855">
        <ele>345</ele>
        <time>2017-09-03T14:44:50Z</time>
      </trkpt>
      <trkpt lat="45.75738" lon="5.63862">
        <ele>345</ele>
        <time>2017-09-03T14:44:50Z</time>
      </trkpt>
      <trkpt lat="45.75738" lon="5.63862">
        <ele>345</ele>
        <time>2017-09-03T14:44:50Z</time>
      </trkpt>
      <trkpt lat="45.75738" lon="5.63862">
        <ele>345</ele>
        <time>2017-09-03T14:44:50Z</time>
      </trkpt>
      <trkpt lat="45.75738" lon="5.63862">
        <ele>345</ele>
        <time>2017-09-03T14:44:50Z</time>
      </trkpt>
      <trkpt lat="45.75737" lon="5.63863">
        <ele>345</ele>
        <time>2017-09-03T14:45:06Z</time>
      </trkpt>
      <trkpt lat="45.75742" lon="5.63872">
        <ele>345</ele>
        <time>2017-09-03T14:45:06Z</time>
      </trkpt>
      <trkpt lat="45.75743" lon="5.63874">
        <ele>345</ele>
        <time>2017-09-03T14:45:06Z</time>
      </trkpt>
      <trkpt lat="45.75744" lon="5.63875">
        <ele>358</ele>
        <time>2017-09-03T14:45:06Z</time>
      </trkpt>
      <trkpt lat="45.75743" lon="5.6387">
        <ele>345</ele>
        <time>2017-09-03T14:55:02Z</time>
      </trkpt>
      <trkpt lat="45.75743" lon="5.6387">
        <ele>345</ele>
        <time>2017-09-03T14:55:02Z</time>
      </trkpt>
      <trkpt lat="45.75745" lon="5.63869">
        <ele>345</ele>
        <time>2017-09-03T14:55:02Z</time>
      </trkpt>
      <trkpt lat="45.7575" lon="5.6387">
        <ele>345</ele>
        <time>2017-09-03T14:55:02Z</time>
      </trkpt>
      <trkpt lat="45.75755" lon="5.6387">
        <ele>345</ele>
        <time>2017-09-03T14:55:02Z</time>
      </trkpt>
      <trkpt lat="45.75761" lon="5.63872">
        <ele>345</ele>
        <time>2017-09-03T14:55:18Z</time>
      </trkpt>
      <trkpt lat="45.75767" lon="5.63871">
        <ele>345</ele>
        <time>2017-09-03T14:55:18Z</time>
      </trkpt>
      <trkpt lat="45.75772" lon="5.63871">
        <ele>345</ele>
        <time>2017-09-03T14:55:18Z</time>
      </trkpt>
      <trkpt lat="45.75777" lon="5.63872">
        <ele>345</ele>
        <time>2017-09-03T14:55:18Z</time>
      </trkpt>
      <trkpt lat="45.75783" lon="5.63871">
        <ele>345</ele>
        <time>2017-09-03T14:55:34Z</time>
      </trkpt>
      <trkpt lat="45.75789" lon="5.6387">
        <ele>345</ele>
        <time>2017-09-03T14:55:34Z</time>
      </trkpt>
      <trkpt lat="45.75794" lon="5.63868">
        <ele>348</ele>
        <time>2017-09-03T14:55:34Z</time>
      </trkpt>
      <trkpt lat="45.75798" lon="5.63864">
        <ele>348</ele>
        <time>2017-09-03T14:55:34Z</time>
      </trkpt>
      <trkpt lat="45.75802" lon="5.6386">
        <ele>348</ele>
        <time>2017-09-03T14:55:50Z</time>
      </trkpt>
      <trkpt lat="45.75806" lon="5.63854">
        <ele>348</ele>
        <time>2017-09-03T14:55:50Z</time>
      </trkpt>
      <trkpt lat="45.7581" lon="5.6385">
        <ele>348</ele>
        <time>2017-09-03T14:55:50Z</time>
      </trkpt>
      <trkpt lat="45.75814" lon="5.63844">
        <ele>348</ele>
        <time>2017-09-03T14:55:50Z</time>
      </trkpt>
      <trkpt lat="45.75818" lon="5.63838">
        <ele>348</ele>
        <time>2017-09-03T14:56:06Z</time>
      </trkpt>
      <trkpt lat="45.75822" lon="5.63833">
        <ele>348</ele>
        <time>2017-09-03T14:56:06Z</time>
      </trkpt>
      <trkpt lat="45.75827" lon="5.63831">
        <ele>348</ele>
        <time>2017-09-03T14:56:06Z</time>
      </trkpt>
      <trkpt lat="45.75832" lon="5.63828">
        <ele>348</ele>
        <time>2017-09-03T14:56:06Z</time>
      </trkpt>
      <trkpt lat="45.75834" lon="5.63827">
        <ele>348</ele>
        <time>2017-09-03T14:56:22Z</time>
      </trkpt>
      <trkpt lat="45.75837" lon="5.63828">
        <ele>348</ele>
        <time>2017-09-03T14:56:22Z</time>
      </trkpt>
      <trkpt lat="45.75842" lon="5.63828">
        <ele>348</ele>
        <time>2017-09-03T14:56:22Z</time>
      </trkpt>
      <trkpt lat="45.75848" lon="5.63828">
        <ele>348</ele>
        <time>2017-09-03T14:56:22Z</time>
      </trkpt>
      <trkpt lat="45.75855" lon="5.63827">
        <ele>348</ele>
        <time>2017-09-03T14:56:38Z</time>
      </trkpt>
      <trkpt lat="45.75861" lon="5.63827">
        <ele>348</ele>
        <time>2017-09-03T14:56:38Z</time>
      </trkpt>
      <trkpt lat="45.75867" lon="5.63828">
        <ele>348</ele>
        <time>2017-09-03T14:56:38Z</time>
      </trkpt>
      <trkpt lat="45.75872" lon="5.63832">
        <ele>348</ele>
        <time>2017-09-03T14:56:38Z</time>
      </trkpt>
      <trkpt lat="45.75877" lon="5.63834">
        <ele>347</ele>
        <time>2017-09-03T14:56:54Z</time>
      </trkpt>
      <trkpt lat="45.75882" lon="5.63835">
        <ele>347</ele>
        <time>2017-09-03T14:56:54Z</time>
      </trkpt>
      <trkpt lat="45.75886" lon="5.63836">
        <ele>347</ele>
        <time>2017-09-03T14:56:54Z</time>
      </trkpt>
      <trkpt lat="45.75892" lon="5.63838">
        <ele>347</ele>
        <time>2017-09-03T14:56:54Z</time>
      </trkpt>
      <trkpt lat="45.75898" lon="5.63837">
        <ele>347</ele>
        <time>2017-09-03T14:57:10Z</time>
      </trkpt>
      <trkpt lat="45.75901" lon="5.63837">
        <ele>347</ele>
        <time>2017-09-03T14:57:10Z</time>
      </trkpt>
      <trkpt lat="45.75905" lon="5.6383">
        <ele>347</ele>
        <time>2017-09-03T14:57:10Z</time>
      </trkpt>
      <trkpt lat="45.75909" lon="5.63825">
        <ele>347</ele>
        <time>2017-09-03T14:57:10Z</time>
      </trkpt>
      <trkpt lat="45.75915" lon="5.63823">
        <ele>347</ele>
        <time>2017-09-03T14:57:26Z</time>
      </trkpt>
      <trkpt lat="45.7592" lon="5.63824">
        <ele>347</ele>
        <time>2017-09-03T14:57:26Z</time>
      </trkpt>
      <trkpt lat="45.75925" lon="5.63827">
        <ele>347</ele>
        <time>2017-09-03T14:57:26Z</time>
      </trkpt>
      <trkpt lat="45.75931" lon="5.63828">
        <ele>347</ele>
        <time>2017-09-03T14:57:26Z</time>
      </trkpt>
      <trkpt lat="45.75938" lon="5.6383">
        <ele>347</ele>
        <time>2017-09-03T14:57:42Z</time>
      </trkpt>
      <trkpt lat="45.75945" lon="5.63833">
        <ele>347</ele>
        <time>2017-09-03T14:57:42Z</time>
      </trkpt>
      <trkpt lat="45.75951" lon="5.63835">
        <ele>347</ele>
        <time>2017-09-03T14:57:42Z</time>
      </trkpt>
      <trkpt lat="45.75956" lon="5.63837">
        <ele>347</ele>
        <time>2017-09-03T14:57:42Z</time>
      </trkpt>
      <trkpt lat="45.75965" lon="5.63837">
        <ele>350</ele>
        <time>2017-09-03T14:57:58Z</time>
      </trkpt>
      <trkpt lat="45.75973" lon="5.63835">
        <ele>350</ele>
        <time>2017-09-03T14:57:58Z</time>
      </trkpt>
      <trkpt lat="45.75978" lon="5.63833">
        <ele>350</ele>
        <time>2017-09-03T14:57:58Z</time>
      </trkpt>
      <trkpt lat="45.75983" lon="5.63829">
        <ele>350</ele>
        <time>2017-09-03T14:57:58Z</time>
      </trkpt>
      <trkpt lat="45.75987" lon="5.63825">
        <ele>350</ele>
        <time>2017-09-03T14:58:14Z</time>
      </trkpt>
      <trkpt lat="45.75992" lon="5.63821">
        <ele>350</ele>
        <time>2017-09-03T14:58:14Z</time>
      </trkpt>
      <trkpt lat="45.75996" lon="5.63816">
        <ele>350</ele>
        <time>2017-09-03T14:58:14Z</time>
      </trkpt>
      <trkpt lat="45.75999" lon="5.6381">
        <ele>350</ele>
        <time>2017-09-03T14:58:14Z</time>
      </trkpt>
      <trkpt lat="45.76003" lon="5.63804">
        <ele>350</ele>
        <time>2017-09-03T14:58:30Z</time>
      </trkpt>
      <trkpt lat="45.76007" lon="5.63799">
        <ele>350</ele>
        <time>2017-09-03T14:58:30Z</time>
      </trkpt>
      <trkpt lat="45.76011" lon="5.63794">
        <ele>350</ele>
        <time>2017-09-03T14:58:30Z</time>
      </trkpt>
      <trkpt lat="45.76014" lon="5.63788">
        <ele>344</ele>
        <time>2017-09-03T14:58:30Z</time>
      </trkpt>
      <trkpt lat="45.76019" lon="5.63782">
        <ele>344</ele>
        <time>2017-09-03T14:58:46Z</time>
      </trkpt>
      <trkpt lat="45.76022" lon="5.63776">
        <ele>344</ele>
        <time>2017-09-03T14:58:46Z</time>
      </trkpt>
      <trkpt lat="45.76025" lon="5.63772">
        <ele>344</ele>
        <time>2017-09-03T14:58:46Z</time>
      </trkpt>
      <trkpt lat="45.76033" lon="5.63772">
        <ele>344</ele>
        <time>2017-09-03T14:58:46Z</time>
      </trkpt>
      <trkpt lat="45.76041" lon="5.63778">
        <ele>344</ele>
        <time>2017-09-03T14:59:02Z</time>
      </trkpt>
      <trkpt lat="45.76047" lon="5.63782">
        <ele>344</ele>
        <time>2017-09-03T14:59:02Z</time>
      </trkpt>
      <trkpt lat="45.76052" lon="5.63786">
        <ele>344</ele>
        <time>2017-09-03T14:59:02Z</time>
      </trkpt>
      <trkpt lat="45.76055" lon="5.63791">
        <ele>344</ele>
        <time>2017-09-03T14:59:02Z</time>
      </trkpt>
      <trkpt lat="45.76059" lon="5.63794">
        <ele>353</ele>
        <time>2017-09-03T14:59:18Z</time>
      </trkpt>
      <trkpt lat="45.76063" lon="5.63796">
        <ele>353</ele>
        <time>2017-09-03T14:59:18Z</time>
      </trkpt>
      <trkpt lat="45.76068" lon="5.63796">
        <ele>353</ele>
        <time>2017-09-03T14:59:18Z</time>
      </trkpt>
      <trkpt lat="45.76074" lon="5.63798">
        <ele>353</ele>
        <time>2017-09-03T14:59:18Z</time>
      </trkpt>
      <trkpt lat="45.76078" lon="5.63801">
        <ele>353</ele>
        <time>2017-09-03T14:59:34Z</time>
      </trkpt>
      <trkpt lat="45.76083" lon="5.63804">
        <ele>353</ele>
        <time>2017-09-03T14:59:34Z</time>
      </trkpt>
      <trkpt lat="45.76089" lon="5.63807">
        <ele>353</ele>
        <time>2017-09-03T14:59:34Z</time>
      </trkpt>
      <trkpt lat="45.76099" lon="5.63806">
        <ele>353</ele>
        <time>2017-09-03T14:59:34Z</time>
      </trkpt>
      <trkpt lat="45.7611" lon="5.63802">
        <ele>353</ele>
        <time>2017-09-03T14:59:50Z</time>
      </trkpt>
      <trkpt lat="45.76116" lon="5.63801">
        <ele>353</ele>
        <time>2017-09-03T14:59:50Z</time>
      </trkpt>
      <trkpt lat="45.76121" lon="5.63802">
        <ele>353</ele>
        <time>2017-09-03T14:59:50Z</time>
      </trkpt>
      <trkpt lat="45.76127" lon="5.638">
        <ele>351</ele>
        <time>2017-09-03T14:59:50Z</time>
      </trkpt>
      <trkpt lat="45.76133" lon="5.63797">
        <ele>351</ele>
        <time>2017-09-03T15:00:06Z</time>
      </trkpt>
      <trkpt lat="45.76138" lon="5.63794">
        <ele>351</ele>
        <time>2017-09-03T15:00:06Z</time>
      </trkpt>
      <trkpt lat="45.76144" lon="5.63795">
        <ele>351</ele>
        <time>2017-09-03T15:00:06Z</time>
      </trkpt>
      <trkpt lat="45.7615" lon="5.63793">
        <ele>351</ele>
        <time>2017-09-03T15:00:06Z</time>
      </trkpt>
      <trkpt lat="45.76155" lon="5.63788">
        <ele>345</ele>
        <time>2017-09-03T15:00:22Z</time>
      </trkpt>
      <trkpt lat="45.76159" lon="5.63784">
        <ele>345</ele>
        <time>2017-09-03T15:00:22Z</time>
      </trkpt>
      <trkpt lat="45.76161" lon="5.63777">
        <ele>345</ele>
        <time>2017-09-03T15:00:22Z</time>
      </trkpt>
      <trkpt lat="45.76164" lon="5.6377">
        <ele>345</ele>
        <time>2017-09-03T15:00:22Z</time>
      </trkpt>
      <trkpt lat="45.76166" lon="5.63762">
        <ele>345</ele>
        <time>2017-09-03T15:00:38Z</time>
      </trkpt>
      <trkpt lat="45.76168" lon="5.63754">
        <ele>345</ele>
        <time>2017-09-03T15:00:38Z</time>
      </trkpt>
      <trkpt lat="45.7617" lon="5.63746">
        <ele>345</ele>
        <time>2017-09-03T15:00:38Z</time>
      </trkpt>
      <trkpt lat="45.76172" lon="5.63739">
        <ele>345</ele>
        <time>2017-09-03T15:00:38Z</time>
      </trkpt>
      <trkpt lat="45.76174" lon="5.63732">
        <ele>345</ele>
        <time>2017-09-03T15:00:54Z</time>
      </trkpt>
      <trkpt lat="45.76176" lon="5.63725">
        <ele>345</ele>
        <time>2017-09-03T15:00:54Z</time>
      </trkpt>
      <trkpt lat="45.76178" lon="5.63718">
        <ele>345</ele>
        <time>2017-09-03T15:00:54Z</time>
      </trkpt>
      <trkpt lat="45.76178" lon="5.63709">
        <ele>345</ele>
        <time>2017-09-03T15:00:54Z</time>
      </trkpt>
      <trkpt lat="45.76183" lon="5.63694">
        <ele>344</ele>
        <time>2017-09-03T15:01:10Z</time>
      </trkpt>
      <trkpt lat="45.76187" lon="5.63682">
        <ele>344</ele>
        <time>2017-09-03T15:01:10Z</time>
      </trkpt>
      <trkpt lat="45.76191" lon="5.63674">
        <ele>344</ele>
        <time>2017-09-03T15:01:10Z</time>
      </trkpt>
      <trkpt lat="45.76194" lon="5.6367">
        <ele>344</ele>
        <time>2017-09-03T15:01:10Z</time>
      </trkpt>
      <trkpt lat="45.76198" lon="5.63664">
        <ele>344</ele>
        <time>2017-09-03T15:01:26Z</time>
      </trkpt>
      <trkpt lat="45.76202" lon="5.6366">
        <ele>344</ele>
        <time>2017-09-03T15:01:26Z</time>
      </trkpt>
      <trkpt lat="45.76206" lon="5.63657">
        <ele>344</ele>
        <time>2017-09-03T15:01:26Z</time>
      </trkpt>
      <trkpt lat="45.76209" lon="5.63652">
        <ele>344</ele>
        <time>2017-09-03T15:01:26Z</time>
      </trkpt>
      <trkpt lat="45.76211" lon="5.63643">
        <ele>344</ele>
        <time>2017-09-03T15:01:42Z</time>
      </trkpt>
      <trkpt lat="45.76213" lon="5.63635">
        <ele>344</ele>
        <time>2017-09-03T15:01:42Z</time>
      </trkpt>
      <trkpt lat="45.76215" lon="5.63629">
        <ele>344</ele>
        <time>2017-09-03T15:01:42Z</time>
      </trkpt>
      <trkpt lat="45.76218" lon="5.63622">
        <ele>342</ele>
        <time>2017-09-03T15:01:42Z</time>
      </trkpt>
      <trkpt lat="45.7622" lon="5.63614">
        <ele>342</ele>
        <time>2017-09-03T15:01:58Z</time>
      </trkpt>
      <trkpt lat="45.76224" lon="5.63608">
        <ele>342</ele>
        <time>2017-09-03T15:01:58Z</time>
      </trkpt>
      <trkpt lat="45.76228" lon="5.63604">
        <ele>342</ele>
        <time>2017-09-03T15:01:58Z</time>
      </trkpt>
      <trkpt lat="45.76233" lon="5.63599">
        <ele>342</ele>
        <time>2017-09-03T15:01:58Z</time>
      </trkpt>
      <trkpt lat="45.76237" lon="5.63594">
        <ele>342</ele>
        <time>2017-09-03T15:02:14Z</time>
      </trkpt>
      <trkpt lat="45.7624" lon="5.63588">
        <ele>342</ele>
        <time>2017-09-03T15:02:14Z</time>
      </trkpt>
      <trkpt lat="45.76241" lon="5.6358">
        <ele>342</ele>
        <time>2017-09-03T15:02:14Z</time>
      </trkpt>
      <trkpt lat="45.76242" lon="5.63572">
        <ele>342</ele>
        <time>2017-09-03T15:02:14Z</time>
      </trkpt>
      <trkpt lat="45.76242" lon="5.63564">
        <ele>342</ele>
        <time>2017-09-03T15:02:30Z</time>
      </trkpt>
      <trkpt lat="45.76244" lon="5.63557">
        <ele>342</ele>
        <time>2017-09-03T15:02:30Z</time>
      </trkpt>
      <trkpt lat="45.76247" lon="5.6355">
        <ele>342</ele>
        <time>2017-09-03T15:02:30Z</time>
      </trkpt>
      <trkpt lat="45.76249" lon="5.63544">
        <ele>342</ele>
        <time>2017-09-03T15:02:30Z</time>
      </trkpt>
      <trkpt lat="45.76249" lon="5.63537">
        <ele>341</ele>
        <time>2017-09-03T15:02:46Z</time>
      </trkpt>
      <trkpt lat="45.76248" lon="5.63529">
        <ele>341</ele>
        <time>2017-09-03T15:02:46Z</time>
      </trkpt>
      <trkpt lat="45.76248" lon="5.63522">
        <ele>341</ele>
        <time>2017-09-03T15:02:46Z</time>
      </trkpt>
      <trkpt lat="45.76249" lon="5.63515">
        <ele>341</ele>
        <time>2017-09-03T15:02:46Z</time>
      </trkpt>
      <trkpt lat="45.76254" lon="5.63512">
        <ele>341</ele>
        <time>2017-09-03T15:03:02Z</time>
      </trkpt>
      <trkpt lat="45.76258" lon="5.63514">
        <ele>341</ele>
        <time>2017-09-03T15:03:02Z</time>
      </trkpt>
      <trkpt lat="45.76262" lon="5.63516">
        <ele>341</ele>
        <time>2017-09-03T15:03:02Z</time>
      </trkpt>
      <trkpt lat="45.76265" lon="5.63517">
        <ele>341</ele>
        <time>2017-09-03T15:03:02Z</time>
      </trkpt>
      <trkpt lat="45.76266" lon="5.63517">
        <ele>341</ele>
        <time>2017-09-03T15:03:18Z</time>
      </trkpt>
      <trkpt lat="45.76274" lon="5.63518">
        <ele>341</ele>
        <time>2017-09-03T15:03:18Z</time>
      </trkpt>
      <trkpt lat="45.76287" lon="5.63519">
        <ele>341</ele>
        <time>2017-09-03T15:03:18Z</time>
      </trkpt>
      <trkpt lat="45.76295" lon="5.63522">
        <ele>341</ele>
        <time>2017-09-03T15:03:18Z</time>
      </trkpt>
      <trkpt lat="45.763" lon="5.63524">
        <ele>341</ele>
        <time>2017-09-03T15:03:34Z</time>
      </trkpt>
      <trkpt lat="45.76306" lon="5.63526">
        <ele>341</ele>
        <time>2017-09-03T15:03:34Z</time>
      </trkpt>
      <trkpt lat="45.76312" lon="5.63527">
        <ele>341</ele>
        <time>2017-09-03T15:03:34Z</time>
      </trkpt>
      <trkpt lat="45.76317" lon="5.63527">
        <ele>341</ele>
        <time>2017-09-03T15:03:34Z</time>
      </trkpt>
      <trkpt lat="45.7632" lon="5.63526">
        <ele>341</ele>
        <time>2017-09-03T15:03:50Z</time>
      </trkpt>
      <trkpt lat="45.76323" lon="5.63525">
        <ele>341</ele>
        <time>2017-09-03T15:03:50Z</time>
      </trkpt>
      <trkpt lat="45.76329" lon="5.63525">
        <ele>341</ele>
        <time>2017-09-03T15:03:50Z</time>
      </trkpt>
      <trkpt lat="45.76334" lon="5.63525">
        <ele>341</ele>
        <time>2017-09-03T15:03:50Z</time>
      </trkpt>
      <trkpt lat="45.76339" lon="5.63524">
        <ele>341</ele>
        <time>2017-09-03T15:04:06Z</time>
      </trkpt>
      <trkpt lat="45.76344" lon="5.63522">
        <ele>341</ele>
        <time>2017-09-03T15:04:06Z</time>
      </trkpt>
      <trkpt lat="45.7635" lon="5.63521">
        <ele>341</ele>
        <time>2017-09-03T15:04:06Z</time>
      </trkpt>
      <trkpt lat="45.76357" lon="5.63521">
        <ele>341</ele>
        <time>2017-09-03T15:04:06Z</time>
      </trkpt>
      <trkpt lat="45.76363" lon="5.63521">
        <ele>341</ele>
        <time>2017-09-03T15:04:22Z</time>
      </trkpt>
      <trkpt lat="45.76368" lon="5.63522">
        <ele>341</ele>
        <time>2017-09-03T15:04:22Z</time>
      </trkpt>
      <trkpt lat="45.76373" lon="5.63523">
        <ele>341</ele>
        <time>2017-09-03T15:04:22Z</time>
      </trkpt>
      <trkpt lat="45.76378" lon="5.63523">
        <ele>347</ele>
        <time>2017-09-03T15:04:22Z</time>
      </trkpt>
      <trkpt lat="45.76384" lon="5.63523">
        <ele>347</ele>
        <time>2017-09-03T15:04:38Z</time>
      </trkpt>
      <trkpt lat="45.76389" lon="5.63521">
        <ele>347</ele>
        <time>2017-09-03T15:04:38Z</time>
      </trkpt>
      <trkpt lat="45.76395" lon="5.63518">
        <ele>347</ele>
        <time>2017-09-03T15:04:38Z</time>
      </trkpt>
      <trkpt lat="45.76399" lon="5.63516">
        <ele>347</ele>
        <time>2017-09-03T15:04:38Z</time>
      </trkpt>
      <trkpt lat="45.76404" lon="5.63513">
        <ele>347</ele>
        <time>2017-09-03T15:04:54Z</time>
      </trkpt>
      <trkpt lat="45.76408" lon="5.63511">
        <ele>347</ele>
        <time>2017-09-03T15:04:54Z</time>
      </trkpt>
      <trkpt lat="45.76412" lon="5.63506">
        <ele>347</ele>
        <time>2017-09-03T15:04:54Z</time>
      </trkpt>
      <trkpt lat="45.76417" lon="5.63501">
        <ele>347</ele>
        <time>2017-09-03T15:04:54Z</time>
      </trkpt>
      <trkpt lat="45.76421" lon="5.63495">
        <ele>347</ele>
        <time>2017-09-03T15:05:10Z</time>
      </trkpt>
      <trkpt lat="45.76425" lon="5.6349">
        <ele>347</ele>
        <time>2017-09-03T15:05:10Z</time>
      </trkpt>
      <trkpt lat="45.7643" lon="5.63487">
        <ele>347</ele>
        <time>2017-09-03T15:05:10Z</time>
      </trkpt>
      <trkpt lat="45.76433" lon="5.63481">
        <ele>347</ele>
        <time>2017-09-03T15:05:10Z</time>
      </trkpt>
      <trkpt lat="45.76438" lon="5.63476">
        <ele>347</ele>
        <time>2017-09-03T15:05:26Z</time>
      </trkpt>
      <trkpt lat="45.76443" lon="5.63475">
        <ele>347</ele>
        <time>2017-09-03T15:05:26Z</time>
      </trkpt>
      <trkpt lat="45.76447" lon="5.6347">
        <ele>347</ele>
        <time>2017-09-03T15:05:26Z</time>
      </trkpt>
      <trkpt lat="45.7645" lon="5.63465">
        <ele>347</ele>
        <time>2017-09-03T15:05:26Z</time>
      </trkpt>
      <trkpt lat="45.76453" lon="5.63459">
        <ele>347</ele>
        <time>2017-09-03T15:05:42Z</time>
      </trkpt>
      <trkpt lat="45.76454" lon="5.6345">
        <ele>346</ele>
        <time>2017-09-03T15:05:42Z</time>
      </trkpt>
      <trkpt lat="45.76455" lon="5.63443">
        <ele>346</ele>
        <time>2017-09-03T15:05:42Z</time>
      </trkpt>
      <trkpt lat="45.76455" lon="5.63426">
        <ele>346</ele>
        <time>2017-09-03T15:05:42Z</time>
      </trkpt>
      <trkpt lat="45.76453" lon="5.63403">
        <ele>346</ele>
        <time>2017-09-03T15:05:58Z</time>
      </trkpt>
      <trkpt lat="45.76451" lon="5.63379">
        <ele>346</ele>
        <time>2017-09-03T15:05:58Z</time>
      </trkpt>
      <trkpt lat="45.76447" lon="5.63357">
        <ele>347</ele>
        <time>2017-09-03T15:05:58Z</time>
      </trkpt>
      <trkpt lat="45.76446" lon="5.63333">
        <ele>347</ele>
        <time>2017-09-03T15:05:58Z</time>
      </trkpt>
      <trkpt lat="45.76446" lon="5.63312">
        <ele>347</ele>
        <time>2017-09-03T15:06:14Z</time>
      </trkpt>
      <trkpt lat="45.76444" lon="5.63306">
        <ele>347</ele>
        <time>2017-09-03T15:06:14Z</time>
      </trkpt>
      <trkpt lat="45.76442" lon="5.633">
        <ele>347</ele>
        <time>2017-09-03T15:06:14Z</time>
      </trkpt>
      <trkpt lat="45.76442" lon="5.63294">
        <ele>347</ele>
        <time>2017-09-03T15:06:14Z</time>
      </trkpt>
      <trkpt lat="45.76444" lon="5.63289">
        <ele>352</ele>
        <time>2017-09-03T15:06:30Z</time>
      </trkpt>
      <trkpt lat="45.76444" lon="5.63282">
        <ele>352</ele>
        <time>2017-09-03T15:06:30Z</time>
      </trkpt>
      <trkpt lat="45.76443" lon="5.63276">
        <ele>352</ele>
        <time>2017-09-03T15:06:30Z</time>
      </trkpt>
      <trkpt lat="45.76442" lon="5.63274">
        <ele>352</ele>
        <time>2017-09-03T15:06:30Z</time>
      </trkpt>
      <trkpt lat="45.76439" lon="5.63267">
        <ele>352</ele>
        <time>2017-09-03T15:06:46Z</time>
      </trkpt>
      <trkpt lat="45.76437" lon="5.63261">
        <ele>352</ele>
        <time>2017-09-03T15:06:46Z</time>
      </trkpt>
      <trkpt lat="45.76436" lon="5.63251">
        <ele>352</ele>
        <time>2017-09-03T15:06:46Z</time>
      </trkpt>
      <trkpt lat="45.76435" lon="5.63242">
        <ele>352</ele>
        <time>2017-09-03T15:06:46Z</time>
      </trkpt>
      <trkpt lat="45.76432" lon="5.63236">
        <ele>352</ele>
        <time>2017-09-03T15:07:02Z</time>
      </trkpt>
      <trkpt lat="45.76427" lon="5.63232">
        <ele>352</ele>
        <time>2017-09-03T15:07:02Z</time>
      </trkpt>
      <trkpt lat="45.76423" lon="5.63229">
        <ele>352</ele>
        <time>2017-09-03T15:07:02Z</time>
      </trkpt>
      <trkpt lat="45.76418" lon="5.63227">
        <ele>352</ele>
        <time>2017-09-03T15:07:02Z</time>
      </trkpt>
      <trkpt lat="45.76414" lon="5.63226">
        <ele>352</ele>
        <time>2017-09-03T15:07:18Z</time>
      </trkpt>
      <trkpt lat="45.76409" lon="5.63225">
        <ele>352</ele>
        <time>2017-09-03T15:07:18Z</time>
      </trkpt>
      <trkpt lat="45.76404" lon="5.63226">
        <ele>352</ele>
        <time>2017-09-03T15:07:18Z</time>
      </trkpt>
      <trkpt lat="45.76399" lon="5.63225">
        <ele>352</ele>
        <time>2017-09-03T15:07:18Z</time>
      </trkpt>
      <trkpt lat="45.76395" lon="5.63224">
        <ele>352</ele>
        <time>2017-09-03T15:07:34Z</time>
      </trkpt>
      <trkpt lat="45.76392" lon="5.63224">
        <ele>352</ele>
        <time>2017-09-03T15:07:34Z</time>
      </trkpt>
      <trkpt lat="45.76387" lon="5.63224">
        <ele>352</ele>
        <time>2017-09-03T15:07:34Z</time>
      </trkpt>
      <trkpt lat="45.76383" lon="5.63224">
        <ele>352</ele>
        <time>2017-09-03T15:07:34Z</time>
      </trkpt>
      <trkpt lat="45.76378" lon="5.63223">
        <ele>352</ele>
        <time>2017-09-03T15:07:50Z</time>
      </trkpt>
      <trkpt lat="45.76374" lon="5.63222">
        <ele>351</ele>
        <time>2017-09-03T15:07:50Z</time>
      </trkpt>
      <trkpt lat="45.7637" lon="5.63218">
        <ele>351</ele>
        <time>2017-09-03T15:07:50Z</time>
      </trkpt>
      <trkpt lat="45.76365" lon="5.63214">
        <ele>351</ele>
        <time>2017-09-03T15:07:50Z</time>
      </trkpt>
      <trkpt lat="45.7636" lon="5.63208">
        <ele>358</ele>
        <time>2017-09-03T15:08:06Z</time>
      </trkpt>
      <trkpt lat="45.76357" lon="5.63201">
        <ele>358</ele>
        <time>2017-09-03T15:08:06Z</time>
      </trkpt>
      <trkpt lat="45.76354" lon="5.63195">
        <ele>358</ele>
        <time>2017-09-03T15:08:06Z</time>
      </trkpt>
      <trkpt lat="45.76352" lon="5.63188">
        <ele>358</ele>
        <time>2017-09-03T15:08:06Z</time>
      </trkpt>
      <trkpt lat="45.76349" lon="5.63182">
        <ele>358</ele>
        <time>2017-09-03T15:08:22Z</time>
      </trkpt>
      <trkpt lat="45.76346" lon="5.63177">
        <ele>358</ele>
        <time>2017-09-03T15:08:22Z</time>
      </trkpt>
      <trkpt lat="45.76342" lon="5.63173">
        <ele>358</ele>
        <time>2017-09-03T15:08:22Z</time>
      </trkpt>
      <trkpt lat="45.76338" lon="5.63168">
        <ele>358</ele>
        <time>2017-09-03T15:08:22Z</time>
      </trkpt>
      <trkpt lat="45.76334" lon="5.63163">
        <ele>358</ele>
        <time>2017-09-03T15:08:38Z</time>
      </trkpt>
      <trkpt lat="45.7633" lon="5.63158">
        <ele>358</ele>
        <time>2017-09-03T15:08:38Z</time>
      </trkpt>
      <trkpt lat="45.76326" lon="5.63155">
        <ele>358</ele>
        <time>2017-09-03T15:08:38Z</time>
      </trkpt>
      <trkpt lat="45.76322" lon="5.63151">
        <ele>358</ele>
        <time>2017-09-03T15:08:38Z</time>
      </trkpt>
      <trkpt lat="45.76318" lon="5.63149">
        <ele>358</ele>
        <time>2017-09-03T15:08:54Z</time>
      </trkpt>
      <trkpt lat="45.76313" lon="5.63145">
        <ele>358</ele>
        <time>2017-09-03T15:08:54Z</time>
      </trkpt>
      <trkpt lat="45.76309" lon="5.63141">
        <ele>358</ele>
        <time>2017-09-03T15:08:54Z</time>
      </trkpt>
      <trkpt lat="45.76305" lon="5.63137">
        <ele>358</ele>
        <time>2017-09-03T15:08:54Z</time>
      </trkpt>
      <trkpt lat="45.76301" lon="5.63133">
        <ele>358</ele>
        <time>2017-09-03T15:09:10Z</time>
      </trkpt>
      <trkpt lat="45.763" lon="5.63131">
        <ele>358</ele>
        <time>2017-09-03T15:09:10Z</time>
      </trkpt>
      <trkpt lat="45.76298" lon="5.63128">
        <ele>358</ele>
        <time>2017-09-03T15:09:10Z</time>
      </trkpt>
      <trkpt lat="45.76293" lon="5.63126">
        <ele>358</ele>
        <time>2017-09-03T15:09:10Z</time>
      </trkpt>
      <trkpt lat="45.76287" lon="5.63122">
        <ele>354</ele>
        <time>2017-09-03T15:09:26Z</time>
      </trkpt>
      <trkpt lat="45.76282" lon="5.63117">
        <ele>354</ele>
        <time>2017-09-03T15:09:26Z</time>
      </trkpt>
      <trkpt lat="45.76276" lon="5.63115">
        <ele>354</ele>
        <time>2017-09-03T15:09:26Z</time>
      </trkpt>
      <trkpt lat="45.7627" lon="5.63112">
        <ele>354</ele>
        <time>2017-09-03T15:09:26Z</time>
      </trkpt>
      <trkpt lat="45.76266" lon="5.63109">
        <ele>354</ele>
        <time>2017-09-03T15:09:42Z</time>
      </trkpt>
      <trkpt lat="45.7626" lon="5.63107">
        <ele>354</ele>
        <time>2017-09-03T15:09:42Z</time>
      </trkpt>
      <trkpt lat="45.76254" lon="5.63107">
        <ele>354</ele>
        <time>2017-09-03T15:09:42Z</time>
      </trkpt>
      <trkpt lat="45.76251" lon="5.63108">
        <ele>354</ele>
        <time>2017-09-03T15:09:42Z</time>
      </trkpt>
      <trkpt lat="45.76246" lon="5.63109">
        <ele>354</ele>
        <time>2017-09-03T15:09:58Z</time>
      </trkpt>
      <trkpt lat="45.76241" lon="5.63108">
        <ele>354</ele>
        <time>2017-09-03T15:09:58Z</time>
      </trkpt>
      <trkpt lat="45.76236" lon="5.63108">
        <ele>354</ele>
        <time>2017-09-03T15:09:58Z</time>
      </trkpt>
      <trkpt lat="45.7623" lon="5.63108">
        <ele>354</ele>
        <time>2017-09-03T15:09:58Z</time>
      </trkpt>
      <trkpt lat="45.76225" lon="5.63108">
        <ele>354</ele>
        <time>2017-09-03T15:10:14Z</time>
      </trkpt>
      <trkpt lat="45.76222" lon="5.63109">
        <ele>354</ele>
        <time>2017-09-03T15:10:14Z</time>
      </trkpt>
      <trkpt lat="45.76219" lon="5.63109">
        <ele>354</ele>
        <time>2017-09-03T15:10:14Z</time>
      </trkpt>
      <trkpt lat="45.76213" lon="5.63109">
        <ele>354</ele>
        <time>2017-09-03T15:10:14Z</time>
      </trkpt>
      <trkpt lat="45.76207" lon="5.63108">
        <ele>359</ele>
        <time>2017-09-03T15:10:30Z</time>
      </trkpt>
      <trkpt lat="45.76202" lon="5.63109">
        <ele>359</ele>
        <time>2017-09-03T15:10:30Z</time>
      </trkpt>
      <trkpt lat="45.76199" lon="5.6311">
        <ele>359</ele>
        <time>2017-09-03T15:10:30Z</time>
      </trkpt>
      <trkpt lat="45.76196" lon="5.63112">
        <ele>359</ele>
        <time>2017-09-03T15:10:30Z</time>
      </trkpt>
      <trkpt lat="45.76191" lon="5.6311">
        <ele>359</ele>
        <time>2017-09-03T15:10:46Z</time>
      </trkpt>
      <trkpt lat="45.76186" lon="5.63112">
        <ele>359</ele>
        <time>2017-09-03T15:10:46Z</time>
      </trkpt>
      <trkpt lat="45.76179" lon="5.6311">
        <ele>359</ele>
        <time>2017-09-03T15:10:46Z</time>
      </trkpt>
      <trkpt lat="45.76173" lon="5.63108">
        <ele>359</ele>
        <time>2017-09-03T15:10:46Z</time>
      </trkpt>
      <trkpt lat="45.7617" lon="5.63102">
        <ele>359</ele>
        <time>2017-09-03T15:11:02Z</time>
      </trkpt>
      <trkpt lat="45.76168" lon="5.63097">
        <ele>359</ele>
        <time>2017-09-03T15:11:02Z</time>
      </trkpt>
      <trkpt lat="45.76166" lon="5.6309">
        <ele>359</ele>
        <time>2017-09-03T15:11:02Z</time>
      </trkpt>
      <trkpt lat="45.76162" lon="5.63084">
        <ele>359</ele>
        <time>2017-09-03T15:11:02Z</time>
      </trkpt>
      <trkpt lat="45.76158" lon="5.63078">
        <ele>359</ele>
        <time>2017-09-03T15:11:18Z</time>
      </trkpt>
      <trkpt lat="45.76158" lon="5.63073">
        <ele>359</ele>
        <time>2017-09-03T15:11:18Z</time>
      </trkpt>
      <trkpt lat="45.76161" lon="5.63067">
        <ele>359</ele>
        <time>2017-09-03T15:11:18Z</time>
      </trkpt>
      <trkpt lat="45.76162" lon="5.63057">
        <ele>359</ele>
        <time>2017-09-03T15:11:18Z</time>
      </trkpt>
      <trkpt lat="45.76164" lon="5.63048">
        <ele>359</ele>
        <time>2017-09-03T15:11:34Z</time>
      </trkpt>
      <trkpt lat="45.76164" lon="5.6304">
        <ele>352</ele>
        <time>2017-09-03T15:11:34Z</time>
      </trkpt>
      <trkpt lat="45.76166" lon="5.63031">
        <ele>352</ele>
        <time>2017-09-03T15:11:34Z</time>
      </trkpt>
      <trkpt lat="45.76166" lon="5.63023">
        <ele>352</ele>
        <time>2017-09-03T15:11:34Z</time>
      </trkpt>
      <trkpt lat="45.76164" lon="5.63015">
        <ele>352</ele>
        <time>2017-09-03T15:11:50Z</time>
      </trkpt>
      <trkpt lat="45.76163" lon="5.63007">
        <ele>352</ele>
        <time>2017-09-03T15:11:50Z</time>
      </trkpt>
      <trkpt lat="45.76162" lon="5.62998">
        <ele>352</ele>
        <time>2017-09-03T15:11:50Z</time>
      </trkpt>
      <trkpt lat="45.76161" lon="5.62991">
        <ele>352</ele>
        <time>2017-09-03T15:11:50Z</time>
      </trkpt>
      <trkpt lat="45.76161" lon="5.62984">
        <ele>352</ele>
        <time>2017-09-03T15:12:06Z</time>
      </trkpt>
      <trkpt lat="45.76163" lon="5.62976">
        <ele>352</ele>
        <time>2017-09-03T15:12:06Z</time>
      </trkpt>
      <trkpt lat="45.76166" lon="5.62969">
        <ele>352</ele>
        <time>2017-09-03T15:12:06Z</time>
      </trkpt>
      <trkpt lat="45.76167" lon="5.62962">
        <ele>352</ele>
        <time>2017-09-03T15:12:06Z</time>
      </trkpt>
      <trkpt lat="45.76168" lon="5.62955">
        <ele>354</ele>
        <time>2017-09-03T15:12:22Z</time>
      </trkpt>
      <trkpt lat="45.76171" lon="5.62949">
        <ele>354</ele>
        <time>2017-09-03T15:12:22Z</time>
      </trkpt>
      <trkpt lat="45.76174" lon="5.62943">
        <ele>354</ele>
        <time>2017-09-03T15:12:22Z</time>
      </trkpt>
      <trkpt lat="45.76177" lon="5.62935">
        <ele>354</ele>
        <time>2017-09-03T15:12:22Z</time>
      </trkpt>
      <trkpt lat="45.76181" lon="5.62928">
        <ele>354</ele>
        <time>2017-09-03T15:12:38Z</time>
      </trkpt>
      <trkpt lat="45.76188" lon="5.62921">
        <ele>354</ele>
        <time>2017-09-03T15:12:38Z</time>
      </trkpt>
      <trkpt lat="45.76193" lon="5.62913">
        <ele>354</ele>
        <time>2017-09-03T15:12:38Z</time>
      </trkpt>
      <trkpt lat="45.76197" lon="5.6291">
        <ele>354</ele>
        <time>2017-09-03T15:12:38Z</time>
      </trkpt>
      <trkpt lat="45.76202" lon="5.62907">
        <ele>354</ele>
        <time>2017-09-03T15:12:54Z</time>
      </trkpt>
      <trkpt lat="45.76206" lon="5.62903">
        <ele>354</ele>
        <time>2017-09-03T15:12:54Z</time>
      </trkpt>
      <trkpt lat="45.7621" lon="5.62898">
        <ele>350</ele>
        <time>2017-09-03T15:12:54Z</time>
      </trkpt>
      <trkpt lat="45.76217" lon="5.6289">
        <ele>350</ele>
        <time>2017-09-03T15:12:54Z</time>
      </trkpt>
      <trkpt lat="45.76221" lon="5.62887">
        <ele>350</ele>
        <time>2017-09-03T15:13:10Z</time>
      </trkpt>
      <trkpt lat="45.76225" lon="5.62885">
        <ele>350</ele>
        <time>2017-09-03T15:13:10Z</time>
      </trkpt>
      <trkpt lat="45.7623" lon="5.62882">
        <ele>350</ele>
        <time>2017-09-03T15:13:10Z</time>
      </trkpt>
      <trkpt lat="45.76236" lon="5.62881">
        <ele>350</ele>
        <time>2017-09-03T15:13:10Z</time>
      </trkpt>
      <trkpt lat="45.76241" lon="5.62879">
        <ele>350</ele>
        <time>2017-09-03T15:13:26Z</time>
      </trkpt>
      <trkpt lat="45.76246" lon="5.62878">
        <ele>350</ele>
        <time>2017-09-03T15:13:26Z</time>
      </trkpt>
      <trkpt lat="45.76252" lon="5.62877">
        <ele>350</ele>
        <time>2017-09-03T15:13:26Z</time>
      </trkpt>
      <trkpt lat="45.76257" lon="5.62873">
        <ele>352</ele>
        <time>2017-09-03T15:13:26Z</time>
      </trkpt>
      <trkpt lat="45.7626" lon="5.62867">
        <ele>352</ele>
        <time>2017-09-03T15:13:42Z</time>
      </trkpt>
      <trkpt lat="45.76261" lon="5.62859">
        <ele>352</ele>
        <time>2017-09-03T15:13:42Z</time>
      </trkpt>
      <trkpt lat="45.76261" lon="5.6285">
        <ele>352</ele>
        <time>2017-09-03T15:13:42Z</time>
      </trkpt>
      <trkpt lat="45.7626" lon="5.62841">
        <ele>352</ele>
        <time>2017-09-03T15:13:42Z</time>
      </trkpt>
      <trkpt lat="45.76258" lon="5.62833">
        <ele>352</ele>
        <time>2017-09-03T15:13:58Z</time>
      </trkpt>
      <trkpt lat="45.76255" lon="5.62824">
        <ele>352</ele>
        <time>2017-09-03T15:13:58Z</time>
      </trkpt>
      <trkpt lat="45.76254" lon="5.62816">
        <ele>352</ele>
        <time>2017-09-03T15:13:58Z</time>
      </trkpt>
      <trkpt lat="45.76255" lon="5.62809">
        <ele>352</ele>
        <time>2017-09-03T15:13:58Z</time>
      </trkpt>
      <trkpt lat="45.76253" lon="5.62802">
        <ele>352</ele>
        <time>2017-09-03T15:14:14Z</time>
      </trkpt>
      <trkpt lat="45.76247" lon="5.62794">
        <ele>352</ele>
        <time>2017-09-03T15:14:14Z</time>
      </trkpt>
      <trkpt lat="45.76241" lon="5.62788">
        <ele>349</ele>
        <time>2017-09-03T15:14:14Z</time>
      </trkpt>
      <trkpt lat="45.76236" lon="5.62785">
        <ele>349</ele>
        <time>2017-09-03T15:14:14Z</time>
      </trkpt>
      <trkpt lat="45.76231" lon="5.62782">
        <ele>349</ele>
        <time>2017-09-03T15:14:34Z</time>
      </trkpt>
      <trkpt lat="45.76231" lon="5.62783">
        <ele>349</ele>
        <time>2017-09-03T15:14:34Z</time>
      </trkpt>
      <trkpt lat="45.76228" lon="5.62782">
        <ele>349</ele>
        <time>2017-09-03T15:14:34Z</time>
      </trkpt>
      <trkpt lat="45.76223" lon="5.62779">
        <ele>349</ele>
        <time>2017-09-03T15:14:34Z</time>
      </trkpt>
      <trkpt lat="45.76219" lon="5.62775">
        <ele>349</ele>
        <time>2017-09-03T15:14:34Z</time>
      </trkpt>
      <trkpt lat="45.76215" lon="5.62772">
        <ele>349</ele>
        <time>2017-09-03T15:14:50Z</time>
      </trkpt>
      <trkpt lat="45.76211" lon="5.62769">
        <ele>349</ele>
        <time>2017-09-03T15:14:50Z</time>
      </trkpt>
      <trkpt lat="45.76206" lon="5.62766">
        <ele>356</ele>
        <time>2017-09-03T15:14:50Z</time>
      </trkpt>
      <trkpt lat="45.762" lon="5.62763">
        <ele>356</ele>
        <time>2017-09-03T15:14:50Z</time>
      </trkpt>
      <trkpt lat="45.76195" lon="5.62761">
        <ele>356</ele>
        <time>2017-09-03T15:15:06Z</time>
      </trkpt>
      <trkpt lat="45.76187" lon="5.62759">
        <ele>356</ele>
        <time>2017-09-03T15:15:06Z</time>
      </trkpt>
      <trkpt lat="45.7618" lon="5.62751">
        <ele>356</ele>
        <time>2017-09-03T15:15:06Z</time>
      </trkpt>
      <trkpt lat="45.76176" lon="5.62739">
        <ele>356</ele>
        <time>2017-09-03T15:15:06Z</time>
      </trkpt>
      <trkpt lat="45.76174" lon="5.62731">
        <ele>356</ele>
        <time>2017-09-03T15:15:22Z</time>
      </trkpt>
      <trkpt lat="45.76172" lon="5.62723">
        <ele>356</ele>
        <time>2017-09-03T15:15:22Z</time>
      </trkpt>
      <trkpt lat="45.76171" lon="5.62715">
        <ele>356</ele>
        <time>2017-09-03T15:15:22Z</time>
      </trkpt>
      <trkpt lat="45.7617" lon="5.62707">
        <ele>350</ele>
        <time>2017-09-03T15:15:22Z</time>
      </trkpt>
      <trkpt lat="45.76169" lon="5.627">
        <ele>350</ele>
        <time>2017-09-03T15:15:38Z</time>
      </trkpt>
      <trkpt lat="45.76166" lon="5.62695">
        <ele>350</ele>
        <time>2017-09-03T15:15:38Z</time>
      </trkpt>
      <trkpt lat="45.76162" lon="5.6269">
        <ele>350</ele>
        <time>2017-09-03T15:15:38Z</time>
      </trkpt>
      <trkpt lat="45.76158" lon="5.62686">
        <ele>350</ele>
        <time>2017-09-03T15:15:38Z</time>
      </trkpt>
      <trkpt lat="45.76153" lon="5.62682">
        <ele>350</ele>
        <time>2017-09-03T15:15:54Z</time>
      </trkpt>
      <trkpt lat="45.76149" lon="5.62679">
        <ele>350</ele>
        <time>2017-09-03T15:15:54Z</time>
      </trkpt>
      <trkpt lat="45.76145" lon="5.62675">
        <ele>350</ele>
        <time>2017-09-03T15:15:54Z</time>
      </trkpt>
      <trkpt lat="45.76141" lon="5.62672">
        <ele>350</ele>
        <time>2017-09-03T15:15:54Z</time>
      </trkpt>
      <trkpt lat="45.76136" lon="5.62668">
        <ele>350</ele>
        <time>2017-09-03T15:16:10Z</time>
      </trkpt>
      <trkpt lat="45.76131" lon="5.62665">
        <ele>350</ele>
        <time>2017-09-03T15:16:10Z</time>
      </trkpt>
      <trkpt lat="45.76126" lon="5.6266">
        <ele>350</ele>
        <time>2017-09-03T15:16:10Z</time>
      </trkpt>
      <trkpt lat="45.76121" lon="5.62655">
        <ele>358</ele>
        <time>2017-09-03T15:16:10Z</time>
      </trkpt>
      <trkpt lat="45.76116" lon="5.6265">
        <ele>358</ele>
        <time>2017-09-03T15:16:26Z</time>
      </trkpt>
      <trkpt lat="45.76111" lon="5.62647">
        <ele>358</ele>
        <time>2017-09-03T15:16:26Z</time>
      </trkpt>
      <trkpt lat="45.76106" lon="5.62642">
        <ele>358</ele>
        <time>2017-09-03T15:16:26Z</time>
      </trkpt>
      <trkpt lat="45.761" lon="5.62639">
        <ele>358</ele>
        <time>2017-09-03T15:16:26Z</time>
      </trkpt>
      <trkpt lat="45.76096" lon="5.62635">
        <ele>358</ele>
        <time>2017-09-03T15:16:42Z</time>
      </trkpt>
      <trkpt lat="45.76089" lon="5.62631">
        <ele>358</ele>
        <time>2017-09-03T15:16:42Z</time>
      </trkpt>
      <trkpt lat="45.76086" lon="5.62624">
        <ele>351</ele>
        <time>2017-09-03T15:16:42Z</time>
      </trkpt>
      <trkpt lat="45.76083" lon="5.62617">
        <ele>351</ele>
        <time>2017-09-03T15:16:42Z</time>
      </trkpt>
      <trkpt lat="45.76082" lon="5.62613">
        <ele>351</ele>
        <time>2017-09-03T15:16:58Z</time>
      </trkpt>
      <trkpt lat="45.76079" lon="5.62606">
        <ele>351</ele>
        <time>2017-09-03T15:16:58Z</time>
      </trkpt>
      <trkpt lat="45.76076" lon="5.626">
        <ele>351</ele>
        <time>2017-09-03T15:16:58Z</time>
      </trkpt>
      <trkpt lat="45.76072" lon="5.62592">
        <ele>351</ele>
        <time>2017-09-03T15:16:58Z</time>
      </trkpt>
      <trkpt lat="45.76068" lon="5.62586">
        <ele>351</ele>
        <time>2017-09-03T15:17:14Z</time>
      </trkpt>
      <trkpt lat="45.76064" lon="5.62581">
        <ele>351</ele>
        <time>2017-09-03T15:17:14Z</time>
      </trkpt>
      <trkpt lat="45.76059" lon="5.62577">
        <ele>351</ele>
        <time>2017-09-03T15:17:14Z</time>
      </trkpt>
      <trkpt lat="45.76056" lon="5.62574">
        <ele>351</ele>
        <time>2017-09-03T15:17:14Z</time>
      </trkpt>
      <trkpt lat="45.76055" lon="5.62572">
        <ele>351</ele>
        <time>2017-09-03T15:17:30Z</time>
      </trkpt>
      <trkpt lat="45.76051" lon="5.62569">
        <ele>351</ele>
        <time>2017-09-03T15:17:30Z</time>
      </trkpt>
      <trkpt lat="45.76045" lon="5.62561">
        <ele>351</ele>
        <time>2017-09-03T15:17:30Z</time>
      </trkpt>
      <trkpt lat="45.76038" lon="5.62554">
        <ele>358</ele>
        <time>2017-09-03T15:17:30Z</time>
      </trkpt>
      <trkpt lat="45.76032" lon="5.62548">
        <ele>358</ele>
        <time>2017-09-03T15:17:46Z</time>
      </trkpt>
      <trkpt lat="45.76026" lon="5.62543">
        <ele>358</ele>
        <time>2017-09-03T15:17:46Z</time>
      </trkpt>
      <trkpt lat="45.7602" lon="5.62539">
        <ele>347</ele>
        <time>2017-09-03T15:17:46Z</time>
      </trkpt>
      <trkpt lat="45.76015" lon="5.62534">
        <ele>347</ele>
        <time>2017-09-03T15:17:46Z</time>
      </trkpt>
      <trkpt lat="45.76009" lon="5.62531">
        <ele>347</ele>
        <time>2017-09-03T15:18:02Z</time>
      </trkpt>
      <trkpt lat="45.75994" lon="5.62527">
        <ele>347</ele>
        <time>2017-09-03T15:18:02Z</time>
      </trkpt>
      <trkpt lat="45.75975" lon="5.62525">
        <ele>347</ele>
        <time>2017-09-03T15:18:02Z</time>
      </trkpt>
      <trkpt lat="45.75951" lon="5.62524">
        <ele>349</ele>
        <time>2017-09-03T15:18:02Z</time>
      </trkpt>
      <trkpt lat="45.75936" lon="5.62522">
        <ele>349</ele>
        <time>2017-09-03T15:18:18Z</time>
      </trkpt>
      <trkpt lat="45.7592" lon="5.62516">
        <ele>349</ele>
        <time>2017-09-03T15:18:18Z</time>
      </trkpt>
      <trkpt lat="45.75904" lon="5.62505">
        <ele>349</ele>
        <time>2017-09-03T15:18:18Z</time>
      </trkpt>
      <trkpt lat="45.75885" lon="5.62497">
        <ele>349</ele>
        <time>2017-09-03T15:18:18Z</time>
      </trkpt>
      <trkpt lat="45.75862" lon="5.6249">
        <ele>357</ele>
        <time>2017-09-03T15:18:34Z</time>
      </trkpt>
      <trkpt lat="45.75842" lon="5.62485">
        <ele>357</ele>
        <time>2017-09-03T15:18:34Z</time>
      </trkpt>
      <trkpt lat="45.75828" lon="5.62479">
        <ele>357</ele>
        <time>2017-09-03T15:18:34Z</time>
      </trkpt>
      <trkpt lat="45.75812" lon="5.62475">
        <ele>357</ele>
        <time>2017-09-03T15:18:34Z</time>
      </trkpt>
      <trkpt lat="45.75797" lon="5.62473">
        <ele>357</ele>
        <time>2017-09-03T15:18:50Z</time>
      </trkpt>
      <trkpt lat="45.75779" lon="5.62468">
        <ele>356</ele>
        <time>2017-09-03T15:18:50Z</time>
      </trkpt>
      <trkpt lat="45.75748" lon="5.62465">
        <ele>356</ele>
        <time>2017-09-03T15:18:50Z</time>
      </trkpt>
      <trkpt lat="45.7573" lon="5.62467">
        <ele>356</ele>
        <time>2017-09-03T15:18:50Z</time>
      </trkpt>
      <trkpt lat="45.75703" lon="5.62464">
        <ele>351</ele>
        <time>2017-09-03T15:19:06Z</time>
      </trkpt>
      <trkpt lat="45.75685" lon="5.62467">
        <ele>351</ele>
        <time>2017-09-03T15:19:06Z</time>
      </trkpt>
      <trkpt lat="45.75664" lon="5.62464">
        <ele>351</ele>
        <time>2017-09-03T15:19:06Z</time>
      </trkpt>
      <trkpt lat="45.75629" lon="5.62465">
        <ele>351</ele>
        <time>2017-09-03T15:19:06Z</time>
      </trkpt>
      <trkpt lat="45.75612" lon="5.62462">
        <ele>353</ele>
        <time>2017-09-03T15:19:22Z</time>
      </trkpt>
      <trkpt lat="45.7559" lon="5.62457">
        <ele>342</ele>
        <time>2017-09-03T15:19:22Z</time>
      </trkpt>
      <trkpt lat="45.75568" lon="5.62457">
        <ele>342</ele>
        <time>2017-09-03T15:19:22Z</time>
      </trkpt>
      <trkpt lat="45.75548" lon="5.62448">
        <ele>342</ele>
        <time>2017-09-03T15:19:22Z</time>
      </trkpt>
      <trkpt lat="45.75535" lon="5.62443">
        <ele>345</ele>
        <time>2017-09-03T15:19:38Z</time>
      </trkpt>
      <trkpt lat="45.7553" lon="5.62442">
        <ele>345</ele>
        <time>2017-09-03T15:19:38Z</time>
      </trkpt>
      <trkpt lat="45.75526" lon="5.62438">
        <ele>345</ele>
        <time>2017-09-03T15:19:38Z</time>
      </trkpt>
      <trkpt lat="45.75519" lon="5.62435">
        <ele>345</ele>
        <time>2017-09-03T15:19:38Z</time>
      </trkpt>
      <trkpt lat="45.75514" lon="5.62437">
        <ele>345</ele>
        <time>2017-09-03T15:19:54Z</time>
      </trkpt>
      <trkpt lat="45.75509" lon="5.62438">
        <ele>345</ele>
        <time>2017-09-03T15:19:54Z</time>
      </trkpt>
      <trkpt lat="45.75504" lon="5.62436">
        <ele>345</ele>
        <time>2017-09-03T15:19:54Z</time>
      </trkpt>
      <trkpt lat="45.75498" lon="5.62434">
        <ele>345</ele>
        <time>2017-09-03T15:19:54Z</time>
      </trkpt>
      <trkpt lat="45.75493" lon="5.62433">
        <ele>345</ele>
        <time>2017-09-03T15:20:10Z</time>
      </trkpt>
      <trkpt lat="45.75487" lon="5.62431">
        <ele>345</ele>
        <time>2017-09-03T15:20:10Z</time>
      </trkpt>
      <trkpt lat="45.75482" lon="5.62428">
        <ele>345</ele>
        <time>2017-09-03T15:20:10Z</time>
      </trkpt>
      <trkpt lat="45.75476" lon="5.62425">
        <ele>345</ele>
        <time>2017-09-03T15:20:10Z</time>
      </trkpt>
      <trkpt lat="45.7547" lon="5.62423">
        <ele>345</ele>
        <time>2017-09-03T15:20:26Z</time>
      </trkpt>
      <trkpt lat="45.75464" lon="5.62422">
        <ele>345</ele>
        <time>2017-09-03T15:20:26Z</time>
      </trkpt>
      <trkpt lat="45.75459" lon="5.62422">
        <ele>345</ele>
        <time>2017-09-03T15:20:26Z</time>
      </trkpt>
      <trkpt lat="45.75454" lon="5.62423">
        <ele>351</ele>
        <time>2017-09-03T15:20:26Z</time>
      </trkpt>
      <trkpt lat="45.75444" lon="5.62421">
        <ele>351</ele>
        <time>2017-09-03T15:20:42Z</time>
      </trkpt>
      <trkpt lat="45.75437" lon="5.62419">
        <ele>351</ele>
        <time>2017-09-03T15:20:42Z</time>
      </trkpt>
      <trkpt lat="45.75432" lon="5.62418">
        <ele>351</ele>
        <time>2017-09-03T15:20:42Z</time>
      </trkpt>
      <trkpt lat="45.75425" lon="5.62419">
        <ele>351</ele>
        <time>2017-09-03T15:20:42Z</time>
      </trkpt>
      <trkpt lat="45.75418" lon="5.62418">
        <ele>351</ele>
        <time>2017-09-03T15:20:58Z</time>
      </trkpt>
      <trkpt lat="45.75411" lon="5.62419">
        <ele>351</ele>
        <time>2017-09-03T15:20:58Z</time>
      </trkpt>
      <trkpt lat="45.75402" lon="5.62416">
        <ele>351</ele>
        <time>2017-09-03T15:20:58Z</time>
      </trkpt>
      <trkpt lat="45.75389" lon="5.62413">
        <ele>351</ele>
        <time>2017-09-03T15:20:58Z</time>
      </trkpt>
      <trkpt lat="45.75374" lon="5.62409">
        <ele>353</ele>
        <time>2017-09-03T15:21:14Z</time>
      </trkpt>
      <trkpt lat="45.75356" lon="5.62403">
        <ele>353</ele>
        <time>2017-09-03T15:21:14Z</time>
      </trkpt>
      <trkpt lat="45.75333" lon="5.62398">
        <ele>353</ele>
        <time>2017-09-03T15:21:14Z</time>
      </trkpt>
      <trkpt lat="45.75312" lon="5.62394">
        <ele>353</ele>
        <time>2017-09-03T15:21:14Z</time>
      </trkpt>
      <trkpt lat="45.75293" lon="5.62392">
        <ele>353</ele>
        <time>2017-09-03T15:21:30Z</time>
      </trkpt>
      <trkpt lat="45.75257" lon="5.6239">
        <ele>354</ele>
        <time>2017-09-03T15:21:30Z</time>
      </trkpt>
      <trkpt lat="45.75227" lon="5.62397">
        <ele>354</ele>
        <time>2017-09-03T15:21:30Z</time>
      </trkpt>
      <trkpt lat="45.75209" lon="5.62395">
        <ele>354</ele>
        <time>2017-09-03T15:21:30Z</time>
      </trkpt>
      <trkpt lat="45.75187" lon="5.62391">
        <ele>353</ele>
        <time>2017-09-03T15:21:46Z</time>
      </trkpt>
      <trkpt lat="45.75169" lon="5.62392">
        <ele>353</ele>
        <time>2017-09-03T15:21:46Z</time>
      </trkpt>
      <trkpt lat="45.75148" lon="5.62397">
        <ele>353</ele>
        <time>2017-09-03T15:21:46Z</time>
      </trkpt>
      <trkpt lat="45.75119" lon="5.62392">
        <ele>355</ele>
        <time>2017-09-03T15:21:46Z</time>
      </trkpt>
      <trkpt lat="45.75087" lon="5.62393">
        <ele>355</ele>
        <time>2017-09-03T15:22:02Z</time>
      </trkpt>
      <trkpt lat="45.75059" lon="5.62388">
        <ele>355</ele>
        <time>2017-09-03T15:22:02Z</time>
      </trkpt>
      <trkpt lat="45.75039" lon="5.62388">
        <ele>351</ele>
        <time>2017-09-03T15:22:02Z</time>
      </trkpt>
      <trkpt lat="45.75012" lon="5.62386">
        <ele>351</ele>
        <time>2017-09-03T15:22:02Z</time>
      </trkpt>
      <trkpt lat="45.74985" lon="5.62382">
        <ele>351</ele>
        <time>2017-09-03T15:22:18Z</time>
      </trkpt>
      <trkpt lat="45.74958" lon="5.62382">
        <ele>351</ele>
        <time>2017-09-03T15:22:18Z</time>
      </trkpt>
      <trkpt lat="45.74938" lon="5.62384">
        <ele>351</ele>
        <time>2017-09-03T15:22:18Z</time>
      </trkpt>
      <trkpt lat="45.74923" lon="5.62385">
        <ele>351</ele>
        <time>2017-09-03T15:22:18Z</time>
      </trkpt>
      <trkpt lat="45.74917" lon="5.6239">
        <ele>351</ele>
        <time>2017-09-03T15:22:34Z</time>
      </trkpt>
      <trkpt lat="45.7491" lon="5.62391">
        <ele>351</ele>
        <time>2017-09-03T15:22:34Z</time>
      </trkpt>
      <trkpt lat="45.749" lon="5.62394">
        <ele>351</ele>
        <time>2017-09-03T15:22:34Z</time>
      </trkpt>
      <trkpt lat="45.74896" lon="5.62395">
        <ele>351</ele>
        <time>2017-09-03T15:22:34Z</time>
      </trkpt>
      <trkpt lat="45.74894" lon="5.62396">
        <ele>351</ele>
        <time>2017-09-03T15:22:50Z</time>
      </trkpt>
      <trkpt lat="45.74891" lon="5.62396">
        <ele>351</ele>
        <time>2017-09-03T15:22:50Z</time>
      </trkpt>
      <trkpt lat="45.7489" lon="5.62395">
        <ele>351</ele>
        <time>2017-09-03T15:22:50Z</time>
      </trkpt>
      <trkpt lat="45.7488" lon="5.62391">
        <ele>351</ele>
        <time>2017-09-03T15:22:50Z</time>
      </trkpt>
      <trkpt lat="45.7487" lon="5.62387">
        <ele>354</ele>
        <time>2017-09-03T15:23:06Z</time>
      </trkpt>
      <trkpt lat="45.74862" lon="5.62386">
        <ele>354</ele>
        <time>2017-09-03T15:23:06Z</time>
      </trkpt>
      <trkpt lat="45.74855" lon="5.62389">
        <ele>354</ele>
        <time>2017-09-03T15:23:06Z</time>
      </trkpt>
      <trkpt lat="45.74848" lon="5.62387">
        <ele>354</ele>
        <time>2017-09-03T15:23:06Z</time>
      </trkpt>
      <trkpt lat="45.7484" lon="5.62385">
        <ele>354</ele>
        <time>2017-09-03T15:23:22Z</time>
      </trkpt>
      <trkpt lat="45.74832" lon="5.62382">
        <ele>354</ele>
        <time>2017-09-03T15:23:22Z</time>
      </trkpt>
      <trkpt lat="45.74826" lon="5.62383">
        <ele>354</ele>
        <time>2017-09-03T15:23:22Z</time>
      </trkpt>
      <trkpt lat="45.74819" lon="5.62384">
        <ele>354</ele>
        <time>2017-09-03T15:23:22Z</time>
      </trkpt>
      <trkpt lat="45.74812" lon="5.62386">
        <ele>354</ele>
        <time>2017-09-03T15:23:38Z</time>
      </trkpt>
      <trkpt lat="45.74806" lon="5.62386">
        <ele>354</ele>
        <time>2017-09-03T15:23:38Z</time>
      </trkpt>
      <trkpt lat="45.74799" lon="5.62387">
        <ele>354</ele>
        <time>2017-09-03T15:23:38Z</time>
      </trkpt>
      <trkpt lat="45.74794" lon="5.62385">
        <ele>354</ele>
        <time>2017-09-03T15:23:38Z</time>
      </trkpt>
      <trkpt lat="45.74788" lon="5.62381">
        <ele>359</ele>
        <time>2017-09-03T15:23:54Z</time>
      </trkpt>
      <trkpt lat="45.74783" lon="5.62381">
        <ele>359</ele>
        <time>2017-09-03T15:23:54Z</time>
      </trkpt>
      <trkpt lat="45.74778" lon="5.62379">
        <ele>359</ele>
        <time>2017-09-03T15:23:54Z</time>
      </trkpt>
      <trkpt lat="45.74767" lon="5.62378">
        <ele>359</ele>
        <time>2017-09-03T15:23:54Z</time>
      </trkpt>
      <trkpt lat="45.74749" lon="5.62375">
        <ele>334</ele>
        <time>2017-09-03T15:24:10Z</time>
      </trkpt>
      <trkpt lat="45.74732" lon="5.6237">
        <ele>334</ele>
        <time>2017-09-03T15:24:10Z</time>
      </trkpt>
      <trkpt lat="45.74715" lon="5.62369">
        <ele>334</ele>
        <time>2017-09-03T15:24:10Z</time>
      </trkpt>
      <trkpt lat="45.74698" lon="5.62367">
        <ele>333</ele>
        <time>2017-09-03T15:24:10Z</time>
      </trkpt>
      <trkpt lat="45.74673" lon="5.62367">
        <ele>333</ele>
        <time>2017-09-03T15:24:26Z</time>
      </trkpt>
      <trkpt lat="45.74649" lon="5.62369">
        <ele>333</ele>
        <time>2017-09-03T15:24:26Z</time>
      </trkpt>
      <trkpt lat="45.74627" lon="5.6237">
        <ele>333</ele>
        <time>2017-09-03T15:24:26Z</time>
      </trkpt>
      <trkpt lat="45.746" lon="5.62367">
        <ele>332</ele>
        <time>2017-09-03T15:24:26Z</time>
      </trkpt>
      <trkpt lat="45.74568" lon="5.62366">
        <ele>332</ele>
        <time>2017-09-03T15:24:42Z</time>
      </trkpt>
      <trkpt lat="45.74539" lon="5.62361">
        <ele>333</ele>
        <time>2017-09-03T15:24:42Z</time>
      </trkpt>
      <trkpt lat="45.74517" lon="5.62357">
        <ele>333</ele>
        <time>2017-09-03T15:24:42Z</time>
      </trkpt>
      <trkpt lat="45.74496" lon="5.6236">
        <ele>333</ele>
        <time>2017-09-03T15:24:42Z</time>
      </trkpt>
      <trkpt lat="45.74472" lon="5.62367">
        <ele>333</ele>
        <time>2017-09-03T15:24:58Z</time>
      </trkpt>
      <trkpt lat="45.74445" lon="5.62364">
        <ele>332</ele>
        <time>2017-09-03T15:24:58Z</time>
      </trkpt>
      <trkpt lat="45.74425" lon="5.62367">
        <ele>332</ele>
        <time>2017-09-03T15:24:58Z</time>
      </trkpt>
      <trkpt lat="45.74401" lon="5.62373">
        <ele>332</ele>
        <time>2017-09-03T15:24:58Z</time>
      </trkpt>
      <trkpt lat="45.74383" lon="5.62378">
        <ele>355</ele>
        <time>2017-09-03T15:25:14Z</time>
      </trkpt>
      <trkpt lat="45.74361" lon="5.62374">
        <ele>330</ele>
        <time>2017-09-03T15:25:14Z</time>
      </trkpt>
      <trkpt lat="45.74355" lon="5.6238">
        <ele>348</ele>
        <time>2017-09-03T15:25:14Z</time>
      </trkpt>
      <trkpt lat="45.74354" lon="5.62382">
        <ele>348</ele>
        <time>2017-09-03T15:25:14Z</time>
      </trkpt>
      <trkpt lat="45.74357" lon="5.62383">
        <ele>348</ele>
        <time>2017-09-03T15:25:34Z</time>
      </trkpt>
      <trkpt lat="45.74359" lon="5.62385">
        <ele>348</ele>
        <time>2017-09-03T15:25:34Z</time>
      </trkpt>
      <trkpt lat="45.74362" lon="5.62382">
        <ele>348</ele>
        <time>2017-09-03T15:25:34Z</time>
      </trkpt>
      <trkpt lat="45.74361" lon="5.62374">
        <ele>330</ele>
        <time>2017-09-03T15:25:34Z</time>
      </trkpt>
      <trkpt lat="45.74359" lon="5.62367">
        <ele>330</ele>
        <time>2017-09-03T15:25:34Z</time>
      </trkpt>
      <trkpt lat="45.74351" lon="5.6236">
        <ele>330</ele>
        <time>2017-09-03T15:25:50Z</time>
      </trkpt>
      <trkpt lat="45.74342" lon="5.62356">
        <ele>330</ele>
        <time>2017-09-03T15:25:50Z</time>
      </trkpt>
      <trkpt lat="45.74335" lon="5.62352">
        <ele>330</ele>
        <time>2017-09-03T15:25:50Z</time>
      </trkpt>
      <trkpt lat="45.74321" lon="5.62344">
        <ele>330</ele>
        <time>2017-09-03T15:25:50Z</time>
      </trkpt>
      <trkpt lat="45.743" lon="5.62329">
        <ele>330</ele>
        <time>2017-09-03T15:26:06Z</time>
      </trkpt>
      <trkpt lat="45.74276" lon="5.62325">
        <ele>331</ele>
        <time>2017-09-03T15:26:06Z</time>
      </trkpt>
      <trkpt lat="45.7426" lon="5.62325">
        <ele>331</ele>
        <time>2017-09-03T15:26:06Z</time>
      </trkpt>
      <trkpt lat="45.74238" lon="5.62329">
        <ele>331</ele>
        <time>2017-09-03T15:26:06Z</time>
      </trkpt>
      <trkpt lat="45.74215" lon="5.62333">
        <ele>331</ele>
        <time>2017-09-03T15:26:22Z</time>
      </trkpt>
      <trkpt lat="45.74201" lon="5.62336">
        <ele>328</ele>
        <time>2017-09-03T15:26:22Z</time>
      </trkpt>
      <trkpt lat="45.74189" lon="5.62342">
        <ele>328</ele>
        <time>2017-09-03T15:26:22Z</time>
      </trkpt>
      <trkpt lat="45.74184" lon="5.62348">
        <ele>328</ele>
        <time>2017-09-03T15:26:22Z</time>
      </trkpt>
      <trkpt lat="45.74182" lon="5.62352">
        <ele>328</ele>
        <time>2017-09-03T15:26:38Z</time>
      </trkpt>
      <trkpt lat="45.74177" lon="5.62355">
        <ele>328</ele>
        <time>2017-09-03T15:26:38Z</time>
      </trkpt>
      <trkpt lat="45.7417" lon="5.62355">
        <ele>328</ele>
        <time>2017-09-03T15:26:38Z</time>
      </trkpt>
      <trkpt lat="45.74165" lon="5.62357">
        <ele>328</ele>
        <time>2017-09-03T15:26:38Z</time>
      </trkpt>
      <trkpt lat="45.74157" lon="5.62356">
        <ele>328</ele>
        <time>2017-09-03T15:26:54Z</time>
      </trkpt>
      <trkpt lat="45.7415" lon="5.62353">
        <ele>328</ele>
        <time>2017-09-03T15:26:54Z</time>
      </trkpt>
      <trkpt lat="45.74143" lon="5.62352">
        <ele>328</ele>
        <time>2017-09-03T15:26:54Z</time>
      </trkpt>
      <trkpt lat="45.74138" lon="5.62352">
        <ele>328</ele>
        <time>2017-09-03T15:26:54Z</time>
      </trkpt>
      <trkpt lat="45.74133" lon="5.62352">
        <ele>328</ele>
        <time>2017-09-03T15:27:10Z</time>
      </trkpt>
      <trkpt lat="45.74127" lon="5.62353">
        <ele>328</ele>
        <time>2017-09-03T15:27:10Z</time>
      </trkpt>
      <trkpt lat="45.74121" lon="5.62353">
        <ele>327</ele>
        <time>2017-09-03T15:27:10Z</time>
      </trkpt>
      <trkpt lat="45.74116" lon="5.62354">
        <ele>327</ele>
        <time>2017-09-03T15:27:10Z</time>
      </trkpt>
      <trkpt lat="45.7411" lon="5.62353">
        <ele>327</ele>
        <time>2017-09-03T15:27:26Z</time>
      </trkpt>
      <trkpt lat="45.74104" lon="5.62352">
        <ele>327</ele>
        <time>2017-09-03T15:27:26Z</time>
      </trkpt>
      <trkpt lat="45.74094" lon="5.62348">
        <ele>327</ele>
        <time>2017-09-03T15:27:26Z</time>
      </trkpt>
      <trkpt lat="45.74085" lon="5.62344">
        <ele>327</ele>
        <time>2017-09-03T15:27:26Z</time>
      </trkpt>
      <trkpt lat="45.74071" lon="5.62338">
        <ele>327</ele>
        <time>2017-09-03T15:27:42Z</time>
      </trkpt>
      <trkpt lat="45.74048" lon="5.6232">
        <ele>327</ele>
        <time>2017-09-03T15:27:42Z</time>
      </trkpt>
      <trkpt lat="45.74028" lon="5.62307">
        <ele>326</ele>
        <time>2017-09-03T15:27:42Z</time>
      </trkpt>
      <trkpt lat="45.74011" lon="5.6229">
        <ele>326</ele>
        <time>2017-09-03T15:27:42Z</time>
      </trkpt>
      <trkpt lat="45.74012" lon="5.62261">
        <ele>326</ele>
        <time>2017-09-03T15:27:58Z</time>
      </trkpt>
      <trkpt lat="45.74011" lon="5.62237">
        <ele>326</ele>
        <time>2017-09-03T15:27:58Z</time>
      </trkpt>
      <trkpt lat="45.74013" lon="5.62228">
        <ele>326</ele>
        <time>2017-09-03T15:27:58Z</time>
      </trkpt>
      <trkpt lat="45.74015" lon="5.62221">
        <ele>326</ele>
        <time>2017-09-03T15:27:58Z</time>
      </trkpt>
      <trkpt lat="45.74016" lon="5.62215">
        <ele>326</ele>
        <time>2017-09-03T15:28:14Z</time>
      </trkpt>
      <trkpt lat="45.74014" lon="5.62206">
        <ele>328</ele>
        <time>2017-09-03T15:28:14Z</time>
      </trkpt>
      <trkpt lat="45.74014" lon="5.62197">
        <ele>328</ele>
        <time>2017-09-03T15:28:14Z</time>
      </trkpt>
      <trkpt lat="45.74014" lon="5.62189">
        <ele>328</ele>
        <time>2017-09-03T15:28:14Z</time>
      </trkpt>
      <trkpt lat="45.74014" lon="5.62183">
        <ele>328</ele>
        <time>2017-09-03T15:28:30Z</time>
      </trkpt>
      <trkpt lat="45.74008" lon="5.62181">
        <ele>328</ele>
        <time>2017-09-03T15:28:30Z</time>
      </trkpt>
      <trkpt lat="45.74002" lon="5.62183">
        <ele>328</ele>
        <time>2017-09-03T15:28:30Z</time>
      </trkpt>
      <trkpt lat="45.73996" lon="5.62184">
        <ele>328</ele>
        <time>2017-09-03T15:28:30Z</time>
      </trkpt>
      <trkpt lat="45.7399" lon="5.62184">
        <ele>328</ele>
        <time>2017-09-03T15:28:46Z</time>
      </trkpt>
      <trkpt lat="45.73984" lon="5.62184">
        <ele>328</ele>
        <time>2017-09-03T15:28:46Z</time>
      </trkpt>
      <trkpt lat="45.73978" lon="5.62184">
        <ele>328</ele>
        <time>2017-09-03T15:28:46Z</time>
      </trkpt>
      <trkpt lat="45.73972" lon="5.62184">
        <ele>328</ele>
        <time>2017-09-03T15:28:46Z</time>
      </trkpt>
      <trkpt lat="45.73967" lon="5.62185">
        <ele>328</ele>
        <time>2017-09-03T15:29:02Z</time>
      </trkpt>
      <trkpt lat="45.73962" lon="5.62184">
        <ele>328</ele>
        <time>2017-09-03T15:29:02Z</time>
      </trkpt>
      <trkpt lat="45.73956" lon="5.62184">
        <ele>326</ele>
        <time>2017-09-03T15:29:02Z</time>
      </trkpt>
      <trkpt lat="45.7395" lon="5.62185">
        <ele>326</ele>
        <time>2017-09-03T15:29:02Z</time>
      </trkpt>
      <trkpt lat="45.73944" lon="5.62187">
        <ele>326</ele>
        <time>2017-09-03T15:29:18Z</time>
      </trkpt>
      <trkpt lat="45.73938" lon="5.62187">
        <ele>326</ele>
        <time>2017-09-03T15:29:18Z</time>
      </trkpt>
      <trkpt lat="45.73933" lon="5.62187">
        <ele>326</ele>
        <time>2017-09-03T15:29:18Z</time>
      </trkpt>
      <trkpt lat="45.73928" lon="5.62186">
        <ele>326</ele>
        <time>2017-09-03T15:29:18Z</time>
      </trkpt>
      <trkpt lat="45.73922" lon="5.62186">
        <ele>326</ele>
        <time>2017-09-03T15:29:34Z</time>
      </trkpt>
      <trkpt lat="45.73917" lon="5.62186">
        <ele>326</ele>
        <time>2017-09-03T15:29:34Z</time>
      </trkpt>
      <trkpt lat="45.73911" lon="5.62185">
        <ele>326</ele>
        <time>2017-09-03T15:29:34Z</time>
      </trkpt>
      <trkpt lat="45.73904" lon="5.62185">
        <ele>326</ele>
        <time>2017-09-03T15:29:34Z</time>
      </trkpt>
      <trkpt lat="45.73899" lon="5.62183">
        <ele>326</ele>
        <time>2017-09-03T15:29:50Z</time>
      </trkpt>
      <trkpt lat="45.73893" lon="5.62182">
        <ele>326</ele>
        <time>2017-09-03T15:29:50Z</time>
      </trkpt>
      <trkpt lat="45.73887" lon="5.62181">
        <ele>326</ele>
        <time>2017-09-03T15:29:50Z</time>
      </trkpt>
      <trkpt lat="45.73881" lon="5.62181">
        <ele>326</ele>
        <time>2017-09-03T15:29:50Z</time>
      </trkpt>
      <trkpt lat="45.73873" lon="5.6218">
        <ele>325</ele>
        <time>2017-09-03T15:30:06Z</time>
      </trkpt>
      <trkpt lat="45.73864" lon="5.6218">
        <ele>325</ele>
        <time>2017-09-03T15:30:06Z</time>
      </trkpt>
      <trkpt lat="45.73856" lon="5.62178">
        <ele>325</ele>
        <time>2017-09-03T15:30:06Z</time>
      </trkpt>
      <trkpt lat="45.73848" lon="5.62177">
        <ele>325</ele>
        <time>2017-09-03T15:30:06Z</time>
      </trkpt>
      <trkpt lat="45.73843" lon="5.62175">
        <ele>325</ele>
        <time>2017-09-03T15:30:22Z</time>
      </trkpt>
      <trkpt lat="45.73837" lon="5.62173">
        <ele>325</ele>
        <time>2017-09-03T15:30:22Z</time>
      </trkpt>
      <trkpt lat="45.7383" lon="5.6217">
        <ele>325</ele>
        <time>2017-09-03T15:30:22Z</time>
      </trkpt>
      <trkpt lat="45.73824" lon="5.62167">
        <ele>325</ele>
        <time>2017-09-03T15:30:22Z</time>
      </trkpt>
      <trkpt lat="45.73817" lon="5.62164">
        <ele>325</ele>
        <time>2017-09-03T15:30:38Z</time>
      </trkpt>
      <trkpt lat="45.73811" lon="5.62162">
        <ele>325</ele>
        <time>2017-09-03T15:30:38Z</time>
      </trkpt>
      <trkpt lat="45.73806" lon="5.62162">
        <ele>325</ele>
        <time>2017-09-03T15:30:38Z</time>
      </trkpt>
      <trkpt lat="45.738" lon="5.62162">
        <ele>325</ele>
        <time>2017-09-03T15:30:38Z</time>
      </trkpt>
      <trkpt lat="45.73793" lon="5.62161">
        <ele>325</ele>
        <time>2017-09-03T15:30:54Z</time>
      </trkpt>
      <trkpt lat="45.73788" lon="5.62158">
        <ele>324</ele>
        <time>2017-09-03T15:30:54Z</time>
      </trkpt>
      <trkpt lat="45.73782" lon="5.62158">
        <ele>324</ele>
        <time>2017-09-03T15:30:54Z</time>
      </trkpt>
      <trkpt lat="45.73776" lon="5.62156">
        <ele>324</ele>
        <time>2017-09-03T15:30:54Z</time>
      </trkpt>
      <trkpt lat="45.7377" lon="5.62156">
        <ele>324</ele>
        <time>2017-09-03T15:31:10Z</time>
      </trkpt>
      <trkpt lat="45.73765" lon="5.62155">
        <ele>324</ele>
        <time>2017-09-03T15:31:10Z</time>
      </trkpt>
      <trkpt lat="45.73759" lon="5.62153">
        <ele>324</ele>
        <time>2017-09-03T15:31:10Z</time>
      </trkpt>
      <trkpt lat="45.73751" lon="5.62152">
        <ele>324</ele>
        <time>2017-09-03T15:31:10Z</time>
      </trkpt>
      <trkpt lat="45.7374" lon="5.62153">
        <ele>324</ele>
        <time>2017-09-03T15:31:26Z</time>
      </trkpt>
      <trkpt lat="45.73733" lon="5.62153">
        <ele>324</ele>
        <time>2017-09-03T15:31:26Z</time>
      </trkpt>
      <trkpt lat="45.73729" lon="5.62153">
        <ele>324</ele>
        <time>2017-09-03T15:31:26Z</time>
      </trkpt>
      <trkpt lat="45.73723" lon="5.62151">
        <ele>324</ele>
        <time>2017-09-03T15:31:26Z</time>
      </trkpt>
      <trkpt lat="45.73715" lon="5.6215">
        <ele>324</ele>
        <time>2017-09-03T15:31:42Z</time>
      </trkpt>
      <trkpt lat="45.73709" lon="5.62149">
        <ele>324</ele>
        <time>2017-09-03T15:31:42Z</time>
      </trkpt>
      <trkpt lat="45.73702" lon="5.62149">
        <ele>324</ele>
        <time>2017-09-03T15:31:42Z</time>
      </trkpt>
      <trkpt lat="45.73695" lon="5.62147">
        <ele>324</ele>
        <time>2017-09-03T15:31:42Z</time>
      </trkpt>
      <trkpt lat="45.73689" lon="5.62146">
        <ele>324</ele>
        <time>2017-09-03T15:31:58Z</time>
      </trkpt>
      <trkpt lat="45.73683" lon="5.62145">
        <ele>324</ele>
        <time>2017-09-03T15:31:58Z</time>
      </trkpt>
      <trkpt lat="45.73677" lon="5.62145">
        <ele>324</ele>
        <time>2017-09-03T15:31:58Z</time>
      </trkpt>
      <trkpt lat="45.73671" lon="5.62146">
        <ele>324</ele>
        <time>2017-09-03T15:31:58Z</time>
      </trkpt>
      <trkpt lat="45.73665" lon="5.62146">
        <ele>324</ele>
        <time>2017-09-03T15:32:14Z</time>
      </trkpt>
      <trkpt lat="45.73659" lon="5.62146">
        <ele>324</ele>
        <time>2017-09-03T15:32:14Z</time>
      </trkpt>
      <trkpt lat="45.73653" lon="5.62146">
        <ele>324</ele>
        <time>2017-09-03T15:32:14Z</time>
      </trkpt>
      <trkpt lat="45.73648" lon="5.62146">
        <ele>324</ele>
        <time>2017-09-03T15:32:14Z</time>
      </trkpt>
      <trkpt lat="45.73642" lon="5.62145">
        <ele>324</ele>
        <time>2017-09-03T15:32:30Z</time>
      </trkpt>
      <trkpt lat="45.73638" lon="5.62146">
        <ele>324</ele>
        <time>2017-09-03T15:32:30Z</time>
      </trkpt>
      <trkpt lat="45.73633" lon="5.62147">
        <ele>324</ele>
        <time>2017-09-03T15:32:30Z</time>
      </trkpt>
      <trkpt lat="45.73626" lon="5.62147">
        <ele>324</ele>
        <time>2017-09-03T15:32:30Z</time>
      </trkpt>
      <trkpt lat="45.73619" lon="5.62147">
        <ele>326</ele>
        <time>2017-09-03T15:32:46Z</time>
      </trkpt>
      <trkpt lat="45.73613" lon="5.62145">
        <ele>326</ele>
        <time>2017-09-03T15:32:46Z</time>
      </trkpt>
      <trkpt lat="45.73606" lon="5.62144">
        <ele>326</ele>
        <time>2017-09-03T15:32:46Z</time>
      </trkpt>
      <trkpt lat="45.73595" lon="5.62144">
        <ele>326</ele>
        <time>2017-09-03T15:32:46Z</time>
      </trkpt>
      <trkpt lat="45.73589" lon="5.62143">
        <ele>326</ele>
        <time>2017-09-03T15:33:02Z</time>
      </trkpt>
      <trkpt lat="45.73583" lon="5.62142">
        <ele>326</ele>
        <time>2017-09-03T15:33:02Z</time>
      </trkpt>
      <trkpt lat="45.73577" lon="5.62143">
        <ele>326</ele>
        <time>2017-09-03T15:33:02Z</time>
      </trkpt>
      <trkpt lat="45.7357" lon="5.62143">
        <ele>326</ele>
        <time>2017-09-03T15:33:02Z</time>
      </trkpt>
      <trkpt lat="45.73564" lon="5.62142">
        <ele>326</ele>
        <time>2017-09-03T15:33:18Z</time>
      </trkpt>
      <trkpt lat="45.73558" lon="5.62139">
        <ele>326</ele>
        <time>2017-09-03T15:33:18Z</time>
      </trkpt>
      <trkpt lat="45.73553" lon="5.6214">
        <ele>326</ele>
        <time>2017-09-03T15:33:18Z</time>
      </trkpt>
      <trkpt lat="45.73547" lon="5.62137">
        <ele>326</ele>
        <time>2017-09-03T15:33:18Z</time>
      </trkpt>
      <trkpt lat="45.73542" lon="5.62135">
        <ele>326</ele>
        <time>2017-09-03T15:33:34Z</time>
      </trkpt>
      <trkpt lat="45.73537" lon="5.62133">
        <ele>326</ele>
        <time>2017-09-03T15:33:34Z</time>
      </trkpt>
      <trkpt lat="45.73532" lon="5.62133">
        <ele>326</ele>
        <time>2017-09-03T15:33:34Z</time>
      </trkpt>
      <trkpt lat="45.73526" lon="5.62134">
        <ele>326</ele>
        <time>2017-09-03T15:33:34Z</time>
      </trkpt>
      <trkpt lat="45.73521" lon="5.62135">
        <ele>326</ele>
        <time>2017-09-03T15:33:50Z</time>
      </trkpt>
      <trkpt lat="45.73515" lon="5.62134">
        <ele>326</ele>
        <time>2017-09-03T15:33:50Z</time>
      </trkpt>
      <trkpt lat="45.73506" lon="5.62134">
        <ele>326</ele>
        <time>2017-09-03T15:33:50Z</time>
      </trkpt>
      <trkpt lat="45.73501" lon="5.62133">
        <ele>326</ele>
        <time>2017-09-03T15:33:50Z</time>
      </trkpt>
      <trkpt lat="45.73494" lon="5.62133">
        <ele>326</ele>
        <time>2017-09-03T15:34:06Z</time>
      </trkpt>
      <trkpt lat="45.73488" lon="5.62134">
        <ele>326</ele>
        <time>2017-09-03T15:34:06Z</time>
      </trkpt>
      <trkpt lat="45.73482" lon="5.62134">
        <ele>326</ele>
        <time>2017-09-03T15:34:06Z</time>
      </trkpt>
      <trkpt lat="45.73476" lon="5.62135">
        <ele>326</ele>
        <time>2017-09-03T15:34:06Z</time>
      </trkpt>
      <trkpt lat="45.73469" lon="5.62136">
        <ele>326</ele>
        <time>2017-09-03T15:34:22Z</time>
      </trkpt>
      <trkpt lat="45.73463" lon="5.62136">
        <ele>326</ele>
        <time>2017-09-03T15:34:22Z</time>
      </trkpt>
      <trkpt lat="45.73459" lon="5.62132">
        <ele>326</ele>
        <time>2017-09-03T15:34:22Z</time>
      </trkpt>
      <trkpt lat="45.73454" lon="5.6213">
        <ele>327</ele>
        <time>2017-09-03T15:34:22Z</time>
      </trkpt>
      <trkpt lat="45.73447" lon="5.62128">
        <ele>327</ele>
        <time>2017-09-03T15:34:38Z</time>
      </trkpt>
      <trkpt lat="45.73441" lon="5.62127">
        <ele>327</ele>
        <time>2017-09-03T15:34:38Z</time>
      </trkpt>
      <trkpt lat="45.73435" lon="5.62126">
        <ele>327</ele>
        <time>2017-09-03T15:34:38Z</time>
      </trkpt>
      <trkpt lat="45.7343" lon="5.62125">
        <ele>332</ele>
        <time>2017-09-03T15:34:38Z</time>
      </trkpt>
      <trkpt lat="45.73423" lon="5.62123">
        <ele>332</ele>
        <time>2017-09-03T15:34:54Z</time>
      </trkpt>
      <trkpt lat="45.73417" lon="5.62121">
        <ele>332</ele>
        <time>2017-09-03T15:34:54Z</time>
      </trkpt>
      <trkpt lat="45.73411" lon="5.6212">
        <ele>332</ele>
        <time>2017-09-03T15:34:54Z</time>
      </trkpt>
      <trkpt lat="45.73403" lon="5.62119">
        <ele>332</ele>
        <time>2017-09-03T15:34:54Z</time>
      </trkpt>
      <trkpt lat="45.73396" lon="5.62119">
        <ele>332</ele>
        <time>2017-09-03T15:35:10Z</time>
      </trkpt>
      <trkpt lat="45.7339" lon="5.62119">
        <ele>332</ele>
        <time>2017-09-03T15:35:10Z</time>
      </trkpt>
      <trkpt lat="45.73383" lon="5.62119">
        <ele>332</ele>
        <time>2017-09-03T15:35:10Z</time>
      </trkpt>
      <trkpt lat="45.73378" lon="5.62117">
        <ele>332</ele>
        <time>2017-09-03T15:35:10Z</time>
      </trkpt>
      <trkpt lat="45.73372" lon="5.62117">
        <ele>330</ele>
        <time>2017-09-03T15:35:26Z</time>
      </trkpt>
      <trkpt lat="45.73365" lon="5.62116">
        <ele>330</ele>
        <time>2017-09-03T15:35:26Z</time>
      </trkpt>
      <trkpt lat="45.7336" lon="5.62116">
        <ele>330</ele>
        <time>2017-09-03T15:35:26Z</time>
      </trkpt>
      <trkpt lat="45.73356" lon="5.62115">
        <ele>330</ele>
        <time>2017-09-03T15:35:26Z</time>
      </trkpt>
      <trkpt lat="45.73351" lon="5.62114">
        <ele>330</ele>
        <time>2017-09-03T15:35:42Z</time>
      </trkpt>
      <trkpt lat="45.73346" lon="5.62115">
        <ele>330</ele>
        <time>2017-09-03T15:35:42Z</time>
      </trkpt>
      <trkpt lat="45.7334" lon="5.62118">
        <ele>330</ele>
        <time>2017-09-03T15:35:42Z</time>
      </trkpt>
      <trkpt lat="45.73335" lon="5.62119">
        <ele>330</ele>
        <time>2017-09-03T15:35:42Z</time>
      </trkpt>
      <trkpt lat="45.7333" lon="5.62123">
        <ele>330</ele>
        <time>2017-09-03T15:35:58Z</time>
      </trkpt>
      <trkpt lat="45.73325" lon="5.62127">
        <ele>324</ele>
        <time>2017-09-03T15:35:58Z</time>
      </trkpt>
      <trkpt lat="45.73319" lon="5.6213">
        <ele>324</ele>
        <time>2017-09-03T15:35:58Z</time>
      </trkpt>
      <trkpt lat="45.73314" lon="5.62135">
        <ele>324</ele>
        <time>2017-09-03T15:35:58Z</time>
      </trkpt>
      <trkpt lat="45.73311" lon="5.62139">
        <ele>324</ele>
        <time>2017-09-03T15:36:14Z</time>
      </trkpt>
      <trkpt lat="45.7331" lon="5.62143">
        <ele>324</ele>
        <time>2017-09-03T15:36:14Z</time>
      </trkpt>
      <trkpt lat="45.73308" lon="5.62149">
        <ele>324</ele>
        <time>2017-09-03T15:36:14Z</time>
      </trkpt>
      <trkpt lat="45.73307" lon="5.62155">
        <ele>324</ele>
        <time>2017-09-03T15:36:14Z</time>
      </trkpt>
      <trkpt lat="45.73305" lon="5.62163">
        <ele>324</ele>
        <time>2017-09-03T15:36:30Z</time>
      </trkpt>
      <trkpt lat="45.73307" lon="5.62171">
        <ele>324</ele>
        <time>2017-09-03T15:36:30Z</time>
      </trkpt>
      <trkpt lat="45.73308" lon="5.62179">
        <ele>324</ele>
        <time>2017-09-03T15:36:30Z</time>
      </trkpt>
      <trkpt lat="45.73308" lon="5.62185">
        <ele>324</ele>
        <time>2017-09-03T15:36:30Z</time>
      </trkpt>
      <trkpt lat="45.73309" lon="5.62194">
        <ele>324</ele>
        <time>2017-09-03T15:36:46Z</time>
      </trkpt>
      <trkpt lat="45.7331" lon="5.62203">
        <ele>324</ele>
        <time>2017-09-03T15:36:46Z</time>
      </trkpt>
      <trkpt lat="45.73311" lon="5.6221">
        <ele>324</ele>
        <time>2017-09-03T15:36:46Z</time>
      </trkpt>
      <trkpt lat="45.73311" lon="5.62218">
        <ele>324</ele>
        <time>2017-09-03T15:36:46Z</time>
      </trkpt>
      <trkpt lat="45.73312" lon="5.62225">
        <ele>324</ele>
        <time>2017-09-03T15:37:02Z</time>
      </trkpt>
      <trkpt lat="45.73312" lon="5.62234">
        <ele>324</ele>
        <time>2017-09-03T15:37:02Z</time>
      </trkpt>
      <trkpt lat="45.73313" lon="5.62243">
        <ele>324</ele>
        <time>2017-09-03T15:37:02Z</time>
      </trkpt>
      <trkpt lat="45.73312" lon="5.62252">
        <ele>324</ele>
        <time>2017-09-03T15:37:02Z</time>
      </trkpt>
      <trkpt lat="45.73313" lon="5.62258">
        <ele>324</ele>
        <time>2017-09-03T15:37:18Z</time>
      </trkpt>
      <trkpt lat="45.73314" lon="5.62265">
        <ele>324</ele>
        <time>2017-09-03T15:37:18Z</time>
      </trkpt>
      <trkpt lat="45.73314" lon="5.62272">
        <ele>324</ele>
        <time>2017-09-03T15:37:18Z</time>
      </trkpt>
      <trkpt lat="45.73316" lon="5.62279">
        <ele>324</ele>
        <time>2017-09-03T15:37:18Z</time>
      </trkpt>
      <trkpt lat="45.73317" lon="5.62286">
        <ele>324</ele>
        <time>2017-09-03T15:37:34Z</time>
      </trkpt>
      <trkpt lat="45.73317" lon="5.62293">
        <ele>324</ele>
        <time>2017-09-03T15:37:34Z</time>
      </trkpt>
      <trkpt lat="45.73316" lon="5.62301">
        <ele>324</ele>
        <time>2017-09-03T15:37:34Z</time>
      </trkpt>
      <trkpt lat="45.73316" lon="5.62309">
        <ele>324</ele>
        <time>2017-09-03T15:37:34Z</time>
      </trkpt>
      <trkpt lat="45.73316" lon="5.62316">
        <ele>324</ele>
        <time>2017-09-03T15:37:50Z</time>
      </trkpt>
      <trkpt lat="45.73317" lon="5.62324">
        <ele>324</ele>
        <time>2017-09-03T15:37:50Z</time>
      </trkpt>
      <trkpt lat="45.73318" lon="5.62333">
        <ele>324</ele>
        <time>2017-09-03T15:37:50Z</time>
      </trkpt>
      <trkpt lat="45.7332" lon="5.62341">
        <ele>324</ele>
        <time>2017-09-03T15:37:50Z</time>
      </trkpt>
      <trkpt lat="45.73321" lon="5.62349">
        <ele>324</ele>
        <time>2017-09-03T15:38:06Z</time>
      </trkpt>
      <trkpt lat="45.73322" lon="5.62357">
        <ele>324</ele>
        <time>2017-09-03T15:38:06Z</time>
      </trkpt>
      <trkpt lat="45.73323" lon="5.62365">
        <ele>324</ele>
        <time>2017-09-03T15:38:06Z</time>
      </trkpt>
      <trkpt lat="45.73323" lon="5.62374">
        <ele>324</ele>
        <time>2017-09-03T15:38:06Z</time>
      </trkpt>
      <trkpt lat="45.73324" lon="5.62381">
        <ele>324</ele>
        <time>2017-09-03T15:38:22Z</time>
      </trkpt>
      <trkpt lat="45.73324" lon="5.6239">
        <ele>324</ele>
        <time>2017-09-03T15:38:22Z</time>
      </trkpt>
      <trkpt lat="45.73325" lon="5.62398">
        <ele>324</ele>
        <time>2017-09-03T15:38:22Z</time>
      </trkpt>
      <trkpt lat="45.73325" lon="5.624">
        <ele>324</ele>
        <time>2017-09-03T15:38:22Z</time>
      </trkpt>
      <trkpt lat="45.73325" lon="5.62401">
        <ele>324</ele>
        <time>2017-09-03T15:38:38Z</time>
      </trkpt>
      <trkpt lat="45.73325" lon="5.62406">
        <ele>324</ele>
        <time>2017-09-03T15:38:38Z</time>
      </trkpt>
      <trkpt lat="45.73326" lon="5.62415">
        <ele>324</ele>
        <time>2017-09-03T15:38:38Z</time>
      </trkpt>
      <trkpt lat="45.73326" lon="5.62423">
        <ele>324</ele>
        <time>2017-09-03T15:38:38Z</time>
      </trkpt>
      <trkpt lat="45.73326" lon="5.62432">
        <ele>324</ele>
        <time>2017-09-03T15:38:54Z</time>
      </trkpt>
      <trkpt lat="45.73327" lon="5.62441">
        <ele>324</ele>
        <time>2017-09-03T15:38:54Z</time>
      </trkpt>
      <trkpt lat="45.73328" lon="5.62449">
        <ele>324</ele>
        <time>2017-09-03T15:38:54Z</time>
      </trkpt>
      <trkpt lat="45.73329" lon="5.62458">
        <ele>324</ele>
        <time>2017-09-03T15:38:54Z</time>
      </trkpt>
      <trkpt lat="45.73331" lon="5.62466">
        <ele>325</ele>
        <time>2017-09-03T15:39:10Z</time>
      </trkpt>
      <trkpt lat="45.73332" lon="5.62474">
        <ele>325</ele>
        <time>2017-09-03T15:39:10Z</time>
      </trkpt>
      <trkpt lat="45.73332" lon="5.62481">
        <ele>325</ele>
        <time>2017-09-03T15:39:10Z</time>
      </trkpt>
      <trkpt lat="45.73334" lon="5.62489">
        <ele>325</ele>
        <time>2017-09-03T15:39:10Z</time>
      </trkpt>
      <trkpt lat="45.73335" lon="5.62498">
        <ele>325</ele>
        <time>2017-09-03T15:39:26Z</time>
      </trkpt>
      <trkpt lat="45.73335" lon="5.62506">
        <ele>325</ele>
        <time>2017-09-03T15:39:26Z</time>
      </trkpt>
      <trkpt lat="45.73336" lon="5.62514">
        <ele>325</ele>
        <time>2017-09-03T15:39:26Z</time>
      </trkpt>
      <trkpt lat="45.73337" lon="5.62517">
        <ele>325</ele>
        <time>2017-09-03T15:39:26Z</time>
      </trkpt>
      <trkpt lat="45.73336" lon="5.62525">
        <ele>325</ele>
        <time>2017-09-03T15:39:42Z</time>
      </trkpt>
      <trkpt lat="45.73335" lon="5.62532">
        <ele>325</ele>
        <time>2017-09-03T15:39:42Z</time>
      </trkpt>
      <trkpt lat="45.73337" lon="5.6254">
        <ele>325</ele>
        <time>2017-09-03T15:39:42Z</time>
      </trkpt>
      <trkpt lat="45.73339" lon="5.62546">
        <ele>336</ele>
        <time>2017-09-03T15:39:42Z</time>
      </trkpt>
      <trkpt lat="45.73341" lon="5.6255">
        <ele>336</ele>
        <time>2017-09-03T15:39:58Z</time>
      </trkpt>
      <trkpt lat="45.73346" lon="5.62554">
        <ele>336</ele>
        <time>2017-09-03T15:39:58Z</time>
      </trkpt>
      <trkpt lat="45.73351" lon="5.62556">
        <ele>336</ele>
        <time>2017-09-03T15:39:58Z</time>
      </trkpt>
      <trkpt lat="45.73356" lon="5.62555">
        <ele>336</ele>
        <time>2017-09-03T15:39:58Z</time>
      </trkpt>
      <trkpt lat="45.7336" lon="5.62553">
        <ele>336</ele>
        <time>2017-09-03T15:40:14Z</time>
      </trkpt>
      <trkpt lat="45.73365" lon="5.62551">
        <ele>336</ele>
        <time>2017-09-03T15:40:14Z</time>
      </trkpt>
      <trkpt lat="45.73371" lon="5.62553">
        <ele>336</ele>
        <time>2017-09-03T15:40:14Z</time>
      </trkpt>
      <trkpt lat="45.73377" lon="5.62551">
        <ele>337</ele>
        <time>2017-09-03T15:40:14Z</time>
      </trkpt>
      <trkpt lat="45.7338" lon="5.6255">
        <ele>337</ele>
        <time>2017-09-03T15:40:30Z</time>
      </trkpt>
      <trkpt lat="45.73384" lon="5.62548">
        <ele>337</ele>
        <time>2017-09-03T15:40:30Z</time>
      </trkpt>
      <trkpt lat="45.73386" lon="5.62547">
        <ele>337</ele>
        <time>2017-09-03T15:40:30Z</time>
      </trkpt>
      <trkpt lat="45.73394" lon="5.62546">
        <ele>337</ele>
        <time>2017-09-03T15:40:30Z</time>
      </trkpt>
      <trkpt lat="45.734" lon="5.62544">
        <ele>337</ele>
        <time>2017-09-03T15:40:46Z</time>
      </trkpt>
      <trkpt lat="45.73408" lon="5.62547">
        <ele>337</ele>
        <time>2017-09-03T15:40:46Z</time>
      </trkpt>
      <trkpt lat="45.73415" lon="5.62549">
        <ele>337</ele>
        <time>2017-09-03T15:40:46Z</time>
      </trkpt>
      <trkpt lat="45.73421" lon="5.62548">
        <ele>337</ele>
        <time>2017-09-03T15:40:46Z</time>
      </trkpt>
      <trkpt lat="45.73426" lon="5.62547">
        <ele>337</ele>
        <time>2017-09-03T15:41:02Z</time>
      </trkpt>
      <trkpt lat="45.73431" lon="5.62548">
        <ele>337</ele>
        <time>2017-09-03T15:41:02Z</time>
      </trkpt>
      <trkpt lat="45.73437" lon="5.62549">
        <ele>337</ele>
        <time>2017-09-03T15:41:02Z</time>
      </trkpt>
      <trkpt lat="45.73441" lon="5.62549">
        <ele>337</ele>
        <time>2017-09-03T15:41:02Z</time>
      </trkpt>
      <trkpt lat="45.73446" lon="5.6255">
        <ele>337</ele>
        <time>2017-09-03T15:41:18Z</time>
      </trkpt>
      <trkpt lat="45.73452" lon="5.6255">
        <ele>337</ele>
        <time>2017-09-03T15:41:18Z</time>
      </trkpt>
      <trkpt lat="45.73459" lon="5.62552">
        <ele>337</ele>
        <time>2017-09-03T15:41:18Z</time>
      </trkpt>
      <trkpt lat="45.73466" lon="5.62554">
        <ele>337</ele>
        <time>2017-09-03T15:41:18Z</time>
      </trkpt>
      <trkpt lat="45.73471" lon="5.62555">
        <ele>337</ele>
        <time>2017-09-03T15:41:34Z</time>
      </trkpt>
      <trkpt lat="45.73475" lon="5.62554">
        <ele>337</ele>
        <time>2017-09-03T15:41:34Z</time>
      </trkpt>
      <trkpt lat="45.73479" lon="5.62557">
        <ele>337</ele>
        <time>2017-09-03T15:41:34Z</time>
      </trkpt>
      <trkpt lat="45.73484" lon="5.6256">
        <ele>337</ele>
        <time>2017-09-03T15:41:34Z</time>
      </trkpt>
      <trkpt lat="45.73489" lon="5.62563">
        <ele>337</ele>
        <time>2017-09-03T15:41:50Z</time>
      </trkpt>
      <trkpt lat="45.73495" lon="5.62567">
        <ele>337</ele>
        <time>2017-09-03T15:41:50Z</time>
      </trkpt>
      <trkpt lat="45.735" lon="5.62573">
        <ele>337</ele>
        <time>2017-09-03T15:41:50Z</time>
      </trkpt>
      <trkpt lat="45.73506" lon="5.62578">
        <ele>337</ele>
        <time>2017-09-03T15:41:50Z</time>
      </trkpt>
      <trkpt lat="45.73511" lon="5.62585">
        <ele>337</ele>
        <time>2017-09-03T15:44:30Z</time>
      </trkpt>
      <trkpt lat="45.73513" lon="5.62587">
        <ele>337</ele>
        <time>2017-09-03T15:44:30Z</time>
      </trkpt>
      <trkpt lat="45.73517" lon="5.62591">
        <ele>337</ele>
        <time>2017-09-03T15:44:30Z</time>
      </trkpt>
      <trkpt lat="45.73519" lon="5.62597">
        <ele>337</ele>
        <time>2017-09-03T15:44:30Z</time>
      </trkpt>
      <trkpt lat="45.73522" lon="5.62603">
        <ele>337</ele>
        <time>2017-09-03T15:44:30Z</time>
      </trkpt>
      <trkpt lat="45.73523" lon="5.62607">
        <ele>337</ele>
        <time>2017-09-03T15:44:46Z</time>
      </trkpt>
      <trkpt lat="45.73525" lon="5.62618">
        <ele>337</ele>
        <time>2017-09-03T15:44:46Z</time>
      </trkpt>
      <trkpt lat="45.73527" lon="5.62625">
        <ele>337</ele>
        <time>2017-09-03T15:44:46Z</time>
      </trkpt>
      <trkpt lat="45.73528" lon="5.62633">
        <ele>348</ele>
        <time>2017-09-03T15:44:46Z</time>
      </trkpt>
      <trkpt lat="45.73529" lon="5.6264">
        <ele>348</ele>
        <time>2017-09-03T15:45:02Z</time>
      </trkpt>
      <trkpt lat="45.7353" lon="5.62646">
        <ele>348</ele>
        <time>2017-09-03T15:45:02Z</time>
      </trkpt>
      <trkpt lat="45.73531" lon="5.62654">
        <ele>348</ele>
        <time>2017-09-03T15:45:02Z</time>
      </trkpt>
      <trkpt lat="45.73531" lon="5.62661">
        <ele>348</ele>
        <time>2017-09-03T15:45:02Z</time>
      </trkpt>
      <trkpt lat="45.7353" lon="5.62673">
        <ele>348</ele>
        <time>2017-09-03T15:46:50Z</time>
      </trkpt>
      <trkpt lat="45.73529" lon="5.62676">
        <ele>348</ele>
        <time>2017-09-03T15:46:50Z</time>
      </trkpt>
      <trkpt lat="45.73529" lon="5.62681">
        <ele>348</ele>
        <time>2017-09-03T15:46:50Z</time>
      </trkpt>
      <trkpt lat="45.73528" lon="5.62689">
        <ele>348</ele>
        <time>2017-09-03T15:46:50Z</time>
      </trkpt>
      <trkpt lat="45.73529" lon="5.62697">
        <ele>348</ele>
        <time>2017-09-03T15:46:50Z</time>
      </trkpt>
      <trkpt lat="45.73528" lon="5.62708">
        <ele>350</ele>
        <time>2017-09-03T15:52:18Z</time>
      </trkpt>
      <trkpt lat="45.73528" lon="5.62708">
        <ele>350</ele>
        <time>2017-09-03T15:52:18Z</time>
      </trkpt>
      <trkpt lat="45.73528" lon="5.62709">
        <ele>350</ele>
        <time>2017-09-03T15:52:18Z</time>
      </trkpt>
      <trkpt lat="45.73529" lon="5.62713">
        <ele>350</ele>
        <time>2017-09-03T15:52:18Z</time>
      </trkpt>
      <trkpt lat="45.73531" lon="5.62717">
        <ele>350</ele>
        <time>2017-09-03T15:52:18Z</time>
      </trkpt>
      <trkpt lat="45.73534" lon="5.62723">
        <ele>350</ele>
        <time>2017-09-03T15:52:34Z</time>
      </trkpt>
      <trkpt lat="45.73538" lon="5.62727">
        <ele>350</ele>
        <time>2017-09-03T15:52:34Z</time>
      </trkpt>
      <trkpt lat="45.73541" lon="5.6273">
        <ele>350</ele>
        <time>2017-09-03T15:52:34Z</time>
      </trkpt>
      <trkpt lat="45.73546" lon="5.6273">
        <ele>354</ele>
        <time>2017-09-03T15:52:34Z</time>
      </trkpt>
      <trkpt lat="45.7355" lon="5.62729">
        <ele>354</ele>
        <time>2017-09-03T15:52:50Z</time>
      </trkpt>
      <trkpt lat="45.73554" lon="5.62729">
        <ele>354</ele>
        <time>2017-09-03T15:52:50Z</time>
      </trkpt>
      <trkpt lat="45.7356" lon="5.6273">
        <ele>354</ele>
        <time>2017-09-03T15:52:50Z</time>
      </trkpt>
      <trkpt lat="45.73565" lon="5.6273">
        <ele>354</ele>
        <time>2017-09-03T15:52:50Z</time>
      </trkpt>
      <trkpt lat="45.73571" lon="5.62732">
        <ele>354</ele>
        <time>2017-09-03T15:53:06Z</time>
      </trkpt>
      <trkpt lat="45.73576" lon="5.62735">
        <ele>354</ele>
        <time>2017-09-03T15:53:06Z</time>
      </trkpt>
      <trkpt lat="45.7358" lon="5.62739">
        <ele>354</ele>
        <time>2017-09-03T15:53:06Z</time>
      </trkpt>
      <trkpt lat="45.73583" lon="5.62742">
        <ele>354</ele>
        <time>2017-09-03T15:53:06Z</time>
      </trkpt>
      <trkpt lat="45.73587" lon="5.62745">
        <ele>354</ele>
        <time>2017-09-03T15:53:22Z</time>
      </trkpt>
      <trkpt lat="45.7359" lon="5.6275">
        <ele>354</ele>
        <time>2017-09-03T15:53:22Z</time>
      </trkpt>
      <trkpt lat="45.73593" lon="5.62755">
        <ele>354</ele>
        <time>2017-09-03T15:53:22Z</time>
      </trkpt>
      <trkpt lat="45.73597" lon="5.62757">
        <ele>354</ele>
        <time>2017-09-03T15:53:22Z</time>
      </trkpt>
      <trkpt lat="45.73601" lon="5.6276">
        <ele>354</ele>
        <time>2017-09-03T15:53:38Z</time>
      </trkpt>
      <trkpt lat="45.73605" lon="5.62762">
        <ele>354</ele>
        <time>2017-09-03T15:53:38Z</time>
      </trkpt>
      <trkpt lat="45.73609" lon="5.62765">
        <ele>354</ele>
        <time>2017-09-03T15:53:38Z</time>
      </trkpt>
      <trkpt lat="45.73613" lon="5.62768">
        <ele>354</ele>
        <time>2017-09-03T15:53:38Z</time>
      </trkpt>
      <trkpt lat="45.73618" lon="5.62772">
        <ele>354</ele>
        <time>2017-09-03T15:53:54Z</time>
      </trkpt>
      <trkpt lat="45.73622" lon="5.62777">
        <ele>354</ele>
        <time>2017-09-03T15:53:54Z</time>
      </trkpt>
      <trkpt lat="45.73627" lon="5.62781">
        <ele>360</ele>
        <time>2017-09-03T15:53:54Z</time>
      </trkpt>
      <trkpt lat="45.7363" lon="5.62786">
        <ele>360</ele>
        <time>2017-09-03T15:53:54Z</time>
      </trkpt>
      <trkpt lat="45.73636" lon="5.6279">
        <ele>360</ele>
        <time>2017-09-03T15:54:10Z</time>
      </trkpt>
      <trkpt lat="45.7364" lon="5.62795">
        <ele>361</ele>
        <time>2017-09-03T15:54:10Z</time>
      </trkpt>
      <trkpt lat="45.73643" lon="5.62802">
        <ele>361</ele>
        <time>2017-09-03T15:54:10Z</time>
      </trkpt>
      <trkpt lat="45.73645" lon="5.6281">
        <ele>361</ele>
        <time>2017-09-03T15:54:10Z</time>
      </trkpt>
      <trkpt lat="45.73646" lon="5.62819">
        <ele>361</ele>
        <time>2017-09-03T15:54:26Z</time>
      </trkpt>
      <trkpt lat="45.73644" lon="5.62835">
        <ele>361</ele>
        <time>2017-09-03T15:54:26Z</time>
      </trkpt>
      <trkpt lat="45.7364" lon="5.6285">
        <ele>361</ele>
        <time>2017-09-03T15:54:26Z</time>
      </trkpt>
      <trkpt lat="45.73638" lon="5.62857">
        <ele>361</ele>
        <time>2017-09-03T15:54:26Z</time>
      </trkpt>
      <trkpt lat="45.73636" lon="5.62864">
        <ele>361</ele>
        <time>2017-09-03T15:54:42Z</time>
      </trkpt>
      <trkpt lat="45.73634" lon="5.6287">
        <ele>361</ele>
        <time>2017-09-03T15:54:42Z</time>
      </trkpt>
      <trkpt lat="45.73632" lon="5.62877">
        <ele>360</ele>
        <time>2017-09-03T15:54:42Z</time>
      </trkpt>
      <trkpt lat="45.7363" lon="5.62884">
        <ele>360</ele>
        <time>2017-09-03T15:54:42Z</time>
      </trkpt>
      <trkpt lat="45.7363" lon="5.62892">
        <ele>360</ele>
        <time>2017-09-03T15:54:58Z</time>
      </trkpt>
      <trkpt lat="45.73631" lon="5.62899">
        <ele>360</ele>
        <time>2017-09-03T15:54:58Z</time>
      </trkpt>
      <trkpt lat="45.73632" lon="5.62906">
        <ele>360</ele>
        <time>2017-09-03T15:54:58Z</time>
      </trkpt>
      <trkpt lat="45.73634" lon="5.62913">
        <ele>360</ele>
        <time>2017-09-03T15:54:58Z</time>
      </trkpt>
      <trkpt lat="45.73638" lon="5.6292">
        <ele>360</ele>
        <time>2017-09-03T15:55:14Z</time>
      </trkpt>
      <trkpt lat="45.73643" lon="5.62925">
        <ele>360</ele>
        <time>2017-09-03T15:55:14Z</time>
      </trkpt>
      <trkpt lat="45.73644" lon="5.6293">
        <ele>360</ele>
        <time>2017-09-03T15:55:14Z</time>
      </trkpt>
      <trkpt lat="45.73644" lon="5.62936">
        <ele>360</ele>
        <time>2017-09-03T15:55:14Z</time>
      </trkpt>
      <trkpt lat="45.73646" lon="5.62942">
        <ele>360</ele>
        <time>2017-09-03T15:55:30Z</time>
      </trkpt>
      <trkpt lat="45.73647" lon="5.6295">
        <ele>360</ele>
        <time>2017-09-03T15:55:30Z</time>
      </trkpt>
      <trkpt lat="45.73647" lon="5.62957">
        <ele>360</ele>
        <time>2017-09-03T15:55:30Z</time>
      </trkpt>
      <trkpt lat="45.73648" lon="5.62965">
        <ele>359</ele>
        <time>2017-09-03T15:55:30Z</time>
      </trkpt>
      <trkpt lat="45.73649" lon="5.62971">
        <ele>359</ele>
        <time>2017-09-03T15:55:46Z</time>
      </trkpt>
      <trkpt lat="45.73648" lon="5.62981">
        <ele>359</ele>
        <time>2017-09-03T15:55:46Z</time>
      </trkpt>
      <trkpt lat="45.73649" lon="5.62988">
        <ele>359</ele>
        <time>2017-09-03T15:55:46Z</time>
      </trkpt>
      <trkpt lat="45.73649" lon="5.62991">
        <ele>359</ele>
        <time>2017-09-03T15:55:46Z</time>
      </trkpt>
      <trkpt lat="45.73651" lon="5.63004">
        <ele>359</ele>
        <time>2017-09-03T15:56:02Z</time>
      </trkpt>
      <trkpt lat="45.73652" lon="5.63011">
        <ele>359</ele>
        <time>2017-09-03T15:56:02Z</time>
      </trkpt>
      <trkpt lat="45.73654" lon="5.63019">
        <ele>359</ele>
        <time>2017-09-03T15:56:02Z</time>
      </trkpt>
      <trkpt lat="45.73656" lon="5.63026">
        <ele>359</ele>
        <time>2017-09-03T15:56:02Z</time>
      </trkpt>
      <trkpt lat="45.73655" lon="5.63034">
        <ele>359</ele>
        <time>2017-09-03T15:56:18Z</time>
      </trkpt>
      <trkpt lat="45.73656" lon="5.63041">
        <ele>359</ele>
        <time>2017-09-03T15:56:18Z</time>
      </trkpt>
      <trkpt lat="45.73657" lon="5.6305">
        <ele>357</ele>
        <time>2017-09-03T15:56:18Z</time>
      </trkpt>
      <trkpt lat="45.73656" lon="5.63066">
        <ele>357</ele>
        <time>2017-09-03T15:56:18Z</time>
      </trkpt>
      <trkpt lat="45.73656" lon="5.63072">
        <ele>357</ele>
        <time>2017-09-03T15:56:34Z</time>
      </trkpt>
      <trkpt lat="45.73657" lon="5.63081">
        <ele>357</ele>
        <time>2017-09-03T15:56:34Z</time>
      </trkpt>
      <trkpt lat="45.73659" lon="5.63091">
        <ele>357</ele>
        <time>2017-09-03T15:56:34Z</time>
      </trkpt>
      <trkpt lat="45.73661" lon="5.63099">
        <ele>357</ele>
        <time>2017-09-03T15:56:34Z</time>
      </trkpt>
      <trkpt lat="45.73662" lon="5.63107">
        <ele>357</ele>
        <time>2017-09-03T15:56:50Z</time>
      </trkpt>
      <trkpt lat="45.73664" lon="5.63115">
        <ele>357</ele>
        <time>2017-09-03T15:56:50Z</time>
      </trkpt>
      <trkpt lat="45.73665" lon="5.63124">
        <ele>357</ele>
        <time>2017-09-03T15:56:50Z</time>
      </trkpt>
      <trkpt lat="45.73666" lon="5.63132">
        <ele>358</ele>
        <time>2017-09-03T15:56:50Z</time>
      </trkpt>
      <trkpt lat="45.73667" lon="5.6314">
        <ele>358</ele>
        <time>2017-09-03T15:57:06Z</time>
      </trkpt>
      <trkpt lat="45.73668" lon="5.63149">
        <ele>358</ele>
        <time>2017-09-03T15:57:06Z</time>
      </trkpt>
      <trkpt lat="45.7367" lon="5.63158">
        <ele>358</ele>
        <time>2017-09-03T15:57:06Z</time>
      </trkpt>
      <trkpt lat="45.7367" lon="5.63166">
        <ele>358</ele>
        <time>2017-09-03T15:57:06Z</time>
      </trkpt>
      <trkpt lat="45.7367" lon="5.63173">
        <ele>358</ele>
        <time>2017-09-03T15:57:22Z</time>
      </trkpt>
      <trkpt lat="45.73671" lon="5.63183">
        <ele>358</ele>
        <time>2017-09-03T15:57:22Z</time>
      </trkpt>
      <trkpt lat="45.73671" lon="5.63193">
        <ele>358</ele>
        <time>2017-09-03T15:57:22Z</time>
      </trkpt>
      <trkpt lat="45.73673" lon="5.63201">
        <ele>358</ele>
        <time>2017-09-03T15:57:22Z</time>
      </trkpt>
      <trkpt lat="45.73675" lon="5.63209">
        <ele>364</ele>
        <time>2017-09-03T15:57:38Z</time>
      </trkpt>
      <trkpt lat="45.73677" lon="5.63216">
        <ele>364</ele>
        <time>2017-09-03T15:57:38Z</time>
      </trkpt>
      <trkpt lat="45.73677" lon="5.63222">
        <ele>364</ele>
        <time>2017-09-03T15:57:38Z</time>
      </trkpt>
      <trkpt lat="45.73679" lon="5.6323">
        <ele>364</ele>
        <time>2017-09-03T15:57:38Z</time>
      </trkpt>
      <trkpt lat="45.73681" lon="5.63237">
        <ele>364</ele>
        <time>2017-09-03T15:57:54Z</time>
      </trkpt>
      <trkpt lat="45.73682" lon="5.63244">
        <ele>364</ele>
        <time>2017-09-03T15:57:54Z</time>
      </trkpt>
      <trkpt lat="45.73681" lon="5.63253">
        <ele>364</ele>
        <time>2017-09-03T15:57:54Z</time>
      </trkpt>
      <trkpt lat="45.73682" lon="5.63262">
        <ele>364</ele>
        <time>2017-09-03T15:57:54Z</time>
      </trkpt>
      <trkpt lat="45.73682" lon="5.6327">
        <ele>364</ele>
        <time>2017-09-03T15:58:10Z</time>
      </trkpt>
      <trkpt lat="45.73683" lon="5.63277">
        <ele>364</ele>
        <time>2017-09-03T15:58:10Z</time>
      </trkpt>
      <trkpt lat="45.73682" lon="5.63287">
        <ele>364</ele>
        <time>2017-09-03T15:58:10Z</time>
      </trkpt>
      <trkpt lat="45.73681" lon="5.63296">
        <ele>368</ele>
        <time>2017-09-03T15:58:10Z</time>
      </trkpt>
      <trkpt lat="45.73679" lon="5.63304">
        <ele>368</ele>
        <time>2017-09-03T15:58:26Z</time>
      </trkpt>
      <trkpt lat="45.73677" lon="5.63312">
        <ele>368</ele>
        <time>2017-09-03T15:58:26Z</time>
      </trkpt>
      <trkpt lat="45.73675" lon="5.63319">
        <ele>368</ele>
        <time>2017-09-03T15:58:26Z</time>
      </trkpt>
      <trkpt lat="45.73673" lon="5.63327">
        <ele>368</ele>
        <time>2017-09-03T15:58:26Z</time>
      </trkpt>
      <trkpt lat="45.73671" lon="5.63335">
        <ele>368</ele>
        <time>2017-09-03T15:58:42Z</time>
      </trkpt>
      <trkpt lat="45.73668" lon="5.6335">
        <ele>368</ele>
        <time>2017-09-03T15:58:42Z</time>
      </trkpt>
      <trkpt lat="45.73667" lon="5.63362">
        <ele>368</ele>
        <time>2017-09-03T15:58:42Z</time>
      </trkpt>
      <trkpt lat="45.73667" lon="5.63367">
        <ele>368</ele>
        <time>2017-09-03T15:58:42Z</time>
      </trkpt>
      <trkpt lat="45.73667" lon="5.63379">
        <ele>371</ele>
        <time>2017-09-03T15:58:58Z</time>
      </trkpt>
      <trkpt lat="45.73667" lon="5.63387">
        <ele>371</ele>
        <time>2017-09-03T15:58:58Z</time>
      </trkpt>
      <trkpt lat="45.73664" lon="5.6339">
        <ele>371</ele>
        <time>2017-09-03T15:58:58Z</time>
      </trkpt>
      <trkpt lat="45.73657" lon="5.63389">
        <ele>371</ele>
        <time>2017-09-03T15:58:58Z</time>
      </trkpt>
      <trkpt lat="45.73652" lon="5.63387">
        <ele>371</ele>
        <time>2017-09-03T15:59:14Z</time>
      </trkpt>
      <trkpt lat="45.73647" lon="5.63386">
        <ele>371</ele>
        <time>2017-09-03T15:59:14Z</time>
      </trkpt>
      <trkpt lat="45.73641" lon="5.63385">
        <ele>371</ele>
        <time>2017-09-03T15:59:14Z</time>
      </trkpt>
      <trkpt lat="45.73635" lon="5.63385">
        <ele>371</ele>
        <time>2017-09-03T15:59:14Z</time>
      </trkpt>
      <trkpt lat="45.73631" lon="5.63384">
        <ele>371</ele>
        <time>2017-09-03T15:59:30Z</time>
      </trkpt>
      <trkpt lat="45.73625" lon="5.63383">
        <ele>371</ele>
        <time>2017-09-03T15:59:30Z</time>
      </trkpt>
      <trkpt lat="45.73619" lon="5.63383">
        <ele>374</ele>
        <time>2017-09-03T15:59:30Z</time>
      </trkpt>
      <trkpt lat="45.73613" lon="5.63383">
        <ele>374</ele>
        <time>2017-09-03T15:59:30Z</time>
      </trkpt>
      <trkpt lat="45.73608" lon="5.63383">
        <ele>374</ele>
        <time>2017-09-03T15:59:46Z</time>
      </trkpt>
      <trkpt lat="45.73603" lon="5.63382">
        <ele>374</ele>
        <time>2017-09-03T15:59:46Z</time>
      </trkpt>
      <trkpt lat="45.73598" lon="5.63381">
        <ele>374</ele>
        <time>2017-09-03T15:59:46Z</time>
      </trkpt>
      <trkpt lat="45.73592" lon="5.63381">
        <ele>374</ele>
        <time>2017-09-03T15:59:46Z</time>
      </trkpt>
      <trkpt lat="45.73586" lon="5.63383">
        <ele>374</ele>
        <time>2017-09-03T16:00:02Z</time>
      </trkpt>
      <trkpt lat="45.7358" lon="5.63383">
        <ele>374</ele>
        <time>2017-09-03T16:00:02Z</time>
      </trkpt>
      <trkpt lat="45.73567" lon="5.63382">
        <ele>374</ele>
        <time>2017-09-03T16:00:02Z</time>
      </trkpt>
      <trkpt lat="45.7356" lon="5.63382">
        <ele>374</ele>
        <time>2017-09-03T16:00:02Z</time>
      </trkpt>
      <trkpt lat="45.73555" lon="5.63381">
        <ele>374</ele>
        <time>2017-09-03T16:00:18Z</time>
      </trkpt>
      <trkpt lat="45.7355" lon="5.63379">
        <ele>374</ele>
        <time>2017-09-03T16:00:18Z</time>
      </trkpt>
      <trkpt lat="45.73545" lon="5.63379">
        <ele>374</ele>
        <time>2017-09-03T16:00:18Z</time>
      </trkpt>
      <trkpt lat="45.73539" lon="5.63378">
        <ele>376</ele>
        <time>2017-09-03T16:00:18Z</time>
      </trkpt>
      <trkpt lat="45.73533" lon="5.63376">
        <ele>376</ele>
        <time>2017-09-03T16:00:34Z</time>
      </trkpt>
      <trkpt lat="45.73528" lon="5.63374">
        <ele>376</ele>
        <time>2017-09-03T16:00:34Z</time>
      </trkpt>
      <trkpt lat="45.73523" lon="5.63371">
        <ele>376</ele>
        <time>2017-09-03T16:00:34Z</time>
      </trkpt>
      <trkpt lat="45.73518" lon="5.63368">
        <ele>376</ele>
        <time>2017-09-03T16:00:34Z</time>
      </trkpt>
      <trkpt lat="45.73513" lon="5.63366">
        <ele>376</ele>
        <time>2017-09-03T16:00:50Z</time>
      </trkpt>
      <trkpt lat="45.73508" lon="5.63365">
        <ele>376</ele>
        <time>2017-09-03T16:00:50Z</time>
      </trkpt>
      <trkpt lat="45.73503" lon="5.63362">
        <ele>376</ele>
        <time>2017-09-03T16:00:50Z</time>
      </trkpt>
      <trkpt lat="45.735" lon="5.63358">
        <ele>376</ele>
        <time>2017-09-03T16:00:50Z</time>
      </trkpt>
      <trkpt lat="45.73493" lon="5.63359">
        <ele>376</ele>
        <time>2017-09-03T16:01:06Z</time>
      </trkpt>
      <trkpt lat="45.73484" lon="5.63361">
        <ele>376</ele>
        <time>2017-09-03T16:01:06Z</time>
      </trkpt>
      <trkpt lat="45.73477" lon="5.6337">
        <ele>376</ele>
        <time>2017-09-03T16:01:06Z</time>
      </trkpt>
      <trkpt lat="45.73475" lon="5.63375">
        <ele>376</ele>
        <time>2017-09-03T16:01:06Z</time>
      </trkpt>
      <trkpt lat="45.73471" lon="5.6338">
        <ele>376</ele>
        <time>2017-09-03T16:01:22Z</time>
      </trkpt>
      <trkpt lat="45.73465" lon="5.63385">
        <ele>376</ele>
        <time>2017-09-03T16:01:22Z</time>
      </trkpt>
      <trkpt lat="45.73461" lon="5.63389">
        <ele>376</ele>
        <time>2017-09-03T16:01:22Z</time>
      </trkpt>
      <trkpt lat="45.73456" lon="5.63391">
        <ele>381</ele>
        <time>2017-09-03T16:01:22Z</time>
      </trkpt>
      <trkpt lat="45.73452" lon="5.63392">
        <ele>381</ele>
        <time>2017-09-03T16:01:38Z</time>
      </trkpt>
      <trkpt lat="45.73447" lon="5.63395">
        <ele>381</ele>
        <time>2017-09-03T16:01:38Z</time>
      </trkpt>
      <trkpt lat="45.73442" lon="5.63396">
        <ele>381</ele>
        <time>2017-09-03T16:01:38Z</time>
      </trkpt>
      <trkpt lat="45.73438" lon="5.63395">
        <ele>381</ele>
        <time>2017-09-03T16:01:38Z</time>
      </trkpt>
      <trkpt lat="45.73436" lon="5.63395">
        <ele>381</ele>
        <time>2017-09-03T16:02:18Z</time>
      </trkpt>
      <trkpt lat="45.73382" lon="5.63421">
        <ele>381</ele>
        <time>2017-09-03T16:02:18Z</time>
      </trkpt>
      <trkpt lat="45.73374" lon="5.63426">
        <ele>383</ele>
        <time>2017-09-03T16:02:18Z</time>
      </trkpt>
      <trkpt lat="45.73369" lon="5.63421">
        <ele>383</ele>
        <time>2017-09-03T16:02:18Z</time>
      </trkpt>
      <trkpt lat="45.73364" lon="5.63425">
        <ele>383</ele>
        <time>2017-09-03T16:02:38Z</time>
      </trkpt>
      <trkpt lat="45.73361" lon="5.63428">
        <ele>383</ele>
        <time>2017-09-03T16:02:38Z</time>
      </trkpt>
      <trkpt lat="45.7336" lon="5.63428">
        <ele>383</ele>
        <time>2017-09-03T16:02:38Z</time>
      </trkpt>
      <trkpt lat="45.73358" lon="5.63433">
        <ele>383</ele>
        <time>2017-09-03T16:02:38Z</time>
      </trkpt>
      <trkpt lat="45.73356" lon="5.63439">
        <ele>383</ele>
        <time>2017-09-03T16:02:38Z</time>
      </trkpt>
      <trkpt lat="45.73354" lon="5.63444">
        <ele>383</ele>
        <time>2017-09-03T16:02:54Z</time>
      </trkpt>
      <trkpt lat="45.73355" lon="5.63446">
        <ele>383</ele>
        <time>2017-09-03T16:02:54Z</time>
      </trkpt>
      <trkpt lat="45.73356" lon="5.6345">
        <ele>383</ele>
        <time>2017-09-03T16:02:54Z</time>
      </trkpt>
      <trkpt lat="45.73353" lon="5.63457">
        <ele>383</ele>
        <time>2017-09-03T16:02:54Z</time>
      </trkpt>
      <trkpt lat="45.73352" lon="5.63463">
        <ele>379</ele>
        <time>2017-09-03T16:03:10Z</time>
      </trkpt>
      <trkpt lat="45.73349" lon="5.63472">
        <ele>379</ele>
        <time>2017-09-03T16:03:10Z</time>
      </trkpt>
      <trkpt lat="45.73345" lon="5.63476">
        <ele>379</ele>
        <time>2017-09-03T16:03:10Z</time>
      </trkpt>
      <trkpt lat="45.7334" lon="5.63476">
        <ele>379</ele>
        <time>2017-09-03T16:03:10Z</time>
      </trkpt>
      <trkpt lat="45.73335" lon="5.63476">
        <ele>379</ele>
        <time>2017-09-03T16:03:26Z</time>
      </trkpt>
      <trkpt lat="45.73327" lon="5.6348">
        <ele>379</ele>
        <time>2017-09-03T16:03:26Z</time>
      </trkpt>
      <trkpt lat="45.7332" lon="5.63479">
        <ele>379</ele>
        <time>2017-09-03T16:03:26Z</time>
      </trkpt>
      <trkpt lat="45.73315" lon="5.63482">
        <ele>379</ele>
        <time>2017-09-03T16:03:26Z</time>
      </trkpt>
      <trkpt lat="45.7331" lon="5.63485">
        <ele>379</ele>
        <time>2017-09-03T16:03:42Z</time>
      </trkpt>
      <trkpt lat="45.73306" lon="5.6349">
        <ele>379</ele>
        <time>2017-09-03T16:03:42Z</time>
      </trkpt>
      <trkpt lat="45.73301" lon="5.63495">
        <ele>379</ele>
        <time>2017-09-03T16:03:42Z</time>
      </trkpt>
      <trkpt lat="45.73298" lon="5.635">
        <ele>379</ele>
        <time>2017-09-03T16:03:42Z</time>
      </trkpt>
      <trkpt lat="45.73294" lon="5.63504">
        <ele>379</ele>
        <time>2017-09-03T16:03:58Z</time>
      </trkpt>
      <trkpt lat="45.73291" lon="5.63511">
        <ele>379</ele>
        <time>2017-09-03T16:03:58Z</time>
      </trkpt>
      <trkpt lat="45.73289" lon="5.63515">
        <ele>379</ele>
        <time>2017-09-03T16:03:58Z</time>
      </trkpt>
      <trkpt lat="45.73286" lon="5.63518">
        <ele>379</ele>
        <time>2017-09-03T16:03:58Z</time>
      </trkpt>
      <trkpt lat="45.73282" lon="5.63522">
        <ele>379</ele>
        <time>2017-09-03T16:04:14Z</time>
      </trkpt>
      <trkpt lat="45.73277" lon="5.63526">
        <ele>379</ele>
        <time>2017-09-03T16:04:14Z</time>
      </trkpt>
      <trkpt lat="45.73272" lon="5.63529">
        <ele>379</ele>
        <time>2017-09-03T16:04:14Z</time>
      </trkpt>
      <trkpt lat="45.73266" lon="5.63531">
        <ele>379</ele>
        <time>2017-09-03T16:04:14Z</time>
      </trkpt>
      <trkpt lat="45.73262" lon="5.63534">
        <ele>379</ele>
        <time>2017-09-03T16:04:30Z</time>
      </trkpt>
      <trkpt lat="45.73258" lon="5.63537">
        <ele>379</ele>
        <time>2017-09-03T16:04:30Z</time>
      </trkpt>
      <trkpt lat="45.73253" lon="5.63537">
        <ele>379</ele>
        <time>2017-09-03T16:04:30Z</time>
      </trkpt>
      <trkpt lat="45.73248" lon="5.63539">
        <ele>379</ele>
        <time>2017-09-03T16:04:30Z</time>
      </trkpt>
      <trkpt lat="45.73243" lon="5.63539">
        <ele>379</ele>
        <time>2017-09-03T16:04:46Z</time>
      </trkpt>
      <trkpt lat="45.73238" lon="5.63542">
        <ele>368</ele>
        <time>2017-09-03T16:04:46Z</time>
      </trkpt>
      <trkpt lat="45.73234" lon="5.63546">
        <ele>368</ele>
        <time>2017-09-03T16:04:46Z</time>
      </trkpt>
      <trkpt lat="45.73229" lon="5.63548">
        <ele>368</ele>
        <time>2017-09-03T16:04:46Z</time>
      </trkpt>
      <trkpt lat="45.73224" lon="5.63549">
        <ele>368</ele>
        <time>2017-09-03T16:05:02Z</time>
      </trkpt>
      <trkpt lat="45.73221" lon="5.6355">
        <ele>368</ele>
        <time>2017-09-03T16:05:02Z</time>
      </trkpt>
      <trkpt lat="45.73217" lon="5.63551">
        <ele>368</ele>
        <time>2017-09-03T16:05:02Z</time>
      </trkpt>
      <trkpt lat="45.73212" lon="5.63553">
        <ele>368</ele>
        <time>2017-09-03T16:05:02Z</time>
      </trkpt>
      <trkpt lat="45.73204" lon="5.63555">
        <ele>370</ele>
        <time>2017-09-03T16:05:18Z</time>
      </trkpt>
      <trkpt lat="45.73192" lon="5.63559">
        <ele>370</ele>
        <time>2017-09-03T16:05:18Z</time>
      </trkpt>
      <trkpt lat="45.73181" lon="5.63563">
        <ele>370</ele>
        <time>2017-09-03T16:05:18Z</time>
      </trkpt>
      <trkpt lat="45.73175" lon="5.63566">
        <ele>370</ele>
        <time>2017-09-03T16:05:18Z</time>
      </trkpt>
      <trkpt lat="45.73169" lon="5.63569">
        <ele>370</ele>
        <time>2017-09-03T16:05:34Z</time>
      </trkpt>
      <trkpt lat="45.73163" lon="5.63567">
        <ele>370</ele>
        <time>2017-09-03T16:05:34Z</time>
      </trkpt>
      <trkpt lat="45.73157" lon="5.63567">
        <ele>370</ele>
        <time>2017-09-03T16:05:34Z</time>
      </trkpt>
      <trkpt lat="45.7315" lon="5.63568">
        <ele>370</ele>
        <time>2017-09-03T16:05:34Z</time>
      </trkpt>
      <trkpt lat="45.73144" lon="5.6357">
        <ele>370</ele>
        <time>2017-09-03T16:05:50Z</time>
      </trkpt>
      <trkpt lat="45.73139" lon="5.63569">
        <ele>370</ele>
        <time>2017-09-03T16:05:50Z</time>
      </trkpt>
      <trkpt lat="45.73133" lon="5.63569">
        <ele>370</ele>
        <time>2017-09-03T16:05:50Z</time>
      </trkpt>
      <trkpt lat="45.73127" lon="5.63569">
        <ele>370</ele>
        <time>2017-09-03T16:05:50Z</time>
      </trkpt>
      <trkpt lat="45.73122" lon="5.63571">
        <ele>373</ele>
        <time>2017-09-03T16:06:06Z</time>
      </trkpt>
      <trkpt lat="45.73116" lon="5.63573">
        <ele>373</ele>
        <time>2017-09-03T16:06:06Z</time>
      </trkpt>
      <trkpt lat="45.73111" lon="5.63573">
        <ele>373</ele>
        <time>2017-09-03T16:06:06Z</time>
      </trkpt>
      <trkpt lat="45.73107" lon="5.63574">
        <ele>373</ele>
        <time>2017-09-03T16:06:06Z</time>
      </trkpt>
      <trkpt lat="45.73103" lon="5.63573">
        <ele>373</ele>
        <time>2017-09-03T16:06:22Z</time>
      </trkpt>
      <trkpt lat="45.73101" lon="5.63574">
        <ele>373</ele>
        <time>2017-09-03T16:06:22Z</time>
      </trkpt>
      <trkpt lat="45.73097" lon="5.63574">
        <ele>373</ele>
        <time>2017-09-03T16:06:22Z</time>
      </trkpt>
      <trkpt lat="45.73092" lon="5.63575">
        <ele>373</ele>
        <time>2017-09-03T16:06:22Z</time>
      </trkpt>
      <trkpt lat="45.73087" lon="5.63577">
        <ele>373</ele>
        <time>2017-09-03T16:06:38Z</time>
      </trkpt>
      <trkpt lat="45.73081" lon="5.6358">
        <ele>373</ele>
        <time>2017-09-03T16:06:38Z</time>
      </trkpt>
      <trkpt lat="45.73075" lon="5.63583">
        <ele>373</ele>
        <time>2017-09-03T16:06:38Z</time>
      </trkpt>
      <trkpt lat="45.7307" lon="5.63587">
        <ele>373</ele>
        <time>2017-09-03T16:06:38Z</time>
      </trkpt>
      <trkpt lat="45.73064" lon="5.6359">
        <ele>373</ele>
        <time>2017-09-03T16:06:54Z</time>
      </trkpt>
      <trkpt lat="45.73058" lon="5.63592">
        <ele>373</ele>
        <time>2017-09-03T16:06:54Z</time>
      </trkpt>
      <trkpt lat="45.73052" lon="5.63592">
        <ele>373</ele>
        <time>2017-09-03T16:06:54Z</time>
      </trkpt>
      <trkpt lat="45.73047" lon="5.63592">
        <ele>373</ele>
        <time>2017-09-03T16:06:54Z</time>
      </trkpt>
      <trkpt lat="45.73044" lon="5.6359">
        <ele>373</ele>
        <time>2017-09-03T16:07:10Z</time>
      </trkpt>
      <trkpt lat="45.73039" lon="5.63592">
        <ele>377</ele>
        <time>2017-09-03T16:07:10Z</time>
      </trkpt>
      <trkpt lat="45.73027" lon="5.63598">
        <ele>377</ele>
        <time>2017-09-03T16:07:10Z</time>
      </trkpt>
      <trkpt lat="45.73017" lon="5.63604">
        <ele>377</ele>
        <time>2017-09-03T16:07:10Z</time>
      </trkpt>
      <trkpt lat="45.73011" lon="5.63605">
        <ele>377</ele>
        <time>2017-09-03T16:07:26Z</time>
      </trkpt>
      <trkpt lat="45.73005" lon="5.63609">
        <ele>377</ele>
        <time>2017-09-03T16:07:26Z</time>
      </trkpt>
      <trkpt lat="45.72999" lon="5.6361">
        <ele>377</ele>
        <time>2017-09-03T16:07:26Z</time>
      </trkpt>
      <trkpt lat="45.72994" lon="5.63611">
        <ele>377</ele>
        <time>2017-09-03T16:07:26Z</time>
      </trkpt>
      <trkpt lat="45.72989" lon="5.63612">
        <ele>377</ele>
        <time>2017-09-03T16:07:42Z</time>
      </trkpt>
      <trkpt lat="45.72985" lon="5.63612">
        <ele>377</ele>
        <time>2017-09-03T16:07:42Z</time>
      </trkpt>
      <trkpt lat="45.72981" lon="5.63613">
        <ele>377</ele>
        <time>2017-09-03T16:07:42Z</time>
      </trkpt>
      <trkpt lat="45.72976" lon="5.63614">
        <ele>377</ele>
        <time>2017-09-03T16:07:42Z</time>
      </trkpt>
      <trkpt lat="45.72972" lon="5.63616">
        <ele>377</ele>
        <time>2017-09-03T16:07:58Z</time>
      </trkpt>
      <trkpt lat="45.72968" lon="5.63616">
        <ele>377</ele>
        <time>2017-09-03T16:07:58Z</time>
      </trkpt>
      <trkpt lat="45.72963" lon="5.63616">
        <ele>377</ele>
        <time>2017-09-03T16:07:58Z</time>
      </trkpt>
      <trkpt lat="45.72958" lon="5.63615">
        <ele>371</ele>
        <time>2017-09-03T16:07:58Z</time>
      </trkpt>
      <trkpt lat="45.72952" lon="5.63616">
        <ele>371</ele>
        <time>2017-09-03T16:08:14Z</time>
      </trkpt>
      <trkpt lat="45.72946" lon="5.63619">
        <ele>371</ele>
        <time>2017-09-03T16:08:14Z</time>
      </trkpt>
      <trkpt lat="45.72941" lon="5.63621">
        <ele>371</ele>
        <time>2017-09-03T16:08:14Z</time>
      </trkpt>
      <trkpt lat="45.72936" lon="5.63621">
        <ele>371</ele>
        <time>2017-09-03T16:08:14Z</time>
      </trkpt>
      <trkpt lat="45.7293" lon="5.63622">
        <ele>371</ele>
        <time>2017-09-03T16:08:30Z</time>
      </trkpt>
      <trkpt lat="45.72924" lon="5.63626">
        <ele>363</ele>
        <time>2017-09-03T16:08:30Z</time>
      </trkpt>
      <trkpt lat="45.72914" lon="5.63631">
        <ele>363</ele>
        <time>2017-09-03T16:08:30Z</time>
      </trkpt>
      <trkpt lat="45.72905" lon="5.63623">
        <ele>371</ele>
        <time>2017-09-03T16:08:30Z</time>
      </trkpt>
      <trkpt lat="45.72902" lon="5.63619">
        <ele>371</ele>
        <time>2017-09-03T16:08:46Z</time>
      </trkpt>
      <trkpt lat="45.72899" lon="5.63616">
        <ele>371</ele>
        <time>2017-09-03T16:08:46Z</time>
      </trkpt>
      <trkpt lat="45.72895" lon="5.63615">
        <ele>371</ele>
        <time>2017-09-03T16:08:46Z</time>
      </trkpt>
      <trkpt lat="45.7289" lon="5.63613">
        <ele>371</ele>
        <time>2017-09-03T16:08:46Z</time>
      </trkpt>
      <trkpt lat="45.72886" lon="5.6361">
        <ele>371</ele>
        <time>2017-09-03T16:09:02Z</time>
      </trkpt>
      <trkpt lat="45.72879" lon="5.63608">
        <ele>371</ele>
        <time>2017-09-03T16:09:02Z</time>
      </trkpt>
      <trkpt lat="45.72873" lon="5.63608">
        <ele>364</ele>
        <time>2017-09-03T16:09:02Z</time>
      </trkpt>
      <trkpt lat="45.72869" lon="5.63605">
        <ele>364</ele>
        <time>2017-09-03T16:09:02Z</time>
      </trkpt>
      <trkpt lat="45.72862" lon="5.63605">
        <ele>364</ele>
        <time>2017-09-03T16:09:18Z</time>
      </trkpt>
      <trkpt lat="45.72857" lon="5.63598">
        <ele>364</ele>
        <time>2017-09-03T16:09:18Z</time>
      </trkpt>
      <trkpt lat="45.72852" lon="5.63592">
        <ele>364</ele>
        <time>2017-09-03T16:09:18Z</time>
      </trkpt>
      <trkpt lat="45.72846" lon="5.63586">
        <ele>364</ele>
        <time>2017-09-03T16:09:18Z</time>
      </trkpt>
      <trkpt lat="45.72841" lon="5.6358">
        <ele>364</ele>
        <time>2017-09-03T16:09:34Z</time>
      </trkpt>
      <trkpt lat="45.72836" lon="5.63574">
        <ele>364</ele>
        <time>2017-09-03T16:09:34Z</time>
      </trkpt>
      <trkpt lat="45.72832" lon="5.63569">
        <ele>364</ele>
        <time>2017-09-03T16:09:34Z</time>
      </trkpt>
      <trkpt lat="45.72829" lon="5.63563">
        <ele>364</ele>
        <time>2017-09-03T16:09:34Z</time>
      </trkpt>
      <trkpt lat="45.72825" lon="5.63556">
        <ele>364</ele>
        <time>2017-09-03T16:09:50Z</time>
      </trkpt>
      <trkpt lat="45.72821" lon="5.63543">
        <ele>364</ele>
        <time>2017-09-03T16:09:50Z</time>
      </trkpt>
      <trkpt lat="45.72818" lon="5.63537">
        <ele>369</ele>
        <time>2017-09-03T16:09:50Z</time>
      </trkpt>
      <trkpt lat="45.72815" lon="5.63534">
        <ele>369</ele>
        <time>2017-09-03T16:09:50Z</time>
      </trkpt>
      <trkpt lat="45.72812" lon="5.63529">
        <ele>369</ele>
        <time>2017-09-03T16:10:06Z</time>
      </trkpt>
      <trkpt lat="45.72809" lon="5.63522">
        <ele>369</ele>
        <time>2017-09-03T16:10:06Z</time>
      </trkpt>
      <trkpt lat="45.72807" lon="5.63515">
        <ele>369</ele>
        <time>2017-09-03T16:10:06Z</time>
      </trkpt>
      <trkpt lat="45.72804" lon="5.63508">
        <ele>369</ele>
        <time>2017-09-03T16:10:06Z</time>
      </trkpt>
      <trkpt lat="45.72801" lon="5.63502">
        <ele>369</ele>
        <time>2017-09-03T16:10:22Z</time>
      </trkpt>
      <trkpt lat="45.72795" lon="5.63499">
        <ele>369</ele>
        <time>2017-09-03T16:10:22Z</time>
      </trkpt>
      <trkpt lat="45.7279" lon="5.63498">
        <ele>364</ele>
        <time>2017-09-03T16:10:22Z</time>
      </trkpt>
      <trkpt lat="45.72785" lon="5.63497">
        <ele>364</ele>
        <time>2017-09-03T16:10:22Z</time>
      </trkpt>
      <trkpt lat="45.72785" lon="5.63495">
        <ele>364</ele>
        <time>2017-09-03T16:11:30Z</time>
      </trkpt>
      <trkpt lat="45.72784" lon="5.63495">
        <ele>364</ele>
        <time>2017-09-03T16:11:30Z</time>
      </trkpt>
      <trkpt lat="45.72782" lon="5.63495">
        <ele>364</ele>
        <time>2017-09-03T16:11:30Z</time>
      </trkpt>
      <trkpt lat="45.72776" lon="5.63494">
        <ele>364</ele>
        <time>2017-09-03T16:11:30Z</time>
      </trkpt>
      <trkpt lat="45.72771" lon="5.63494">
        <ele>364</ele>
        <time>2017-09-03T16:11:30Z</time>
      </trkpt>
      <trkpt lat="45.72766" lon="5.63495">
        <ele>364</ele>
        <time>2017-09-03T16:11:46Z</time>
      </trkpt>
      <trkpt lat="45.72761" lon="5.63497">
        <ele>364</ele>
        <time>2017-09-03T16:11:46Z</time>
      </trkpt>
      <trkpt lat="45.72756" lon="5.63498">
        <ele>364</ele>
        <time>2017-09-03T16:11:46Z</time>
      </trkpt>
      <trkpt lat="45.7275" lon="5.63498">
        <ele>364</ele>
        <time>2017-09-03T16:11:46Z</time>
      </trkpt>
      <trkpt lat="45.72745" lon="5.63498">
        <ele>364</ele>
        <time>2017-09-03T16:12:02Z</time>
      </trkpt>
      <trkpt lat="45.7274" lon="5.63498">
        <ele>364</ele>
        <time>2017-09-03T16:12:02Z</time>
      </trkpt>
      <trkpt lat="45.72735" lon="5.63499">
        <ele>364</ele>
        <time>2017-09-03T16:12:02Z</time>
      </trkpt>
      <trkpt lat="45.72729" lon="5.63499">
        <ele>364</ele>
        <time>2017-09-03T16:12:02Z</time>
      </trkpt>
      <trkpt lat="45.72723" lon="5.63499">
        <ele>364</ele>
        <time>2017-09-03T16:12:18Z</time>
      </trkpt>
      <trkpt lat="45.72718" lon="5.635">
        <ele>364</ele>
        <time>2017-09-03T16:12:18Z</time>
      </trkpt>
      <trkpt lat="45.72712" lon="5.635">
        <ele>364</ele>
        <time>2017-09-03T16:12:18Z</time>
      </trkpt>
      <trkpt lat="45.72707" lon="5.635">
        <ele>359</ele>
        <time>2017-09-03T16:12:18Z</time>
      </trkpt>
      <trkpt lat="45.72706" lon="5.635">
        <ele>359</ele>
        <time>2017-09-03T16:12:50Z</time>
      </trkpt>
      <trkpt lat="45.72701" lon="5.63501">
        <ele>359</ele>
        <time>2017-09-03T16:12:50Z</time>
      </trkpt>
      <trkpt lat="45.72696" lon="5.63502">
        <ele>359</ele>
        <time>2017-09-03T16:12:50Z</time>
      </trkpt>
      <trkpt lat="45.72691" lon="5.635">
        <ele>359</ele>
        <time>2017-09-03T16:12:50Z</time>
      </trkpt>
      <trkpt lat="45.72685" lon="5.63499">
        <ele>359</ele>
        <time>2017-09-03T16:12:50Z</time>
      </trkpt>
      <trkpt lat="45.7268" lon="5.635">
        <ele>359</ele>
        <time>2017-09-03T16:13:06Z</time>
      </trkpt>
      <trkpt lat="45.72674" lon="5.635">
        <ele>359</ele>
        <time>2017-09-03T16:13:06Z</time>
      </trkpt>
      <trkpt lat="45.72671" lon="5.63495">
        <ele>359</ele>
        <time>2017-09-03T16:13:06Z</time>
      </trkpt>
      <trkpt lat="45.7267" lon="5.63487">
        <ele>359</ele>
        <time>2017-09-03T16:13:06Z</time>
      </trkpt>
      <trkpt lat="45.72673" lon="5.63481">
        <ele>359</ele>
        <time>2017-09-03T16:13:22Z</time>
      </trkpt>
      <trkpt lat="45.72677" lon="5.63477">
        <ele>359</ele>
        <time>2017-09-03T16:13:22Z</time>
      </trkpt>
      <trkpt lat="45.72681" lon="5.63475">
        <ele>359</ele>
        <time>2017-09-03T16:13:22Z</time>
      </trkpt>
      <trkpt lat="45.72685" lon="5.63474">
        <ele>359</ele>
        <time>2017-09-03T16:13:22Z</time>
      </trkpt>
      <trkpt lat="45.7269" lon="5.63473">
        <ele>359</ele>
        <time>2017-09-03T16:13:38Z</time>
      </trkpt>
      <trkpt lat="45.72694" lon="5.63472">
        <ele>359</ele>
        <time>2017-09-03T16:13:38Z</time>
      </trkpt>
      <trkpt lat="45.72699" lon="5.63473">
        <ele>359</ele>
        <time>2017-09-03T16:13:38Z</time>
      </trkpt>
      <trkpt lat="45.72704" lon="5.63472">
        <ele>359</ele>
        <time>2017-09-03T16:13:38Z</time>
      </trkpt>
      <trkpt lat="45.72708" lon="5.6347">
        <ele>359</ele>
        <time>2017-09-03T16:13:54Z</time>
      </trkpt>
      <trkpt lat="45.72713" lon="5.63469">
        <ele>364</ele>
        <time>2017-09-03T16:13:54Z</time>
      </trkpt>
      <trkpt lat="45.72717" lon="5.63468">
        <ele>364</ele>
        <time>2017-09-03T16:13:54Z</time>
      </trkpt>
      <trkpt lat="45.72721" lon="5.63469">
        <ele>364</ele>
        <time>2017-09-03T16:13:54Z</time>
      </trkpt>
      <trkpt lat="45.72727" lon="5.63466">
        <ele>364</ele>
        <time>2017-09-03T16:14:10Z</time>
      </trkpt>
      <trkpt lat="45.72733" lon="5.63465">
        <ele>364</ele>
        <time>2017-09-03T16:14:10Z</time>
      </trkpt>
      <trkpt lat="45.72738" lon="5.63462">
        <ele>364</ele>
        <time>2017-09-03T16:14:10Z</time>
      </trkpt>
      <trkpt lat="45.72743" lon="5.63457">
        <ele>349</ele>
        <time>2017-09-03T16:14:10Z</time>
      </trkpt>
      <trkpt lat="45.72748" lon="5.6345">
        <ele>349</ele>
        <time>2017-09-03T16:14:26Z</time>
      </trkpt>
      <trkpt lat="45.72752" lon="5.63444">
        <ele>349</ele>
        <time>2017-09-03T16:14:26Z</time>
      </trkpt>
      <trkpt lat="45.72757" lon="5.63439">
        <ele>349</ele>
        <time>2017-09-03T16:14:26Z</time>
      </trkpt>
      <trkpt lat="45.72762" lon="5.63437">
        <ele>349</ele>
        <time>2017-09-03T16:14:26Z</time>
      </trkpt>
      <trkpt lat="45.72767" lon="5.63434">
        <ele>349</ele>
        <time>2017-09-03T16:14:42Z</time>
      </trkpt>
      <trkpt lat="45.72772" lon="5.63433">
        <ele>349</ele>
        <time>2017-09-03T16:14:42Z</time>
      </trkpt>
      <trkpt lat="45.72777" lon="5.6343">
        <ele>349</ele>
        <time>2017-09-03T16:14:42Z</time>
      </trkpt>
      <trkpt lat="45.72781" lon="5.63428">
        <ele>349</ele>
        <time>2017-09-03T16:14:42Z</time>
      </trkpt>
      <trkpt lat="45.72785" lon="5.63427">
        <ele>349</ele>
        <time>2017-09-03T16:14:58Z</time>
      </trkpt>
      <trkpt lat="45.72789" lon="5.63425">
        <ele>349</ele>
        <time>2017-09-03T16:14:58Z</time>
      </trkpt>
      <trkpt lat="45.72794" lon="5.63421">
        <ele>363</ele>
        <time>2017-09-03T16:14:58Z</time>
      </trkpt>
      <trkpt lat="45.72799" lon="5.63417">
        <ele>363</ele>
        <time>2017-09-03T16:14:58Z</time>
      </trkpt>
      <trkpt lat="45.72804" lon="5.63411">
        <ele>363</ele>
        <time>2017-09-03T16:15:14Z</time>
      </trkpt>
      <trkpt lat="45.72808" lon="5.63402">
        <ele>363</ele>
        <time>2017-09-03T16:15:14Z</time>
      </trkpt>
      <trkpt lat="45.72813" lon="5.63396">
        <ele>363</ele>
        <time>2017-09-03T16:15:14Z</time>
      </trkpt>
      <trkpt lat="45.72818" lon="5.63392">
        <ele>363</ele>
        <time>2017-09-03T16:15:14Z</time>
      </trkpt>
      <trkpt lat="45.72823" lon="5.63386">
        <ele>363</ele>
        <time>2017-09-03T16:15:30Z</time>
      </trkpt>
      <trkpt lat="45.72828" lon="5.63383">
        <ele>363</ele>
        <time>2017-09-03T16:15:30Z</time>
      </trkpt>
      <trkpt lat="45.72833" lon="5.6338">
        <ele>363</ele>
        <time>2017-09-03T16:15:30Z</time>
      </trkpt>
      <trkpt lat="45.72838" lon="5.63374">
        <ele>347</ele>
        <time>2017-09-03T16:15:30Z</time>
      </trkpt>
      <trkpt lat="45.72842" lon="5.63368">
        <ele>347</ele>
        <time>2017-09-03T16:15:46Z</time>
      </trkpt>
      <trkpt lat="45.72846" lon="5.63362">
        <ele>347</ele>
        <time>2017-09-03T16:15:46Z</time>
      </trkpt>
      <trkpt lat="45.72851" lon="5.63356">
        <ele>347</ele>
        <time>2017-09-03T16:15:46Z</time>
      </trkpt>
      <trkpt lat="45.72856" lon="5.63351">
        <ele>347</ele>
        <time>2017-09-03T16:15:46Z</time>
      </trkpt>
      <trkpt lat="45.72861" lon="5.63346">
        <ele>347</ele>
        <time>2017-09-03T16:16:02Z</time>
      </trkpt>
      <trkpt lat="45.72865" lon="5.63341">
        <ele>347</ele>
        <time>2017-09-03T16:16:02Z</time>
      </trkpt>
      <trkpt lat="45.72869" lon="5.63335">
        <ele>347</ele>
        <time>2017-09-03T16:16:02Z</time>
      </trkpt>
      <trkpt lat="45.72873" lon="5.63329">
        <ele>347</ele>
        <time>2017-09-03T16:16:02Z</time>
      </trkpt>
      <trkpt lat="45.72877" lon="5.63325">
        <ele>365</ele>
        <time>2017-09-03T16:16:18Z</time>
      </trkpt>
      <trkpt lat="45.7288" lon="5.63317">
        <ele>365</ele>
        <time>2017-09-03T16:16:18Z</time>
      </trkpt>
      <trkpt lat="45.72879" lon="5.63309">
        <ele>365</ele>
        <time>2017-09-03T16:16:18Z</time>
      </trkpt>
      <trkpt lat="45.72876" lon="5.63302">
        <ele>365</ele>
        <time>2017-09-03T16:16:18Z</time>
      </trkpt>
      <trkpt lat="45.72872" lon="5.63295">
        <ele>347</ele>
        <time>2017-09-03T16:16:34Z</time>
      </trkpt>
      <trkpt lat="45.72864" lon="5.63289">
        <ele>342</ele>
        <time>2017-09-03T16:16:34Z</time>
      </trkpt>
      <trkpt lat="45.72854" lon="5.63282">
        <ele>342</ele>
        <time>2017-09-03T16:16:34Z</time>
      </trkpt>
      <trkpt lat="45.72849" lon="5.63278">
        <ele>342</ele>
        <time>2017-09-03T16:16:34Z</time>
      </trkpt>
      <trkpt lat="45.72846" lon="5.63281">
        <ele>342</ele>
        <time>2017-09-03T16:16:50Z</time>
      </trkpt>
      <trkpt lat="45.72841" lon="5.63278">
        <ele>342</ele>
        <time>2017-09-03T16:16:50Z</time>
      </trkpt>
      <trkpt lat="45.72835" lon="5.63274">
        <ele>342</ele>
        <time>2017-09-03T16:16:50Z</time>
      </trkpt>
      <trkpt lat="45.7283" lon="5.63273">
        <ele>342</ele>
        <time>2017-09-03T16:16:50Z</time>
      </trkpt>
      <trkpt lat="45.72825" lon="5.63268">
        <ele>342</ele>
        <time>2017-09-03T16:17:06Z</time>
      </trkpt>
      <trkpt lat="45.72821" lon="5.63263">
        <ele>342</ele>
        <time>2017-09-03T16:17:06Z</time>
      </trkpt>
      <trkpt lat="45.72819" lon="5.63256">
        <ele>342</ele>
        <time>2017-09-03T16:17:06Z</time>
      </trkpt>
      <trkpt lat="45.72819" lon="5.63248">
        <ele>342</ele>
        <time>2017-09-03T16:17:06Z</time>
      </trkpt>
      <trkpt lat="45.72819" lon="5.63241">
        <ele>342</ele>
        <time>2017-09-03T16:17:22Z</time>
      </trkpt>
      <trkpt lat="45.72817" lon="5.63233">
        <ele>342</ele>
        <time>2017-09-03T16:17:22Z</time>
      </trkpt>
      <trkpt lat="45.72815" lon="5.63227">
        <ele>342</ele>
        <time>2017-09-03T16:17:22Z</time>
      </trkpt>
      <trkpt lat="45.72813" lon="5.63215">
        <ele>342</ele>
        <time>2017-09-03T16:17:22Z</time>
      </trkpt>
      <trkpt lat="45.72813" lon="5.63203">
        <ele>334</ele>
        <time>2017-09-03T16:17:38Z</time>
      </trkpt>
      <trkpt lat="45.7281" lon="5.63188">
        <ele>334</ele>
        <time>2017-09-03T16:17:38Z</time>
      </trkpt>
      <trkpt lat="45.72809" lon="5.63176">
        <ele>334</ele>
        <time>2017-09-03T16:17:38Z</time>
      </trkpt>
      <trkpt lat="45.72806" lon="5.63165">
        <ele>334</ele>
        <time>2017-09-03T16:17:38Z</time>
      </trkpt>
      <trkpt lat="45.72804" lon="5.63154">
        <ele>334</ele>
        <time>2017-09-03T16:17:54Z</time>
      </trkpt>
      <trkpt lat="45.72803" lon="5.63147">
        <ele>334</ele>
        <time>2017-09-03T16:17:54Z</time>
      </trkpt>
      <trkpt lat="45.72802" lon="5.6314">
        <ele>334</ele>
        <time>2017-09-03T16:17:54Z</time>
      </trkpt>
      <trkpt lat="45.72801" lon="5.63132">
        <ele>334</ele>
        <time>2017-09-03T16:17:54Z</time>
      </trkpt>
      <trkpt lat="45.72799" lon="5.63124">
        <ele>333</ele>
        <time>2017-09-03T16:18:10Z</time>
      </trkpt>
      <trkpt lat="45.728" lon="5.63115">
        <ele>333</ele>
        <time>2017-09-03T16:18:10Z</time>
      </trkpt>
      <trkpt lat="45.728" lon="5.63107">
        <ele>333</ele>
        <time>2017-09-03T16:18:10Z</time>
      </trkpt>
      <trkpt lat="45.72799" lon="5.63099">
        <ele>333</ele>
        <time>2017-09-03T16:18:10Z</time>
      </trkpt>
      <trkpt lat="45.72798" lon="5.63091">
        <ele>333</ele>
        <time>2017-09-03T16:18:26Z</time>
      </trkpt>
      <trkpt lat="45.72798" lon="5.63084">
        <ele>333</ele>
        <time>2017-09-03T16:18:26Z</time>
      </trkpt>
      <trkpt lat="45.72798" lon="5.63077">
        <ele>333</ele>
        <time>2017-09-03T16:18:26Z</time>
      </trkpt>
      <trkpt lat="45.72798" lon="5.63065">
        <ele>333</ele>
        <time>2017-09-03T16:18:26Z</time>
      </trkpt>
      <trkpt lat="45.72796" lon="5.63057">
        <ele>333</ele>
        <time>2017-09-03T16:18:42Z</time>
      </trkpt>
      <trkpt lat="45.72793" lon="5.63049">
        <ele>333</ele>
        <time>2017-09-03T16:18:42Z</time>
      </trkpt>
      <trkpt lat="45.72792" lon="5.63042">
        <ele>346</ele>
        <time>2017-09-03T16:18:42Z</time>
      </trkpt>
      <trkpt lat="45.72791" lon="5.63035">
        <ele>346</ele>
        <time>2017-09-03T16:18:42Z</time>
      </trkpt>
      <trkpt lat="45.7279" lon="5.63031">
        <ele>346</ele>
        <time>2017-09-03T16:18:58Z</time>
      </trkpt>
      <trkpt lat="45.72791" lon="5.63022">
        <ele>346</ele>
        <time>2017-09-03T16:18:58Z</time>
      </trkpt>
      <trkpt lat="45.72792" lon="5.63017">
        <ele>331</ele>
        <time>2017-09-03T16:18:58Z</time>
      </trkpt>
      <trkpt lat="45.72793" lon="5.63012">
        <ele>331</ele>
        <time>2017-09-03T16:18:58Z</time>
      </trkpt>
      <trkpt lat="45.72792" lon="5.63007">
        <ele>331</ele>
        <time>2017-09-03T16:19:14Z</time>
      </trkpt>
      <trkpt lat="45.72792" lon="5.63001">
        <ele>331</ele>
        <time>2017-09-03T16:19:14Z</time>
      </trkpt>
      <trkpt lat="45.72793" lon="5.62995">
        <ele>331</ele>
        <time>2017-09-03T16:19:14Z</time>
      </trkpt>
      <trkpt lat="45.72792" lon="5.62989">
        <ele>331</ele>
        <time>2017-09-03T16:19:14Z</time>
      </trkpt>
      <trkpt lat="45.72792" lon="5.62983">
        <ele>331</ele>
        <time>2017-09-03T16:19:30Z</time>
      </trkpt>
      <trkpt lat="45.72793" lon="5.62977">
        <ele>331</ele>
        <time>2017-09-03T16:19:30Z</time>
      </trkpt>
      <trkpt lat="45.72793" lon="5.62969">
        <ele>331</ele>
        <time>2017-09-03T16:19:30Z</time>
      </trkpt>
      <trkpt lat="45.72793" lon="5.62961">
        <ele>331</ele>
        <time>2017-09-03T16:19:30Z</time>
      </trkpt>
      <trkpt lat="45.72793" lon="5.62951">
        <ele>336</ele>
        <time>2017-09-03T16:19:46Z</time>
      </trkpt>
      <trkpt lat="45.72794" lon="5.62941">
        <ele>336</ele>
        <time>2017-09-03T16:19:46Z</time>
      </trkpt>
      <trkpt lat="45.72795" lon="5.62931">
        <ele>336</ele>
        <time>2017-09-03T16:19:46Z</time>
      </trkpt>
      <trkpt lat="45.72797" lon="5.62919">
        <ele>336</ele>
        <time>2017-09-03T16:19:46Z</time>
      </trkpt>
      <trkpt lat="45.72797" lon="5.62913">
        <ele>336</ele>
        <time>2017-09-03T16:20:02Z</time>
      </trkpt>
      <trkpt lat="45.72798" lon="5.62905">
        <ele>336</ele>
        <time>2017-09-03T16:20:02Z</time>
      </trkpt>
      <trkpt lat="45.72801" lon="5.62897">
        <ele>336</ele>
        <time>2017-09-03T16:20:02Z</time>
      </trkpt>
      <trkpt lat="45.72803" lon="5.62888">
        <ele>336</ele>
        <time>2017-09-03T16:20:02Z</time>
      </trkpt>
      <trkpt lat="45.72805" lon="5.62878">
        <ele>336</ele>
        <time>2017-09-03T16:20:18Z</time>
      </trkpt>
      <trkpt lat="45.72808" lon="5.62869">
        <ele>337</ele>
        <time>2017-09-03T16:20:18Z</time>
      </trkpt>
      <trkpt lat="45.72811" lon="5.62857">
        <ele>337</ele>
        <time>2017-09-03T16:20:18Z</time>
      </trkpt>
      <trkpt lat="45.72815" lon="5.62847">
        <ele>337</ele>
        <time>2017-09-03T16:20:18Z</time>
      </trkpt>
      <trkpt lat="45.72815" lon="5.62838">
        <ele>337</ele>
        <time>2017-09-03T16:20:34Z</time>
      </trkpt>
      <trkpt lat="45.72815" lon="5.6283">
        <ele>337</ele>
        <time>2017-09-03T16:20:34Z</time>
      </trkpt>
      <trkpt lat="45.72816" lon="5.6282">
        <ele>337</ele>
        <time>2017-09-03T16:20:34Z</time>
      </trkpt>
      <trkpt lat="45.72817" lon="5.62812">
        <ele>337</ele>
        <time>2017-09-03T16:20:34Z</time>
      </trkpt>
      <trkpt lat="45.72817" lon="5.62804">
        <ele>337</ele>
        <time>2017-09-03T16:20:50Z</time>
      </trkpt>
      <trkpt lat="45.72815" lon="5.62797">
        <ele>337</ele>
        <time>2017-09-03T16:20:50Z</time>
      </trkpt>
      <trkpt lat="45.72813" lon="5.62788">
        <ele>332</ele>
        <time>2017-09-03T16:20:50Z</time>
      </trkpt>
      <trkpt lat="45.72808" lon="5.62774">
        <ele>332</ele>
        <time>2017-09-03T16:20:50Z</time>
      </trkpt>
      <trkpt lat="45.72802" lon="5.62761">
        <ele>332</ele>
        <time>2017-09-03T16:21:06Z</time>
      </trkpt>
      <trkpt lat="45.72799" lon="5.62756">
        <ele>332</ele>
        <time>2017-09-03T16:21:06Z</time>
      </trkpt>
      <trkpt lat="45.72796" lon="5.62751">
        <ele>332</ele>
        <time>2017-09-03T16:21:06Z</time>
      </trkpt>
      <trkpt lat="45.72793" lon="5.62745">
        <ele>332</ele>
        <time>2017-09-03T16:21:06Z</time>
      </trkpt>
      <trkpt lat="45.7279" lon="5.62739">
        <ele>360</ele>
        <time>2017-09-03T16:21:22Z</time>
      </trkpt>
      <trkpt lat="45.72788" lon="5.62735">
        <ele>360</ele>
        <time>2017-09-03T16:21:22Z</time>
      </trkpt>
      <trkpt lat="45.72784" lon="5.62726">
        <ele>360</ele>
        <time>2017-09-03T16:21:22Z</time>
      </trkpt>
      <trkpt lat="45.72781" lon="5.62718">
        <ele>360</ele>
        <time>2017-09-03T16:21:22Z</time>
      </trkpt>
      <trkpt lat="45.7278" lon="5.62708">
        <ele>341</ele>
        <time>2017-09-03T16:21:38Z</time>
      </trkpt>
      <trkpt lat="45.72779" lon="5.62699">
        <ele>341</ele>
        <time>2017-09-03T16:21:38Z</time>
      </trkpt>
      <trkpt lat="45.7278" lon="5.62688">
        <ele>341</ele>
        <time>2017-09-03T16:21:38Z</time>
      </trkpt>
      <trkpt lat="45.7278" lon="5.62678">
        <ele>341</ele>
        <time>2017-09-03T16:21:38Z</time>
      </trkpt>
      <trkpt lat="45.72777" lon="5.62671">
        <ele>341</ele>
        <time>2017-09-03T16:21:54Z</time>
      </trkpt>
      <trkpt lat="45.72774" lon="5.62665">
        <ele>341</ele>
        <time>2017-09-03T16:21:54Z</time>
      </trkpt>
      <trkpt lat="45.72769" lon="5.62661">
        <ele>341</ele>
        <time>2017-09-03T16:21:54Z</time>
      </trkpt>
      <trkpt lat="45.72765" lon="5.62659">
        <ele>341</ele>
        <time>2017-09-03T16:21:54Z</time>
      </trkpt>
      <trkpt lat="45.72761" lon="5.62658">
        <ele>341</ele>
        <time>2017-09-03T16:22:10Z</time>
      </trkpt>
      <trkpt lat="45.72756" lon="5.62659">
        <ele>341</ele>
        <time>2017-09-03T16:22:10Z</time>
      </trkpt>
      <trkpt lat="45.72751" lon="5.62659">
        <ele>341</ele>
        <time>2017-09-03T16:22:10Z</time>
      </trkpt>
      <trkpt lat="45.72745" lon="5.62657">
        <ele>341</ele>
        <time>2017-09-03T16:22:10Z</time>
      </trkpt>
      <trkpt lat="45.7274" lon="5.62656">
        <ele>341</ele>
        <time>2017-09-03T16:22:26Z</time>
      </trkpt>
      <trkpt lat="45.72734" lon="5.62655">
        <ele>341</ele>
        <time>2017-09-03T16:22:26Z</time>
      </trkpt>
      <trkpt lat="45.72729" lon="5.62654">
        <ele>341</ele>
        <time>2017-09-03T16:22:26Z</time>
      </trkpt>
      <trkpt lat="45.72723" lon="5.62653">
        <ele>341</ele>
        <time>2017-09-03T16:22:26Z</time>
      </trkpt>
      <trkpt lat="45.72718" lon="5.62656">
        <ele>341</ele>
        <time>2017-09-03T16:22:42Z</time>
      </trkpt>
      <trkpt lat="45.72713" lon="5.62656">
        <ele>341</ele>
        <time>2017-09-03T16:22:42Z</time>
      </trkpt>
      <trkpt lat="45.72708" lon="5.62656">
        <ele>350</ele>
        <time>2017-09-03T16:22:42Z</time>
      </trkpt>
      <trkpt lat="45.72703" lon="5.62656">
        <ele>350</ele>
        <time>2017-09-03T16:22:42Z</time>
      </trkpt>
      <trkpt lat="45.72699" lon="5.62657">
        <ele>350</ele>
        <time>2017-09-03T16:22:58Z</time>
      </trkpt>
      <trkpt lat="45.72695" lon="5.62658">
        <ele>350</ele>
        <time>2017-09-03T16:22:58Z</time>
      </trkpt>
      <trkpt lat="45.7269" lon="5.62656">
        <ele>350</ele>
        <time>2017-09-03T16:22:58Z</time>
      </trkpt>
      <trkpt lat="45.7269" lon="5.62654">
        <ele>350</ele>
        <time>2017-09-03T16:22:58Z</time>
      </trkpt>
      <trkpt lat="45.72684" lon="5.6265">
        <ele>350</ele>
        <time>2017-09-03T16:24:06Z</time>
      </trkpt>
      <trkpt lat="45.72684" lon="5.6265">
        <ele>350</ele>
        <time>2017-09-03T16:24:06Z</time>
      </trkpt>
      <trkpt lat="45.72684" lon="5.6265">
        <ele>350</ele>
        <time>2017-09-03T16:24:06Z</time>
      </trkpt>
      <trkpt lat="45.72682" lon="5.6265">
        <ele>350</ele>
        <time>2017-09-03T16:24:06Z</time>
      </trkpt>
      <trkpt lat="45.72675" lon="5.62649">
        <ele>350</ele>
        <time>2017-09-03T16:24:06Z</time>
      </trkpt>
      <trkpt lat="45.72668" lon="5.6265">
        <ele>350</ele>
        <time>2017-09-03T16:24:22Z</time>
      </trkpt>
      <trkpt lat="45.7266" lon="5.62649">
        <ele>350</ele>
        <time>2017-09-03T16:24:22Z</time>
      </trkpt>
      <trkpt lat="45.72652" lon="5.62646">
        <ele>350</ele>
        <time>2017-09-03T16:24:22Z</time>
      </trkpt>
      <trkpt lat="45.72644" lon="5.62643">
        <ele>350</ele>
        <time>2017-09-03T16:24:22Z</time>
      </trkpt>
      <trkpt lat="45.72638" lon="5.62643">
        <ele>350</ele>
        <time>2017-09-03T16:24:38Z</time>
      </trkpt>
      <trkpt lat="45.72632" lon="5.62642">
        <ele>350</ele>
        <time>2017-09-03T16:24:38Z</time>
      </trkpt>
      <trkpt lat="45.72626" lon="5.62643">
        <ele>350</ele>
        <time>2017-09-03T16:24:38Z</time>
      </trkpt>
      <trkpt lat="45.72623" lon="5.62646">
        <ele>345</ele>
        <time>2017-09-03T16:24:38Z</time>
      </trkpt>
      <trkpt lat="45.72618" lon="5.62648">
        <ele>345</ele>
        <time>2017-09-03T16:24:54Z</time>
      </trkpt>
      <trkpt lat="45.72611" lon="5.62649">
        <ele>345</ele>
        <time>2017-09-03T16:24:54Z</time>
      </trkpt>
      <trkpt lat="45.72605" lon="5.62646">
        <ele>345</ele>
        <time>2017-09-03T16:24:54Z</time>
      </trkpt>
      <trkpt lat="45.72599" lon="5.62642">
        <ele>345</ele>
        <time>2017-09-03T16:24:54Z</time>
      </trkpt>
      <trkpt lat="45.72593" lon="5.62638">
        <ele>345</ele>
        <time>2017-09-03T16:25:10Z</time>
      </trkpt>
      <trkpt lat="45.72588" lon="5.6264">
        <ele>345</ele>
        <time>2017-09-03T16:25:10Z</time>
      </trkpt>
      <trkpt lat="45.72582" lon="5.62639">
        <ele>345</ele>
        <time>2017-09-03T16:25:10Z</time>
      </trkpt>
      <trkpt lat="45.72577" lon="5.62641">
        <ele>345</ele>
        <time>2017-09-03T16:25:10Z</time>
      </trkpt>
      <trkpt lat="45.72563" lon="5.62651">
        <ele>345</ele>
        <time>2017-09-03T16:25:54Z</time>
      </trkpt>
      <trkpt lat="45.72562" lon="5.62651">
        <ele>345</ele>
        <time>2017-09-03T16:25:54Z</time>
      </trkpt>
      <trkpt lat="45.72561" lon="5.6265">
        <ele>345</ele>
        <time>2017-09-03T16:25:54Z</time>
      </trkpt>
      <trkpt lat="45.72558" lon="5.62651">
        <ele>345</ele>
        <time>2017-09-03T16:25:54Z</time>
      </trkpt>
      <trkpt lat="45.7255" lon="5.62655">
        <ele>345</ele>
        <time>2017-09-03T16:25:54Z</time>
      </trkpt>
      <trkpt lat="45.72542" lon="5.62659">
        <ele>345</ele>
        <time>2017-09-03T16:26:10Z</time>
      </trkpt>
      <trkpt lat="45.72534" lon="5.62663">
        <ele>338</ele>
        <time>2017-09-03T16:26:10Z</time>
      </trkpt>
      <trkpt lat="45.72525" lon="5.62666">
        <ele>338</ele>
        <time>2017-09-03T16:26:10Z</time>
      </trkpt>
      <trkpt lat="45.72516" lon="5.62667">
        <ele>338</ele>
        <time>2017-09-03T16:26:10Z</time>
      </trkpt>
      <trkpt lat="45.72509" lon="5.62669">
        <ele>338</ele>
        <time>2017-09-03T16:26:26Z</time>
      </trkpt>
      <trkpt lat="45.72502" lon="5.6267">
        <ele>338</ele>
        <time>2017-09-03T16:26:26Z</time>
      </trkpt>
      <trkpt lat="45.72495" lon="5.6267">
        <ele>338</ele>
        <time>2017-09-03T16:26:26Z</time>
      </trkpt>
      <trkpt lat="45.72489" lon="5.62668">
        <ele>338</ele>
        <time>2017-09-03T16:26:26Z</time>
      </trkpt>
      <trkpt lat="45.72483" lon="5.62665">
        <ele>338</ele>
        <time>2017-09-03T16:26:42Z</time>
      </trkpt>
      <trkpt lat="45.72477" lon="5.62663">
        <ele>338</ele>
        <time>2017-09-03T16:26:42Z</time>
      </trkpt>
      <trkpt lat="45.72471" lon="5.62663">
        <ele>338</ele>
        <time>2017-09-03T16:26:42Z</time>
      </trkpt>
      <trkpt lat="45.72467" lon="5.62661">
        <ele>338</ele>
        <time>2017-09-03T16:26:42Z</time>
      </trkpt>
      <trkpt lat="45.72463" lon="5.6266">
        <ele>338</ele>
        <time>2017-09-03T16:26:58Z</time>
      </trkpt>
      <trkpt lat="45.72459" lon="5.62657">
        <ele>338</ele>
        <time>2017-09-03T16:26:58Z</time>
      </trkpt>
      <trkpt lat="45.72455" lon="5.62657">
        <ele>336</ele>
        <time>2017-09-03T16:26:58Z</time>
      </trkpt>
      <trkpt lat="45.7245" lon="5.62657">
        <ele>336</ele>
        <time>2017-09-03T16:26:58Z</time>
      </trkpt>
      <trkpt lat="45.72446" lon="5.62658">
        <ele>336</ele>
        <time>2017-09-03T16:27:14Z</time>
      </trkpt>
      <trkpt lat="45.7244" lon="5.62658">
        <ele>336</ele>
        <time>2017-09-03T16:27:14Z</time>
      </trkpt>
      <trkpt lat="45.72435" lon="5.62659">
        <ele>336</ele>
        <time>2017-09-03T16:27:14Z</time>
      </trkpt>
      <trkpt lat="45.72429" lon="5.62659">
        <ele>336</ele>
        <time>2017-09-03T16:27:14Z</time>
      </trkpt>
      <trkpt lat="45.72422" lon="5.62655">
        <ele>336</ele>
        <time>2017-09-03T16:27:30Z</time>
      </trkpt>
      <trkpt lat="45.72416" lon="5.62655">
        <ele>336</ele>
        <time>2017-09-03T16:27:30Z</time>
      </trkpt>
      <trkpt lat="45.7241" lon="5.62656">
        <ele>336</ele>
        <time>2017-09-03T16:27:30Z</time>
      </trkpt>
      <trkpt lat="45.72403" lon="5.62654">
        <ele>336</ele>
        <time>2017-09-03T16:27:30Z</time>
      </trkpt>
      <trkpt lat="45.72395" lon="5.6265">
        <ele>336</ele>
        <time>2017-09-03T16:27:46Z</time>
      </trkpt>
      <trkpt lat="45.72387" lon="5.6265">
        <ele>336</ele>
        <time>2017-09-03T16:27:46Z</time>
      </trkpt>
      <trkpt lat="45.72382" lon="5.62654">
        <ele>336</ele>
        <time>2017-09-03T16:27:46Z</time>
      </trkpt>
      <trkpt lat="45.72378" lon="5.62656">
        <ele>336</ele>
        <time>2017-09-03T16:27:46Z</time>
      </trkpt>
      <trkpt lat="45.72373" lon="5.62658">
        <ele>331</ele>
        <time>2017-09-03T16:28:02Z</time>
      </trkpt>
      <trkpt lat="45.72367" lon="5.62658">
        <ele>331</ele>
        <time>2017-09-03T16:28:02Z</time>
      </trkpt>
      <trkpt lat="45.72361" lon="5.62661">
        <ele>331</ele>
        <time>2017-09-03T16:28:02Z</time>
      </trkpt>
      <trkpt lat="45.72355" lon="5.62662">
        <ele>331</ele>
        <time>2017-09-03T16:28:02Z</time>
      </trkpt>
      <trkpt lat="45.72349" lon="5.6266">
        <ele>331</ele>
        <time>2017-09-03T16:28:18Z</time>
      </trkpt>
      <trkpt lat="45.72343" lon="5.62659">
        <ele>331</ele>
        <time>2017-09-03T16:28:18Z</time>
      </trkpt>
      <trkpt lat="45.7234" lon="5.62658">
        <ele>331</ele>
        <time>2017-09-03T16:28:18Z</time>
      </trkpt>
      <trkpt lat="45.72338" lon="5.62658">
        <ele>331</ele>
        <time>2017-09-03T16:28:18Z</time>
      </trkpt>
      <trkpt lat="45.72336" lon="5.62658">
        <ele>331</ele>
        <time>2017-09-03T16:28:34Z</time>
      </trkpt>
      <trkpt lat="45.72333" lon="5.62658">
        <ele>331</ele>
        <time>2017-09-03T16:28:34Z</time>
      </trkpt>
      <trkpt lat="45.72327" lon="5.62658">
        <ele>331</ele>
        <time>2017-09-03T16:28:34Z</time>
      </trkpt>
      <trkpt lat="45.72319" lon="5.62657">
        <ele>331</ele>
        <time>2017-09-03T16:28:34Z</time>
      </trkpt>
      <trkpt lat="45.72311" lon="5.62658">
        <ele>331</ele>
        <time>2017-09-03T16:28:50Z</time>
      </trkpt>
      <trkpt lat="45.72304" lon="5.62658">
        <ele>331</ele>
        <time>2017-09-03T16:28:50Z</time>
      </trkpt>
      <trkpt lat="45.72297" lon="5.62658">
        <ele>331</ele>
        <time>2017-09-03T16:28:50Z</time>
      </trkpt>
      <trkpt lat="45.7229" lon="5.62657">
        <ele>330</ele>
        <time>2017-09-03T16:28:50Z</time>
      </trkpt>
      <trkpt lat="45.72284" lon="5.62657">
        <ele>330</ele>
        <time>2017-09-03T16:29:06Z</time>
      </trkpt>
      <trkpt lat="45.72278" lon="5.6266">
        <ele>330</ele>
        <time>2017-09-03T16:29:06Z</time>
      </trkpt>
      <trkpt lat="45.72269" lon="5.62662">
        <ele>330</ele>
        <time>2017-09-03T16:29:06Z</time>
      </trkpt>
      <trkpt lat="45.72262" lon="5.62661">
        <ele>330</ele>
        <time>2017-09-03T16:29:06Z</time>
      </trkpt>
      <trkpt lat="45.72252" lon="5.62655">
        <ele>330</ele>
        <time>2017-09-03T16:29:22Z</time>
      </trkpt>
      <trkpt lat="45.72241" lon="5.62654">
        <ele>330</ele>
        <time>2017-09-03T16:29:22Z</time>
      </trkpt>
      <trkpt lat="45.72233" lon="5.62659">
        <ele>330</ele>
        <time>2017-09-03T16:29:22Z</time>
      </trkpt>
      <trkpt lat="45.72227" lon="5.62662">
        <ele>330</ele>
        <time>2017-09-03T16:29:22Z</time>
      </trkpt>
      <trkpt lat="45.72222" lon="5.62663">
        <ele>330</ele>
        <time>2017-09-03T16:29:38Z</time>
      </trkpt>
      <trkpt lat="45.72216" lon="5.62664">
        <ele>330</ele>
        <time>2017-09-03T16:29:38Z</time>
      </trkpt>
      <trkpt lat="45.72212" lon="5.62665">
        <ele>330</ele>
        <time>2017-09-03T16:29:38Z</time>
      </trkpt>
      <trkpt lat="45.72207" lon="5.62663">
        <ele>326</ele>
        <time>2017-09-03T16:29:38Z</time>
      </trkpt>
      <trkpt lat="45.72201" lon="5.62662">
        <ele>326</ele>
        <time>2017-09-03T16:29:54Z</time>
      </trkpt>
      <trkpt lat="45.72193" lon="5.62659">
        <ele>326</ele>
        <time>2017-09-03T16:29:54Z</time>
      </trkpt>
      <trkpt lat="45.72185" lon="5.62658">
        <ele>326</ele>
        <time>2017-09-03T16:29:54Z</time>
      </trkpt>
      <trkpt lat="45.72177" lon="5.62659">
        <ele>326</ele>
        <time>2017-09-03T16:29:54Z</time>
      </trkpt>
      <trkpt lat="45.72171" lon="5.62661">
        <ele>326</ele>
        <time>2017-09-03T16:30:10Z</time>
      </trkpt>
      <trkpt lat="45.72166" lon="5.62662">
        <ele>326</ele>
        <time>2017-09-03T16:30:10Z</time>
      </trkpt>
      <trkpt lat="45.72162" lon="5.6266">
        <ele>326</ele>
        <time>2017-09-03T16:30:10Z</time>
      </trkpt>
      <trkpt lat="45.72157" lon="5.62661">
        <ele>326</ele>
        <time>2017-09-03T16:30:10Z</time>
      </trkpt>
      <trkpt lat="45.72152" lon="5.62662">
        <ele>326</ele>
        <time>2017-09-03T16:30:26Z</time>
      </trkpt>
      <trkpt lat="45.72146" lon="5.62662">
        <ele>326</ele>
        <time>2017-09-03T16:30:26Z</time>
      </trkpt>
      <trkpt lat="45.72141" lon="5.62666">
        <ele>326</ele>
        <time>2017-09-03T16:30:26Z</time>
      </trkpt>
      <trkpt lat="45.72135" lon="5.62665">
        <ele>326</ele>
        <time>2017-09-03T16:30:26Z</time>
      </trkpt>
      <trkpt lat="45.72129" lon="5.62664">
        <ele>326</ele>
        <time>2017-09-03T16:30:42Z</time>
      </trkpt>
      <trkpt lat="45.72124" lon="5.62663">
        <ele>331</ele>
        <time>2017-09-03T16:30:42Z</time>
      </trkpt>
      <trkpt lat="45.72119" lon="5.62662">
        <ele>331</ele>
        <time>2017-09-03T16:30:42Z</time>
      </trkpt>
      <trkpt lat="45.72113" lon="5.62663">
        <ele>331</ele>
        <time>2017-09-03T16:30:42Z</time>
      </trkpt>
      <trkpt lat="45.72106" lon="5.62661">
        <ele>331</ele>
        <time>2017-09-03T16:30:58Z</time>
      </trkpt>
      <trkpt lat="45.721" lon="5.62661">
        <ele>331</ele>
        <time>2017-09-03T16:30:58Z</time>
      </trkpt>
      <trkpt lat="45.72093" lon="5.62659">
        <ele>331</ele>
        <time>2017-09-03T16:30:58Z</time>
      </trkpt>
      <trkpt lat="45.72087" lon="5.62657">
        <ele>331</ele>
        <time>2017-09-03T16:30:58Z</time>
      </trkpt>
      <trkpt lat="45.7208" lon="5.62655">
        <ele>331</ele>
        <time>2017-09-03T16:31:14Z</time>
      </trkpt>
      <trkpt lat="45.72071" lon="5.62651">
        <ele>331</ele>
        <time>2017-09-03T16:31:14Z</time>
      </trkpt>
      <trkpt lat="45.72064" lon="5.62648">
        <ele>331</ele>
        <time>2017-09-03T16:31:14Z</time>
      </trkpt>
      <trkpt lat="45.72058" lon="5.62646">
        <ele>331</ele>
        <time>2017-09-03T16:31:14Z</time>
      </trkpt>
      <trkpt lat="45.72052" lon="5.62643">
        <ele>331</ele>
        <time>2017-09-03T16:31:30Z</time>
      </trkpt>
      <trkpt lat="45.72047" lon="5.62642">
        <ele>331</ele>
        <time>2017-09-03T16:31:30Z</time>
      </trkpt>
      <trkpt lat="45.72041" lon="5.62642">
        <ele>341</ele>
        <time>2017-09-03T16:31:30Z</time>
      </trkpt>
      <trkpt lat="45.72034" lon="5.6264">
        <ele>341</ele>
        <time>2017-09-03T16:31:30Z</time>
      </trkpt>
      <trkpt lat="45.72027" lon="5.62638">
        <ele>341</ele>
        <time>2017-09-03T16:31:46Z</time>
      </trkpt>
      <trkpt lat="45.72022" lon="5.62639">
        <ele>341</ele>
        <time>2017-09-03T16:31:46Z</time>
      </trkpt>
      <trkpt lat="45.72016" lon="5.62639">
        <ele>341</ele>
        <time>2017-09-03T16:31:46Z</time>
      </trkpt>
      <trkpt lat="45.7201" lon="5.62638">
        <ele>341</ele>
        <time>2017-09-03T16:31:46Z</time>
      </trkpt>
      <trkpt lat="45.72004" lon="5.62638">
        <ele>341</ele>
        <time>2017-09-03T16:32:02Z</time>
      </trkpt>
      <trkpt lat="45.71998" lon="5.62641">
        <ele>341</ele>
        <time>2017-09-03T16:32:02Z</time>
      </trkpt>
      <trkpt lat="45.71991" lon="5.62645">
        <ele>341</ele>
        <time>2017-09-03T16:32:02Z</time>
      </trkpt>
      <trkpt lat="45.71985" lon="5.62647">
        <ele>341</ele>
        <time>2017-09-03T16:32:02Z</time>
      </trkpt>
      <trkpt lat="45.71979" lon="5.62651">
        <ele>341</ele>
        <time>2017-09-03T16:32:18Z</time>
      </trkpt>
      <trkpt lat="45.71974" lon="5.62654">
        <ele>341</ele>
        <time>2017-09-03T16:32:18Z</time>
      </trkpt>
      <trkpt lat="45.71966" lon="5.62652">
        <ele>341</ele>
        <time>2017-09-03T16:32:18Z</time>
      </trkpt>
      <trkpt lat="45.71957" lon="5.62651">
        <ele>349</ele>
        <time>2017-09-03T16:32:18Z</time>
      </trkpt>
      <trkpt lat="45.71951" lon="5.62651">
        <ele>349</ele>
        <time>2017-09-03T16:32:34Z</time>
      </trkpt>
      <trkpt lat="45.71945" lon="5.62652">
        <ele>349</ele>
        <time>2017-09-03T16:32:34Z</time>
      </trkpt>
      <trkpt lat="45.7194" lon="5.62652">
        <ele>349</ele>
        <time>2017-09-03T16:32:34Z</time>
      </trkpt>
      <trkpt lat="45.71935" lon="5.62653">
        <ele>349</ele>
        <time>2017-09-03T16:32:34Z</time>
      </trkpt>
      <trkpt lat="45.71929" lon="5.62654">
        <ele>349</ele>
        <time>2017-09-03T16:32:50Z</time>
      </trkpt>
      <trkpt lat="45.71924" lon="5.62655">
        <ele>349</ele>
        <time>2017-09-03T16:32:50Z</time>
      </trkpt>
      <trkpt lat="45.7192" lon="5.62656">
        <ele>349</ele>
        <time>2017-09-03T16:32:50Z</time>
      </trkpt>
      <trkpt lat="45.71914" lon="5.62656">
        <ele>349</ele>
        <time>2017-09-03T16:32:50Z</time>
      </trkpt>
      <trkpt lat="45.71908" lon="5.62659">
        <ele>349</ele>
        <time>2017-09-03T16:33:06Z</time>
      </trkpt>
      <trkpt lat="45.71902" lon="5.62661">
        <ele>349</ele>
        <time>2017-09-03T16:33:06Z</time>
      </trkpt>
      <trkpt lat="45.719" lon="5.62662">
        <ele>349</ele>
        <time>2017-09-03T16:33:06Z</time>
      </trkpt>
      <trkpt lat="45.719" lon="5.62662">
        <ele>349</ele>
        <time>2017-09-03T16:33:06Z</time>
      </trkpt>
      <trkpt lat="45.71899" lon="5.62663">
        <ele>349</ele>
        <time>2017-09-03T16:33:22Z</time>
      </trkpt>
      <trkpt lat="45.71894" lon="5.62668">
        <ele>349</ele>
        <time>2017-09-03T16:33:22Z</time>
      </trkpt>
      <trkpt lat="45.71887" lon="5.62675">
        <ele>349</ele>
        <time>2017-09-03T16:33:22Z</time>
      </trkpt>
      <trkpt lat="45.71881" lon="5.62677">
        <ele>349</ele>
        <time>2017-09-03T16:33:22Z</time>
      </trkpt>
      <trkpt lat="45.71876" lon="5.6268">
        <ele>349</ele>
        <time>2017-09-03T16:33:38Z</time>
      </trkpt>
      <trkpt lat="45.7187" lon="5.62681">
        <ele>357</ele>
        <time>2017-09-03T16:33:38Z</time>
      </trkpt>
      <trkpt lat="45.71864" lon="5.62685">
        <ele>357</ele>
        <time>2017-09-03T16:33:38Z</time>
      </trkpt>
      <trkpt lat="45.71858" lon="5.6269">
        <ele>357</ele>
        <time>2017-09-03T16:33:38Z</time>
      </trkpt>
      <trkpt lat="45.71851" lon="5.62693">
        <ele>357</ele>
        <time>2017-09-03T16:33:54Z</time>
      </trkpt>
      <trkpt lat="45.71846" lon="5.62697">
        <ele>357</ele>
        <time>2017-09-03T16:33:54Z</time>
      </trkpt>
      <trkpt lat="45.7184" lon="5.627">
        <ele>357</ele>
        <time>2017-09-03T16:33:54Z</time>
      </trkpt>
      <trkpt lat="45.71835" lon="5.62704">
        <ele>357</ele>
        <time>2017-09-03T16:33:54Z</time>
      </trkpt>
      <trkpt lat="45.7183" lon="5.62707">
        <ele>357</ele>
        <time>2017-09-03T16:34:10Z</time>
      </trkpt>
      <trkpt lat="45.71826" lon="5.6271">
        <ele>369</ele>
        <time>2017-09-03T16:34:10Z</time>
      </trkpt>
      <trkpt lat="45.71821" lon="5.62712">
        <ele>369</ele>
        <time>2017-09-03T16:34:10Z</time>
      </trkpt>
      <trkpt lat="45.71817" lon="5.62715">
        <ele>369</ele>
        <time>2017-09-03T16:34:10Z</time>
      </trkpt>
      <trkpt lat="45.71815" lon="5.62718">
        <ele>369</ele>
        <time>2017-09-03T16:34:26Z</time>
      </trkpt>
      <trkpt lat="45.71813" lon="5.6272">
        <ele>369</ele>
        <time>2017-09-03T16:34:26Z</time>
      </trkpt>
      <trkpt lat="45.7181" lon="5.62721">
        <ele>369</ele>
        <time>2017-09-03T16:34:26Z</time>
      </trkpt>
      <trkpt lat="45.71805" lon="5.62724">
        <ele>369</ele>
        <time>2017-09-03T16:34:26Z</time>
      </trkpt>
      <trkpt lat="45.718" lon="5.62728">
        <ele>369</ele>
        <time>2017-09-03T16:34:42Z</time>
      </trkpt>
      <trkpt lat="45.71793" lon="5.62733">
        <ele>369</ele>
        <time>2017-09-03T16:34:42Z</time>
      </trkpt>
      <trkpt lat="45.71787" lon="5.62737">
        <ele>360</ele>
        <time>2017-09-03T16:34:42Z</time>
      </trkpt>
      <trkpt lat="45.71783" lon="5.62742">
        <ele>360</ele>
        <time>2017-09-03T16:34:42Z</time>
      </trkpt>
      <trkpt lat="45.71779" lon="5.62747">
        <ele>360</ele>
        <time>2017-09-03T16:34:58Z</time>
      </trkpt>
      <trkpt lat="45.71774" lon="5.62754">
        <ele>360</ele>
        <time>2017-09-03T16:34:58Z</time>
      </trkpt>
      <trkpt lat="45.71768" lon="5.62761">
        <ele>360</ele>
        <time>2017-09-03T16:34:58Z</time>
      </trkpt>
      <trkpt lat="45.71762" lon="5.62768">
        <ele>360</ele>
        <time>2017-09-03T16:34:58Z</time>
      </trkpt>
      <trkpt lat="45.71757" lon="5.62774">
        <ele>360</ele>
        <time>2017-09-03T16:35:14Z</time>
      </trkpt>
      <trkpt lat="45.71752" lon="5.62778">
        <ele>360</ele>
        <time>2017-09-03T16:35:14Z</time>
      </trkpt>
      <trkpt lat="45.71746" lon="5.62782">
        <ele>360</ele>
        <time>2017-09-03T16:35:14Z</time>
      </trkpt>
      <trkpt lat="45.71741" lon="5.62785">
        <ele>360</ele>
        <time>2017-09-03T16:35:14Z</time>
      </trkpt>
      <trkpt lat="45.71735" lon="5.62788">
        <ele>360</ele>
        <time>2017-09-03T16:35:30Z</time>
      </trkpt>
      <trkpt lat="45.71732" lon="5.62792">
        <ele>360</ele>
        <time>2017-09-03T16:35:30Z</time>
      </trkpt>
      <trkpt lat="45.71727" lon="5.62797">
        <ele>378</ele>
        <time>2017-09-03T16:35:30Z</time>
      </trkpt>
      <trkpt lat="45.71721" lon="5.62802">
        <ele>378</ele>
        <time>2017-09-03T16:35:30Z</time>
      </trkpt>
      <trkpt lat="45.71716" lon="5.62807">
        <ele>378</ele>
        <time>2017-09-03T16:35:46Z</time>
      </trkpt>
      <trkpt lat="45.71711" lon="5.62809">
        <ele>378</ele>
        <time>2017-09-03T16:35:46Z</time>
      </trkpt>
      <trkpt lat="45.71707" lon="5.62814">
        <ele>362</ele>
        <time>2017-09-03T16:35:46Z</time>
      </trkpt>
      <trkpt lat="45.71703" lon="5.62818">
        <ele>362</ele>
        <time>2017-09-03T16:35:46Z</time>
      </trkpt>
      <trkpt lat="45.71701" lon="5.62822">
        <ele>362</ele>
        <time>2017-09-03T16:36:02Z</time>
      </trkpt>
      <trkpt lat="45.71697" lon="5.62827">
        <ele>362</ele>
        <time>2017-09-03T16:36:02Z</time>
      </trkpt>
      <trkpt lat="45.71694" lon="5.62833">
        <ele>362</ele>
        <time>2017-09-03T16:36:02Z</time>
      </trkpt>
      <trkpt lat="45.71689" lon="5.62839">
        <ele>362</ele>
        <time>2017-09-03T16:36:02Z</time>
      </trkpt>
      <trkpt lat="45.71684" lon="5.6285">
        <ele>362</ele>
        <time>2017-09-03T16:36:18Z</time>
      </trkpt>
      <trkpt lat="45.71682" lon="5.6286">
        <ele>362</ele>
        <time>2017-09-03T16:36:18Z</time>
      </trkpt>
      <trkpt lat="45.7168" lon="5.62867">
        <ele>362</ele>
        <time>2017-09-03T16:36:18Z</time>
      </trkpt>
      <trkpt lat="45.71678" lon="5.6287">
        <ele>362</ele>
        <time>2017-09-03T16:36:18Z</time>
      </trkpt>
      <trkpt lat="45.71676" lon="5.62876">
        <ele>374</ele>
        <time>2017-09-03T16:36:34Z</time>
      </trkpt>
      <trkpt lat="45.71673" lon="5.62885">
        <ele>374</ele>
        <time>2017-09-03T16:36:34Z</time>
      </trkpt>
      <trkpt lat="45.7167" lon="5.62893">
        <ele>374</ele>
        <time>2017-09-03T16:36:34Z</time>
      </trkpt>
      <trkpt lat="45.71666" lon="5.62897">
        <ele>374</ele>
        <time>2017-09-03T16:36:34Z</time>
      </trkpt>
      <trkpt lat="45.71663" lon="5.62904">
        <ele>374</ele>
        <time>2017-09-03T16:36:50Z</time>
      </trkpt>
      <trkpt lat="45.7166" lon="5.62907">
        <ele>374</ele>
        <time>2017-09-03T16:36:50Z</time>
      </trkpt>
      <trkpt lat="45.71657" lon="5.62913">
        <ele>374</ele>
        <time>2017-09-03T16:36:50Z</time>
      </trkpt>
      <trkpt lat="45.71652" lon="5.62919">
        <ele>374</ele>
        <time>2017-09-03T16:36:50Z</time>
      </trkpt>
      <trkpt lat="45.71646" lon="5.62925">
        <ele>374</ele>
        <time>2017-09-03T16:37:06Z</time>
      </trkpt>
      <trkpt lat="45.71639" lon="5.62929">
        <ele>374</ele>
        <time>2017-09-03T16:37:06Z</time>
      </trkpt>
      <trkpt lat="45.71633" lon="5.62932">
        <ele>374</ele>
        <time>2017-09-03T16:37:06Z</time>
      </trkpt>
      <trkpt lat="45.71627" lon="5.62937">
        <ele>374</ele>
        <time>2017-09-03T16:37:06Z</time>
      </trkpt>
      <trkpt lat="45.71622" lon="5.62943">
        <ele>361</ele>
        <time>2017-09-03T16:37:22Z</time>
      </trkpt>
      <trkpt lat="45.71618" lon="5.62947">
        <ele>361</ele>
        <time>2017-09-03T16:37:22Z</time>
      </trkpt>
      <trkpt lat="45.71615" lon="5.6295">
        <ele>361</ele>
        <time>2017-09-03T16:37:22Z</time>
      </trkpt>
      <trkpt lat="45.71609" lon="5.62955">
        <ele>361</ele>
        <time>2017-09-03T16:37:22Z</time>
      </trkpt>
      <trkpt lat="45.71606" lon="5.62957">
        <ele>361</ele>
        <time>2017-09-03T16:37:38Z</time>
      </trkpt>
      <trkpt lat="45.716" lon="5.6296">
        <ele>375</ele>
        <time>2017-09-03T16:37:38Z</time>
      </trkpt>
      <trkpt lat="45.71594" lon="5.62965">
        <ele>375</ele>
        <time>2017-09-03T16:37:38Z</time>
      </trkpt>
      <trkpt lat="45.71587" lon="5.6297">
        <ele>375</ele>
        <time>2017-09-03T16:37:38Z</time>
      </trkpt>
      <trkpt lat="45.71583" lon="5.62971">
        <ele>375</ele>
        <time>2017-09-03T16:37:54Z</time>
      </trkpt>
      <trkpt lat="45.71577" lon="5.62975">
        <ele>375</ele>
        <time>2017-09-03T16:37:54Z</time>
      </trkpt>
      <trkpt lat="45.71571" lon="5.6298">
        <ele>375</ele>
        <time>2017-09-03T16:37:54Z</time>
      </trkpt>
      <trkpt lat="45.71565" lon="5.62983">
        <ele>375</ele>
        <time>2017-09-03T16:37:54Z</time>
      </trkpt>
      <trkpt lat="45.7156" lon="5.62987">
        <ele>375</ele>
        <time>2017-09-03T16:38:10Z</time>
      </trkpt>
      <trkpt lat="45.71555" lon="5.6299">
        <ele>375</ele>
        <time>2017-09-03T16:38:10Z</time>
      </trkpt>
      <trkpt lat="45.71552" lon="5.62992">
        <ele>375</ele>
        <time>2017-09-03T16:38:10Z</time>
      </trkpt>
      <trkpt lat="45.71547" lon="5.62994">
        <ele>375</ele>
        <time>2017-09-03T16:38:10Z</time>
      </trkpt>
      <trkpt lat="45.71541" lon="5.62995">
        <ele>369</ele>
        <time>2017-09-03T16:38:26Z</time>
      </trkpt>
      <trkpt lat="45.71534" lon="5.62999">
        <ele>369</ele>
        <time>2017-09-03T16:38:26Z</time>
      </trkpt>
      <trkpt lat="45.7153" lon="5.63003">
        <ele>369</ele>
        <time>2017-09-03T16:38:26Z</time>
      </trkpt>
      <trkpt lat="45.71523" lon="5.63006">
        <ele>369</ele>
        <time>2017-09-03T16:38:26Z</time>
      </trkpt>
      <trkpt lat="45.71516" lon="5.6301">
        <ele>369</ele>
        <time>2017-09-03T16:38:42Z</time>
      </trkpt>
      <trkpt lat="45.7151" lon="5.63015">
        <ele>369</ele>
        <time>2017-09-03T16:38:42Z</time>
      </trkpt>
      <trkpt lat="45.71504" lon="5.63022">
        <ele>369</ele>
        <time>2017-09-03T16:38:42Z</time>
      </trkpt>
      <trkpt lat="45.71499" lon="5.63027">
        <ele>369</ele>
        <time>2017-09-03T16:38:42Z</time>
      </trkpt>
      <trkpt lat="45.71497" lon="5.6303">
        <ele>369</ele>
        <time>2017-09-03T16:39:02Z</time>
      </trkpt>
      <trkpt lat="45.71495" lon="5.63034">
        <ele>369</ele>
        <time>2017-09-03T16:39:02Z</time>
      </trkpt>
      <trkpt lat="45.71494" lon="5.63035">
        <ele>369</ele>
        <time>2017-09-03T16:39:02Z</time>
      </trkpt>
      <trkpt lat="45.71492" lon="5.63036">
        <ele>369</ele>
        <time>2017-09-03T16:39:02Z</time>
      </trkpt>
      <trkpt lat="45.71489" lon="5.63038">
        <ele>369</ele>
        <time>2017-09-03T16:39:02Z</time>
      </trkpt>
      <trkpt lat="45.71482" lon="5.63042">
        <ele>369</ele>
        <time>2017-09-03T16:39:18Z</time>
      </trkpt>
      <trkpt lat="45.71475" lon="5.63047">
        <ele>385</ele>
        <time>2017-09-03T16:39:18Z</time>
      </trkpt>
      <trkpt lat="45.71469" lon="5.63053">
        <ele>385</ele>
        <time>2017-09-03T16:39:18Z</time>
      </trkpt>
      <trkpt lat="45.71463" lon="5.63059">
        <ele>385</ele>
        <time>2017-09-03T16:39:18Z</time>
      </trkpt>
      <trkpt lat="45.71457" lon="5.63064">
        <ele>378</ele>
        <time>2017-09-03T16:39:34Z</time>
      </trkpt>
      <trkpt lat="45.71452" lon="5.63069">
        <ele>378</ele>
        <time>2017-09-03T16:39:34Z</time>
      </trkpt>
      <trkpt lat="45.71446" lon="5.63073">
        <ele>378</ele>
        <time>2017-09-03T16:39:34Z</time>
      </trkpt>
      <trkpt lat="45.71441" lon="5.63077">
        <ele>378</ele>
        <time>2017-09-03T16:39:34Z</time>
      </trkpt>
      <trkpt lat="45.71435" lon="5.6308">
        <ele>378</ele>
        <time>2017-09-03T16:39:50Z</time>
      </trkpt>
      <trkpt lat="45.71429" lon="5.63083">
        <ele>378</ele>
        <time>2017-09-03T16:39:50Z</time>
      </trkpt>
      <trkpt lat="45.71424" lon="5.63086">
        <ele>378</ele>
        <time>2017-09-03T16:39:50Z</time>
      </trkpt>
      <trkpt lat="45.7142" lon="5.63087">
        <ele>378</ele>
        <time>2017-09-03T16:39:50Z</time>
      </trkpt>
      <trkpt lat="45.71415" lon="5.63088">
        <ele>378</ele>
        <time>2017-09-03T16:40:06Z</time>
      </trkpt>
      <trkpt lat="45.71409" lon="5.6309">
        <ele>378</ele>
        <time>2017-09-03T16:40:06Z</time>
      </trkpt>
      <trkpt lat="45.71403" lon="5.6309">
        <ele>378</ele>
        <time>2017-09-03T16:40:06Z</time>
      </trkpt>
      <trkpt lat="45.71396" lon="5.63092">
        <ele>378</ele>
        <time>2017-09-03T16:40:06Z</time>
      </trkpt>
      <trkpt lat="45.71391" lon="5.63096">
        <ele>378</ele>
        <time>2017-09-03T16:40:22Z</time>
      </trkpt>
      <trkpt lat="45.71388" lon="5.631">
        <ele>378</ele>
        <time>2017-09-03T16:40:22Z</time>
      </trkpt>
      <trkpt lat="45.71384" lon="5.63106">
        <ele>378</ele>
        <time>2017-09-03T16:40:22Z</time>
      </trkpt>
      <trkpt lat="45.71381" lon="5.63112">
        <ele>378</ele>
        <time>2017-09-03T16:40:22Z</time>
      </trkpt>
      <trkpt lat="45.71378" lon="5.63116">
        <ele>378</ele>
        <time>2017-09-03T16:40:38Z</time>
      </trkpt>
      <trkpt lat="45.71374" lon="5.63122">
        <ele>374</ele>
        <time>2017-09-03T16:40:38Z</time>
      </trkpt>
      <trkpt lat="45.71368" lon="5.63128">
        <ele>377</ele>
        <time>2017-09-03T16:40:38Z</time>
      </trkpt>
      <trkpt lat="45.71363" lon="5.63132">
        <ele>377</ele>
        <time>2017-09-03T16:40:38Z</time>
      </trkpt>
      <trkpt lat="45.71359" lon="5.63138">
        <ele>377</ele>
        <time>2017-09-03T16:40:54Z</time>
      </trkpt>
      <trkpt lat="45.71355" lon="5.63142">
        <ele>377</ele>
        <time>2017-09-03T16:40:54Z</time>
      </trkpt>
      <trkpt lat="45.71353" lon="5.63145">
        <ele>377</ele>
        <time>2017-09-03T16:40:54Z</time>
      </trkpt>
      <trkpt lat="45.71352" lon="5.63148">
        <ele>377</ele>
        <time>2017-09-03T16:40:54Z</time>
      </trkpt>
      <trkpt lat="45.71348" lon="5.63153">
        <ele>377</ele>
        <time>2017-09-03T16:41:10Z</time>
      </trkpt>
      <trkpt lat="45.71344" lon="5.6316">
        <ele>377</ele>
        <time>2017-09-03T16:41:10Z</time>
      </trkpt>
      <trkpt lat="45.71339" lon="5.63167">
        <ele>377</ele>
        <time>2017-09-03T16:41:10Z</time>
      </trkpt>
      <trkpt lat="45.71334" lon="5.63173">
        <ele>377</ele>
        <time>2017-09-03T16:41:10Z</time>
      </trkpt>
      <trkpt lat="45.71329" lon="5.63181">
        <ele>377</ele>
        <time>2017-09-03T16:41:26Z</time>
      </trkpt>
      <trkpt lat="45.71324" lon="5.6319">
        <ele>377</ele>
        <time>2017-09-03T16:41:26Z</time>
      </trkpt>
      <trkpt lat="45.7132" lon="5.63199">
        <ele>377</ele>
        <time>2017-09-03T16:41:26Z</time>
      </trkpt>
      <trkpt lat="45.71313" lon="5.63209">
        <ele>375</ele>
        <time>2017-09-03T16:41:26Z</time>
      </trkpt>
      <trkpt lat="45.7131" lon="5.6322">
        <ele>375</ele>
        <time>2017-09-03T16:41:42Z</time>
      </trkpt>
      <trkpt lat="45.71308" lon="5.63227">
        <ele>375</ele>
        <time>2017-09-03T16:41:42Z</time>
      </trkpt>
      <trkpt lat="45.71311" lon="5.63236">
        <ele>375</ele>
        <time>2017-09-03T16:41:42Z</time>
      </trkpt>
      <trkpt lat="45.71318" lon="5.63242">
        <ele>375</ele>
        <time>2017-09-03T16:41:42Z</time>
      </trkpt>
      <trkpt lat="45.71324" lon="5.63243">
        <ele>375</ele>
        <time>2017-09-03T16:41:58Z</time>
      </trkpt>
      <trkpt lat="45.71329" lon="5.63245">
        <ele>375</ele>
        <time>2017-09-03T16:41:58Z</time>
      </trkpt>
      <trkpt lat="45.71334" lon="5.63251">
        <ele>375</ele>
        <time>2017-09-03T16:41:58Z</time>
      </trkpt>
      <trkpt lat="45.71338" lon="5.63255">
        <ele>375</ele>
        <time>2017-09-03T16:41:58Z</time>
      </trkpt>
      <trkpt lat="45.71343" lon="5.63258">
        <ele>375</ele>
        <time>2017-09-03T16:42:14Z</time>
      </trkpt>
      <trkpt lat="45.71345" lon="5.63263">
        <ele>375</ele>
        <time>2017-09-03T16:42:14Z</time>
      </trkpt>
      <trkpt lat="45.71349" lon="5.63268">
        <ele>375</ele>
        <time>2017-09-03T16:42:14Z</time>
      </trkpt>
      <trkpt lat="45.71354" lon="5.63273">
        <ele>375</ele>
        <time>2017-09-03T16:42:14Z</time>
      </trkpt>
      <trkpt lat="45.71356" lon="5.6328">
        <ele>375</ele>
        <time>2017-09-03T16:42:30Z</time>
      </trkpt>
      <trkpt lat="45.71356" lon="5.63288">
        <ele>375</ele>
        <time>2017-09-03T16:42:30Z</time>
      </trkpt>
      <trkpt lat="45.7136" lon="5.63297">
        <ele>373</ele>
        <time>2017-09-03T16:42:30Z</time>
      </trkpt>
      <trkpt lat="45.71364" lon="5.63305">
        <ele>373</ele>
        <time>2017-09-03T16:42:30Z</time>
      </trkpt>
      <trkpt lat="45.71369" lon="5.63306">
        <ele>373</ele>
        <time>2017-09-03T16:42:46Z</time>
      </trkpt>
      <trkpt lat="45.71374" lon="5.63306">
        <ele>373</ele>
        <time>2017-09-03T16:42:46Z</time>
      </trkpt>
      <trkpt lat="45.71377" lon="5.63307">
        <ele>379</ele>
        <time>2017-09-03T16:42:46Z</time>
      </trkpt>
      <trkpt lat="45.71381" lon="5.63311">
        <ele>379</ele>
        <time>2017-09-03T16:42:46Z</time>
      </trkpt>
      <trkpt lat="45.71386" lon="5.63316">
        <ele>379</ele>
        <time>2017-09-03T16:43:02Z</time>
      </trkpt>
      <trkpt lat="45.71386" lon="5.63327">
        <ele>379</ele>
        <time>2017-09-03T16:43:02Z</time>
      </trkpt>
      <trkpt lat="45.71385" lon="5.63343">
        <ele>379</ele>
        <time>2017-09-03T16:43:02Z</time>
      </trkpt>
      <trkpt lat="45.71385" lon="5.63352">
        <ele>379</ele>
        <time>2017-09-03T16:43:02Z</time>
      </trkpt>
      <trkpt lat="45.71387" lon="5.63359">
        <ele>379</ele>
        <time>2017-09-03T16:43:18Z</time>
      </trkpt>
      <trkpt lat="45.71387" lon="5.63364">
        <ele>379</ele>
        <time>2017-09-03T16:43:18Z</time>
      </trkpt>
      <trkpt lat="45.71384" lon="5.63369">
        <ele>379</ele>
        <time>2017-09-03T16:43:18Z</time>
      </trkpt>
      <trkpt lat="45.71379" lon="5.63372">
        <ele>379</ele>
        <time>2017-09-03T16:43:18Z</time>
      </trkpt>
      <trkpt lat="45.71371" lon="5.6338">
        <ele>378</ele>
        <time>2017-09-03T16:43:34Z</time>
      </trkpt>
      <trkpt lat="45.71365" lon="5.63386">
        <ele>378</ele>
        <time>2017-09-03T16:43:34Z</time>
      </trkpt>
      <trkpt lat="45.71361" lon="5.63391">
        <ele>378</ele>
        <time>2017-09-03T16:43:34Z</time>
      </trkpt>
      <trkpt lat="45.71356" lon="5.63396">
        <ele>378</ele>
        <time>2017-09-03T16:43:34Z</time>
      </trkpt>
      <trkpt lat="45.71352" lon="5.63405">
        <ele>378</ele>
        <time>2017-09-03T16:43:50Z</time>
      </trkpt>
      <trkpt lat="45.71346" lon="5.63409">
        <ele>378</ele>
        <time>2017-09-03T16:43:50Z</time>
      </trkpt>
      <trkpt lat="45.71338" lon="5.6342">
        <ele>378</ele>
        <time>2017-09-03T16:43:50Z</time>
      </trkpt>
      <trkpt lat="45.71328" lon="5.6344">
        <ele>378</ele>
        <time>2017-09-03T16:43:50Z</time>
      </trkpt>
      <trkpt lat="45.71313" lon="5.6346">
        <ele>388</ele>
        <time>2017-09-03T16:44:06Z</time>
      </trkpt>
      <trkpt lat="45.71302" lon="5.63476">
        <ele>388</ele>
        <time>2017-09-03T16:44:06Z</time>
      </trkpt>
      <trkpt lat="45.71293" lon="5.63487">
        <ele>388</ele>
        <time>2017-09-03T16:44:06Z</time>
      </trkpt>
      <trkpt lat="45.7129" lon="5.63495">
        <ele>385</ele>
        <time>2017-09-03T16:44:06Z</time>
      </trkpt>
      <trkpt lat="45.71288" lon="5.63503">
        <ele>385</ele>
        <time>2017-09-03T16:44:22Z</time>
      </trkpt>
      <trkpt lat="45.71286" lon="5.63511">
        <ele>385</ele>
        <time>2017-09-03T16:44:22Z</time>
      </trkpt>
      <trkpt lat="45.7128" lon="5.63519">
        <ele>385</ele>
        <time>2017-09-03T16:44:22Z</time>
      </trkpt>
      <trkpt lat="45.71275" lon="5.63526">
        <ele>385</ele>
        <time>2017-09-03T16:44:22Z</time>
      </trkpt>
      <trkpt lat="45.7127" lon="5.63535">
        <ele>385</ele>
        <time>2017-09-03T16:44:38Z</time>
      </trkpt>
      <trkpt lat="45.71267" lon="5.63543">
        <ele>385</ele>
        <time>2017-09-03T16:44:38Z</time>
      </trkpt>
      <trkpt lat="45.71263" lon="5.63551">
        <ele>385</ele>
        <time>2017-09-03T16:44:38Z</time>
      </trkpt>
      <trkpt lat="45.71256" lon="5.6356">
        <ele>385</ele>
        <time>2017-09-03T16:44:38Z</time>
      </trkpt>
      <trkpt lat="45.7125" lon="5.6357">
        <ele>385</ele>
        <time>2017-09-03T16:44:58Z</time>
      </trkpt>
      <trkpt lat="45.71248" lon="5.63572">
        <ele>385</ele>
        <time>2017-09-03T16:44:58Z</time>
      </trkpt>
      <trkpt lat="45.71247" lon="5.63572">
        <ele>385</ele>
        <time>2017-09-03T16:44:58Z</time>
      </trkpt>
      <trkpt lat="45.71245" lon="5.63575">
        <ele>385</ele>
        <time>2017-09-03T16:44:58Z</time>
      </trkpt>
      <trkpt lat="45.71242" lon="5.63583">
        <ele>385</ele>
        <time>2017-09-03T16:44:58Z</time>
      </trkpt>
      <trkpt lat="45.71239" lon="5.63591">
        <ele>385</ele>
        <time>2017-09-03T16:45:14Z</time>
      </trkpt>
      <trkpt lat="45.71238" lon="5.636">
        <ele>385</ele>
        <time>2017-09-03T16:45:14Z</time>
      </trkpt>
      <trkpt lat="45.71232" lon="5.63611">
        <ele>385</ele>
        <time>2017-09-03T16:45:14Z</time>
      </trkpt>
      <trkpt lat="45.71229" lon="5.63621">
        <ele>385</ele>
        <time>2017-09-03T16:45:14Z</time>
      </trkpt>
      <trkpt lat="45.71222" lon="5.63632">
        <ele>388</ele>
        <time>2017-09-03T16:45:30Z</time>
      </trkpt>
      <trkpt lat="45.71217" lon="5.63641">
        <ele>388</ele>
        <time>2017-09-03T16:45:30Z</time>
      </trkpt>
      <trkpt lat="45.71218" lon="5.63647">
        <ele>388</ele>
        <time>2017-09-03T16:45:30Z</time>
      </trkpt>
      <trkpt lat="45.71214" lon="5.6366">
        <ele>388</ele>
        <time>2017-09-03T16:45:30Z</time>
      </trkpt>
      <trkpt lat="45.71216" lon="5.63667">
        <ele>388</ele>
        <time>2017-09-03T16:45:46Z</time>
      </trkpt>
      <trkpt lat="45.71215" lon="5.63674">
        <ele>388</ele>
        <time>2017-09-03T16:45:46Z</time>
      </trkpt>
      <trkpt lat="45.71216" lon="5.6368">
        <ele>388</ele>
        <time>2017-09-03T16:45:46Z</time>
      </trkpt>
      <trkpt lat="45.71216" lon="5.63686">
        <ele>388</ele>
        <time>2017-09-03T16:45:46Z</time>
      </trkpt>
      <trkpt lat="45.71216" lon="5.63686">
        <ele>388</ele>
        <time>2017-09-03T16:46:02Z</time>
      </trkpt>
      <trkpt lat="45.71216" lon="5.63686">
        <ele>388</ele>
        <time>2017-09-03T16:46:02Z</time>
      </trkpt>
      <trkpt lat="45.71216" lon="5.63694">
        <ele>388</ele>
        <time>2017-09-03T16:46:02Z</time>
      </trkpt>
      <trkpt lat="45.71218" lon="5.63703">
        <ele>388</ele>
        <time>2017-09-03T16:46:02Z</time>
      </trkpt>
      <trkpt lat="45.71219" lon="5.63713">
        <ele>387</ele>
        <time>2017-09-03T16:46:18Z</time>
      </trkpt>
      <trkpt lat="45.71221" lon="5.63723">
        <ele>387</ele>
        <time>2017-09-03T16:46:18Z</time>
      </trkpt>
      <trkpt lat="45.71224" lon="5.63731">
        <ele>387</ele>
        <time>2017-09-03T16:46:18Z</time>
      </trkpt>
      <trkpt lat="45.71227" lon="5.63739">
        <ele>387</ele>
        <time>2017-09-03T16:46:18Z</time>
      </trkpt>
      <trkpt lat="45.71228" lon="5.63747">
        <ele>387</ele>
        <time>2017-09-03T16:46:34Z</time>
      </trkpt>
      <trkpt lat="45.71229" lon="5.63755">
        <ele>387</ele>
        <time>2017-09-03T16:46:34Z</time>
      </trkpt>
      <trkpt lat="45.71229" lon="5.63765">
        <ele>387</ele>
        <time>2017-09-03T16:46:34Z</time>
      </trkpt>
      <trkpt lat="45.71231" lon="5.63775">
        <ele>387</ele>
        <time>2017-09-03T16:46:34Z</time>
      </trkpt>
      <trkpt lat="45.71234" lon="5.63786">
        <ele>387</ele>
        <time>2017-09-03T16:46:50Z</time>
      </trkpt>
      <trkpt lat="45.71233" lon="5.63795">
        <ele>381</ele>
        <time>2017-09-03T16:46:50Z</time>
      </trkpt>
      <trkpt lat="45.71233" lon="5.63804">
        <ele>381</ele>
        <time>2017-09-03T16:46:50Z</time>
      </trkpt>
      <trkpt lat="45.71234" lon="5.6381">
        <ele>381</ele>
        <time>2017-09-03T16:46:50Z</time>
      </trkpt>
      <trkpt lat="45.71236" lon="5.63817">
        <ele>381</ele>
        <time>2017-09-03T16:47:06Z</time>
      </trkpt>
      <trkpt lat="45.71236" lon="5.63825">
        <ele>381</ele>
        <time>2017-09-03T16:47:06Z</time>
      </trkpt>
      <trkpt lat="45.71234" lon="5.63833">
        <ele>381</ele>
        <time>2017-09-03T16:47:06Z</time>
      </trkpt>
      <trkpt lat="45.71234" lon="5.63843">
        <ele>381</ele>
        <time>2017-09-03T16:47:06Z</time>
      </trkpt>
      <trkpt lat="45.71233" lon="5.63851">
        <ele>381</ele>
        <time>2017-09-03T16:47:22Z</time>
      </trkpt>
      <trkpt lat="45.71232" lon="5.6386">
        <ele>381</ele>
        <time>2017-09-03T16:47:22Z</time>
      </trkpt>
      <trkpt lat="45.7123" lon="5.63868">
        <ele>381</ele>
        <time>2017-09-03T16:47:22Z</time>
      </trkpt>
      <trkpt lat="45.71229" lon="5.63876">
        <ele>376</ele>
        <time>2017-09-03T16:47:22Z</time>
      </trkpt>
      <trkpt lat="45.71229" lon="5.63886">
        <ele>376</ele>
        <time>2017-09-03T16:47:38Z</time>
      </trkpt>
      <trkpt lat="45.71227" lon="5.63895">
        <ele>376</ele>
        <time>2017-09-03T16:47:38Z</time>
      </trkpt>
      <trkpt lat="45.71223" lon="5.63904">
        <ele>376</ele>
        <time>2017-09-03T16:47:38Z</time>
      </trkpt>
      <trkpt lat="45.7122" lon="5.63913">
        <ele>376</ele>
        <time>2017-09-03T16:47:38Z</time>
      </trkpt>
      <trkpt lat="45.71218" lon="5.6392">
        <ele>376</ele>
        <time>2017-09-03T16:47:54Z</time>
      </trkpt>
      <trkpt lat="45.71213" lon="5.63926">
        <ele>376</ele>
        <time>2017-09-03T16:47:54Z</time>
      </trkpt>
      <trkpt lat="45.71214" lon="5.63931">
        <ele>376</ele>
        <time>2017-09-03T16:47:54Z</time>
      </trkpt>
      <trkpt lat="45.71214" lon="5.63933">
        <ele>376</ele>
        <time>2017-09-03T16:47:54Z</time>
      </trkpt>
      <trkpt lat="45.71217" lon="5.63936">
        <ele>376</ele>
        <time>2017-09-03T16:48:10Z</time>
      </trkpt>
      <trkpt lat="45.71218" lon="5.63944">
        <ele>376</ele>
        <time>2017-09-03T16:48:10Z</time>
      </trkpt>
      <trkpt lat="45.71221" lon="5.6395">
        <ele>376</ele>
        <time>2017-09-03T16:48:10Z</time>
      </trkpt>
      <trkpt lat="45.71224" lon="5.63957">
        <ele>376</ele>
        <time>2017-09-03T16:48:10Z</time>
      </trkpt>
      <trkpt lat="45.71225" lon="5.63963">
        <ele>368</ele>
        <time>2017-09-03T16:48:26Z</time>
      </trkpt>
      <trkpt lat="45.71226" lon="5.63971">
        <ele>368</ele>
        <time>2017-09-03T16:48:26Z</time>
      </trkpt>
      <trkpt lat="45.71227" lon="5.63976">
        <ele>368</ele>
        <time>2017-09-03T16:48:26Z</time>
      </trkpt>
      <trkpt lat="45.71228" lon="5.63982">
        <ele>368</ele>
        <time>2017-09-03T16:48:26Z</time>
      </trkpt>
      <trkpt lat="45.7123" lon="5.63989">
        <ele>368</ele>
        <time>2017-09-03T16:48:42Z</time>
      </trkpt>
      <trkpt lat="45.71232" lon="5.63998">
        <ele>368</ele>
        <time>2017-09-03T16:48:42Z</time>
      </trkpt>
      <trkpt lat="45.71234" lon="5.64013">
        <ele>368</ele>
        <time>2017-09-03T16:48:42Z</time>
      </trkpt>
      <trkpt lat="45.71235" lon="5.64026">
        <ele>368</ele>
        <time>2017-09-03T16:48:42Z</time>
      </trkpt>
      <trkpt lat="45.71237" lon="5.64035">
        <ele>368</ele>
        <time>2017-09-03T16:48:58Z</time>
      </trkpt>
      <trkpt lat="45.71239" lon="5.64042">
        <ele>356</ele>
        <time>2017-09-03T16:48:58Z</time>
      </trkpt>
      <trkpt lat="45.71241" lon="5.64051">
        <ele>356</ele>
        <time>2017-09-03T16:48:58Z</time>
      </trkpt>
      <trkpt lat="45.71244" lon="5.64057">
        <ele>356</ele>
        <time>2017-09-03T16:48:58Z</time>
      </trkpt>
      <trkpt lat="45.71248" lon="5.64064">
        <ele>356</ele>
        <time>2017-09-03T16:49:14Z</time>
      </trkpt>
      <trkpt lat="45.71251" lon="5.6407">
        <ele>356</ele>
        <time>2017-09-03T16:49:14Z</time>
      </trkpt>
      <trkpt lat="45.71255" lon="5.64072">
        <ele>356</ele>
        <time>2017-09-03T16:49:14Z</time>
      </trkpt>
      <trkpt lat="45.71259" lon="5.64077">
        <ele>356</ele>
        <time>2017-09-03T16:49:14Z</time>
      </trkpt>
      <trkpt lat="45.7126" lon="5.64084">
        <ele>356</ele>
        <time>2017-09-03T16:49:30Z</time>
      </trkpt>
      <trkpt lat="45.7126" lon="5.64092">
        <ele>356</ele>
        <time>2017-09-03T16:49:30Z</time>
      </trkpt>
      <trkpt lat="45.71262" lon="5.64099">
        <ele>356</ele>
        <time>2017-09-03T16:49:30Z</time>
      </trkpt>
      <trkpt lat="45.71263" lon="5.64106">
        <ele>356</ele>
        <time>2017-09-03T16:49:30Z</time>
      </trkpt>
      <trkpt lat="45.71266" lon="5.64113">
        <ele>356</ele>
        <time>2017-09-03T16:49:46Z</time>
      </trkpt>
      <trkpt lat="45.71269" lon="5.64121">
        <ele>356</ele>
        <time>2017-09-03T16:49:46Z</time>
      </trkpt>
      <trkpt lat="45.71271" lon="5.64138">
        <ele>346</ele>
        <time>2017-09-03T16:49:46Z</time>
      </trkpt>
      <trkpt lat="45.71274" lon="5.64148">
        <ele>346</ele>
        <time>2017-09-03T16:49:46Z</time>
      </trkpt>
      <trkpt lat="45.71275" lon="5.64156">
        <ele>346</ele>
        <time>2017-09-03T16:50:02Z</time>
      </trkpt>
      <trkpt lat="45.71277" lon="5.64165">
        <ele>346</ele>
        <time>2017-09-03T16:50:02Z</time>
      </trkpt>
      <trkpt lat="45.7128" lon="5.64171">
        <ele>346</ele>
        <time>2017-09-03T16:50:02Z</time>
      </trkpt>
      <trkpt lat="45.71285" lon="5.64176">
        <ele>346</ele>
        <time>2017-09-03T16:50:02Z</time>
      </trkpt>
      <trkpt lat="45.7129" lon="5.64182">
        <ele>346</ele>
        <time>2017-09-03T16:50:18Z</time>
      </trkpt>
      <trkpt lat="45.71295" lon="5.64188">
        <ele>353</ele>
        <time>2017-09-03T16:50:18Z</time>
      </trkpt>
      <trkpt lat="45.713" lon="5.64195">
        <ele>353</ele>
        <time>2017-09-03T16:50:18Z</time>
      </trkpt>
      <trkpt lat="45.71304" lon="5.642">
        <ele>353</ele>
        <time>2017-09-03T16:50:18Z</time>
      </trkpt>
      <trkpt lat="45.71306" lon="5.64208">
        <ele>353</ele>
        <time>2017-09-03T16:50:34Z</time>
      </trkpt>
      <trkpt lat="45.71301" lon="5.64211">
        <ele>343</ele>
        <time>2017-09-03T16:50:34Z</time>
      </trkpt>
      <trkpt lat="45.71291" lon="5.64219">
        <ele>342</ele>
        <time>2017-09-03T16:50:34Z</time>
      </trkpt>
      <trkpt lat="45.71285" lon="5.64223">
        <ele>342</ele>
        <time>2017-09-03T16:50:34Z</time>
      </trkpt>
      <trkpt lat="45.71281" lon="5.64224">
        <ele>342</ele>
        <time>2017-09-03T16:50:50Z</time>
      </trkpt>
      <trkpt lat="45.71277" lon="5.64226">
        <ele>342</ele>
        <time>2017-09-03T16:50:50Z</time>
      </trkpt>
      <trkpt lat="45.7127" lon="5.64228">
        <ele>342</ele>
        <time>2017-09-03T16:50:50Z</time>
      </trkpt>
      <trkpt lat="45.71265" lon="5.64226">
        <ele>342</ele>
        <time>2017-09-03T16:50:50Z</time>
      </trkpt>
      <trkpt lat="45.7126" lon="5.64226">
        <ele>342</ele>
        <time>2017-09-03T16:51:06Z</time>
      </trkpt>
      <trkpt lat="45.71254" lon="5.64217">
        <ele>342</ele>
        <time>2017-09-03T16:51:06Z</time>
      </trkpt>
      <trkpt lat="45.71248" lon="5.6421">
        <ele>342</ele>
        <time>2017-09-03T16:51:06Z</time>
      </trkpt>
      <trkpt lat="45.71244" lon="5.64202">
        <ele>346</ele>
        <time>2017-09-03T16:51:06Z</time>
      </trkpt>
      <trkpt lat="45.71239" lon="5.64194">
        <ele>346</ele>
        <time>2017-09-03T16:51:22Z</time>
      </trkpt>
      <trkpt lat="45.71237" lon="5.64188">
        <ele>346</ele>
        <time>2017-09-03T16:51:22Z</time>
      </trkpt>
      <trkpt lat="45.71233" lon="5.64187">
        <ele>346</ele>
        <time>2017-09-03T16:51:22Z</time>
      </trkpt>
      <trkpt lat="45.71228" lon="5.64189">
        <ele>346</ele>
        <time>2017-09-03T16:51:22Z</time>
      </trkpt>
      <trkpt lat="45.71224" lon="5.64192">
        <ele>346</ele>
        <time>2017-09-03T16:51:38Z</time>
      </trkpt>
      <trkpt lat="45.7122" lon="5.64195">
        <ele>346</ele>
        <time>2017-09-03T16:51:38Z</time>
      </trkpt>
      <trkpt lat="45.71216" lon="5.64198">
        <ele>346</ele>
        <time>2017-09-03T16:51:38Z</time>
      </trkpt>
      <trkpt lat="45.71213" lon="5.64194">
        <ele>346</ele>
        <time>2017-09-03T16:51:38Z</time>
      </trkpt>
      <trkpt lat="45.71209" lon="5.64189">
        <ele>346</ele>
        <time>2017-09-03T16:51:54Z</time>
      </trkpt>
      <trkpt lat="45.71207" lon="5.64184">
        <ele>350</ele>
        <time>2017-09-03T16:51:54Z</time>
      </trkpt>
      <trkpt lat="45.71203" lon="5.64179">
        <ele>350</ele>
        <time>2017-09-03T16:51:54Z</time>
      </trkpt>
      <trkpt lat="45.71199" lon="5.64174">
        <ele>350</ele>
        <time>2017-09-03T16:51:54Z</time>
      </trkpt>
      <trkpt lat="45.71194" lon="5.64168">
        <ele>350</ele>
        <time>2017-09-03T16:52:10Z</time>
      </trkpt>
      <trkpt lat="45.7119" lon="5.64164">
        <ele>350</ele>
        <time>2017-09-03T16:52:10Z</time>
      </trkpt>
      <trkpt lat="45.71184" lon="5.64163">
        <ele>350</ele>
        <time>2017-09-03T16:52:10Z</time>
      </trkpt>
      <trkpt lat="45.71178" lon="5.64162">
        <ele>350</ele>
        <time>2017-09-03T16:52:10Z</time>
      </trkpt>
      <trkpt lat="45.71172" lon="5.64165">
        <ele>350</ele>
        <time>2017-09-03T16:52:26Z</time>
      </trkpt>
      <trkpt lat="45.71167" lon="5.64168">
        <ele>350</ele>
        <time>2017-09-03T16:52:26Z</time>
      </trkpt>
      <trkpt lat="45.71163" lon="5.64169">
        <ele>350</ele>
        <time>2017-09-03T16:52:26Z</time>
      </trkpt>
      <trkpt lat="45.71158" lon="5.64175">
        <ele>350</ele>
        <time>2017-09-03T16:52:26Z</time>
      </trkpt>
      <trkpt lat="45.71152" lon="5.6418">
        <ele>350</ele>
        <time>2017-09-03T16:52:42Z</time>
      </trkpt>
      <trkpt lat="45.71146" lon="5.64184">
        <ele>350</ele>
        <time>2017-09-03T16:52:42Z</time>
      </trkpt>
      <trkpt lat="45.71139" lon="5.6419">
        <ele>350</ele>
        <time>2017-09-03T16:52:42Z</time>
      </trkpt>
      <trkpt lat="45.71132" lon="5.64196">
        <ele>350</ele>
        <time>2017-09-03T16:52:42Z</time>
      </trkpt>
      <trkpt lat="45.71128" lon="5.642">
        <ele>350</ele>
        <time>2017-09-03T16:52:58Z</time>
      </trkpt>
      <trkpt lat="45.71121" lon="5.64206">
        <ele>359</ele>
        <time>2017-09-03T16:52:58Z</time>
      </trkpt>
      <trkpt lat="45.71115" lon="5.64214">
        <ele>353</ele>
        <time>2017-09-03T16:52:58Z</time>
      </trkpt>
      <trkpt lat="45.71104" lon="5.64223">
        <ele>353</ele>
        <time>2017-09-03T16:52:58Z</time>
      </trkpt>
      <trkpt lat="45.711" lon="5.64228">
        <ele>353</ele>
        <time>2017-09-03T16:53:14Z</time>
      </trkpt>
      <trkpt lat="45.71097" lon="5.64233">
        <ele>353</ele>
        <time>2017-09-03T16:53:14Z</time>
      </trkpt>
      <trkpt lat="45.71093" lon="5.64237">
        <ele>353</ele>
        <time>2017-09-03T16:53:14Z</time>
      </trkpt>
      <trkpt lat="45.71089" lon="5.64241">
        <ele>353</ele>
        <time>2017-09-03T16:53:14Z</time>
      </trkpt>
      <trkpt lat="45.71084" lon="5.64253">
        <ele>353</ele>
        <time>2017-09-03T16:53:30Z</time>
      </trkpt>
      <trkpt lat="45.71085" lon="5.64262">
        <ele>353</ele>
        <time>2017-09-03T16:53:30Z</time>
      </trkpt>
      <trkpt lat="45.71089" lon="5.64264">
        <ele>353</ele>
        <time>2017-09-03T16:53:30Z</time>
      </trkpt>
      <trkpt lat="45.71089" lon="5.64271">
        <ele>353</ele>
        <time>2017-09-03T16:53:30Z</time>
      </trkpt>
      <trkpt lat="45.71083" lon="5.64283">
        <ele>353</ele>
        <time>2017-09-03T16:53:46Z</time>
      </trkpt>
      <trkpt lat="45.71077" lon="5.64292">
        <ele>346</ele>
        <time>2017-09-03T16:53:46Z</time>
      </trkpt>
      <trkpt lat="45.71072" lon="5.64299">
        <ele>346</ele>
        <time>2017-09-03T16:53:46Z</time>
      </trkpt>
      <trkpt lat="45.71069" lon="5.64305">
        <ele>346</ele>
        <time>2017-09-03T16:53:46Z</time>
      </trkpt>
      <trkpt lat="45.7107" lon="5.64312">
        <ele>346</ele>
        <time>2017-09-03T16:54:02Z</time>
      </trkpt>
      <trkpt lat="45.71067" lon="5.64315">
        <ele>346</ele>
        <time>2017-09-03T16:54:02Z</time>
      </trkpt>
      <trkpt lat="45.71059" lon="5.64321">
        <ele>346</ele>
        <time>2017-09-03T16:54:02Z</time>
      </trkpt>
      <trkpt lat="45.71054" lon="5.64333">
        <ele>346</ele>
        <time>2017-09-03T16:54:02Z</time>
      </trkpt>
      <trkpt lat="45.7105" lon="5.64342">
        <ele>346</ele>
        <time>2017-09-03T16:54:18Z</time>
      </trkpt>
      <trkpt lat="45.71049" lon="5.64347">
        <ele>346</ele>
        <time>2017-09-03T16:54:18Z</time>
      </trkpt>
      <trkpt lat="45.71033" lon="5.64359">
        <ele>361</ele>
        <time>2017-09-03T16:54:18Z</time>
      </trkpt>
      <trkpt lat="45.71005" lon="5.64367">
        <ele>361</ele>
        <time>2017-09-03T16:54:18Z</time>
      </trkpt>
      <trkpt lat="45.70995" lon="5.64363">
        <ele>361</ele>
        <time>2017-09-03T16:54:34Z</time>
      </trkpt>
      <trkpt lat="45.70972" lon="5.64361">
        <ele>361</ele>
        <time>2017-09-03T16:54:34Z</time>
      </trkpt>
      <trkpt lat="45.70951" lon="5.64366">
        <ele>371</ele>
        <time>2017-09-03T16:54:34Z</time>
      </trkpt>
      <trkpt lat="45.70941" lon="5.6437">
        <ele>371</ele>
        <time>2017-09-03T16:54:34Z</time>
      </trkpt>
      <trkpt lat="45.70938" lon="5.64373">
        <ele>371</ele>
        <time>2017-09-03T16:54:50Z</time>
      </trkpt>
      <trkpt lat="45.70934" lon="5.64376">
        <ele>355</ele>
        <time>2017-09-03T16:54:50Z</time>
      </trkpt>
      <trkpt lat="45.70934" lon="5.64382">
        <ele>355</ele>
        <time>2017-09-03T16:54:50Z</time>
      </trkpt>
      <trkpt lat="45.70934" lon="5.64389">
        <ele>355</ele>
        <time>2017-09-03T16:54:50Z</time>
      </trkpt>
      <trkpt lat="45.70926" lon="5.64388">
        <ele>355</ele>
        <time>2017-09-03T16:55:14Z</time>
      </trkpt>
      <trkpt lat="45.70924" lon="5.64388">
        <ele>355</ele>
        <time>2017-09-03T16:55:14Z</time>
      </trkpt>
      <trkpt lat="45.70922" lon="5.64389">
        <ele>355</ele>
        <time>2017-09-03T16:55:14Z</time>
      </trkpt>
      <trkpt lat="45.70921" lon="5.64389">
        <ele>355</ele>
        <time>2017-09-03T16:55:14Z</time>
      </trkpt>
      <trkpt lat="45.7092" lon="5.6439">
        <ele>355</ele>
        <time>2017-09-03T16:55:14Z</time>
      </trkpt>
      <trkpt lat="45.70917" lon="5.64391">
        <ele>355</ele>
        <time>2017-09-03T16:55:30Z</time>
      </trkpt>
      <trkpt lat="45.70914" lon="5.64396">
        <ele>355</ele>
        <time>2017-09-03T16:55:30Z</time>
      </trkpt>
      <trkpt lat="45.7091" lon="5.64398">
        <ele>355</ele>
        <time>2017-09-03T16:55:30Z</time>
      </trkpt>
      <trkpt lat="45.70908" lon="5.64397">
        <ele>355</ele>
        <time>2017-09-03T16:55:30Z</time>
      </trkpt>
      <trkpt lat="45.70905" lon="5.64399">
        <ele>355</ele>
        <time>2017-09-03T16:55:46Z</time>
      </trkpt>
      <trkpt lat="45.70903" lon="5.64402">
        <ele>355</ele>
        <time>2017-09-03T16:55:46Z</time>
      </trkpt>
      <trkpt lat="45.70899" lon="5.64404">
        <ele>355</ele>
        <time>2017-09-03T16:55:46Z</time>
      </trkpt>
      <trkpt lat="45.70893" lon="5.64408">
        <ele>355</ele>
        <time>2017-09-03T16:55:46Z</time>
      </trkpt>
      <trkpt lat="45.70888" lon="5.64411">
        <ele>355</ele>
        <time>2017-09-03T16:56:02Z</time>
      </trkpt>
      <trkpt lat="45.70885" lon="5.64417">
        <ele>355</ele>
        <time>2017-09-03T16:56:02Z</time>
      </trkpt>
      <trkpt lat="45.70883" lon="5.64421">
        <ele>355</ele>
        <time>2017-09-03T16:56:02Z</time>
      </trkpt>
      <trkpt lat="45.70883" lon="5.64425">
        <ele>355</ele>
        <time>2017-09-03T16:56:02Z</time>
      </trkpt>
      <trkpt lat="45.70882" lon="5.64429">
        <ele>355</ele>
        <time>2017-09-03T16:56:22Z</time>
      </trkpt>
      <trkpt lat="45.70882" lon="5.64433">
        <ele>355</ele>
        <time>2017-09-03T16:56:22Z</time>
      </trkpt>
      <trkpt lat="45.70883" lon="5.64437">
        <ele>355</ele>
        <time>2017-09-03T16:56:22Z</time>
      </trkpt>
      <trkpt lat="45.70884" lon="5.64441">
        <ele>355</ele>
        <time>2017-09-03T16:56:22Z</time>
      </trkpt>
      <trkpt lat="45.70886" lon="5.64446">
        <ele>355</ele>
        <time>2017-09-03T16:56:22Z</time>
      </trkpt>
      <trkpt lat="45.70885" lon="5.64455">
        <ele>355</ele>
        <time>2017-09-03T16:56:38Z</time>
      </trkpt>
      <trkpt lat="45.70888" lon="5.64461">
        <ele>339</ele>
        <time>2017-09-03T16:56:38Z</time>
      </trkpt>
      <trkpt lat="45.70893" lon="5.64466">
        <ele>339</ele>
        <time>2017-09-03T16:56:38Z</time>
      </trkpt>
      <trkpt lat="45.70897" lon="5.6447">
        <ele>339</ele>
        <time>2017-09-03T16:56:38Z</time>
      </trkpt>
      <trkpt lat="45.709" lon="5.64475">
        <ele>339</ele>
        <time>2017-09-03T16:56:54Z</time>
      </trkpt>
      <trkpt lat="45.70903" lon="5.6448">
        <ele>339</ele>
        <time>2017-09-03T16:56:54Z</time>
      </trkpt>
      <trkpt lat="45.70907" lon="5.64484">
        <ele>339</ele>
        <time>2017-09-03T16:56:54Z</time>
      </trkpt>
      <trkpt lat="45.70909" lon="5.64488">
        <ele>339</ele>
        <time>2017-09-03T16:56:54Z</time>
      </trkpt>
      <trkpt lat="45.70914" lon="5.64491">
        <ele>339</ele>
        <time>2017-09-03T16:57:10Z</time>
      </trkpt>
      <trkpt lat="45.7092" lon="5.64495">
        <ele>339</ele>
        <time>2017-09-03T16:57:10Z</time>
      </trkpt>
      <trkpt lat="45.70927" lon="5.64499">
        <ele>339</ele>
        <time>2017-09-03T16:57:10Z</time>
      </trkpt>
      <trkpt lat="45.70934" lon="5.64499">
        <ele>339</ele>
        <time>2017-09-03T16:57:10Z</time>
      </trkpt>
      <trkpt lat="45.70937" lon="5.64503">
        <ele>339</ele>
        <time>2017-09-03T16:57:26Z</time>
      </trkpt>
      <trkpt lat="45.70941" lon="5.64507">
        <ele>339</ele>
        <time>2017-09-03T16:57:26Z</time>
      </trkpt>
      <trkpt lat="45.70943" lon="5.6451">
        <ele>339</ele>
        <time>2017-09-03T16:57:26Z</time>
      </trkpt>
      <trkpt lat="45.70946" lon="5.64511">
        <ele>339</ele>
        <time>2017-09-03T16:57:26Z</time>
      </trkpt>
      <trkpt lat="45.70946" lon="5.64514">
        <ele>339</ele>
        <time>2017-09-03T16:57:46Z</time>
      </trkpt>
      <trkpt lat="45.70948" lon="5.64515">
        <ele>339</ele>
        <time>2017-09-03T16:57:46Z</time>
      </trkpt>
      <trkpt lat="45.70948" lon="5.64518">
        <ele>339</ele>
        <time>2017-09-03T16:57:46Z</time>
      </trkpt>
      <trkpt lat="45.70952" lon="5.64517">
        <ele>339</ele>
        <time>2017-09-03T16:57:46Z</time>
      </trkpt>
      <trkpt lat="45.70957" lon="5.64515">
        <ele>339</ele>
        <time>2017-09-03T16:57:46Z</time>
      </trkpt>
      <trkpt lat="45.70955" lon="5.64521">
        <ele>339</ele>
        <time>2017-09-03T16:58:46Z</time>
      </trkpt>
      <trkpt lat="45.70955" lon="5.64523">
        <ele>339</ele>
        <time>2017-09-03T16:58:46Z</time>
      </trkpt>
      <trkpt lat="45.70956" lon="5.64524">
        <ele>339</ele>
        <time>2017-09-03T16:58:46Z</time>
      </trkpt>
      <trkpt lat="45.70957" lon="5.64528">
        <ele>339</ele>
        <time>2017-09-03T16:58:46Z</time>
      </trkpt>
      <trkpt lat="45.70962" lon="5.64528">
        <ele>340</ele>
        <time>2017-09-03T16:58:46Z</time>
      </trkpt>
      <trkpt lat="45.70965" lon="5.64529">
        <ele>340</ele>
        <time>2017-09-03T16:59:06Z</time>
      </trkpt>
      <trkpt lat="45.70967" lon="5.64533">
        <ele>340</ele>
        <time>2017-09-03T16:59:06Z</time>
      </trkpt>
      <trkpt lat="45.70969" lon="5.64537">
        <ele>340</ele>
        <time>2017-09-03T16:59:06Z</time>
      </trkpt>
      <trkpt lat="45.70971" lon="5.64537">
        <ele>340</ele>
        <time>2017-09-03T16:59:06Z</time>
      </trkpt>
      <trkpt lat="45.70973" lon="5.64538">
        <ele>340</ele>
        <time>2017-09-03T16:59:06Z</time>
      </trkpt>
      <trkpt lat="45.7098" lon="5.64542">
        <ele>315</ele>
        <time>2017-09-03T16:59:54Z</time>
      </trkpt>
      <trkpt lat="45.7098" lon="5.64542">
        <ele>315</ele>
        <time>2017-09-03T16:59:54Z</time>
      </trkpt>
      <trkpt lat="45.7098" lon="5.64542">
        <ele>315</ele>
        <time>2017-09-03T16:59:54Z</time>
      </trkpt>
      <trkpt lat="45.70982" lon="5.64543">
        <ele>315</ele>
        <time>2017-09-03T16:59:54Z</time>
      </trkpt>
      <trkpt lat="45.70987" lon="5.64544">
        <ele>315</ele>
        <time>2017-09-03T16:59:54Z</time>
      </trkpt>
      <trkpt lat="45.70996" lon="5.6455">
        <ele>315</ele>
        <time>2017-09-03T17:00:26Z</time>
      </trkpt>
      <trkpt lat="45.70997" lon="5.6455">
        <ele>315</ele>
        <time>2017-09-03T17:00:26Z</time>
      </trkpt>
      <trkpt lat="45.70997" lon="5.6455">
        <ele>315</ele>
        <time>2017-09-03T17:00:26Z</time>
      </trkpt>
      <trkpt lat="45.70998" lon="5.64551">
        <ele>315</ele>
        <time>2017-09-03T17:00:26Z</time>
      </trkpt>
      <trkpt lat="45.70999" lon="5.64554">
        <ele>315</ele>
        <time>2017-09-03T17:00:26Z</time>
      </trkpt>
      <trkpt lat="45.71001" lon="5.64555">
        <ele>315</ele>
        <time>2017-09-03T17:00:46Z</time>
      </trkpt>
      <trkpt lat="45.71004" lon="5.64556">
        <ele>315</ele>
        <time>2017-09-03T17:00:46Z</time>
      </trkpt>
      <trkpt lat="45.71004" lon="5.64558">
        <ele>315</ele>
        <time>2017-09-03T17:00:46Z</time>
      </trkpt>
      <trkpt lat="45.71004" lon="5.64562">
        <ele>315</ele>
        <time>2017-09-03T17:00:46Z</time>
      </trkpt>
      <trkpt lat="45.71004" lon="5.64569">
        <ele>315</ele>
        <time>2017-09-03T17:00:46Z</time>
      </trkpt>
      <trkpt lat="45.71001" lon="5.64576">
        <ele>315</ele>
        <time>2017-09-03T17:01:02Z</time>
      </trkpt>
      <trkpt lat="45.70998" lon="5.64578">
        <ele>315</ele>
        <time>2017-09-03T17:01:02Z</time>
      </trkpt>
      <trkpt lat="45.70995" lon="5.64581">
        <ele>315</ele>
        <time>2017-09-03T17:01:02Z</time>
      </trkpt>
      <trkpt lat="45.70989" lon="5.64585">
        <ele>315</ele>
        <time>2017-09-03T17:01:02Z</time>
      </trkpt>
      <trkpt lat="45.70985" lon="5.64588">
        <ele>315</ele>
        <time>2017-09-03T17:01:18Z</time>
      </trkpt>
      <trkpt lat="45.70981" lon="5.64591">
        <ele>315</ele>
        <time>2017-09-03T17:01:18Z</time>
      </trkpt>
      <trkpt lat="45.70974" lon="5.64593">
        <ele>315</ele>
        <time>2017-09-03T17:01:18Z</time>
      </trkpt>
      <trkpt lat="45.70968" lon="5.64598">
        <ele>315</ele>
        <time>2017-09-03T17:01:18Z</time>
      </trkpt>
      <trkpt lat="45.70962" lon="5.64602">
        <ele>315</ele>
        <time>2017-09-03T17:01:34Z</time>
      </trkpt>
      <trkpt lat="45.70957" lon="5.64605">
        <ele>318</ele>
        <time>2017-09-03T17:01:34Z</time>
      </trkpt>
      <trkpt lat="45.70951" lon="5.64614">
        <ele>318</ele>
        <time>2017-09-03T17:01:34Z</time>
      </trkpt>
      <trkpt lat="45.70947" lon="5.64617">
        <ele>318</ele>
        <time>2017-09-03T17:01:34Z</time>
      </trkpt>
      <trkpt lat="45.70944" lon="5.64618">
        <ele>318</ele>
        <time>2017-09-03T17:01:58Z</time>
      </trkpt>
      <trkpt lat="45.70943" lon="5.64619">
        <ele>318</ele>
        <time>2017-09-03T17:01:58Z</time>
      </trkpt>
      <trkpt lat="45.70945" lon="5.64621">
        <ele>318</ele>
        <time>2017-09-03T17:01:58Z</time>
      </trkpt>
      <trkpt lat="45.70945" lon="5.64624">
        <ele>318</ele>
        <time>2017-09-03T17:01:58Z</time>
      </trkpt>
      <trkpt lat="45.70944" lon="5.64632">
        <ele>298</ele>
        <time>2017-09-03T17:01:58Z</time>
      </trkpt>
      <trkpt lat="45.70949" lon="5.64638">
        <ele>298</ele>
        <time>2017-09-03T17:02:22Z</time>
      </trkpt>
      <trkpt lat="45.7095" lon="5.64639">
        <ele>298</ele>
        <time>2017-09-03T17:02:22Z</time>
      </trkpt>
      <trkpt lat="45.70949" lon="5.64641">
        <ele>298</ele>
        <time>2017-09-03T17:02:22Z</time>
      </trkpt>
      <trkpt lat="45.70946" lon="5.64648">
        <ele>298</ele>
        <time>2017-09-03T17:02:22Z</time>
      </trkpt>
      <trkpt lat="45.70944" lon="5.64652">
        <ele>298</ele>
        <time>2017-09-03T17:02:22Z</time>
      </trkpt>
      <trkpt lat="45.70939" lon="5.64655">
        <ele>298</ele>
        <time>2017-09-03T17:02:38Z</time>
      </trkpt>
      <trkpt lat="45.70937" lon="5.64661">
        <ele>298</ele>
        <time>2017-09-03T17:02:38Z</time>
      </trkpt>
      <trkpt lat="45.70935" lon="5.64664">
        <ele>298</ele>
        <time>2017-09-03T17:02:38Z</time>
      </trkpt>
      <trkpt lat="45.70932" lon="5.64668">
        <ele>298</ele>
        <time>2017-09-03T17:02:38Z</time>
      </trkpt>
      <trkpt lat="45.70926" lon="5.64673">
        <ele>298</ele>
        <time>2017-09-03T17:02:54Z</time>
      </trkpt>
      <trkpt lat="45.7092" lon="5.64678">
        <ele>298</ele>
        <time>2017-09-03T17:02:54Z</time>
      </trkpt>
      <trkpt lat="45.70917" lon="5.64683">
        <ele>298</ele>
        <time>2017-09-03T17:02:54Z</time>
      </trkpt>
      <trkpt lat="45.70914" lon="5.64689">
        <ele>298</ele>
        <time>2017-09-03T17:02:54Z</time>
      </trkpt>
      <trkpt lat="45.70911" lon="5.64694">
        <ele>298</ele>
        <time>2017-09-03T17:03:10Z</time>
      </trkpt>
      <trkpt lat="45.70907" lon="5.64697">
        <ele>298</ele>
        <time>2017-09-03T17:03:10Z</time>
      </trkpt>
      <trkpt lat="45.70905" lon="5.64704">
        <ele>298</ele>
        <time>2017-09-03T17:03:10Z</time>
      </trkpt>
      <trkpt lat="45.70901" lon="5.64712">
        <ele>283</ele>
        <time>2017-09-03T17:03:10Z</time>
      </trkpt>
      <trkpt lat="45.70899" lon="5.64719">
        <ele>283</ele>
        <time>2017-09-03T17:03:26Z</time>
      </trkpt>
      <trkpt lat="45.70897" lon="5.64727">
        <ele>283</ele>
        <time>2017-09-03T17:03:26Z</time>
      </trkpt>
      <trkpt lat="45.70895" lon="5.64733">
        <ele>283</ele>
        <time>2017-09-03T17:03:26Z</time>
      </trkpt>
      <trkpt lat="45.70892" lon="5.64739">
        <ele>283</ele>
        <time>2017-09-03T17:03:26Z</time>
      </trkpt>
      <trkpt lat="45.7089" lon="5.64742">
        <ele>283</ele>
        <time>2017-09-03T17:03:42Z</time>
      </trkpt>
      <trkpt lat="45.70888" lon="5.64748">
        <ele>283</ele>
        <time>2017-09-03T17:03:42Z</time>
      </trkpt>
      <trkpt lat="45.70885" lon="5.64754">
        <ele>283</ele>
        <time>2017-09-03T17:03:42Z</time>
      </trkpt>
      <trkpt lat="45.70883" lon="5.64759">
        <ele>283</ele>
        <time>2017-09-03T17:03:42Z</time>
      </trkpt>
      <trkpt lat="45.70882" lon="5.64763">
        <ele>283</ele>
        <time>2017-09-03T17:03:58Z</time>
      </trkpt>
      <trkpt lat="45.7088" lon="5.64766">
        <ele>283</ele>
        <time>2017-09-03T17:03:58Z</time>
      </trkpt>
      <trkpt lat="45.70878" lon="5.64771">
        <ele>283</ele>
        <time>2017-09-03T17:03:58Z</time>
      </trkpt>
      <trkpt lat="45.70875" lon="5.64776">
        <ele>301</ele>
        <time>2017-09-03T17:03:58Z</time>
      </trkpt>
      <trkpt lat="45.70873" lon="5.64778">
        <ele>301</ele>
        <time>2017-09-03T17:04:14Z</time>
      </trkpt>
      <trkpt lat="45.7087" lon="5.64783">
        <ele>301</ele>
        <time>2017-09-03T17:04:14Z</time>
      </trkpt>
      <trkpt lat="45.70869" lon="5.64787">
        <ele>301</ele>
        <time>2017-09-03T17:04:14Z</time>
      </trkpt>
      <trkpt lat="45.70871" lon="5.6479">
        <ele>301</ele>
        <time>2017-09-03T17:04:14Z</time>
      </trkpt>
      <trkpt lat="45.70871" lon="5.64795">
        <ele>291</ele>
        <time>2017-09-03T17:04:30Z</time>
      </trkpt>
      <trkpt lat="45.70871" lon="5.64802">
        <ele>291</ele>
        <time>2017-09-03T17:04:30Z</time>
      </trkpt>
      <trkpt lat="45.70869" lon="5.64808">
        <ele>291</ele>
        <time>2017-09-03T17:04:30Z</time>
      </trkpt>
      <trkpt lat="45.70871" lon="5.64814">
        <ele>291</ele>
        <time>2017-09-03T17:04:30Z</time>
      </trkpt>
      <trkpt lat="45.70873" lon="5.6482">
        <ele>291</ele>
        <time>2017-09-03T17:04:46Z</time>
      </trkpt>
      <trkpt lat="45.70875" lon="5.64825">
        <ele>291</ele>
        <time>2017-09-03T17:04:46Z</time>
      </trkpt>
      <trkpt lat="45.70875" lon="5.6483">
        <ele>273</ele>
        <time>2017-09-03T17:04:46Z</time>
      </trkpt>
      <trkpt lat="45.70879" lon="5.64832">
        <ele>273</ele>
        <time>2017-09-03T17:04:46Z</time>
      </trkpt>
      <trkpt lat="45.70883" lon="5.64834">
        <ele>273</ele>
        <time>2017-09-03T17:05:02Z</time>
      </trkpt>
      <trkpt lat="45.70884" lon="5.6484">
        <ele>273</ele>
        <time>2017-09-03T17:05:02Z</time>
      </trkpt>
      <trkpt lat="45.70886" lon="5.64846">
        <ele>273</ele>
        <time>2017-09-03T17:05:02Z</time>
      </trkpt>
      <trkpt lat="45.70886" lon="5.64853">
        <ele>273</ele>
        <time>2017-09-03T17:05:02Z</time>
      </trkpt>
      <trkpt lat="45.70886" lon="5.6486">
        <ele>273</ele>
        <time>2017-09-03T17:05:18Z</time>
      </trkpt>
      <trkpt lat="45.70888" lon="5.64866">
        <ele>273</ele>
        <time>2017-09-03T17:05:18Z</time>
      </trkpt>
      <trkpt lat="45.70891" lon="5.64868">
        <ele>273</ele>
        <time>2017-09-03T17:05:18Z</time>
      </trkpt>
      <trkpt lat="45.70895" lon="5.64873">
        <ele>273</ele>
        <time>2017-09-03T17:05:18Z</time>
      </trkpt>
      <trkpt lat="45.70898" lon="5.6488">
        <ele>264</ele>
        <time>2017-09-03T17:05:34Z</time>
      </trkpt>
      <trkpt lat="45.70901" lon="5.64887">
        <ele>264</ele>
        <time>2017-09-03T17:05:34Z</time>
      </trkpt>
      <trkpt lat="45.70905" lon="5.64892">
        <ele>264</ele>
        <time>2017-09-03T17:05:34Z</time>
      </trkpt>
      <trkpt lat="45.70908" lon="5.64896">
        <ele>264</ele>
        <time>2017-09-03T17:05:34Z</time>
      </trkpt>
      <trkpt lat="45.7091" lon="5.64901">
        <ele>264</ele>
        <time>2017-09-03T17:05:50Z</time>
      </trkpt>
      <trkpt lat="45.70913" lon="5.64903">
        <ele>264</ele>
        <time>2017-09-03T17:05:50Z</time>
      </trkpt>
      <trkpt lat="45.70914" lon="5.64905">
        <ele>264</ele>
        <time>2017-09-03T17:05:50Z</time>
      </trkpt>
      <trkpt lat="45.70917" lon="5.64911">
        <ele>264</ele>
        <time>2017-09-03T17:05:50Z</time>
      </trkpt>
      <trkpt lat="45.70921" lon="5.6492">
        <ele>264</ele>
        <time>2017-09-03T17:06:06Z</time>
      </trkpt>
      <trkpt lat="45.70924" lon="5.64927">
        <ele>264</ele>
        <time>2017-09-03T17:06:06Z</time>
      </trkpt>
      <trkpt lat="45.70926" lon="5.64934">
        <ele>264</ele>
        <time>2017-09-03T17:06:06Z</time>
      </trkpt>
      <trkpt lat="45.70928" lon="5.64939">
        <ele>264</ele>
        <time>2017-09-03T17:06:06Z</time>
      </trkpt>
      <trkpt lat="45.70929" lon="5.6494">
        <ele>264</ele>
        <time>2017-09-03T17:06:22Z</time>
      </trkpt>
      <trkpt lat="45.70931" lon="5.64946">
        <ele>264</ele>
        <time>2017-09-03T17:06:22Z</time>
      </trkpt>
      <trkpt lat="45.70932" lon="5.64953">
        <ele>264</ele>
        <time>2017-09-03T17:06:22Z</time>
      </trkpt>
      <trkpt lat="45.70933" lon="5.64952">
        <ele>264</ele>
        <time>2017-09-03T17:06:22Z</time>
      </trkpt>
      <trkpt lat="45.70933" lon="5.64952">
        <ele>264</ele>
        <time>2017-09-03T17:06:38Z</time>
      </trkpt>
      <trkpt lat="45.70934" lon="5.64957">
        <ele>264</ele>
        <time>2017-09-03T17:06:38Z</time>
      </trkpt>
      <trkpt lat="45.70937" lon="5.64965">
        <ele>256</ele>
        <time>2017-09-03T17:06:38Z</time>
      </trkpt>
      <trkpt lat="45.7094" lon="5.64972">
        <ele>256</ele>
        <time>2017-09-03T17:06:38Z</time>
      </trkpt>
      <trkpt lat="45.70944" lon="5.64978">
        <ele>256</ele>
        <time>2017-09-03T17:06:54Z</time>
      </trkpt>
      <trkpt lat="45.70948" lon="5.64984">
        <ele>256</ele>
        <time>2017-09-03T17:06:54Z</time>
      </trkpt>
      <trkpt lat="45.70951" lon="5.64992">
        <ele>256</ele>
        <time>2017-09-03T17:06:54Z</time>
      </trkpt>
      <trkpt lat="45.70954" lon="5.64999">
        <ele>256</ele>
        <time>2017-09-03T17:06:54Z</time>
      </trkpt>
      <trkpt lat="45.70955" lon="5.65">
        <ele>256</ele>
        <time>2017-09-03T17:07:38Z</time>
      </trkpt>
      <trkpt lat="45.70954" lon="5.65002">
        <ele>256</ele>
        <time>2017-09-03T17:07:38Z</time>
      </trkpt>
      <trkpt lat="45.70953" lon="5.65004">
        <ele>256</ele>
        <time>2017-09-03T17:07:38Z</time>
      </trkpt>
      <trkpt lat="45.70955" lon="5.65007">
        <ele>256</ele>
        <time>2017-09-03T17:07:38Z</time>
      </trkpt>
      <trkpt lat="45.70956" lon="5.65013">
        <ele>256</ele>
        <time>2017-09-03T17:07:38Z</time>
      </trkpt>
      <trkpt lat="45.70959" lon="5.65017">
        <ele>252</ele>
        <time>2017-09-03T17:07:54Z</time>
      </trkpt>
      <trkpt lat="45.70961" lon="5.65023">
        <ele>252</ele>
        <time>2017-09-03T17:07:54Z</time>
      </trkpt>
      <trkpt lat="45.70963" lon="5.65029">
        <ele>252</ele>
        <time>2017-09-03T17:07:54Z</time>
      </trkpt>
      <trkpt lat="45.70965" lon="5.65036">
        <ele>252</ele>
        <time>2017-09-03T17:07:54Z</time>
      </trkpt>
      <trkpt lat="45.70968" lon="5.65042">
        <ele>247</ele>
        <time>2017-09-03T17:08:10Z</time>
      </trkpt>
      <trkpt lat="45.70971" lon="5.65048">
        <ele>247</ele>
        <time>2017-09-03T17:08:10Z</time>
      </trkpt>
      <trkpt lat="45.70974" lon="5.65054">
        <ele>247</ele>
        <time>2017-09-03T17:08:10Z</time>
      </trkpt>
      <trkpt lat="45.70977" lon="5.6506">
        <ele>247</ele>
        <time>2017-09-03T17:08:10Z</time>
      </trkpt>
      <trkpt lat="45.70979" lon="5.65067">
        <ele>247</ele>
        <time>2017-09-03T17:08:26Z</time>
      </trkpt>
      <trkpt lat="45.70982" lon="5.65073">
        <ele>247</ele>
        <time>2017-09-03T17:08:26Z</time>
      </trkpt>
      <trkpt lat="45.70986" lon="5.65079">
        <ele>247</ele>
        <time>2017-09-03T17:08:26Z</time>
      </trkpt>
      <trkpt lat="45.70989" lon="5.65085">
        <ele>247</ele>
        <time>2017-09-03T17:08:26Z</time>
      </trkpt>
      <trkpt lat="45.70992" lon="5.65091">
        <ele>247</ele>
        <time>2017-09-03T17:08:42Z</time>
      </trkpt>
      <trkpt lat="45.70993" lon="5.65098">
        <ele>247</ele>
        <time>2017-09-03T17:08:42Z</time>
      </trkpt>
      <trkpt lat="45.70991" lon="5.65104">
        <ele>247</ele>
        <time>2017-09-03T17:08:42Z</time>
      </trkpt>
      <trkpt lat="45.70986" lon="5.6511">
        <ele>247</ele>
        <time>2017-09-03T17:08:42Z</time>
      </trkpt>
      <trkpt lat="45.70981" lon="5.65113">
        <ele>247</ele>
        <time>2017-09-03T17:08:58Z</time>
      </trkpt>
      <trkpt lat="45.70976" lon="5.65115">
        <ele>247</ele>
        <time>2017-09-03T17:08:58Z</time>
      </trkpt>
      <trkpt lat="45.70973" lon="5.65121">
        <ele>247</ele>
        <time>2017-09-03T17:08:58Z</time>
      </trkpt>
      <trkpt lat="45.70969" lon="5.65126">
        <ele>248</ele>
        <time>2017-09-03T17:08:58Z</time>
      </trkpt>
      <trkpt lat="45.70965" lon="5.65131">
        <ele>248</ele>
        <time>2017-09-03T17:09:14Z</time>
      </trkpt>
      <trkpt lat="45.70961" lon="5.65135">
        <ele>248</ele>
        <time>2017-09-03T17:09:14Z</time>
      </trkpt>
      <trkpt lat="45.70956" lon="5.65141">
        <ele>249</ele>
        <time>2017-09-03T17:09:14Z</time>
      </trkpt>
      <trkpt lat="45.70952" lon="5.65146">
        <ele>249</ele>
        <time>2017-09-03T17:09:14Z</time>
      </trkpt>
      <trkpt lat="45.70947" lon="5.65152">
        <ele>249</ele>
        <time>2017-09-03T17:09:30Z</time>
      </trkpt>
      <trkpt lat="45.70942" lon="5.65157">
        <ele>249</ele>
        <time>2017-09-03T17:09:30Z</time>
      </trkpt>
      <trkpt lat="45.70937" lon="5.65162">
        <ele>249</ele>
        <time>2017-09-03T17:09:30Z</time>
      </trkpt>
      <trkpt lat="45.70932" lon="5.65165">
        <ele>249</ele>
        <time>2017-09-03T17:09:30Z</time>
      </trkpt>
      <trkpt lat="45.70926" lon="5.6517">
        <ele>249</ele>
        <time>2017-09-03T17:09:46Z</time>
      </trkpt>
      <trkpt lat="45.70922" lon="5.65176">
        <ele>249</ele>
        <time>2017-09-03T17:09:46Z</time>
      </trkpt>
      <trkpt lat="45.70917" lon="5.65179">
        <ele>249</ele>
        <time>2017-09-03T17:09:46Z</time>
      </trkpt>
      <trkpt lat="45.70914" lon="5.65185">
        <ele>249</ele>
        <time>2017-09-03T17:09:46Z</time>
      </trkpt>
      <trkpt lat="45.70909" lon="5.65191">
        <ele>249</ele>
        <time>2017-09-03T17:10:02Z</time>
      </trkpt>
      <trkpt lat="45.70904" lon="5.65194">
        <ele>249</ele>
        <time>2017-09-03T17:10:02Z</time>
      </trkpt>
      <trkpt lat="45.70898" lon="5.65197">
        <ele>249</ele>
        <time>2017-09-03T17:10:02Z</time>
      </trkpt>
      <trkpt lat="45.70893" lon="5.652">
        <ele>249</ele>
        <time>2017-09-03T17:10:02Z</time>
      </trkpt>
      <trkpt lat="45.70888" lon="5.65202">
        <ele>249</ele>
        <time>2017-09-03T17:10:18Z</time>
      </trkpt>
      <trkpt lat="45.70884" lon="5.65204">
        <ele>249</ele>
        <time>2017-09-03T17:10:18Z</time>
      </trkpt>
      <trkpt lat="45.7088" lon="5.65208">
        <ele>249</ele>
        <time>2017-09-03T17:10:18Z</time>
      </trkpt>
      <trkpt lat="45.70875" lon="5.65209">
        <ele>249</ele>
        <time>2017-09-03T17:10:18Z</time>
      </trkpt>
      <trkpt lat="45.70869" lon="5.65211">
        <ele>249</ele>
        <time>2017-09-03T17:10:34Z</time>
      </trkpt>
      <trkpt lat="45.70862" lon="5.65213">
        <ele>249</ele>
        <time>2017-09-03T17:10:34Z</time>
      </trkpt>
      <trkpt lat="45.70856" lon="5.65215">
        <ele>249</ele>
        <time>2017-09-03T17:10:34Z</time>
      </trkpt>
      <trkpt lat="45.7085" lon="5.65219">
        <ele>249</ele>
        <time>2017-09-03T17:10:34Z</time>
      </trkpt>
      <trkpt lat="45.70847" lon="5.65224">
        <ele>249</ele>
        <time>2017-09-03T17:10:50Z</time>
      </trkpt>
      <trkpt lat="45.70845" lon="5.65229">
        <ele>249</ele>
        <time>2017-09-03T17:10:50Z</time>
      </trkpt>
      <trkpt lat="45.70843" lon="5.65235">
        <ele>249</ele>
        <time>2017-09-03T17:10:50Z</time>
      </trkpt>
      <trkpt lat="45.70841" lon="5.65241">
        <ele>249</ele>
        <time>2017-09-03T17:10:50Z</time>
      </trkpt>
      <trkpt lat="45.70838" lon="5.65248">
        <ele>249</ele>
        <time>2017-09-03T17:11:06Z</time>
      </trkpt>
      <trkpt lat="45.70835" lon="5.65254">
        <ele>249</ele>
        <time>2017-09-03T17:11:06Z</time>
      </trkpt>
      <trkpt lat="45.70831" lon="5.6526">
        <ele>249</ele>
        <time>2017-09-03T17:11:06Z</time>
      </trkpt>
      <trkpt lat="45.70827" lon="5.65266">
        <ele>249</ele>
        <time>2017-09-03T17:11:06Z</time>
      </trkpt>
      <trkpt lat="45.70823" lon="5.65275">
        <ele>249</ele>
        <time>2017-09-03T17:11:34Z</time>
      </trkpt>
      <trkpt lat="45.70822" lon="5.65275">
        <ele>249</ele>
        <time>2017-09-03T17:11:34Z</time>
      </trkpt>
      <trkpt lat="45.70821" lon="5.65276">
        <ele>249</ele>
        <time>2017-09-03T17:11:34Z</time>
      </trkpt>
      <trkpt lat="45.70815" lon="5.65278">
        <ele>249</ele>
        <time>2017-09-03T17:11:34Z</time>
      </trkpt>
      <trkpt lat="45.70809" lon="5.6528">
        <ele>249</ele>
        <time>2017-09-03T17:11:34Z</time>
      </trkpt>
      <trkpt lat="45.70802" lon="5.65283">
        <ele>249</ele>
        <time>2017-09-03T17:11:50Z</time>
      </trkpt>
      <trkpt lat="45.70796" lon="5.65285">
        <ele>249</ele>
        <time>2017-09-03T17:11:50Z</time>
      </trkpt>
      <trkpt lat="45.7079" lon="5.65287">
        <ele>256</ele>
        <time>2017-09-03T17:11:50Z</time>
      </trkpt>
      <trkpt lat="45.70785" lon="5.6529">
        <ele>256</ele>
        <time>2017-09-03T17:11:50Z</time>
      </trkpt>
      <trkpt lat="45.70783" lon="5.65291">
        <ele>256</ele>
        <time>2017-09-03T17:12:06Z</time>
      </trkpt>
      <trkpt lat="45.70779" lon="5.65292">
        <ele>256</ele>
        <time>2017-09-03T17:12:06Z</time>
      </trkpt>
      <trkpt lat="45.70774" lon="5.65296">
        <ele>244</ele>
        <time>2017-09-03T17:12:06Z</time>
      </trkpt>
      <trkpt lat="45.70771" lon="5.65304">
        <ele>244</ele>
        <time>2017-09-03T17:12:06Z</time>
      </trkpt>
      <trkpt lat="45.70767" lon="5.65312">
        <ele>244</ele>
        <time>2017-09-03T17:12:22Z</time>
      </trkpt>
      <trkpt lat="45.70765" lon="5.65319">
        <ele>244</ele>
        <time>2017-09-03T17:12:22Z</time>
      </trkpt>
      <trkpt lat="45.70763" lon="5.65327">
        <ele>244</ele>
        <time>2017-09-03T17:12:22Z</time>
      </trkpt>
      <trkpt lat="45.70762" lon="5.65335">
        <ele>244</ele>
        <time>2017-09-03T17:12:22Z</time>
      </trkpt>
      <trkpt lat="45.70761" lon="5.65342">
        <ele>244</ele>
        <time>2017-09-03T17:12:38Z</time>
      </trkpt>
      <trkpt lat="45.70761" lon="5.65349">
        <ele>244</ele>
        <time>2017-09-03T17:12:38Z</time>
      </trkpt>
      <trkpt lat="45.70762" lon="5.65357">
        <ele>244</ele>
        <time>2017-09-03T17:12:38Z</time>
      </trkpt>
      <trkpt lat="45.70765" lon="5.65364">
        <ele>244</ele>
        <time>2017-09-03T17:12:38Z</time>
      </trkpt>
      <trkpt lat="45.70766" lon="5.65372">
        <ele>244</ele>
        <time>2017-09-03T17:12:54Z</time>
      </trkpt>
      <trkpt lat="45.70764" lon="5.65379">
        <ele>240</ele>
        <time>2017-09-03T17:12:54Z</time>
      </trkpt>
      <trkpt lat="45.70756" lon="5.65382">
        <ele>240</ele>
        <time>2017-09-03T17:12:54Z</time>
      </trkpt>
      <trkpt lat="45.7075" lon="5.65382">
        <ele>240</ele>
        <time>2017-09-03T17:12:54Z</time>
      </trkpt>
      <trkpt lat="45.70744" lon="5.65385">
        <ele>240</ele>
        <time>2017-09-03T17:13:10Z</time>
      </trkpt>
      <trkpt lat="45.7074" lon="5.65387">
        <ele>240</ele>
        <time>2017-09-03T17:13:10Z</time>
      </trkpt>
      <trkpt lat="45.70737" lon="5.65388">
        <ele>240</ele>
        <time>2017-09-03T17:13:10Z</time>
      </trkpt>
      <trkpt lat="45.70732" lon="5.65392">
        <ele>240</ele>
        <time>2017-09-03T17:13:10Z</time>
      </trkpt>
      <trkpt lat="45.70728" lon="5.65396">
        <ele>240</ele>
        <time>2017-09-03T17:13:26Z</time>
      </trkpt>
      <trkpt lat="45.70724" lon="5.654">
        <ele>240</ele>
        <time>2017-09-03T17:13:26Z</time>
      </trkpt>
      <trkpt lat="45.70723" lon="5.65407">
        <ele>240</ele>
        <time>2017-09-03T17:13:26Z</time>
      </trkpt>
      <trkpt lat="45.70723" lon="5.65412">
        <ele>240</ele>
        <time>2017-09-03T17:13:26Z</time>
      </trkpt>
      <trkpt lat="45.70718" lon="5.65484">
        <ele>238</ele>
        <time>2017-09-03T17:14:14Z</time>
      </trkpt>
      <trkpt lat="45.70717" lon="5.65491">
        <ele>238</ele>
        <time>2017-09-03T17:14:14Z</time>
      </trkpt>
      <trkpt lat="45.70718" lon="5.65497">
        <ele>238</ele>
        <time>2017-09-03T17:14:14Z</time>
      </trkpt>
      <trkpt lat="45.7072" lon="5.65504">
        <ele>238</ele>
        <time>2017-09-03T17:14:14Z</time>
      </trkpt>
      <trkpt lat="45.70722" lon="5.65509">
        <ele>238</ele>
        <time>2017-09-03T17:14:30Z</time>
      </trkpt>
      <trkpt lat="45.70726" lon="5.65513">
        <ele>238</ele>
        <time>2017-09-03T17:14:30Z</time>
      </trkpt>
      <trkpt lat="45.7073" lon="5.65516">
        <ele>238</ele>
        <time>2017-09-03T17:14:30Z</time>
      </trkpt>
      <trkpt lat="45.70734" lon="5.6552">
        <ele>238</ele>
        <time>2017-09-03T17:14:30Z</time>
      </trkpt>
      <trkpt lat="45.70738" lon="5.65525">
        <ele>238</ele>
        <time>2017-09-03T17:14:46Z</time>
      </trkpt>
      <trkpt lat="45.70743" lon="5.6553">
        <ele>238</ele>
        <time>2017-09-03T17:14:46Z</time>
      </trkpt>
      <trkpt lat="45.70748" lon="5.65535">
        <ele>238</ele>
        <time>2017-09-03T17:14:46Z</time>
      </trkpt>
      <trkpt lat="45.70749" lon="5.65538">
        <ele>238</ele>
        <time>2017-09-03T17:14:46Z</time>
      </trkpt>
      <trkpt lat="45.7074" lon="5.65549">
        <ele>235</ele>
        <time>2017-09-03T17:15:50Z</time>
      </trkpt>
      <trkpt lat="45.7074" lon="5.65549">
        <ele>235</ele>
        <time>2017-09-03T17:15:50Z</time>
      </trkpt>
      <trkpt lat="45.7074" lon="5.65549">
        <ele>235</ele>
        <time>2017-09-03T17:15:50Z</time>
      </trkpt>
      <trkpt lat="45.70739" lon="5.6555">
        <ele>235</ele>
        <time>2017-09-03T17:15:50Z</time>
      </trkpt>
      <trkpt lat="45.70737" lon="5.65554">
        <ele>235</ele>
        <time>2017-09-03T17:15:50Z</time>
      </trkpt>
      <trkpt lat="45.70734" lon="5.65558">
        <ele>235</ele>
        <time>2017-09-03T17:16:30Z</time>
      </trkpt>
      <trkpt lat="45.70732" lon="5.65561">
        <ele>235</ele>
        <time>2017-09-03T17:16:30Z</time>
      </trkpt>
      <trkpt lat="45.70729" lon="5.65565">
        <ele>235</ele>
        <time>2017-09-03T17:16:30Z</time>
      </trkpt>
      <trkpt lat="45.70725" lon="5.65569">
        <ele>235</ele>
        <time>2017-09-03T17:16:30Z</time>
      </trkpt>
      <trkpt lat="45.7072" lon="5.65574">
        <ele>235</ele>
        <time>2017-09-03T17:16:30Z</time>
      </trkpt>
      <trkpt lat="45.70718" lon="5.6558">
        <ele>235</ele>
        <time>2017-09-03T17:16:46Z</time>
      </trkpt>
      <trkpt lat="45.70715" lon="5.65586">
        <ele>235</ele>
        <time>2017-09-03T17:16:46Z</time>
      </trkpt>
      <trkpt lat="45.70711" lon="5.65591">
        <ele>235</ele>
        <time>2017-09-03T17:16:46Z</time>
      </trkpt>
      <trkpt lat="45.70708" lon="5.65598">
        <ele>236</ele>
        <time>2017-09-03T17:16:46Z</time>
      </trkpt>
      <trkpt lat="45.70706" lon="5.65605">
        <ele>236</ele>
        <time>2017-09-03T17:17:02Z</time>
      </trkpt>
      <trkpt lat="45.70704" lon="5.65611">
        <ele>236</ele>
        <time>2017-09-03T17:17:02Z</time>
      </trkpt>
      <trkpt lat="45.70701" lon="5.65615">
        <ele>236</ele>
        <time>2017-09-03T17:17:02Z</time>
      </trkpt>
      <trkpt lat="45.70698" lon="5.6562">
        <ele>236</ele>
        <time>2017-09-03T17:17:02Z</time>
      </trkpt>
      <trkpt lat="45.70695" lon="5.65624">
        <ele>236</ele>
        <time>2017-09-03T17:17:18Z</time>
      </trkpt>
      <trkpt lat="45.70691" lon="5.65628">
        <ele>229</ele>
        <time>2017-09-03T17:17:18Z</time>
      </trkpt>
      <trkpt lat="45.70686" lon="5.65631">
        <ele>229</ele>
        <time>2017-09-03T17:17:18Z</time>
      </trkpt>
      <trkpt lat="45.70681" lon="5.65635">
        <ele>229</ele>
        <time>2017-09-03T17:17:18Z</time>
      </trkpt>
      <trkpt lat="45.70676" lon="5.65638">
        <ele>229</ele>
        <time>2017-09-03T17:17:34Z</time>
      </trkpt>
      <trkpt lat="45.7067" lon="5.65641">
        <ele>229</ele>
        <time>2017-09-03T17:17:34Z</time>
      </trkpt>
      <trkpt lat="45.70665" lon="5.65645">
        <ele>229</ele>
        <time>2017-09-03T17:17:34Z</time>
      </trkpt>
      <trkpt lat="45.7066" lon="5.65649">
        <ele>229</ele>
        <time>2017-09-03T17:17:34Z</time>
      </trkpt>
      <trkpt lat="45.70655" lon="5.65654">
        <ele>229</ele>
        <time>2017-09-03T17:17:50Z</time>
      </trkpt>
      <trkpt lat="45.7065" lon="5.65657">
        <ele>229</ele>
        <time>2017-09-03T17:17:50Z</time>
      </trkpt>
      <trkpt lat="45.70646" lon="5.65661">
        <ele>229</ele>
        <time>2017-09-03T17:17:50Z</time>
      </trkpt>
      <trkpt lat="45.70641" lon="5.65663">
        <ele>229</ele>
        <time>2017-09-03T17:17:50Z</time>
      </trkpt>
      <trkpt lat="45.70636" lon="5.65664">
        <ele>229</ele>
        <time>2017-09-03T17:18:06Z</time>
      </trkpt>
      <trkpt lat="45.7063" lon="5.65665">
        <ele>229</ele>
        <time>2017-09-03T17:18:06Z</time>
      </trkpt>
      <trkpt lat="45.70625" lon="5.65666">
        <ele>229</ele>
        <time>2017-09-03T17:18:06Z</time>
      </trkpt>
      <trkpt lat="45.7062" lon="5.65669">
        <ele>231</ele>
        <time>2017-09-03T17:18:06Z</time>
      </trkpt>
      <trkpt lat="45.70614" lon="5.65674">
        <ele>231</ele>
        <time>2017-09-03T17:18:22Z</time>
      </trkpt>
      <trkpt lat="45.70609" lon="5.65678">
        <ele>231</ele>
        <time>2017-09-03T17:18:22Z</time>
      </trkpt>
      <trkpt lat="45.70604" lon="5.65682">
        <ele>231</ele>
        <time>2017-09-03T17:18:22Z</time>
      </trkpt>
      <trkpt lat="45.70599" lon="5.65686">
        <ele>231</ele>
        <time>2017-09-03T17:18:22Z</time>
      </trkpt>
      <trkpt lat="45.70595" lon="5.65691">
        <ele>231</ele>
        <time>2017-09-03T17:18:38Z</time>
      </trkpt>
      <trkpt lat="45.70591" lon="5.65695">
        <ele>231</ele>
        <time>2017-09-03T17:18:38Z</time>
      </trkpt>
      <trkpt lat="45.70587" lon="5.65701">
        <ele>231</ele>
        <time>2017-09-03T17:18:38Z</time>
      </trkpt>
      <trkpt lat="45.70583" lon="5.65705">
        <ele>231</ele>
        <time>2017-09-03T17:18:38Z</time>
      </trkpt>
      <trkpt lat="45.7058" lon="5.6571">
        <ele>226</ele>
        <time>2017-09-03T17:18:54Z</time>
      </trkpt>
      <trkpt lat="45.70577" lon="5.65715">
        <ele>226</ele>
        <time>2017-09-03T17:18:54Z</time>
      </trkpt>
      <trkpt lat="45.70576" lon="5.65722">
        <ele>226</ele>
        <time>2017-09-03T17:18:54Z</time>
      </trkpt>
      <trkpt lat="45.70575" lon="5.65731">
        <ele>226</ele>
        <time>2017-09-03T17:18:54Z</time>
      </trkpt>
      <trkpt lat="45.70573" lon="5.65739">
        <ele>226</ele>
        <time>2017-09-03T17:19:10Z</time>
      </trkpt>
      <trkpt lat="45.70571" lon="5.65747">
        <ele>226</ele>
        <time>2017-09-03T17:19:10Z</time>
      </trkpt>
      <trkpt lat="45.70568" lon="5.65754">
        <ele>226</ele>
        <time>2017-09-03T17:19:10Z</time>
      </trkpt>
      <trkpt lat="45.70565" lon="5.65761">
        <ele>226</ele>
        <time>2017-09-03T17:19:10Z</time>
      </trkpt>
      <trkpt lat="45.70562" lon="5.65769">
        <ele>226</ele>
        <time>2017-09-03T17:19:26Z</time>
      </trkpt>
      <trkpt lat="45.7056" lon="5.65777">
        <ele>226</ele>
        <time>2017-09-03T17:19:26Z</time>
      </trkpt>
      <trkpt lat="45.70558" lon="5.65783">
        <ele>226</ele>
        <time>2017-09-03T17:19:26Z</time>
      </trkpt>
      <trkpt lat="45.70556" lon="5.65791">
        <ele>226</ele>
        <time>2017-09-03T17:19:26Z</time>
      </trkpt>
      <trkpt lat="45.70554" lon="5.65799">
        <ele>225</ele>
        <time>2017-09-03T17:19:42Z</time>
      </trkpt>
      <trkpt lat="45.70551" lon="5.65806">
        <ele>225</ele>
        <time>2017-09-03T17:19:42Z</time>
      </trkpt>
      <trkpt lat="45.70548" lon="5.65813">
        <ele>225</ele>
        <time>2017-09-03T17:19:42Z</time>
      </trkpt>
      <trkpt lat="45.70544" lon="5.65821">
        <ele>225</ele>
        <time>2017-09-03T17:19:42Z</time>
      </trkpt>
      <trkpt lat="45.70542" lon="5.6583">
        <ele>229</ele>
        <time>2017-09-03T17:19:58Z</time>
      </trkpt>
      <trkpt lat="45.70535" lon="5.65841">
        <ele>229</ele>
        <time>2017-09-03T17:19:58Z</time>
      </trkpt>
      <trkpt lat="45.70515" lon="5.6585">
        <ele>229</ele>
        <time>2017-09-03T17:19:58Z</time>
      </trkpt>
      <trkpt lat="45.70493" lon="5.65855">
        <ele>229</ele>
        <time>2017-09-03T17:19:58Z</time>
      </trkpt>
      <trkpt lat="45.70472" lon="5.65862">
        <ele>229</ele>
        <time>2017-09-03T17:20:14Z</time>
      </trkpt>
      <trkpt lat="45.70452" lon="5.65867">
        <ele>231</ele>
        <time>2017-09-03T17:20:14Z</time>
      </trkpt>
      <trkpt lat="45.70433" lon="5.6587">
        <ele>231</ele>
        <time>2017-09-03T17:20:14Z</time>
      </trkpt>
      <trkpt lat="45.7041" lon="5.6587">
        <ele>231</ele>
        <time>2017-09-03T17:20:14Z</time>
      </trkpt>
      <trkpt lat="45.70386" lon="5.65887">
        <ele>224</ele>
        <time>2017-09-03T17:20:30Z</time>
      </trkpt>
      <trkpt lat="45.70372" lon="5.65907">
        <ele>228</ele>
        <time>2017-09-03T17:20:30Z</time>
      </trkpt>
      <trkpt lat="45.70365" lon="5.65922">
        <ele>228</ele>
        <time>2017-09-03T17:20:30Z</time>
      </trkpt>
      <trkpt lat="45.70361" lon="5.65925">
        <ele>228</ele>
        <time>2017-09-03T17:20:30Z</time>
      </trkpt>
      <trkpt lat="45.70356" lon="5.65929">
        <ele>228</ele>
        <time>2017-09-03T17:20:46Z</time>
      </trkpt>
      <trkpt lat="45.70353" lon="5.65934">
        <ele>228</ele>
        <time>2017-09-03T17:20:46Z</time>
      </trkpt>
      <trkpt lat="45.7035" lon="5.65941">
        <ele>228</ele>
        <time>2017-09-03T17:20:46Z</time>
      </trkpt>
      <trkpt lat="45.70347" lon="5.65947">
        <ele>228</ele>
        <time>2017-09-03T17:20:46Z</time>
      </trkpt>
      <trkpt lat="45.70345" lon="5.65953">
        <ele>228</ele>
        <time>2017-09-03T17:21:02Z</time>
      </trkpt>
      <trkpt lat="45.70341" lon="5.65958">
        <ele>228</ele>
        <time>2017-09-03T17:21:02Z</time>
      </trkpt>
      <trkpt lat="45.70338" lon="5.65965">
        <ele>226</ele>
        <time>2017-09-03T17:21:02Z</time>
      </trkpt>
      <trkpt lat="45.70334" lon="5.65972">
        <ele>226</ele>
        <time>2017-09-03T17:21:02Z</time>
      </trkpt>
      <trkpt lat="45.7033" lon="5.65978">
        <ele>226</ele>
        <time>2017-09-03T17:21:18Z</time>
      </trkpt>
      <trkpt lat="45.70325" lon="5.65984">
        <ele>226</ele>
        <time>2017-09-03T17:21:18Z</time>
      </trkpt>
      <trkpt lat="45.70321" lon="5.65991">
        <ele>226</ele>
        <time>2017-09-03T17:21:18Z</time>
      </trkpt>
      <trkpt lat="45.70316" lon="5.65997">
        <ele>226</ele>
        <time>2017-09-03T17:21:18Z</time>
      </trkpt>
      <trkpt lat="45.70312" lon="5.66001">
        <ele>226</ele>
        <time>2017-09-03T17:21:34Z</time>
      </trkpt>
      <trkpt lat="45.70308" lon="5.66007">
        <ele>226</ele>
        <time>2017-09-03T17:21:34Z</time>
      </trkpt>
      <trkpt lat="45.70304" lon="5.66013">
        <ele>226</ele>
        <time>2017-09-03T17:21:34Z</time>
      </trkpt>
      <trkpt lat="45.703" lon="5.66017">
        <ele>226</ele>
        <time>2017-09-03T17:21:34Z</time>
      </trkpt>
      <trkpt lat="45.70291" lon="5.66028">
        <ele>228</ele>
        <time>2017-09-03T17:21:50Z</time>
      </trkpt>
      <trkpt lat="45.70273" lon="5.66045">
        <ele>226</ele>
        <time>2017-09-03T17:21:50Z</time>
      </trkpt>
      <trkpt lat="45.70255" lon="5.6606">
        <ele>226</ele>
        <time>2017-09-03T17:21:50Z</time>
      </trkpt>
      <trkpt lat="45.70235" lon="5.66076">
        <ele>226</ele>
        <time>2017-09-03T17:21:50Z</time>
      </trkpt>
      <trkpt lat="45.70216" lon="5.66097">
        <ele>226</ele>
        <time>2017-09-03T17:22:06Z</time>
      </trkpt>
      <trkpt lat="45.702" lon="5.66116">
        <ele>225</ele>
        <time>2017-09-03T17:22:06Z</time>
      </trkpt>
      <trkpt lat="45.7018" lon="5.66138">
        <ele>226</ele>
        <time>2017-09-03T17:22:06Z</time>
      </trkpt>
      <trkpt lat="45.70159" lon="5.66158">
        <ele>226</ele>
        <time>2017-09-03T17:22:06Z</time>
      </trkpt>
      <trkpt lat="45.70138" lon="5.66179">
        <ele>226</ele>
        <time>2017-09-03T17:22:22Z</time>
      </trkpt>
      <trkpt lat="45.70117" lon="5.66196">
        <ele>227</ele>
        <time>2017-09-03T17:22:22Z</time>
      </trkpt>
      <trkpt lat="45.70101" lon="5.66217">
        <ele>225</ele>
        <time>2017-09-03T17:22:22Z</time>
      </trkpt>
      <trkpt lat="45.70081" lon="5.66238">
        <ele>225</ele>
        <time>2017-09-03T17:22:22Z</time>
      </trkpt>
      <trkpt lat="45.7006" lon="5.66259">
        <ele>225</ele>
        <time>2017-09-03T17:22:38Z</time>
      </trkpt>
      <trkpt lat="45.70042" lon="5.66282">
        <ele>225</ele>
        <time>2017-09-03T17:22:38Z</time>
      </trkpt>
      <trkpt lat="45.70025" lon="5.663">
        <ele>226</ele>
        <time>2017-09-03T17:22:38Z</time>
      </trkpt>
      <trkpt lat="45.70016" lon="5.66311">
        <ele>226</ele>
        <time>2017-09-03T17:22:38Z</time>
      </trkpt>
      <trkpt lat="45.70009" lon="5.6632">
        <ele>226</ele>
        <time>2017-09-03T17:22:54Z</time>
      </trkpt>
      <trkpt lat="45.70005" lon="5.66326">
        <ele>226</ele>
        <time>2017-09-03T17:22:54Z</time>
      </trkpt>
      <trkpt lat="45.70002" lon="5.66333">
        <ele>226</ele>
        <time>2017-09-03T17:22:54Z</time>
      </trkpt>
      <trkpt lat="45.69999" lon="5.6634">
        <ele>226</ele>
        <time>2017-09-03T17:22:54Z</time>
      </trkpt>
      <trkpt lat="45.69996" lon="5.66346">
        <ele>226</ele>
        <time>2017-09-03T17:23:10Z</time>
      </trkpt>
      <trkpt lat="45.69992" lon="5.66353">
        <ele>226</ele>
        <time>2017-09-03T17:23:10Z</time>
      </trkpt>
      <trkpt lat="45.69987" lon="5.66359">
        <ele>226</ele>
        <time>2017-09-03T17:23:10Z</time>
      </trkpt>
      <trkpt lat="45.69982" lon="5.66366">
        <ele>226</ele>
        <time>2017-09-03T17:23:10Z</time>
      </trkpt>
      <trkpt lat="45.69977" lon="5.6638">
        <ele>223</ele>
        <time>2017-09-03T17:23:26Z</time>
      </trkpt>
      <trkpt lat="45.69971" lon="5.66388">
        <ele>223</ele>
        <time>2017-09-03T17:23:26Z</time>
      </trkpt>
      <trkpt lat="45.69966" lon="5.66396">
        <ele>223</ele>
        <time>2017-09-03T17:23:26Z</time>
      </trkpt>
      <trkpt lat="45.69973" lon="5.66423">
        <ele>223</ele>
        <time>2017-09-03T17:23:26Z</time>
      </trkpt>
      <trkpt lat="45.69984" lon="5.6645">
        <ele>223</ele>
        <time>2017-09-03T17:23:42Z</time>
      </trkpt>
      <trkpt lat="45.69998" lon="5.66481">
        <ele>224</ele>
        <time>2017-09-03T17:23:42Z</time>
      </trkpt>
      <trkpt lat="45.70017" lon="5.66518">
        <ele>224</ele>
        <time>2017-09-03T17:23:42Z</time>
      </trkpt>
      <trkpt lat="45.70034" lon="5.66554">
        <ele>225</ele>
        <time>2017-09-03T17:23:42Z</time>
      </trkpt>
      <trkpt lat="45.70051" lon="5.66589">
        <ele>229</ele>
        <time>2017-09-03T17:23:58Z</time>
      </trkpt>
      <trkpt lat="45.70067" lon="5.66622">
        <ele>229</ele>
        <time>2017-09-03T17:23:58Z</time>
      </trkpt>
      <trkpt lat="45.70081" lon="5.66656">
        <ele>229</ele>
        <time>2017-09-03T17:23:58Z</time>
      </trkpt>
      <trkpt lat="45.70095" lon="5.66687">
        <ele>229</ele>
        <time>2017-09-03T17:23:58Z</time>
      </trkpt>
      <trkpt lat="45.70105" lon="5.66707">
        <ele>229</ele>
        <time>2017-09-03T17:24:14Z</time>
      </trkpt>
      <trkpt lat="45.70104" lon="5.66715">
        <ele>230</ele>
        <time>2017-09-03T17:24:14Z</time>
      </trkpt>
      <trkpt lat="45.70099" lon="5.6672">
        <ele>230</ele>
        <time>2017-09-03T17:24:14Z</time>
      </trkpt>
      <trkpt lat="45.70092" lon="5.66725">
        <ele>230</ele>
        <time>2017-09-03T17:24:14Z</time>
      </trkpt>
      <trkpt lat="45.70087" lon="5.66729">
        <ele>230</ele>
        <time>2017-09-03T17:24:30Z</time>
      </trkpt>
      <trkpt lat="45.70083" lon="5.66734">
        <ele>230</ele>
        <time>2017-09-03T17:24:30Z</time>
      </trkpt>
      <trkpt lat="45.70078" lon="5.66739">
        <ele>230</ele>
        <time>2017-09-03T17:24:30Z</time>
      </trkpt>
      <trkpt lat="45.70073" lon="5.66744">
        <ele>230</ele>
        <time>2017-09-03T17:24:30Z</time>
      </trkpt>
      <trkpt lat="45.70069" lon="5.6675">
        <ele>230</ele>
        <time>2017-09-03T17:24:46Z</time>
      </trkpt>
      <trkpt lat="45.70064" lon="5.66756">
        <ele>230</ele>
        <time>2017-09-03T17:24:46Z</time>
      </trkpt>
      <trkpt lat="45.7006" lon="5.66762">
        <ele>230</ele>
        <time>2017-09-03T17:24:46Z</time>
      </trkpt>
      <trkpt lat="45.70054" lon="5.66769">
        <ele>230</ele>
        <time>2017-09-03T17:24:46Z</time>
      </trkpt>
      <trkpt lat="45.70048" lon="5.66776">
        <ele>230</ele>
        <time>2017-09-03T17:25:02Z</time>
      </trkpt>
      <trkpt lat="45.70044" lon="5.66782">
        <ele>230</ele>
        <time>2017-09-03T17:25:02Z</time>
      </trkpt>
      <trkpt lat="45.70039" lon="5.66787">
        <ele>228</ele>
        <time>2017-09-03T17:25:02Z</time>
      </trkpt>
      <trkpt lat="45.70035" lon="5.66793">
        <ele>229</ele>
        <time>2017-09-03T17:25:02Z</time>
      </trkpt>
      <trkpt lat="45.70031" lon="5.66799">
        <ele>229</ele>
        <time>2017-09-03T17:25:18Z</time>
      </trkpt>
      <trkpt lat="45.70027" lon="5.66805">
        <ele>229</ele>
        <time>2017-09-03T17:25:18Z</time>
      </trkpt>
      <trkpt lat="45.70023" lon="5.66813">
        <ele>229</ele>
        <time>2017-09-03T17:25:18Z</time>
      </trkpt>
      <trkpt lat="45.70019" lon="5.66819">
        <ele>229</ele>
        <time>2017-09-03T17:25:18Z</time>
      </trkpt>
      <trkpt lat="45.70015" lon="5.66825">
        <ele>229</ele>
        <time>2017-09-03T17:25:34Z</time>
      </trkpt>
      <trkpt lat="45.70011" lon="5.6683">
        <ele>229</ele>
        <time>2017-09-03T17:25:34Z</time>
      </trkpt>
      <trkpt lat="45.70004" lon="5.66837">
        <ele>229</ele>
        <time>2017-09-03T17:25:34Z</time>
      </trkpt>
      <trkpt lat="45.69999" lon="5.66843">
        <ele>229</ele>
        <time>2017-09-03T17:25:34Z</time>
      </trkpt>
      <trkpt lat="45.69995" lon="5.66849">
        <ele>229</ele>
        <time>2017-09-03T17:25:50Z</time>
      </trkpt>
      <trkpt lat="45.6999" lon="5.66853">
        <ele>229</ele>
        <time>2017-09-03T17:25:50Z</time>
      </trkpt>
      <trkpt lat="45.69986" lon="5.66858">
        <ele>229</ele>
        <time>2017-09-03T17:25:50Z</time>
      </trkpt>
      <trkpt lat="45.69982" lon="5.66861">
        <ele>229</ele>
        <time>2017-09-03T17:25:50Z</time>
      </trkpt>
      <trkpt lat="45.69978" lon="5.66865">
        <ele>229</ele>
        <time>2017-09-03T17:26:06Z</time>
      </trkpt>
      <trkpt lat="45.69974" lon="5.6687">
        <ele>229</ele>
        <time>2017-09-03T17:26:06Z</time>
      </trkpt>
      <trkpt lat="45.6997" lon="5.66875">
        <ele>229</ele>
        <time>2017-09-03T17:26:06Z</time>
      </trkpt>
      <trkpt lat="45.69966" lon="5.6688">
        <ele>226</ele>
        <time>2017-09-03T17:26:06Z</time>
      </trkpt>
      <trkpt lat="45.69962" lon="5.66884">
        <ele>226</ele>
        <time>2017-09-03T17:26:22Z</time>
      </trkpt>
      <trkpt lat="45.69958" lon="5.66888">
        <ele>227</ele>
        <time>2017-09-03T17:26:22Z</time>
      </trkpt>
      <trkpt lat="45.69955" lon="5.66892">
        <ele>227</ele>
        <time>2017-09-03T17:26:22Z</time>
      </trkpt>
      <trkpt lat="45.69951" lon="5.66898">
        <ele>227</ele>
        <time>2017-09-03T17:26:22Z</time>
      </trkpt>
      <trkpt lat="45.69946" lon="5.66905">
        <ele>227</ele>
        <time>2017-09-03T17:26:38Z</time>
      </trkpt>
      <trkpt lat="45.69942" lon="5.66911">
        <ele>227</ele>
        <time>2017-09-03T17:26:38Z</time>
      </trkpt>
      <trkpt lat="45.69938" lon="5.66917">
        <ele>227</ele>
        <time>2017-09-03T17:26:38Z</time>
      </trkpt>
      <trkpt lat="45.69934" lon="5.66923">
        <ele>227</ele>
        <time>2017-09-03T17:26:38Z</time>
      </trkpt>
      <trkpt lat="45.6993" lon="5.6693">
        <ele>227</ele>
        <time>2017-09-03T17:26:54Z</time>
      </trkpt>
      <trkpt lat="45.69926" lon="5.66936">
        <ele>227</ele>
        <time>2017-09-03T17:26:54Z</time>
      </trkpt>
      <trkpt lat="45.69922" lon="5.66942">
        <ele>227</ele>
        <time>2017-09-03T17:26:54Z</time>
      </trkpt>
      <trkpt lat="45.69913" lon="5.66949">
        <ele>227</ele>
        <time>2017-09-03T17:26:54Z</time>
      </trkpt>
      <trkpt lat="45.69904" lon="5.66955">
        <ele>227</ele>
        <time>2017-09-03T17:27:10Z</time>
      </trkpt>
      <trkpt lat="45.69898" lon="5.66959">
        <ele>226</ele>
        <time>2017-09-03T17:27:10Z</time>
      </trkpt>
      <trkpt lat="45.69893" lon="5.66962">
        <ele>226</ele>
        <time>2017-09-03T17:27:10Z</time>
      </trkpt>
      <trkpt lat="45.69888" lon="5.66964">
        <ele>226</ele>
        <time>2017-09-03T17:27:10Z</time>
      </trkpt>
      <trkpt lat="45.69883" lon="5.66966">
        <ele>226</ele>
        <time>2017-09-03T17:27:26Z</time>
      </trkpt>
      <trkpt lat="45.69877" lon="5.66969">
        <ele>226</ele>
        <time>2017-09-03T17:27:26Z</time>
      </trkpt>
      <trkpt lat="45.69871" lon="5.66971">
        <ele>226</ele>
        <time>2017-09-03T17:27:26Z</time>
      </trkpt>
      <trkpt lat="45.69866" lon="5.66972">
        <ele>226</ele>
        <time>2017-09-03T17:27:26Z</time>
      </trkpt>
      <trkpt lat="45.6986" lon="5.66975">
        <ele>226</ele>
        <time>2017-09-03T17:27:42Z</time>
      </trkpt>
      <trkpt lat="45.69853" lon="5.66977">
        <ele>226</ele>
        <time>2017-09-03T17:27:42Z</time>
      </trkpt>
      <trkpt lat="45.69848" lon="5.66978">
        <ele>226</ele>
        <time>2017-09-03T17:27:42Z</time>
      </trkpt>
      <trkpt lat="45.69842" lon="5.66979">
        <ele>226</ele>
        <time>2017-09-03T17:27:42Z</time>
      </trkpt>
      <trkpt lat="45.69836" lon="5.66979">
        <ele>226</ele>
        <time>2017-09-03T17:27:58Z</time>
      </trkpt>
      <trkpt lat="45.69831" lon="5.6698">
        <ele>226</ele>
        <time>2017-09-03T17:27:58Z</time>
      </trkpt>
      <trkpt lat="45.69825" lon="5.66981">
        <ele>226</ele>
        <time>2017-09-03T17:27:58Z</time>
      </trkpt>
      <trkpt lat="45.69819" lon="5.66983">
        <ele>226</ele>
        <time>2017-09-03T17:27:58Z</time>
      </trkpt>
      <trkpt lat="45.69813" lon="5.66983">
        <ele>226</ele>
        <time>2017-09-03T17:28:14Z</time>
      </trkpt>
      <trkpt lat="45.69807" lon="5.66982">
        <ele>226</ele>
        <time>2017-09-03T17:28:14Z</time>
      </trkpt>
      <trkpt lat="45.69802" lon="5.66979">
        <ele>226</ele>
        <time>2017-09-03T17:28:14Z</time>
      </trkpt>
      <trkpt lat="45.69797" lon="5.66979">
        <ele>226</ele>
        <time>2017-09-03T17:28:14Z</time>
      </trkpt>
      <trkpt lat="45.69792" lon="5.66977">
        <ele>226</ele>
        <time>2017-09-03T17:28:30Z</time>
      </trkpt>
      <trkpt lat="45.69786" lon="5.66976">
        <ele>224</ele>
        <time>2017-09-03T17:28:30Z</time>
      </trkpt>
      <trkpt lat="45.69781" lon="5.66974">
        <ele>224</ele>
        <time>2017-09-03T17:28:30Z</time>
      </trkpt>
      <trkpt lat="45.69775" lon="5.66973">
        <ele>224</ele>
        <time>2017-09-03T17:28:30Z</time>
      </trkpt>
      <trkpt lat="45.69773" lon="5.66971">
        <ele>224</ele>
        <time>2017-09-03T17:28:46Z</time>
      </trkpt>
      <trkpt lat="45.69771" lon="5.6697">
        <ele>224</ele>
        <time>2017-09-03T17:28:46Z</time>
      </trkpt>
      <trkpt lat="45.69765" lon="5.66968">
        <ele>224</ele>
        <time>2017-09-03T17:28:46Z</time>
      </trkpt>
      <trkpt lat="45.69759" lon="5.66966">
        <ele>224</ele>
        <time>2017-09-03T17:28:46Z</time>
      </trkpt>
      <trkpt lat="45.69754" lon="5.66964">
        <ele>224</ele>
        <time>2017-09-03T17:29:02Z</time>
      </trkpt>
      <trkpt lat="45.69748" lon="5.66963">
        <ele>224</ele>
        <time>2017-09-03T17:29:02Z</time>
      </trkpt>
      <trkpt lat="45.69743" lon="5.66961">
        <ele>224</ele>
        <time>2017-09-03T17:29:02Z</time>
      </trkpt>
      <trkpt lat="45.69738" lon="5.66957">
        <ele>223</ele>
        <time>2017-09-03T17:29:02Z</time>
      </trkpt>
      <trkpt lat="45.69732" lon="5.66955">
        <ele>223</ele>
        <time>2017-09-03T17:29:18Z</time>
      </trkpt>
      <trkpt lat="45.69726" lon="5.66952">
        <ele>223</ele>
        <time>2017-09-03T17:29:18Z</time>
      </trkpt>
      <trkpt lat="45.6972" lon="5.66949">
        <ele>223</ele>
        <time>2017-09-03T17:29:18Z</time>
      </trkpt>
      <trkpt lat="45.69714" lon="5.66946">
        <ele>223</ele>
        <time>2017-09-03T17:29:18Z</time>
      </trkpt>
      <trkpt lat="45.69698" lon="5.66943">
        <ele>222</ele>
        <time>2017-09-03T17:30:18Z</time>
      </trkpt>
      <trkpt lat="45.69697" lon="5.66944">
        <ele>222</ele>
        <time>2017-09-03T17:30:18Z</time>
      </trkpt>
      <trkpt lat="45.69697" lon="5.66944">
        <ele>222</ele>
        <time>2017-09-03T17:30:18Z</time>
      </trkpt>
      <trkpt lat="45.69697" lon="5.66945">
        <ele>222</ele>
        <time>2017-09-03T17:30:18Z</time>
      </trkpt>
      <trkpt lat="45.69695" lon="5.66945">
        <ele>222</ele>
        <time>2017-09-03T17:30:18Z</time>
      </trkpt>
      <trkpt lat="45.69693" lon="5.66942">
        <ele>222</ele>
        <time>2017-09-03T17:31:18Z</time>
      </trkpt>
      <trkpt lat="45.69691" lon="5.66943">
        <ele>222</ele>
        <time>2017-09-03T17:31:18Z</time>
      </trkpt>
      <trkpt lat="45.6969" lon="5.66945">
        <ele>222</ele>
        <time>2017-09-03T17:31:18Z</time>
      </trkpt>
      <trkpt lat="45.69688" lon="5.66953">
        <ele>222</ele>
        <time>2017-09-03T17:31:18Z</time>
      </trkpt>
      <trkpt lat="45.69685" lon="5.6696">
        <ele>224</ele>
        <time>2017-09-03T17:31:18Z</time>
      </trkpt>
      <trkpt lat="45.69683" lon="5.66968">
        <ele>224</ele>
        <time>2017-09-03T17:31:34Z</time>
      </trkpt>
      <trkpt lat="45.69682" lon="5.66977">
        <ele>224</ele>
        <time>2017-09-03T17:31:34Z</time>
      </trkpt>
      <trkpt lat="45.6968" lon="5.66985">
        <ele>224</ele>
        <time>2017-09-03T17:31:34Z</time>
      </trkpt>
      <trkpt lat="45.69678" lon="5.66993">
        <ele>224</ele>
        <time>2017-09-03T17:31:34Z</time>
      </trkpt>
      <trkpt lat="45.69676" lon="5.67">
        <ele>224</ele>
        <time>2017-09-03T17:31:50Z</time>
      </trkpt>
      <trkpt lat="45.69674" lon="5.67007">
        <ele>224</ele>
        <time>2017-09-03T17:31:50Z</time>
      </trkpt>
      <trkpt lat="45.69672" lon="5.67015">
        <ele>224</ele>
        <time>2017-09-03T17:31:50Z</time>
      </trkpt>
      <trkpt lat="45.6967" lon="5.67023">
        <ele>224</ele>
        <time>2017-09-03T17:31:50Z</time>
      </trkpt>
      <trkpt lat="45.69668" lon="5.67031">
        <ele>224</ele>
        <time>2017-09-03T17:32:06Z</time>
      </trkpt>
      <trkpt lat="45.69665" lon="5.6704">
        <ele>224</ele>
        <time>2017-09-03T17:32:06Z</time>
      </trkpt>
      <trkpt lat="45.69664" lon="5.67048">
        <ele>224</ele>
        <time>2017-09-03T17:32:06Z</time>
      </trkpt>
      <trkpt lat="45.69663" lon="5.67056">
        <ele>224</ele>
        <time>2017-09-03T17:32:06Z</time>
      </trkpt>
      <trkpt lat="45.69661" lon="5.67065">
        <ele>224</ele>
        <time>2017-09-03T17:32:22Z</time>
      </trkpt>
      <trkpt lat="45.69659" lon="5.67073">
        <ele>224</ele>
        <time>2017-09-03T17:32:22Z</time>
      </trkpt>
      <trkpt lat="45.69658" lon="5.67081">
        <ele>224</ele>
        <time>2017-09-03T17:32:22Z</time>
      </trkpt>
      <trkpt lat="45.69656" lon="5.67088">
        <ele>224</ele>
        <time>2017-09-03T17:32:22Z</time>
      </trkpt>
      <trkpt lat="45.69654" lon="5.67097">
        <ele>224</ele>
        <time>2017-09-03T17:32:38Z</time>
      </trkpt>
      <trkpt lat="45.69652" lon="5.67104">
        <ele>224</ele>
        <time>2017-09-03T17:32:38Z</time>
      </trkpt>
      <trkpt lat="45.69651" lon="5.67112">
        <ele>224</ele>
        <time>2017-09-03T17:32:38Z</time>
      </trkpt>
      <trkpt lat="45.69649" lon="5.6712">
        <ele>224</ele>
        <time>2017-09-03T17:32:38Z</time>
      </trkpt>
      <trkpt lat="45.69649" lon="5.67129">
        <ele>225</ele>
        <time>2017-09-03T17:32:54Z</time>
      </trkpt>
      <trkpt lat="45.69648" lon="5.67137">
        <ele>225</ele>
        <time>2017-09-03T17:32:54Z</time>
      </trkpt>
      <trkpt lat="45.69646" lon="5.67146">
        <ele>225</ele>
        <time>2017-09-03T17:32:54Z</time>
      </trkpt>
      <trkpt lat="45.69644" lon="5.67156">
        <ele>225</ele>
        <time>2017-09-03T17:32:54Z</time>
      </trkpt>
      <trkpt lat="45.69642" lon="5.67165">
        <ele>225</ele>
        <time>2017-09-03T17:33:10Z</time>
      </trkpt>
      <trkpt lat="45.6964" lon="5.67174">
        <ele>225</ele>
        <time>2017-09-03T17:33:10Z</time>
      </trkpt>
      <trkpt lat="45.69638" lon="5.67183">
        <ele>225</ele>
        <time>2017-09-03T17:33:10Z</time>
      </trkpt>
      <trkpt lat="45.69637" lon="5.67192">
        <ele>225</ele>
        <time>2017-09-03T17:33:10Z</time>
      </trkpt>
      <trkpt lat="45.69636" lon="5.672">
        <ele>225</ele>
        <time>2017-09-03T17:33:26Z</time>
      </trkpt>
      <trkpt lat="45.69635" lon="5.67208">
        <ele>224</ele>
        <time>2017-09-03T17:33:26Z</time>
      </trkpt>
      <trkpt lat="45.69635" lon="5.67216">
        <ele>224</ele>
        <time>2017-09-03T17:33:26Z</time>
      </trkpt>
      <trkpt lat="45.69635" lon="5.67225">
        <ele>224</ele>
        <time>2017-09-03T17:33:26Z</time>
      </trkpt>
      <trkpt lat="45.69634" lon="5.67233">
        <ele>224</ele>
        <time>2017-09-03T17:33:42Z</time>
      </trkpt>
      <trkpt lat="45.69634" lon="5.67241">
        <ele>224</ele>
        <time>2017-09-03T17:33:42Z</time>
      </trkpt>
      <trkpt lat="45.69632" lon="5.67248">
        <ele>224</ele>
        <time>2017-09-03T17:33:42Z</time>
      </trkpt>
      <trkpt lat="45.69631" lon="5.67255">
        <ele>224</ele>
        <time>2017-09-03T17:33:42Z</time>
      </trkpt>
      <trkpt lat="45.69631" lon="5.67263">
        <ele>224</ele>
        <time>2017-09-03T17:33:58Z</time>
      </trkpt>
      <trkpt lat="45.69631" lon="5.67271">
        <ele>224</ele>
        <time>2017-09-03T17:33:58Z</time>
      </trkpt>
      <trkpt lat="45.69631" lon="5.6728">
        <ele>224</ele>
        <time>2017-09-03T17:33:58Z</time>
      </trkpt>
      <trkpt lat="45.69632" lon="5.67289">
        <ele>224</ele>
        <time>2017-09-03T17:33:58Z</time>
      </trkpt>
      <trkpt lat="45.69633" lon="5.67298">
        <ele>222</ele>
        <time>2017-09-03T17:34:14Z</time>
      </trkpt>
      <trkpt lat="45.69631" lon="5.67307">
        <ele>222</ele>
        <time>2017-09-03T17:34:14Z</time>
      </trkpt>
      <trkpt lat="45.6963" lon="5.67316">
        <ele>222</ele>
        <time>2017-09-03T17:34:14Z</time>
      </trkpt>
      <trkpt lat="45.6963" lon="5.67324">
        <ele>222</ele>
        <time>2017-09-03T17:34:14Z</time>
      </trkpt>
      <trkpt lat="45.6963" lon="5.67332">
        <ele>222</ele>
        <time>2017-09-03T17:34:30Z</time>
      </trkpt>
      <trkpt lat="45.6963" lon="5.6734">
        <ele>222</ele>
        <time>2017-09-03T17:34:30Z</time>
      </trkpt>
      <trkpt lat="45.6963" lon="5.67349">
        <ele>222</ele>
        <time>2017-09-03T17:34:30Z</time>
      </trkpt>
      <trkpt lat="45.69631" lon="5.67357">
        <ele>222</ele>
        <time>2017-09-03T17:34:30Z</time>
      </trkpt>
      <trkpt lat="45.69631" lon="5.67365">
        <ele>222</ele>
        <time>2017-09-03T17:34:46Z</time>
      </trkpt>
      <trkpt lat="45.69631" lon="5.67374">
        <ele>222</ele>
        <time>2017-09-03T17:34:46Z</time>
      </trkpt>
      <trkpt lat="45.6963" lon="5.67382">
        <ele>219</ele>
        <time>2017-09-03T17:34:46Z</time>
      </trkpt>
      <trkpt lat="45.6963" lon="5.67389">
        <ele>219</ele>
        <time>2017-09-03T17:34:46Z</time>
      </trkpt>
      <trkpt lat="45.69631" lon="5.67397">
        <ele>219</ele>
        <time>2017-09-03T17:35:02Z</time>
      </trkpt>
      <trkpt lat="45.69631" lon="5.67405">
        <ele>219</ele>
        <time>2017-09-03T17:35:02Z</time>
      </trkpt>
      <trkpt lat="45.69631" lon="5.67413">
        <ele>219</ele>
        <time>2017-09-03T17:35:02Z</time>
      </trkpt>
      <trkpt lat="45.69631" lon="5.67421">
        <ele>219</ele>
        <time>2017-09-03T17:35:02Z</time>
      </trkpt>
      <trkpt lat="45.69631" lon="5.6743">
        <ele>219</ele>
        <time>2017-09-03T17:35:18Z</time>
      </trkpt>
      <trkpt lat="45.69631" lon="5.67438">
        <ele>219</ele>
        <time>2017-09-03T17:35:18Z</time>
      </trkpt>
      <trkpt lat="45.69631" lon="5.67447">
        <ele>219</ele>
        <time>2017-09-03T17:35:18Z</time>
      </trkpt>
      <trkpt lat="45.6963" lon="5.67455">
        <ele>219</ele>
        <time>2017-09-03T17:35:18Z</time>
      </trkpt>
      <trkpt lat="45.6963" lon="5.67464">
        <ele>220</ele>
        <time>2017-09-03T17:35:34Z</time>
      </trkpt>
      <trkpt lat="45.6963" lon="5.67472">
        <ele>220</ele>
        <time>2017-09-03T17:35:34Z</time>
      </trkpt>
      <trkpt lat="45.69629" lon="5.6748">
        <ele>220</ele>
        <time>2017-09-03T17:35:34Z</time>
      </trkpt>
      <trkpt lat="45.69629" lon="5.67488">
        <ele>220</ele>
        <time>2017-09-03T17:35:34Z</time>
      </trkpt>
      <trkpt lat="45.69629" lon="5.67496">
        <ele>220</ele>
        <time>2017-09-03T17:35:50Z</time>
      </trkpt>
      <trkpt lat="45.69629" lon="5.67504">
        <ele>220</ele>
        <time>2017-09-03T17:35:50Z</time>
      </trkpt>
      <trkpt lat="45.6963" lon="5.67511">
        <ele>220</ele>
        <time>2017-09-03T17:35:50Z</time>
      </trkpt>
      <trkpt lat="45.69632" lon="5.67519">
        <ele>220</ele>
        <time>2017-09-03T17:35:50Z</time>
      </trkpt>
      <trkpt lat="45.69633" lon="5.67527">
        <ele>220</ele>
        <time>2017-09-03T17:36:06Z</time>
      </trkpt>
      <trkpt lat="45.69634" lon="5.67535">
        <ele>220</ele>
        <time>2017-09-03T17:36:06Z</time>
      </trkpt>
      <trkpt lat="45.69634" lon="5.67544">
        <ele>222</ele>
        <time>2017-09-03T17:36:06Z</time>
      </trkpt>
      <trkpt lat="45.69634" lon="5.67552">
        <ele>222</ele>
        <time>2017-09-03T17:36:06Z</time>
      </trkpt>
      <trkpt lat="45.69635" lon="5.6756">
        <ele>222</ele>
        <time>2017-09-03T17:36:22Z</time>
      </trkpt>
      <trkpt lat="45.69635" lon="5.67567">
        <ele>222</ele>
        <time>2017-09-03T17:36:22Z</time>
      </trkpt>
      <trkpt lat="45.69637" lon="5.67574">
        <ele>222</ele>
        <time>2017-09-03T17:36:22Z</time>
      </trkpt>
      <trkpt lat="45.69638" lon="5.6758">
        <ele>222</ele>
        <time>2017-09-03T17:36:22Z</time>
      </trkpt>
      <trkpt lat="45.69639" lon="5.67587">
        <ele>222</ele>
        <time>2017-09-03T17:36:38Z</time>
      </trkpt>
      <trkpt lat="45.6964" lon="5.67594">
        <ele>222</ele>
        <time>2017-09-03T17:36:38Z</time>
      </trkpt>
      <trkpt lat="45.69641" lon="5.67602">
        <ele>222</ele>
        <time>2017-09-03T17:36:38Z</time>
      </trkpt>
      <trkpt lat="45.69643" lon="5.67609">
        <ele>222</ele>
        <time>2017-09-03T17:36:38Z</time>
      </trkpt>
      <trkpt lat="45.69645" lon="5.67616">
        <ele>222</ele>
        <time>2017-09-03T17:36:54Z</time>
      </trkpt>
      <trkpt lat="45.69648" lon="5.67621">
        <ele>222</ele>
        <time>2017-09-03T17:36:54Z</time>
      </trkpt>
      <trkpt lat="45.69653" lon="5.67631">
        <ele>222</ele>
        <time>2017-09-03T17:36:54Z</time>
      </trkpt>
      <trkpt lat="45.69658" lon="5.67638">
        <ele>222</ele>
        <time>2017-09-03T17:36:54Z</time>
      </trkpt>
      <trkpt lat="45.69662" lon="5.67643">
        <ele>222</ele>
        <time>2017-09-03T17:37:10Z</time>
      </trkpt>
      <trkpt lat="45.69664" lon="5.67652">
        <ele>222</ele>
        <time>2017-09-03T17:37:10Z</time>
      </trkpt>
      <trkpt lat="45.69666" lon="5.67661">
        <ele>222</ele>
        <time>2017-09-03T17:37:10Z</time>
      </trkpt>
      <trkpt lat="45.69667" lon="5.67669">
        <ele>222</ele>
        <time>2017-09-03T17:37:10Z</time>
      </trkpt>
      <trkpt lat="45.69669" lon="5.67676">
        <ele>222</ele>
        <time>2017-09-03T17:37:26Z</time>
      </trkpt>
      <trkpt lat="45.69671" lon="5.67684">
        <ele>222</ele>
        <time>2017-09-03T17:37:26Z</time>
      </trkpt>
      <trkpt lat="45.69672" lon="5.67692">
        <ele>222</ele>
        <time>2017-09-03T17:37:26Z</time>
      </trkpt>
      <trkpt lat="45.69673" lon="5.67701">
        <ele>222</ele>
        <time>2017-09-03T17:37:26Z</time>
      </trkpt>
      <trkpt lat="45.69672" lon="5.67709">
        <ele>222</ele>
        <time>2017-09-03T17:37:42Z</time>
      </trkpt>
      <trkpt lat="45.69671" lon="5.67717">
        <ele>222</ele>
        <time>2017-09-03T17:37:42Z</time>
      </trkpt>
      <trkpt lat="45.69671" lon="5.67724">
        <ele>222</ele>
        <time>2017-09-03T17:37:42Z</time>
      </trkpt>
      <trkpt lat="45.69672" lon="5.67732">
        <ele>222</ele>
        <time>2017-09-03T17:37:42Z</time>
      </trkpt>
      <trkpt lat="45.69674" lon="5.67739">
        <ele>222</ele>
        <time>2017-09-03T17:37:58Z</time>
      </trkpt>
      <trkpt lat="45.69675" lon="5.67747">
        <ele>222</ele>
        <time>2017-09-03T17:37:58Z</time>
      </trkpt>
      <trkpt lat="45.69677" lon="5.67755">
        <ele>222</ele>
        <time>2017-09-03T17:37:58Z</time>
      </trkpt>
      <trkpt lat="45.69677" lon="5.67763">
        <ele>222</ele>
        <time>2017-09-03T17:37:58Z</time>
      </trkpt>
      <trkpt lat="45.69678" lon="5.67771">
        <ele>222</ele>
        <time>2017-09-03T17:38:14Z</time>
      </trkpt>
      <trkpt lat="45.69679" lon="5.6778">
        <ele>222</ele>
        <time>2017-09-03T17:38:14Z</time>
      </trkpt>
      <trkpt lat="45.6968" lon="5.67788">
        <ele>222</ele>
        <time>2017-09-03T17:38:14Z</time>
      </trkpt>
      <trkpt lat="45.6968" lon="5.67797">
        <ele>223</ele>
        <time>2017-09-03T17:38:14Z</time>
      </trkpt>
      <trkpt lat="45.69681" lon="5.67804">
        <ele>223</ele>
        <time>2017-09-03T17:38:30Z</time>
      </trkpt>
      <trkpt lat="45.69681" lon="5.67812">
        <ele>223</ele>
        <time>2017-09-03T17:38:30Z</time>
      </trkpt>
      <trkpt lat="45.69682" lon="5.67819">
        <ele>223</ele>
        <time>2017-09-03T17:38:30Z</time>
      </trkpt>
      <trkpt lat="45.69683" lon="5.67826">
        <ele>223</ele>
        <time>2017-09-03T17:38:30Z</time>
      </trkpt>
      <trkpt lat="45.69684" lon="5.67834">
        <ele>223</ele>
        <time>2017-09-03T17:38:46Z</time>
      </trkpt>
      <trkpt lat="45.69685" lon="5.67841">
        <ele>223</ele>
        <time>2017-09-03T17:38:46Z</time>
      </trkpt>
      <trkpt lat="45.69683" lon="5.67847">
        <ele>223</ele>
        <time>2017-09-03T17:38:46Z</time>
      </trkpt>
      <trkpt lat="45.69678" lon="5.67852">
        <ele>223</ele>
        <time>2017-09-03T17:38:46Z</time>
      </trkpt>
      <trkpt lat="45.69672" lon="5.67853">
        <ele>223</ele>
        <time>2017-09-03T17:39:02Z</time>
      </trkpt>
      <trkpt lat="45.69667" lon="5.67853">
        <ele>223</ele>
        <time>2017-09-03T17:39:02Z</time>
      </trkpt>
      <trkpt lat="45.69661" lon="5.67853">
        <ele>223</ele>
        <time>2017-09-03T17:39:02Z</time>
      </trkpt>
      <trkpt lat="45.69657" lon="5.67855">
        <ele>223</ele>
        <time>2017-09-03T17:39:02Z</time>
      </trkpt>
      <trkpt lat="45.69659" lon="5.67854">
        <ele>223</ele>
        <time>2017-09-03T17:39:18Z</time>
      </trkpt>
      <trkpt lat="45.6966" lon="5.67854">
        <ele>223</ele>
        <time>2017-09-03T17:39:18Z</time>
      </trkpt>
      <trkpt lat="45.69657" lon="5.67856">
        <ele>223</ele>
        <time>2017-09-03T17:39:18Z</time>
      </trkpt>
      <trkpt lat="45.6965" lon="5.67858">
        <ele>223</ele>
        <time>2017-09-03T17:39:18Z</time>
      </trkpt>
      <trkpt lat="45.69645" lon="5.6786">
        <ele>223</ele>
        <time>2017-09-03T17:39:34Z</time>
      </trkpt>
      <trkpt lat="45.69639" lon="5.67862">
        <ele>223</ele>
        <time>2017-09-03T17:39:34Z</time>
      </trkpt>
      <trkpt lat="45.69633" lon="5.67863">
        <ele>223</ele>
        <time>2017-09-03T17:39:34Z</time>
      </trkpt>
      <trkpt lat="45.69627" lon="5.67862">
        <ele>223</ele>
        <time>2017-09-03T17:39:34Z</time>
      </trkpt>
      <trkpt lat="45.69621" lon="5.67864">
        <ele>220</ele>
        <time>2017-09-03T17:39:50Z</time>
      </trkpt>
      <trkpt lat="45.69615" lon="5.67867">
        <ele>220</ele>
        <time>2017-09-03T17:39:50Z</time>
      </trkpt>
      <trkpt lat="45.69609" lon="5.67867">
        <ele>220</ele>
        <time>2017-09-03T17:39:50Z</time>
      </trkpt>
      <trkpt lat="45.69603" lon="5.67868">
        <ele>220</ele>
        <time>2017-09-03T17:39:50Z</time>
      </trkpt>
      <trkpt lat="45.69599" lon="5.67867">
        <ele>220</ele>
        <time>2017-09-03T17:40:06Z</time>
      </trkpt>
      <trkpt lat="45.69597" lon="5.67861">
        <ele>220</ele>
        <time>2017-09-03T17:40:06Z</time>
      </trkpt>
      <trkpt lat="45.69596" lon="5.67853">
        <ele>220</ele>
        <time>2017-09-03T17:40:06Z</time>
      </trkpt>
      <trkpt lat="45.69594" lon="5.67846">
        <ele>220</ele>
        <time>2017-09-03T17:40:06Z</time>
      </trkpt>
      <trkpt lat="45.69592" lon="5.67839">
        <ele>220</ele>
        <time>2017-09-03T17:40:22Z</time>
      </trkpt>
      <trkpt lat="45.6959" lon="5.67832">
        <ele>220</ele>
        <time>2017-09-03T17:40:22Z</time>
      </trkpt>
      <trkpt lat="45.69586" lon="5.67806">
        <ele>220</ele>
        <time>2017-09-03T17:40:22Z</time>
      </trkpt>
      <trkpt lat="45.69581" lon="5.67775">
        <ele>221</ele>
        <time>2017-09-03T17:40:22Z</time>
      </trkpt>
      <trkpt lat="45.69575" lon="5.67745">
        <ele>221</ele>
        <time>2017-09-03T17:40:38Z</time>
      </trkpt>
      <trkpt lat="45.69571" lon="5.67722">
        <ele>221</ele>
        <time>2017-09-03T17:40:38Z</time>
      </trkpt>
      <trkpt lat="45.69569" lon="5.67716">
        <ele>221</ele>
        <time>2017-09-03T17:40:38Z</time>
      </trkpt>
      <trkpt lat="45.69562" lon="5.67716">
        <ele>221</ele>
        <time>2017-09-03T17:40:38Z</time>
      </trkpt>
      <trkpt lat="45.69546" lon="5.67713">
        <ele>221</ele>
        <time>2017-09-03T17:41:14Z</time>
      </trkpt>
      <trkpt lat="45.69546" lon="5.67714">
        <ele>221</ele>
        <time>2017-09-03T17:41:14Z</time>
      </trkpt>
      <trkpt lat="45.69544" lon="5.67714">
        <ele>221</ele>
        <time>2017-09-03T17:41:14Z</time>
      </trkpt>
      <trkpt lat="45.6954" lon="5.67716">
        <ele>220</ele>
        <time>2017-09-03T17:41:14Z</time>
      </trkpt>
      <trkpt lat="45.69535" lon="5.67718">
        <ele>220</ele>
        <time>2017-09-03T17:41:14Z</time>
      </trkpt>
      <trkpt lat="45.6953" lon="5.67719">
        <ele>220</ele>
        <time>2017-09-03T17:41:30Z</time>
      </trkpt>
      <trkpt lat="45.69524" lon="5.67722">
        <ele>220</ele>
        <time>2017-09-03T17:41:30Z</time>
      </trkpt>
      <trkpt lat="45.69519" lon="5.67723">
        <ele>220</ele>
        <time>2017-09-03T17:41:30Z</time>
      </trkpt>
      <trkpt lat="45.69514" lon="5.67724">
        <ele>220</ele>
        <time>2017-09-03T17:41:30Z</time>
      </trkpt>
      <trkpt lat="45.69508" lon="5.67725">
        <ele>220</ele>
        <time>2017-09-03T17:41:46Z</time>
      </trkpt>
      <trkpt lat="45.69504" lon="5.67728">
        <ele>220</ele>
        <time>2017-09-03T17:41:46Z</time>
      </trkpt>
      <trkpt lat="45.69501" lon="5.67735">
        <ele>220</ele>
        <time>2017-09-03T17:41:46Z</time>
      </trkpt>
      <trkpt lat="45.69507" lon="5.67758">
        <ele>220</ele>
        <time>2017-09-03T17:41:46Z</time>
      </trkpt>
      <trkpt lat="45.69512" lon="5.67788">
        <ele>220</ele>
        <time>2017-09-03T17:42:02Z</time>
      </trkpt>
      <trkpt lat="45.69518" lon="5.67816">
        <ele>220</ele>
        <time>2017-09-03T17:42:02Z</time>
      </trkpt>
      <trkpt lat="45.69523" lon="5.6784">
        <ele>220</ele>
        <time>2017-09-03T17:42:02Z</time>
      </trkpt>
      <trkpt lat="45.69524" lon="5.67858">
        <ele>220</ele>
        <time>2017-09-03T17:42:02Z</time>
      </trkpt>
      <trkpt lat="45.69522" lon="5.67864">
        <ele>220</ele>
        <time>2017-09-03T17:42:18Z</time>
      </trkpt>
      <trkpt lat="45.69511" lon="5.67867">
        <ele>220</ele>
        <time>2017-09-03T17:42:18Z</time>
      </trkpt>
      <trkpt lat="45.69488" lon="5.67868">
        <ele>220</ele>
        <time>2017-09-03T17:42:18Z</time>
      </trkpt>
      <trkpt lat="45.69467" lon="5.6787">
        <ele>220</ele>
        <time>2017-09-03T17:42:18Z</time>
      </trkpt>
      <trkpt lat="45.69441" lon="5.67872">
        <ele>221</ele>
        <time>2017-09-03T17:42:34Z</time>
      </trkpt>
      <trkpt lat="45.69419" lon="5.6787">
        <ele>221</ele>
        <time>2017-09-03T17:42:34Z</time>
      </trkpt>
      <trkpt lat="45.69409" lon="5.6787">
        <ele>221</ele>
        <time>2017-09-03T17:42:34Z</time>
      </trkpt>
      <trkpt lat="45.69404" lon="5.6787">
        <ele>221</ele>
        <time>2017-09-03T17:42:34Z</time>
      </trkpt>
      <trkpt lat="45.69399" lon="5.67872">
        <ele>221</ele>
        <time>2017-09-03T17:42:50Z</time>
      </trkpt>
      <trkpt lat="45.69393" lon="5.67871">
        <ele>221</ele>
        <time>2017-09-03T17:42:50Z</time>
      </trkpt>
      <trkpt lat="45.69387" lon="5.67872">
        <ele>221</ele>
        <time>2017-09-03T17:42:50Z</time>
      </trkpt>
      <trkpt lat="45.69381" lon="5.67874">
        <ele>221</ele>
        <time>2017-09-03T17:42:50Z</time>
      </trkpt>
      <trkpt lat="45.69373" lon="5.67875">
        <ele>222</ele>
        <time>2017-09-03T17:43:06Z</time>
      </trkpt>
      <trkpt lat="45.69364" lon="5.67874">
        <ele>222</ele>
        <time>2017-09-03T17:43:06Z</time>
      </trkpt>
      <trkpt lat="45.69357" lon="5.67874">
        <ele>222</ele>
        <time>2017-09-03T17:43:06Z</time>
      </trkpt>
      <trkpt lat="45.69352" lon="5.67873">
        <ele>222</ele>
        <time>2017-09-03T17:43:06Z</time>
      </trkpt>
      <trkpt lat="45.69347" lon="5.67871">
        <ele>222</ele>
        <time>2017-09-03T17:43:22Z</time>
      </trkpt>
      <trkpt lat="45.69341" lon="5.6787">
        <ele>222</ele>
        <time>2017-09-03T17:43:22Z</time>
      </trkpt>
      <trkpt lat="45.69333" lon="5.6787">
        <ele>222</ele>
        <time>2017-09-03T17:43:22Z</time>
      </trkpt>
      <trkpt lat="45.69323" lon="5.67869">
        <ele>222</ele>
        <time>2017-09-03T17:43:22Z</time>
      </trkpt>
      <trkpt lat="45.69316" lon="5.67869">
        <ele>222</ele>
        <time>2017-09-03T17:43:38Z</time>
      </trkpt>
      <trkpt lat="45.6931" lon="5.67869">
        <ele>222</ele>
        <time>2017-09-03T17:43:38Z</time>
      </trkpt>
      <trkpt lat="45.69303" lon="5.67868">
        <ele>222</ele>
        <time>2017-09-03T17:43:38Z</time>
      </trkpt>
      <trkpt lat="45.69298" lon="5.67866">
        <ele>222</ele>
        <time>2017-09-03T17:43:38Z</time>
      </trkpt>
      <trkpt lat="45.69291" lon="5.67864">
        <ele>223</ele>
        <time>2017-09-03T17:43:54Z</time>
      </trkpt>
      <trkpt lat="45.69285" lon="5.67859">
        <ele>223</ele>
        <time>2017-09-03T17:43:54Z</time>
      </trkpt>
      <trkpt lat="45.69278" lon="5.67853">
        <ele>223</ele>
        <time>2017-09-03T17:43:54Z</time>
      </trkpt>
      <trkpt lat="45.69274" lon="5.67844">
        <ele>223</ele>
        <time>2017-09-03T17:43:54Z</time>
      </trkpt>
      <trkpt lat="45.69271" lon="5.67836">
        <ele>223</ele>
        <time>2017-09-03T17:44:10Z</time>
      </trkpt>
      <trkpt lat="45.69268" lon="5.67827">
        <ele>223</ele>
        <time>2017-09-03T17:44:10Z</time>
      </trkpt>
      <trkpt lat="45.69262" lon="5.67823">
        <ele>223</ele>
        <time>2017-09-03T17:44:10Z</time>
      </trkpt>
      <trkpt lat="45.69244" lon="5.67833">
        <ele>223</ele>
        <time>2017-09-03T17:44:10Z</time>
      </trkpt>
      <trkpt lat="45.69225" lon="5.67843">
        <ele>223</ele>
        <time>2017-09-03T17:44:26Z</time>
      </trkpt>
      <trkpt lat="45.69206" lon="5.67854">
        <ele>226</ele>
        <time>2017-09-03T17:44:26Z</time>
      </trkpt>
      <trkpt lat="45.69184" lon="5.67864">
        <ele>226</ele>
        <time>2017-09-03T17:44:26Z</time>
      </trkpt>
      <trkpt lat="45.69166" lon="5.67872">
        <ele>226</ele>
        <time>2017-09-03T17:44:26Z</time>
      </trkpt>
      <trkpt lat="45.69151" lon="5.67879">
        <ele>225</ele>
        <time>2017-09-03T17:44:42Z</time>
      </trkpt>
      <trkpt lat="45.69145" lon="5.67879">
        <ele>225</ele>
        <time>2017-09-03T17:44:42Z</time>
      </trkpt>
      <trkpt lat="45.6914" lon="5.67874">
        <ele>226</ele>
        <time>2017-09-03T17:44:42Z</time>
      </trkpt>
      <trkpt lat="45.69135" lon="5.67873">
        <ele>226</ele>
        <time>2017-09-03T17:44:42Z</time>
      </trkpt>
      <trkpt lat="45.6913" lon="5.67876">
        <ele>225</ele>
        <time>2017-09-03T17:44:58Z</time>
      </trkpt>
      <trkpt lat="45.69126" lon="5.67883">
        <ele>225</ele>
        <time>2017-09-03T17:44:58Z</time>
      </trkpt>
      <trkpt lat="45.69121" lon="5.67889">
        <ele>229</ele>
        <time>2017-09-03T17:44:58Z</time>
      </trkpt>
      <trkpt lat="45.69116" lon="5.67894">
        <ele>229</ele>
        <time>2017-09-03T17:44:58Z</time>
      </trkpt>
      <trkpt lat="45.69106" lon="5.67892">
        <ele>229</ele>
        <time>2017-09-03T17:45:30Z</time>
      </trkpt>
      <trkpt lat="45.69107" lon="5.67882">
        <ele>229</ele>
        <time>2017-09-03T17:45:30Z</time>
      </trkpt>
      <trkpt lat="45.69106" lon="5.67873">
        <ele>231</ele>
        <time>2017-09-03T17:45:30Z</time>
      </trkpt>
      <trkpt lat="45.69106" lon="5.67865">
        <ele>231</ele>
        <time>2017-09-03T17:45:30Z</time>
      </trkpt>
      <trkpt lat="45.69105" lon="5.67857">
        <ele>231</ele>
        <time>2017-09-03T17:45:30Z</time>
      </trkpt>
      <trkpt lat="45.69104" lon="5.67849">
        <ele>231</ele>
        <time>2017-09-03T17:45:46Z</time>
      </trkpt>
      <trkpt lat="45.69102" lon="5.67842">
        <ele>231</ele>
        <time>2017-09-03T17:45:46Z</time>
      </trkpt>
      <trkpt lat="45.69099" lon="5.67836">
        <ele>231</ele>
        <time>2017-09-03T17:45:46Z</time>
      </trkpt>
      <trkpt lat="45.69094" lon="5.67832">
        <ele>231</ele>
        <time>2017-09-03T17:45:46Z</time>
      </trkpt>
      <trkpt lat="45.69089" lon="5.67828">
        <ele>231</ele>
        <time>2017-09-03T17:46:02Z</time>
      </trkpt>
      <trkpt lat="45.69084" lon="5.67825">
        <ele>231</ele>
        <time>2017-09-03T17:46:02Z</time>
      </trkpt>
      <trkpt lat="45.69078" lon="5.6782">
        <ele>231</ele>
        <time>2017-09-03T17:46:02Z</time>
      </trkpt>
      <trkpt lat="45.69073" lon="5.67817">
        <ele>231</ele>
        <time>2017-09-03T17:46:02Z</time>
      </trkpt>
      <trkpt lat="45.69068" lon="5.67813">
        <ele>231</ele>
        <time>2017-09-03T17:46:18Z</time>
      </trkpt>
      <trkpt lat="45.69063" lon="5.67809">
        <ele>231</ele>
        <time>2017-09-03T17:46:18Z</time>
      </trkpt>
      <trkpt lat="45.69058" lon="5.67805">
        <ele>231</ele>
        <time>2017-09-03T17:46:18Z</time>
      </trkpt>
      <trkpt lat="45.69053" lon="5.67802">
        <ele>231</ele>
        <time>2017-09-03T17:46:18Z</time>
      </trkpt>
      <trkpt lat="45.69048" lon="5.67798">
        <ele>231</ele>
        <time>2017-09-03T17:46:34Z</time>
      </trkpt>
      <trkpt lat="45.69043" lon="5.67794">
        <ele>231</ele>
        <time>2017-09-03T17:46:34Z</time>
      </trkpt>
      <trkpt lat="45.69038" lon="5.67791">
        <ele>234</ele>
        <time>2017-09-03T17:46:34Z</time>
      </trkpt>
      <trkpt lat="45.69034" lon="5.67787">
        <ele>234</ele>
        <time>2017-09-03T17:46:34Z</time>
      </trkpt>
      <trkpt lat="45.69029" lon="5.67782">
        <ele>234</ele>
        <time>2017-09-03T17:46:50Z</time>
      </trkpt>
      <trkpt lat="45.69024" lon="5.67778">
        <ele>234</ele>
        <time>2017-09-03T17:46:50Z</time>
      </trkpt>
      <trkpt lat="45.69018" lon="5.67773">
        <ele>234</ele>
        <time>2017-09-03T17:46:50Z</time>
      </trkpt>
      <trkpt lat="45.69013" lon="5.67769">
        <ele>234</ele>
        <time>2017-09-03T17:46:50Z</time>
      </trkpt>
      <trkpt lat="45.69008" lon="5.67766">
        <ele>234</ele>
        <time>2017-09-03T17:47:06Z</time>
      </trkpt>
      <trkpt lat="45.69004" lon="5.67761">
        <ele>234</ele>
        <time>2017-09-03T17:47:06Z</time>
      </trkpt>
      <trkpt lat="45.68998" lon="5.67757">
        <ele>234</ele>
        <time>2017-09-03T17:47:06Z</time>
      </trkpt>
      <trkpt lat="45.68993" lon="5.67753">
        <ele>234</ele>
        <time>2017-09-03T17:47:06Z</time>
      </trkpt>
      <trkpt lat="45.68988" lon="5.67749">
        <ele>234</ele>
        <time>2017-09-03T17:47:22Z</time>
      </trkpt>
      <trkpt lat="45.68983" lon="5.67745">
        <ele>234</ele>
        <time>2017-09-03T17:47:22Z</time>
      </trkpt>
      <trkpt lat="45.68979" lon="5.67747">
        <ele>234</ele>
        <time>2017-09-03T17:47:22Z</time>
      </trkpt>
      <trkpt lat="45.68976" lon="5.67751">
        <ele>234</ele>
        <time>2017-09-03T17:47:22Z</time>
      </trkpt>
      <trkpt lat="45.68972" lon="5.67756">
        <ele>234</ele>
        <time>2017-09-03T17:47:38Z</time>
      </trkpt>
      <trkpt lat="45.68967" lon="5.67762">
        <ele>234</ele>
        <time>2017-09-03T17:47:38Z</time>
      </trkpt>
      <trkpt lat="45.68963" lon="5.67767">
        <ele>234</ele>
        <time>2017-09-03T17:47:38Z</time>
      </trkpt>
      <trkpt lat="45.68957" lon="5.67771">
        <ele>237</ele>
        <time>2017-09-03T17:47:38Z</time>
      </trkpt>
      <trkpt lat="45.68952" lon="5.67774">
        <ele>237</ele>
        <time>2017-09-03T17:47:54Z</time>
      </trkpt>
      <trkpt lat="45.68946" lon="5.67778">
        <ele>237</ele>
        <time>2017-09-03T17:47:54Z</time>
      </trkpt>
      <trkpt lat="45.68941" lon="5.6778">
        <ele>237</ele>
        <time>2017-09-03T17:47:54Z</time>
      </trkpt>
      <trkpt lat="45.68937" lon="5.67785">
        <ele>237</ele>
        <time>2017-09-03T17:47:54Z</time>
      </trkpt>
      <trkpt lat="45.68932" lon="5.6779">
        <ele>237</ele>
        <time>2017-09-03T17:48:10Z</time>
      </trkpt>
      <trkpt lat="45.68927" lon="5.67795">
        <ele>235</ele>
        <time>2017-09-03T17:48:10Z</time>
      </trkpt>
      <trkpt lat="45.68922" lon="5.67796">
        <ele>235</ele>
        <time>2017-09-03T17:48:10Z</time>
      </trkpt>
      <trkpt lat="45.68917" lon="5.67799">
        <ele>235</ele>
        <time>2017-09-03T17:48:10Z</time>
      </trkpt>
      <trkpt lat="45.68912" lon="5.67805">
        <ele>235</ele>
        <time>2017-09-03T17:48:26Z</time>
      </trkpt>
      <trkpt lat="45.68908" lon="5.6781">
        <ele>235</ele>
        <time>2017-09-03T17:48:26Z</time>
      </trkpt>
      <trkpt lat="45.68902" lon="5.67815">
        <ele>235</ele>
        <time>2017-09-03T17:48:26Z</time>
      </trkpt>
      <trkpt lat="45.68897" lon="5.6782">
        <ele>235</ele>
        <time>2017-09-03T17:48:26Z</time>
      </trkpt>
      <trkpt lat="45.68891" lon="5.67824">
        <ele>235</ele>
        <time>2017-09-03T17:48:42Z</time>
      </trkpt>
      <trkpt lat="45.68886" lon="5.67828">
        <ele>235</ele>
        <time>2017-09-03T17:48:42Z</time>
      </trkpt>
      <trkpt lat="45.68882" lon="5.67833">
        <ele>235</ele>
        <time>2017-09-03T17:48:42Z</time>
      </trkpt>
      <trkpt lat="45.68878" lon="5.67839">
        <ele>235</ele>
        <time>2017-09-03T17:48:42Z</time>
      </trkpt>
      <trkpt lat="45.68873" lon="5.67844">
        <ele>236</ele>
        <time>2017-09-03T17:48:58Z</time>
      </trkpt>
      <trkpt lat="45.68868" lon="5.67846">
        <ele>236</ele>
        <time>2017-09-03T17:48:58Z</time>
      </trkpt>
      <trkpt lat="45.68862" lon="5.6785">
        <ele>236</ele>
        <time>2017-09-03T17:48:58Z</time>
      </trkpt>
      <trkpt lat="45.68857" lon="5.67856">
        <ele>236</ele>
        <time>2017-09-03T17:48:58Z</time>
      </trkpt>
      <trkpt lat="45.68853" lon="5.67861">
        <ele>236</ele>
        <time>2017-09-03T17:49:14Z</time>
      </trkpt>
      <trkpt lat="45.68848" lon="5.67867">
        <ele>236</ele>
        <time>2017-09-03T17:49:14Z</time>
      </trkpt>
      <trkpt lat="45.68843" lon="5.67871">
        <ele>236</ele>
        <time>2017-09-03T17:49:14Z</time>
      </trkpt>
      <trkpt lat="45.68838" lon="5.67872">
        <ele>236</ele>
        <time>2017-09-03T17:49:14Z</time>
      </trkpt>
      <trkpt lat="45.68833" lon="5.67876">
        <ele>237</ele>
        <time>2017-09-03T17:49:30Z</time>
      </trkpt>
      <trkpt lat="45.68827" lon="5.67882">
        <ele>237</ele>
        <time>2017-09-03T17:49:30Z</time>
      </trkpt>
      <trkpt lat="45.68817" lon="5.67893">
        <ele>237</ele>
        <time>2017-09-03T17:49:30Z</time>
      </trkpt>
      <trkpt lat="45.68809" lon="5.679">
        <ele>237</ele>
        <time>2017-09-03T17:49:30Z</time>
      </trkpt>
      <trkpt lat="45.68804" lon="5.67905">
        <ele>237</ele>
        <time>2017-09-03T17:49:46Z</time>
      </trkpt>
      <trkpt lat="45.68799" lon="5.6791">
        <ele>237</ele>
        <time>2017-09-03T17:49:46Z</time>
      </trkpt>
      <trkpt lat="45.68793" lon="5.67915">
        <ele>237</ele>
        <time>2017-09-03T17:49:46Z</time>
      </trkpt>
      <trkpt lat="45.68788" lon="5.67918">
        <ele>235</ele>
        <time>2017-09-03T17:49:46Z</time>
      </trkpt>
      <trkpt lat="45.68783" lon="5.67922">
        <ele>235</ele>
        <time>2017-09-03T17:50:02Z</time>
      </trkpt>
      <trkpt lat="45.68778" lon="5.67928">
        <ele>235</ele>
        <time>2017-09-03T17:50:02Z</time>
      </trkpt>
      <trkpt lat="45.68774" lon="5.67935">
        <ele>235</ele>
        <time>2017-09-03T17:50:02Z</time>
      </trkpt>
      <trkpt lat="45.68764" lon="5.67949">
        <ele>235</ele>
        <time>2017-09-03T17:50:02Z</time>
      </trkpt>
      <trkpt lat="45.68755" lon="5.67958">
        <ele>235</ele>
        <time>2017-09-03T17:50:18Z</time>
      </trkpt>
      <trkpt lat="45.68749" lon="5.67964">
        <ele>234</ele>
        <time>2017-09-03T17:50:18Z</time>
      </trkpt>
      <trkpt lat="45.68744" lon="5.67969">
        <ele>234</ele>
        <time>2017-09-03T17:50:18Z</time>
      </trkpt>
      <trkpt lat="45.68739" lon="5.67974">
        <ele>234</ele>
        <time>2017-09-03T17:50:18Z</time>
      </trkpt>
      <trkpt lat="45.68734" lon="5.67979">
        <ele>234</ele>
        <time>2017-09-03T17:50:34Z</time>
      </trkpt>
      <trkpt lat="45.6873" lon="5.67985">
        <ele>234</ele>
        <time>2017-09-03T17:50:34Z</time>
      </trkpt>
      <trkpt lat="45.68725" lon="5.6799">
        <ele>234</ele>
        <time>2017-09-03T17:50:34Z</time>
      </trkpt>
      <trkpt lat="45.6872" lon="5.67994">
        <ele>234</ele>
        <time>2017-09-03T17:50:34Z</time>
      </trkpt>
      <trkpt lat="45.68715" lon="5.67998">
        <ele>234</ele>
        <time>2017-09-03T17:50:50Z</time>
      </trkpt>
      <trkpt lat="45.6871" lon="5.68003">
        <ele>234</ele>
        <time>2017-09-03T17:50:50Z</time>
      </trkpt>
      <trkpt lat="45.68705" lon="5.68007">
        <ele>234</ele>
        <time>2017-09-03T17:50:50Z</time>
      </trkpt>
      <trkpt lat="45.68701" lon="5.68012">
        <ele>234</ele>
        <time>2017-09-03T17:50:50Z</time>
      </trkpt>
      <trkpt lat="45.68696" lon="5.68016">
        <ele>234</ele>
        <time>2017-09-03T17:51:06Z</time>
      </trkpt>
      <trkpt lat="45.68691" lon="5.68021">
        <ele>234</ele>
        <time>2017-09-03T17:51:06Z</time>
      </trkpt>
      <trkpt lat="45.68686" lon="5.68026">
        <ele>234</ele>
        <time>2017-09-03T17:51:06Z</time>
      </trkpt>
      <trkpt lat="45.68681" lon="5.68031">
        <ele>234</ele>
        <time>2017-09-03T17:51:06Z</time>
      </trkpt>
      <trkpt lat="45.68676" lon="5.68036">
        <ele>234</ele>
        <time>2017-09-03T17:51:22Z</time>
      </trkpt>
      <trkpt lat="45.6867" lon="5.6804">
        <ele>234</ele>
        <time>2017-09-03T17:51:22Z</time>
      </trkpt>
      <trkpt lat="45.68665" lon="5.68045">
        <ele>234</ele>
        <time>2017-09-03T17:51:22Z</time>
      </trkpt>
      <trkpt lat="45.6866" lon="5.68051">
        <ele>234</ele>
        <time>2017-09-03T17:51:22Z</time>
      </trkpt>
      <trkpt lat="45.68655" lon="5.68056">
        <ele>234</ele>
        <time>2017-09-03T17:51:38Z</time>
      </trkpt>
      <trkpt lat="45.6865" lon="5.68061">
        <ele>234</ele>
        <time>2017-09-03T17:51:38Z</time>
      </trkpt>
      <trkpt lat="45.68644" lon="5.68065">
        <ele>234</ele>
        <time>2017-09-03T17:51:38Z</time>
      </trkpt>
      <trkpt lat="45.68639" lon="5.6807">
        <ele>234</ele>
        <time>2017-09-03T17:51:38Z</time>
      </trkpt>
      <trkpt lat="45.68635" lon="5.68075">
        <ele>234</ele>
        <time>2017-09-03T17:51:54Z</time>
      </trkpt>
      <trkpt lat="45.6863" lon="5.6808">
        <ele>234</ele>
        <time>2017-09-03T17:51:54Z</time>
      </trkpt>
      <trkpt lat="45.68625" lon="5.68084">
        <ele>234</ele>
        <time>2017-09-03T17:51:54Z</time>
      </trkpt>
      <trkpt lat="45.6862" lon="5.68089">
        <ele>233</ele>
        <time>2017-09-03T17:51:54Z</time>
      </trkpt>
      <trkpt lat="45.68616" lon="5.68095">
        <ele>233</ele>
        <time>2017-09-03T17:52:10Z</time>
      </trkpt>
      <trkpt lat="45.68611" lon="5.68101">
        <ele>233</ele>
        <time>2017-09-03T17:52:10Z</time>
      </trkpt>
      <trkpt lat="45.68607" lon="5.68108">
        <ele>233</ele>
        <time>2017-09-03T17:52:10Z</time>
      </trkpt>
      <trkpt lat="45.68602" lon="5.68114">
        <ele>233</ele>
        <time>2017-09-03T17:52:10Z</time>
      </trkpt>
      <trkpt lat="45.68598" lon="5.6812">
        <ele>233</ele>
        <time>2017-09-03T17:52:26Z</time>
      </trkpt>
      <trkpt lat="45.6859" lon="5.68129">
        <ele>233</ele>
        <time>2017-09-03T17:52:26Z</time>
      </trkpt>
      <trkpt lat="45.68579" lon="5.68142">
        <ele>233</ele>
        <time>2017-09-03T17:52:26Z</time>
      </trkpt>
      <trkpt lat="45.68572" lon="5.68151">
        <ele>233</ele>
        <time>2017-09-03T17:52:26Z</time>
      </trkpt>
      <trkpt lat="45.68567" lon="5.68156">
        <ele>233</ele>
        <time>2017-09-03T17:52:42Z</time>
      </trkpt>
      <trkpt lat="45.68563" lon="5.68161">
        <ele>233</ele>
        <time>2017-09-03T17:52:42Z</time>
      </trkpt>
      <trkpt lat="45.68558" lon="5.68167">
        <ele>233</ele>
        <time>2017-09-03T17:52:42Z</time>
      </trkpt>
      <trkpt lat="45.68554" lon="5.68171">
        <ele>233</ele>
        <time>2017-09-03T17:52:42Z</time>
      </trkpt>
      <trkpt lat="45.68549" lon="5.68177">
        <ele>233</ele>
        <time>2017-09-03T17:52:58Z</time>
      </trkpt>
      <trkpt lat="45.68544" lon="5.68182">
        <ele>233</ele>
        <time>2017-09-03T17:52:58Z</time>
      </trkpt>
      <trkpt lat="45.68539" lon="5.68187">
        <ele>233</ele>
        <time>2017-09-03T17:52:58Z</time>
      </trkpt>
      <trkpt lat="45.68536" lon="5.6819">
        <ele>233</ele>
        <time>2017-09-03T17:52:58Z</time>
      </trkpt>
      <trkpt lat="45.68532" lon="5.68193">
        <ele>233</ele>
        <time>2017-09-03T17:53:14Z</time>
      </trkpt>
      <trkpt lat="45.68527" lon="5.682">
        <ele>233</ele>
        <time>2017-09-03T17:53:14Z</time>
      </trkpt>
      <trkpt lat="45.68522" lon="5.68207">
        <ele>233</ele>
        <time>2017-09-03T17:53:14Z</time>
      </trkpt>
      <trkpt lat="45.68517" lon="5.68213">
        <ele>233</ele>
        <time>2017-09-03T17:53:14Z</time>
      </trkpt>
      <trkpt lat="45.68512" lon="5.68219">
        <ele>233</ele>
        <time>2017-09-03T17:53:30Z</time>
      </trkpt>
      <trkpt lat="45.68508" lon="5.68225">
        <ele>233</ele>
        <time>2017-09-03T17:53:30Z</time>
      </trkpt>
      <trkpt lat="45.68503" lon="5.68231">
        <ele>233</ele>
        <time>2017-09-03T17:53:30Z</time>
      </trkpt>
      <trkpt lat="45.68498" lon="5.68237">
        <ele>233</ele>
        <time>2017-09-03T17:53:30Z</time>
      </trkpt>
      <trkpt lat="45.68493" lon="5.68244">
        <ele>233</ele>
        <time>2017-09-03T17:53:46Z</time>
      </trkpt>
      <trkpt lat="45.68489" lon="5.68249">
        <ele>233</ele>
        <time>2017-09-03T17:53:46Z</time>
      </trkpt>
      <trkpt lat="45.68485" lon="5.68255">
        <ele>233</ele>
        <time>2017-09-03T17:53:46Z</time>
      </trkpt>
      <trkpt lat="45.6848" lon="5.6826">
        <ele>233</ele>
        <time>2017-09-03T17:53:46Z</time>
      </trkpt>
      <trkpt lat="45.68476" lon="5.68264">
        <ele>233</ele>
        <time>2017-09-03T17:54:02Z</time>
      </trkpt>
      <trkpt lat="45.68471" lon="5.6827">
        <ele>233</ele>
        <time>2017-09-03T17:54:02Z</time>
      </trkpt>
      <trkpt lat="45.68466" lon="5.68274">
        <ele>233</ele>
        <time>2017-09-03T17:54:02Z</time>
      </trkpt>
      <trkpt lat="45.68462" lon="5.68279">
        <ele>233</ele>
        <time>2017-09-03T17:54:02Z</time>
      </trkpt>
      <trkpt lat="45.68457" lon="5.68283">
        <ele>232</ele>
        <time>2017-09-03T17:54:18Z</time>
      </trkpt>
      <trkpt lat="45.68451" lon="5.68286">
        <ele>232</ele>
        <time>2017-09-03T17:54:18Z</time>
      </trkpt>
      <trkpt lat="45.68445" lon="5.68288">
        <ele>232</ele>
        <time>2017-09-03T17:54:18Z</time>
      </trkpt>
      <trkpt lat="45.68439" lon="5.6827">
        <ele>232</ele>
        <time>2017-09-03T17:54:18Z</time>
      </trkpt>
      <trkpt lat="45.68439" lon="5.68247">
        <ele>232</ele>
        <time>2017-09-03T17:54:34Z</time>
      </trkpt>
      <trkpt lat="45.68434" lon="5.68211">
        <ele>232</ele>
        <time>2017-09-03T17:54:34Z</time>
      </trkpt>
      <trkpt lat="45.68428" lon="5.6817">
        <ele>233</ele>
        <time>2017-09-03T17:54:34Z</time>
      </trkpt>
      <trkpt lat="45.68421" lon="5.68126">
        <ele>233</ele>
        <time>2017-09-03T17:54:34Z</time>
      </trkpt>
      <trkpt lat="45.68415" lon="5.68078">
        <ele>235</ele>
        <time>2017-09-03T17:54:50Z</time>
      </trkpt>
      <trkpt lat="45.68409" lon="5.68035">
        <ele>236</ele>
        <time>2017-09-03T17:54:50Z</time>
      </trkpt>
      <trkpt lat="45.68405" lon="5.67993">
        <ele>236</ele>
        <time>2017-09-03T17:54:50Z</time>
      </trkpt>
      <trkpt lat="45.68399" lon="5.67954">
        <ele>238</ele>
        <time>2017-09-03T17:54:50Z</time>
      </trkpt>
      <trkpt lat="45.68398" lon="5.67923">
        <ele>238</ele>
        <time>2017-09-03T17:55:06Z</time>
      </trkpt>
      <trkpt lat="45.68394" lon="5.67892">
        <ele>238</ele>
        <time>2017-09-03T17:55:06Z</time>
      </trkpt>
      <trkpt lat="45.6839" lon="5.67866">
        <ele>240</ele>
        <time>2017-09-03T17:55:06Z</time>
      </trkpt>
      <trkpt lat="45.6839" lon="5.67856">
        <ele>240</ele>
        <time>2017-09-03T17:55:06Z</time>
      </trkpt>
      <trkpt lat="45.68388" lon="5.67851">
        <ele>240</ele>
        <time>2017-09-03T17:55:22Z</time>
      </trkpt>
      <trkpt lat="45.68387" lon="5.67845">
        <ele>240</ele>
        <time>2017-09-03T17:55:22Z</time>
      </trkpt>
      <trkpt lat="45.68386" lon="5.67838">
        <ele>240</ele>
        <time>2017-09-03T17:55:22Z</time>
      </trkpt>
      <trkpt lat="45.68385" lon="5.6783">
        <ele>240</ele>
        <time>2017-09-03T17:55:22Z</time>
      </trkpt>
      <trkpt lat="45.68385" lon="5.67821">
        <ele>240</ele>
        <time>2017-09-03T17:55:38Z</time>
      </trkpt>
      <trkpt lat="45.68384" lon="5.67813">
        <ele>240</ele>
        <time>2017-09-03T17:55:38Z</time>
      </trkpt>
      <trkpt lat="45.68384" lon="5.67805">
        <ele>240</ele>
        <time>2017-09-03T17:55:38Z</time>
      </trkpt>
      <trkpt lat="45.68382" lon="5.67797">
        <ele>240</ele>
        <time>2017-09-03T17:55:38Z</time>
      </trkpt>
      <trkpt lat="45.68381" lon="5.67788">
        <ele>242</ele>
        <time>2017-09-03T17:55:54Z</time>
      </trkpt>
      <trkpt lat="45.6838" lon="5.6778">
        <ele>242</ele>
        <time>2017-09-03T17:55:54Z</time>
      </trkpt>
      <trkpt lat="45.68379" lon="5.67772">
        <ele>242</ele>
        <time>2017-09-03T17:55:54Z</time>
      </trkpt>
      <trkpt lat="45.68377" lon="5.67764">
        <ele>242</ele>
        <time>2017-09-03T17:55:54Z</time>
      </trkpt>
      <trkpt lat="45.68375" lon="5.67756">
        <ele>243</ele>
        <time>2017-09-03T17:56:10Z</time>
      </trkpt>
      <trkpt lat="45.68372" lon="5.67749">
        <ele>243</ele>
        <time>2017-09-03T17:56:10Z</time>
      </trkpt>
      <trkpt lat="45.68368" lon="5.67743">
        <ele>243</ele>
        <time>2017-09-03T17:56:10Z</time>
      </trkpt>
      <trkpt lat="45.68363" lon="5.67738">
        <ele>243</ele>
        <time>2017-09-03T17:56:10Z</time>
      </trkpt>
      <trkpt lat="45.68358" lon="5.67738">
        <ele>243</ele>
        <time>2017-09-03T17:56:26Z</time>
      </trkpt>
      <trkpt lat="45.68352" lon="5.67738">
        <ele>243</ele>
        <time>2017-09-03T17:56:26Z</time>
      </trkpt>
      <trkpt lat="45.68347" lon="5.67738">
        <ele>243</ele>
        <time>2017-09-03T17:56:26Z</time>
      </trkpt>
      <trkpt lat="45.68341" lon="5.67738">
        <ele>243</ele>
        <time>2017-09-03T17:56:26Z</time>
      </trkpt>
      <trkpt lat="45.68335" lon="5.67738">
        <ele>243</ele>
        <time>2017-09-03T17:56:42Z</time>
      </trkpt>
      <trkpt lat="45.68329" lon="5.6774">
        <ele>243</ele>
        <time>2017-09-03T17:56:42Z</time>
      </trkpt>
      <trkpt lat="45.68323" lon="5.67742">
        <ele>243</ele>
        <time>2017-09-03T17:56:42Z</time>
      </trkpt>
      <trkpt lat="45.68317" lon="5.67743">
        <ele>243</ele>
        <time>2017-09-03T17:56:42Z</time>
      </trkpt>
      <trkpt lat="45.68311" lon="5.67744">
        <ele>243</ele>
        <time>2017-09-03T17:56:58Z</time>
      </trkpt>
      <trkpt lat="45.68305" lon="5.67744">
        <ele>243</ele>
        <time>2017-09-03T17:56:58Z</time>
      </trkpt>
      <trkpt lat="45.683" lon="5.67744">
        <ele>243</ele>
        <time>2017-09-03T17:56:58Z</time>
      </trkpt>
      <trkpt lat="45.68294" lon="5.67745">
        <ele>243</ele>
        <time>2017-09-03T17:56:58Z</time>
      </trkpt>
      <trkpt lat="45.68288" lon="5.67745">
        <ele>242</ele>
        <time>2017-09-03T17:57:14Z</time>
      </trkpt>
      <trkpt lat="45.68282" lon="5.67745">
        <ele>242</ele>
        <time>2017-09-03T17:57:14Z</time>
      </trkpt>
      <trkpt lat="45.68276" lon="5.67744">
        <ele>242</ele>
        <time>2017-09-03T17:57:14Z</time>
      </trkpt>
      <trkpt lat="45.68271" lon="5.67744">
        <ele>242</ele>
        <time>2017-09-03T17:57:14Z</time>
      </trkpt>
      <trkpt lat="45.68264" lon="5.67745">
        <ele>242</ele>
        <time>2017-09-03T17:57:30Z</time>
      </trkpt>
      <trkpt lat="45.68258" lon="5.67746">
        <ele>242</ele>
        <time>2017-09-03T17:57:30Z</time>
      </trkpt>
      <trkpt lat="45.68253" lon="5.67745">
        <ele>242</ele>
        <time>2017-09-03T17:57:30Z</time>
      </trkpt>
      <trkpt lat="45.68247" lon="5.67745">
        <ele>242</ele>
        <time>2017-09-03T17:57:30Z</time>
      </trkpt>
      <trkpt lat="45.68241" lon="5.67746">
        <ele>242</ele>
        <time>2017-09-03T17:57:46Z</time>
      </trkpt>
      <trkpt lat="45.68236" lon="5.67747">
        <ele>242</ele>
        <time>2017-09-03T17:57:46Z</time>
      </trkpt>
      <trkpt lat="45.6823" lon="5.67747">
        <ele>242</ele>
        <time>2017-09-03T17:57:46Z</time>
      </trkpt>
      <trkpt lat="45.68224" lon="5.67748">
        <ele>242</ele>
        <time>2017-09-03T17:57:46Z</time>
      </trkpt>
      <trkpt lat="45.68218" lon="5.6775">
        <ele>242</ele>
        <time>2017-09-03T17:58:02Z</time>
      </trkpt>
      <trkpt lat="45.68213" lon="5.67749">
        <ele>242</ele>
        <time>2017-09-03T17:58:02Z</time>
      </trkpt>
      <trkpt lat="45.68208" lon="5.67749">
        <ele>241</ele>
        <time>2017-09-03T17:58:02Z</time>
      </trkpt>
      <trkpt lat="45.68202" lon="5.67749">
        <ele>241</ele>
        <time>2017-09-03T17:58:02Z</time>
      </trkpt>
      <trkpt lat="45.68196" lon="5.67749">
        <ele>241</ele>
        <time>2017-09-03T17:58:18Z</time>
      </trkpt>
      <trkpt lat="45.68191" lon="5.67748">
        <ele>241</ele>
        <time>2017-09-03T17:58:18Z</time>
      </trkpt>
      <trkpt lat="45.68185" lon="5.6775">
        <ele>241</ele>
        <time>2017-09-03T17:58:18Z</time>
      </trkpt>
      <trkpt lat="45.68182" lon="5.67756">
        <ele>241</ele>
        <time>2017-09-03T17:58:18Z</time>
      </trkpt>
      <trkpt lat="45.68181" lon="5.67764">
        <ele>241</ele>
        <time>2017-09-03T17:58:34Z</time>
      </trkpt>
      <trkpt lat="45.6818" lon="5.67772">
        <ele>241</ele>
        <time>2017-09-03T17:58:34Z</time>
      </trkpt>
      <trkpt lat="45.68179" lon="5.67778">
        <ele>241</ele>
        <time>2017-09-03T17:58:34Z</time>
      </trkpt>
      <trkpt lat="45.68177" lon="5.67788">
        <ele>241</ele>
        <time>2017-09-03T17:58:34Z</time>
      </trkpt>
      <trkpt lat="45.68172" lon="5.67792">
        <ele>243</ele>
        <time>2017-09-03T17:58:50Z</time>
      </trkpt>
      <trkpt lat="45.68167" lon="5.67795">
        <ele>243</ele>
        <time>2017-09-03T17:58:50Z</time>
      </trkpt>
      <trkpt lat="45.68162" lon="5.678">
        <ele>243</ele>
        <time>2017-09-03T17:58:50Z</time>
      </trkpt>
      <trkpt lat="45.68157" lon="5.67804">
        <ele>243</ele>
        <time>2017-09-03T17:58:50Z</time>
      </trkpt>
      <trkpt lat="45.68152" lon="5.67808">
        <ele>243</ele>
        <time>2017-09-03T17:59:06Z</time>
      </trkpt>
      <trkpt lat="45.68147" lon="5.67812">
        <ele>243</ele>
        <time>2017-09-03T17:59:06Z</time>
      </trkpt>
      <trkpt lat="45.68142" lon="5.67816">
        <ele>243</ele>
        <time>2017-09-03T17:59:06Z</time>
      </trkpt>
      <trkpt lat="45.68137" lon="5.6782">
        <ele>243</ele>
        <time>2017-09-03T17:59:06Z</time>
      </trkpt>
      <trkpt lat="45.68133" lon="5.67823">
        <ele>243</ele>
        <time>2017-09-03T17:59:22Z</time>
      </trkpt>
      <trkpt lat="45.68126" lon="5.67828">
        <ele>243</ele>
        <time>2017-09-03T17:59:22Z</time>
      </trkpt>
      <trkpt lat="45.68121" lon="5.67832">
        <ele>238</ele>
        <time>2017-09-03T17:59:22Z</time>
      </trkpt>
      <trkpt lat="45.68116" lon="5.67835">
        <ele>238</ele>
        <time>2017-09-03T17:59:22Z</time>
      </trkpt>
      <trkpt lat="45.68111" lon="5.67839">
        <ele>238</ele>
        <time>2017-09-03T17:59:38Z</time>
      </trkpt>
      <trkpt lat="45.68106" lon="5.67842">
        <ele>238</ele>
        <time>2017-09-03T17:59:38Z</time>
      </trkpt>
      <trkpt lat="45.68101" lon="5.67846">
        <ele>238</ele>
        <time>2017-09-03T17:59:38Z</time>
      </trkpt>
      <trkpt lat="45.68096" lon="5.67849">
        <ele>238</ele>
        <time>2017-09-03T17:59:38Z</time>
      </trkpt>
      <trkpt lat="45.6809" lon="5.67852">
        <ele>238</ele>
        <time>2017-09-03T17:59:54Z</time>
      </trkpt>
      <trkpt lat="45.68086" lon="5.67856">
        <ele>238</ele>
        <time>2017-09-03T17:59:54Z</time>
      </trkpt>
      <trkpt lat="45.68082" lon="5.6786">
        <ele>238</ele>
        <time>2017-09-03T17:59:54Z</time>
      </trkpt>
      <trkpt lat="45.68077" lon="5.67862">
        <ele>238</ele>
        <time>2017-09-03T17:59:54Z</time>
      </trkpt>
      <trkpt lat="45.68072" lon="5.67864">
        <ele>238</ele>
        <time>2017-09-03T18:00:10Z</time>
      </trkpt>
      <trkpt lat="45.68067" lon="5.67867">
        <ele>238</ele>
        <time>2017-09-03T18:00:10Z</time>
      </trkpt>
      <trkpt lat="45.68062" lon="5.6787">
        <ele>238</ele>
        <time>2017-09-03T18:00:10Z</time>
      </trkpt>
      <trkpt lat="45.68058" lon="5.67873">
        <ele>238</ele>
        <time>2017-09-03T18:00:10Z</time>
      </trkpt>
      <trkpt lat="45.68053" lon="5.67877">
        <ele>240</ele>
        <time>2017-09-03T18:00:26Z</time>
      </trkpt>
      <trkpt lat="45.68049" lon="5.67879">
        <ele>240</ele>
        <time>2017-09-03T18:00:26Z</time>
      </trkpt>
      <trkpt lat="45.68044" lon="5.67882">
        <ele>240</ele>
        <time>2017-09-03T18:00:26Z</time>
      </trkpt>
      <trkpt lat="45.68039" lon="5.67884">
        <ele>235</ele>
        <time>2017-09-03T18:00:26Z</time>
      </trkpt>
      <trkpt lat="45.68035" lon="5.67887">
        <ele>235</ele>
        <time>2017-09-03T18:00:42Z</time>
      </trkpt>
      <trkpt lat="45.68031" lon="5.67891">
        <ele>235</ele>
        <time>2017-09-03T18:00:42Z</time>
      </trkpt>
      <trkpt lat="45.68026" lon="5.67895">
        <ele>235</ele>
        <time>2017-09-03T18:00:42Z</time>
      </trkpt>
      <trkpt lat="45.68025" lon="5.679">
        <ele>235</ele>
        <time>2017-09-03T18:00:42Z</time>
      </trkpt>
      <trkpt lat="45.68018" lon="5.67906">
        <ele>235</ele>
        <time>2017-09-03T18:02:14Z</time>
      </trkpt>
      <trkpt lat="45.68016" lon="5.67908">
        <ele>235</ele>
        <time>2017-09-03T18:02:14Z</time>
      </trkpt>
      <trkpt lat="45.68014" lon="5.67911">
        <ele>235</ele>
        <time>2017-09-03T18:02:14Z</time>
      </trkpt>
      <trkpt lat="45.68012" lon="5.67913">
        <ele>235</ele>
        <time>2017-09-03T18:02:14Z</time>
      </trkpt>
      <trkpt lat="45.68011" lon="5.67914">
        <ele>235</ele>
        <time>2017-09-03T18:02:14Z</time>
      </trkpt>
      <trkpt lat="45.68007" lon="5.67916">
        <ele>235</ele>
        <time>2017-09-03T18:02:30Z</time>
      </trkpt>
      <trkpt lat="45.68002" lon="5.67919">
        <ele>235</ele>
        <time>2017-09-03T18:02:30Z</time>
      </trkpt>
      <trkpt lat="45.67997" lon="5.67923">
        <ele>235</ele>
        <time>2017-09-03T18:02:30Z</time>
      </trkpt>
      <trkpt lat="45.67991" lon="5.67928">
        <ele>235</ele>
        <time>2017-09-03T18:02:30Z</time>
      </trkpt>
      <trkpt lat="45.67986" lon="5.67932">
        <ele>235</ele>
        <time>2017-09-03T18:02:46Z</time>
      </trkpt>
      <trkpt lat="45.67981" lon="5.67936">
        <ele>235</ele>
        <time>2017-09-03T18:02:46Z</time>
      </trkpt>
      <trkpt lat="45.67976" lon="5.6794">
        <ele>235</ele>
        <time>2017-09-03T18:02:46Z</time>
      </trkpt>
      <trkpt lat="45.67971" lon="5.67944">
        <ele>235</ele>
        <time>2017-09-03T18:02:46Z</time>
      </trkpt>
      <trkpt lat="45.67962" lon="5.67951">
        <ele>235</ele>
        <time>2017-09-03T18:03:10Z</time>
      </trkpt>
      <trkpt lat="45.6796" lon="5.6795">
        <ele>235</ele>
        <time>2017-09-03T18:03:10Z</time>
      </trkpt>
      <trkpt lat="45.6796" lon="5.67951">
        <ele>235</ele>
        <time>2017-09-03T18:03:10Z</time>
      </trkpt>
      <trkpt lat="45.6796" lon="5.67951">
        <ele>235</ele>
        <time>2017-09-03T18:03:10Z</time>
      </trkpt>
      <trkpt lat="45.67958" lon="5.67951">
        <ele>231</ele>
        <time>2017-09-03T18:03:10Z</time>
      </trkpt>
      <trkpt lat="45.67954" lon="5.67955">
        <ele>231</ele>
        <time>2017-09-03T18:03:26Z</time>
      </trkpt>
      <trkpt lat="45.67949" lon="5.67958">
        <ele>231</ele>
        <time>2017-09-03T18:03:26Z</time>
      </trkpt>
      <trkpt lat="45.67945" lon="5.67963">
        <ele>230</ele>
        <time>2017-09-03T18:03:26Z</time>
      </trkpt>
      <trkpt lat="45.67941" lon="5.67967">
        <ele>230</ele>
        <time>2017-09-03T18:03:26Z</time>
      </trkpt>
      <trkpt lat="45.67939" lon="5.67968">
        <ele>230</ele>
        <time>2017-09-03T18:03:42Z</time>
      </trkpt>
      <trkpt lat="45.67937" lon="5.67969">
        <ele>230</ele>
        <time>2017-09-03T18:03:42Z</time>
      </trkpt>
      <trkpt lat="45.67933" lon="5.67973">
        <ele>230</ele>
        <time>2017-09-03T18:03:42Z</time>
      </trkpt>
      <trkpt lat="45.67928" lon="5.67977">
        <ele>230</ele>
        <time>2017-09-03T18:03:42Z</time>
      </trkpt>
      <trkpt lat="45.67922" lon="5.67982">
        <ele>230</ele>
        <time>2017-09-03T18:03:58Z</time>
      </trkpt>
      <trkpt lat="45.67916" lon="5.67989">
        <ele>230</ele>
        <time>2017-09-03T18:03:58Z</time>
      </trkpt>
      <trkpt lat="45.67911" lon="5.67995">
        <ele>230</ele>
        <time>2017-09-03T18:03:58Z</time>
      </trkpt>
      <trkpt lat="45.67907" lon="5.67999">
        <ele>230</ele>
        <time>2017-09-03T18:03:58Z</time>
      </trkpt>
      <trkpt lat="45.67902" lon="5.68003">
        <ele>230</ele>
        <time>2017-09-03T18:04:14Z</time>
      </trkpt>
      <trkpt lat="45.67896" lon="5.68008">
        <ele>230</ele>
        <time>2017-09-03T18:04:14Z</time>
      </trkpt>
      <trkpt lat="45.67892" lon="5.68013">
        <ele>230</ele>
        <time>2017-09-03T18:04:14Z</time>
      </trkpt>
      <trkpt lat="45.67887" lon="5.68018">
        <ele>230</ele>
        <time>2017-09-03T18:04:14Z</time>
      </trkpt>
      <trkpt lat="45.67882" lon="5.68024">
        <ele>230</ele>
        <time>2017-09-03T18:04:30Z</time>
      </trkpt>
      <trkpt lat="45.67877" lon="5.68029">
        <ele>230</ele>
        <time>2017-09-03T18:04:30Z</time>
      </trkpt>
      <trkpt lat="45.67873" lon="5.68034">
        <ele>227</ele>
        <time>2017-09-03T18:04:30Z</time>
      </trkpt>
      <trkpt lat="45.67869" lon="5.68038">
        <ele>227</ele>
        <time>2017-09-03T18:04:30Z</time>
      </trkpt>
      <trkpt lat="45.67865" lon="5.68043">
        <ele>224</ele>
        <time>2017-09-03T18:04:46Z</time>
      </trkpt>
      <trkpt lat="45.67861" lon="5.68049">
        <ele>224</ele>
        <time>2017-09-03T18:04:46Z</time>
      </trkpt>
      <trkpt lat="45.67856" lon="5.68054">
        <ele>224</ele>
        <time>2017-09-03T18:04:46Z</time>
      </trkpt>
      <trkpt lat="45.6785" lon="5.68053">
        <ele>224</ele>
        <time>2017-09-03T18:04:46Z</time>
      </trkpt>
      <trkpt lat="45.67846" lon="5.68047">
        <ele>224</ele>
        <time>2017-09-03T18:05:02Z</time>
      </trkpt>
      <trkpt lat="45.67843" lon="5.68039">
        <ele>227</ele>
        <time>2017-09-03T18:05:02Z</time>
      </trkpt>
      <trkpt lat="45.67841" lon="5.68032">
        <ele>227</ele>
        <time>2017-09-03T18:05:02Z</time>
      </trkpt>
      <trkpt lat="45.67837" lon="5.68025">
        <ele>227</ele>
        <time>2017-09-03T18:05:02Z</time>
      </trkpt>
      <trkpt lat="45.67834" lon="5.68018">
        <ele>227</ele>
        <time>2017-09-03T18:05:18Z</time>
      </trkpt>
      <trkpt lat="45.6783" lon="5.68012">
        <ele>227</ele>
        <time>2017-09-03T18:05:18Z</time>
      </trkpt>
      <trkpt lat="45.67826" lon="5.68007">
        <ele>227</ele>
        <time>2017-09-03T18:05:18Z</time>
      </trkpt>
      <trkpt lat="45.67822" lon="5.68001">
        <ele>227</ele>
        <time>2017-09-03T18:05:18Z</time>
      </trkpt>
      <trkpt lat="45.67818" lon="5.67995">
        <ele>227</ele>
        <time>2017-09-03T18:05:34Z</time>
      </trkpt>
      <trkpt lat="45.67813" lon="5.6799">
        <ele>227</ele>
        <time>2017-09-03T18:05:34Z</time>
      </trkpt>
      <trkpt lat="45.67808" lon="5.67985">
        <ele>227</ele>
        <time>2017-09-03T18:05:34Z</time>
      </trkpt>
      <trkpt lat="45.67803" lon="5.6798">
        <ele>227</ele>
        <time>2017-09-03T18:05:34Z</time>
      </trkpt>
      <trkpt lat="45.67799" lon="5.67974">
        <ele>227</ele>
        <time>2017-09-03T18:05:50Z</time>
      </trkpt>
      <trkpt lat="45.67795" lon="5.67969">
        <ele>227</ele>
        <time>2017-09-03T18:05:50Z</time>
      </trkpt>
      <trkpt lat="45.67791" lon="5.67965">
        <ele>224</ele>
        <time>2017-09-03T18:05:50Z</time>
      </trkpt>
      <trkpt lat="45.67787" lon="5.6796">
        <ele>224</ele>
        <time>2017-09-03T18:05:50Z</time>
      </trkpt>
      <trkpt lat="45.67782" lon="5.67955">
        <ele>228</ele>
        <time>2017-09-03T18:06:06Z</time>
      </trkpt>
      <trkpt lat="45.67778" lon="5.67951">
        <ele>228</ele>
        <time>2017-09-03T18:06:06Z</time>
      </trkpt>
      <trkpt lat="45.67773" lon="5.67948">
        <ele>228</ele>
        <time>2017-09-03T18:06:06Z</time>
      </trkpt>
      <trkpt lat="45.67768" lon="5.67947">
        <ele>228</ele>
        <time>2017-09-03T18:06:06Z</time>
      </trkpt>
      <trkpt lat="45.67763" lon="5.67946">
        <ele>228</ele>
        <time>2017-09-03T18:06:22Z</time>
      </trkpt>
      <trkpt lat="45.67758" lon="5.67943">
        <ele>228</ele>
        <time>2017-09-03T18:06:22Z</time>
      </trkpt>
      <trkpt lat="45.67752" lon="5.67941">
        <ele>228</ele>
        <time>2017-09-03T18:06:22Z</time>
      </trkpt>
      <trkpt lat="45.67747" lon="5.67942">
        <ele>228</ele>
        <time>2017-09-03T18:06:22Z</time>
      </trkpt>
      <trkpt lat="45.67742" lon="5.67942">
        <ele>228</ele>
        <time>2017-09-03T18:06:38Z</time>
      </trkpt>
      <trkpt lat="45.67736" lon="5.67941">
        <ele>228</ele>
        <time>2017-09-03T18:06:38Z</time>
      </trkpt>
      <trkpt lat="45.67731" lon="5.67939">
        <ele>228</ele>
        <time>2017-09-03T18:06:38Z</time>
      </trkpt>
      <trkpt lat="45.67726" lon="5.67941">
        <ele>228</ele>
        <time>2017-09-03T18:06:38Z</time>
      </trkpt>
      <trkpt lat="45.67723" lon="5.67946">
        <ele>228</ele>
        <time>2017-09-03T18:06:54Z</time>
      </trkpt>
      <trkpt lat="45.67721" lon="5.67954">
        <ele>228</ele>
        <time>2017-09-03T18:06:54Z</time>
      </trkpt>
      <trkpt lat="45.67718" lon="5.67959">
        <ele>224</ele>
        <time>2017-09-03T18:06:54Z</time>
      </trkpt>
      <trkpt lat="45.67715" lon="5.67963">
        <ele>224</ele>
        <time>2017-09-03T18:06:54Z</time>
      </trkpt>
      <trkpt lat="45.67711" lon="5.67962">
        <ele>224</ele>
        <time>2017-09-03T18:07:10Z</time>
      </trkpt>
      <trkpt lat="45.67707" lon="5.6796">
        <ele>223</ele>
        <time>2017-09-03T18:07:10Z</time>
      </trkpt>
      <trkpt lat="45.67702" lon="5.6796">
        <ele>223</ele>
        <time>2017-09-03T18:07:10Z</time>
      </trkpt>
      <trkpt lat="45.67697" lon="5.6796">
        <ele>223</ele>
        <time>2017-09-03T18:07:10Z</time>
      </trkpt>
      <trkpt lat="45.67691" lon="5.67959">
        <ele>223</ele>
        <time>2017-09-03T18:07:26Z</time>
      </trkpt>
      <trkpt lat="45.67685" lon="5.67957">
        <ele>227</ele>
        <time>2017-09-03T18:07:26Z</time>
      </trkpt>
      <trkpt lat="45.6768" lon="5.67954">
        <ele>227</ele>
        <time>2017-09-03T18:07:26Z</time>
      </trkpt>
      <trkpt lat="45.67674" lon="5.67952">
        <ele>227</ele>
        <time>2017-09-03T18:07:26Z</time>
      </trkpt>
      <trkpt lat="45.67668" lon="5.6795">
        <ele>227</ele>
        <time>2017-09-03T18:07:42Z</time>
      </trkpt>
      <trkpt lat="45.67663" lon="5.67949">
        <ele>227</ele>
        <time>2017-09-03T18:07:42Z</time>
      </trkpt>
      <trkpt lat="45.67658" lon="5.67947">
        <ele>227</ele>
        <time>2017-09-03T18:07:42Z</time>
      </trkpt>
      <trkpt lat="45.67652" lon="5.67946">
        <ele>227</ele>
        <time>2017-09-03T18:07:42Z</time>
      </trkpt>
      <trkpt lat="45.67647" lon="5.67944">
        <ele>227</ele>
        <time>2017-09-03T18:07:58Z</time>
      </trkpt>
      <trkpt lat="45.67641" lon="5.67943">
        <ele>227</ele>
        <time>2017-09-03T18:07:58Z</time>
      </trkpt>
      <trkpt lat="45.67635" lon="5.67941">
        <ele>227</ele>
        <time>2017-09-03T18:07:58Z</time>
      </trkpt>
      <trkpt lat="45.6763" lon="5.6794">
        <ele>227</ele>
        <time>2017-09-03T18:07:58Z</time>
      </trkpt>
    </trkseg>
  </trk>
</gpx>